<?xml version="1.0" encoding="UTF-8" standalone="no" ?>
<gpx xmlns="http://www.topografix.com/GPX/1/1" xmlns:xsi="http://www.w3.org/2001/XMLSchema-instance" xsi:schemaLocation="http://www.topografix.com/GPX/1/1 http://www.topografix.com/GPX/1/1/gpx.xsd" version="1.1" creator="VisuGPX - https://www.visugpx.com">
  <metadata>
    <name>Rando Vtt Ligugé 2022</name>
    <desc><![CDATA[Balisage à revoir! ]]></desc>
  </metadata>
  <trk>
    <name><![CDATA[Rando Vtt Ligugé 2022_1]]></name>
    <trkseg>
      <trkpt lat="46.5329" lon="0.33571">
        <ele>110</ele>
        <time>2022-03-06T07:45:07Z</time>
      </trkpt>
      <trkpt lat="46.53292" lon="0.33569">
        <ele>110</ele>
        <time>2022-03-06T07:45:15Z</time>
      </trkpt>
      <trkpt lat="46.53292" lon="0.33565">
        <ele>110</ele>
        <time>2022-03-06T07:45:22Z</time>
      </trkpt>
      <trkpt lat="46.53293" lon="0.33551">
        <ele>110.2</ele>
        <time>2022-03-06T07:45:27Z</time>
      </trkpt>
      <trkpt lat="46.53294" lon="0.3353">
        <ele>110.4</ele>
        <time>2022-03-06T07:45:33Z</time>
      </trkpt>
      <trkpt lat="46.53292" lon="0.33512">
        <ele>111</ele>
        <time>2022-03-06T07:45:38Z</time>
      </trkpt>
      <trkpt lat="46.53292" lon="0.33504">
        <ele>111.4</ele>
        <time>2022-03-06T07:45:40Z</time>
      </trkpt>
      <trkpt lat="46.53286" lon="0.33476">
        <ele>111.8</ele>
        <time>2022-03-06T07:45:47Z</time>
      </trkpt>
      <trkpt lat="46.53282" lon="0.33461">
        <ele>112.2</ele>
        <time>2022-03-06T07:45:51Z</time>
      </trkpt>
      <trkpt lat="46.53279" lon="0.3345">
        <ele>112.6</ele>
        <time>2022-03-06T07:45:54Z</time>
      </trkpt>
      <trkpt lat="46.53275" lon="0.3343">
        <ele>113.2</ele>
        <time>2022-03-06T07:45:59Z</time>
      </trkpt>
      <trkpt lat="46.53274" lon="0.33422">
        <ele>113.4</ele>
        <time>2022-03-06T07:46:01Z</time>
      </trkpt>
      <trkpt lat="46.5327" lon="0.334">
        <ele>114.2</ele>
        <time>2022-03-06T07:46:06Z</time>
      </trkpt>
      <trkpt lat="46.53265" lon="0.33381">
        <ele>114.8</ele>
        <time>2022-03-06T07:46:10Z</time>
      </trkpt>
      <trkpt lat="46.53262" lon="0.33367">
        <ele>115.2</ele>
        <time>2022-03-06T07:46:13Z</time>
      </trkpt>
      <trkpt lat="46.53256" lon="0.33339">
        <ele>115.6</ele>
        <time>2022-03-06T07:46:19Z</time>
      </trkpt>
      <trkpt lat="46.53245" lon="0.33309">
        <ele>116</ele>
        <time>2022-03-06T07:46:26Z</time>
      </trkpt>
      <trkpt lat="46.53243" lon="0.33303">
        <ele>116.6</ele>
        <time>2022-03-06T07:46:28Z</time>
      </trkpt>
      <trkpt lat="46.53238" lon="0.33295">
        <ele>117.2</ele>
        <time>2022-03-06T07:46:31Z</time>
      </trkpt>
      <trkpt lat="46.53232" lon="0.33287">
        <ele>117.6</ele>
        <time>2022-03-06T07:46:34Z</time>
      </trkpt>
      <trkpt lat="46.53226" lon="0.33278">
        <ele>118.4</ele>
        <time>2022-03-06T07:46:37Z</time>
      </trkpt>
      <trkpt lat="46.53222" lon="0.33273">
        <ele>118.6</ele>
        <time>2022-03-06T07:46:39Z</time>
      </trkpt>
      <trkpt lat="46.53218" lon="0.33268">
        <ele>119.2</ele>
        <time>2022-03-06T07:46:41Z</time>
      </trkpt>
      <trkpt lat="46.53214" lon="0.33266">
        <ele>119.6</ele>
        <time>2022-03-06T07:46:43Z</time>
      </trkpt>
      <trkpt lat="46.53212" lon="0.33268">
        <ele>119.8</ele>
        <time>2022-03-06T07:46:44Z</time>
      </trkpt>
      <trkpt lat="46.53207" lon="0.33278">
        <ele>119.8</ele>
        <time>2022-03-06T07:46:48Z</time>
      </trkpt>
      <trkpt lat="46.53201" lon="0.33292">
        <ele>119.6</ele>
        <time>2022-03-06T07:46:52Z</time>
      </trkpt>
      <trkpt lat="46.53198" lon="0.333">
        <ele>119.4</ele>
        <time>2022-03-06T07:46:54Z</time>
      </trkpt>
      <trkpt lat="46.53183" lon="0.33319">
        <ele>118.6</ele>
        <time>2022-03-06T07:47:00Z</time>
      </trkpt>
      <trkpt lat="46.53181" lon="0.33321">
        <ele>118.4</ele>
        <time>2022-03-06T07:47:01Z</time>
      </trkpt>
      <trkpt lat="46.53171" lon="0.3333">
        <ele>118</ele>
        <time>2022-03-06T07:47:04Z</time>
      </trkpt>
      <trkpt lat="46.53166" lon="0.33333">
        <ele>117.8</ele>
        <time>2022-03-06T07:47:05Z</time>
      </trkpt>
      <trkpt lat="46.53149" lon="0.33343">
        <ele>117.6</ele>
        <time>2022-03-06T07:47:08Z</time>
      </trkpt>
      <trkpt lat="46.53136" lon="0.33352">
        <ele>117.4</ele>
        <time>2022-03-06T07:47:11Z</time>
      </trkpt>
      <trkpt lat="46.53132" lon="0.33355">
        <ele>117</ele>
        <time>2022-03-06T07:47:12Z</time>
      </trkpt>
      <trkpt lat="46.53125" lon="0.3336">
        <ele>116.6</ele>
        <time>2022-03-06T07:47:14Z</time>
      </trkpt>
      <trkpt lat="46.53121" lon="0.33362">
        <ele>116.6</ele>
        <time>2022-03-06T07:47:15Z</time>
      </trkpt>
      <trkpt lat="46.53103" lon="0.33367">
        <ele>116.2</ele>
        <time>2022-03-06T07:47:18Z</time>
      </trkpt>
      <trkpt lat="46.53091" lon="0.33371">
        <ele>116</ele>
        <time>2022-03-06T07:47:20Z</time>
      </trkpt>
      <trkpt lat="46.53074" lon="0.33383">
        <ele>115.6</ele>
        <time>2022-03-06T07:47:23Z</time>
      </trkpt>
      <trkpt lat="46.5307" lon="0.33386">
        <ele>115</ele>
        <time>2022-03-06T07:47:24Z</time>
      </trkpt>
      <trkpt lat="46.5305" lon="0.33396">
        <ele>113.8</ele>
        <time>2022-03-06T07:47:28Z</time>
      </trkpt>
      <trkpt lat="46.53043" lon="0.33398">
        <ele>113.2</ele>
        <time>2022-03-06T07:47:29Z</time>
      </trkpt>
      <trkpt lat="46.53037" lon="0.33402">
        <ele>112.4</ele>
        <time>2022-03-06T07:47:30Z</time>
      </trkpt>
      <trkpt lat="46.53024" lon="0.3341">
        <ele>111.6</ele>
        <time>2022-03-06T07:47:32Z</time>
      </trkpt>
      <trkpt lat="46.53017" lon="0.33413">
        <ele>111.4</ele>
        <time>2022-03-06T07:47:33Z</time>
      </trkpt>
      <trkpt lat="46.53004" lon="0.3342">
        <ele>110.4</ele>
        <time>2022-03-06T07:47:35Z</time>
      </trkpt>
      <trkpt lat="46.52998" lon="0.33422">
        <ele>109.8</ele>
        <time>2022-03-06T07:47:36Z</time>
      </trkpt>
      <trkpt lat="46.52992" lon="0.33422">
        <ele>109.4</ele>
        <time>2022-03-06T07:47:37Z</time>
      </trkpt>
      <trkpt lat="46.52986" lon="0.33421">
        <ele>109.2</ele>
        <time>2022-03-06T07:47:38Z</time>
      </trkpt>
      <trkpt lat="46.5298" lon="0.33421">
        <ele>108.4</ele>
        <time>2022-03-06T07:47:39Z</time>
      </trkpt>
      <trkpt lat="46.52975" lon="0.33422">
        <ele>107.2</ele>
        <time>2022-03-06T07:47:40Z</time>
      </trkpt>
      <trkpt lat="46.52966" lon="0.33422">
        <ele>106.2</ele>
        <time>2022-03-06T07:47:42Z</time>
      </trkpt>
      <trkpt lat="46.52962" lon="0.3342">
        <ele>105.6</ele>
        <time>2022-03-06T07:47:43Z</time>
      </trkpt>
      <trkpt lat="46.5296" lon="0.33418">
        <ele>105.4</ele>
        <time>2022-03-06T07:47:44Z</time>
      </trkpt>
      <trkpt lat="46.52956" lon="0.33413">
        <ele>105.2</ele>
        <time>2022-03-06T07:47:46Z</time>
      </trkpt>
      <trkpt lat="46.52955" lon="0.3341">
        <ele>105.2</ele>
        <time>2022-03-06T07:47:47Z</time>
      </trkpt>
      <trkpt lat="46.52952" lon="0.33392">
        <ele>106</ele>
        <time>2022-03-06T07:47:53Z</time>
      </trkpt>
      <trkpt lat="46.52951" lon="0.33389">
        <ele>106.2</ele>
        <time>2022-03-06T07:47:54Z</time>
      </trkpt>
      <trkpt lat="46.52949" lon="0.33379">
        <ele>107.4</ele>
        <time>2022-03-06T07:47:57Z</time>
      </trkpt>
      <trkpt lat="46.52947" lon="0.33373">
        <ele>108</ele>
        <time>2022-03-06T07:47:59Z</time>
      </trkpt>
      <trkpt lat="46.52946" lon="0.3337">
        <ele>108.4</ele>
        <time>2022-03-06T07:48:00Z</time>
      </trkpt>
      <trkpt lat="46.52942" lon="0.33356">
        <ele>109.6</ele>
        <time>2022-03-06T07:48:05Z</time>
      </trkpt>
      <trkpt lat="46.52941" lon="0.33345">
        <ele>109.8</ele>
        <time>2022-03-06T07:48:08Z</time>
      </trkpt>
      <trkpt lat="46.52939" lon="0.33327">
        <ele>110.8</ele>
        <time>2022-03-06T07:48:13Z</time>
      </trkpt>
      <trkpt lat="46.52937" lon="0.33318">
        <ele>111.6</ele>
        <time>2022-03-06T07:48:16Z</time>
      </trkpt>
      <trkpt lat="46.52936" lon="0.33314">
        <ele>111.8</ele>
        <time>2022-03-06T07:48:17Z</time>
      </trkpt>
      <trkpt lat="46.52934" lon="0.33294">
        <ele>112.4</ele>
        <time>2022-03-06T07:48:22Z</time>
      </trkpt>
      <trkpt lat="46.52924" lon="0.33264">
        <ele>113</ele>
        <time>2022-03-06T07:48:28Z</time>
      </trkpt>
      <trkpt lat="46.52917" lon="0.33241">
        <ele>113.8</ele>
        <time>2022-03-06T07:48:34Z</time>
      </trkpt>
      <trkpt lat="46.52912" lon="0.33214">
        <ele>114</ele>
        <time>2022-03-06T07:48:39Z</time>
      </trkpt>
      <trkpt lat="46.52911" lon="0.33209">
        <ele>114.2</ele>
        <time>2022-03-06T07:48:40Z</time>
      </trkpt>
      <trkpt lat="46.52908" lon="0.33191">
        <ele>114.4</ele>
        <time>2022-03-06T07:48:44Z</time>
      </trkpt>
      <trkpt lat="46.52902" lon="0.33164">
        <ele>114.8</ele>
        <time>2022-03-06T07:48:51Z</time>
      </trkpt>
      <trkpt lat="46.529" lon="0.33148">
        <ele>114.6</ele>
        <time>2022-03-06T07:48:54Z</time>
      </trkpt>
      <trkpt lat="46.52897" lon="0.33133">
        <ele>114.4</ele>
        <time>2022-03-06T07:48:57Z</time>
      </trkpt>
      <trkpt lat="46.5289" lon="0.3309">
        <ele>114.4</ele>
        <time>2022-03-06T07:49:04Z</time>
      </trkpt>
      <trkpt lat="46.52885" lon="0.33065">
        <ele>114</ele>
        <time>2022-03-06T07:49:08Z</time>
      </trkpt>
      <trkpt lat="46.52882" lon="0.33052">
        <ele>114.4</ele>
        <time>2022-03-06T07:49:10Z</time>
      </trkpt>
      <trkpt lat="46.52881" lon="0.33046">
        <ele>114.4</ele>
        <time>2022-03-06T07:49:11Z</time>
      </trkpt>
      <trkpt lat="46.52878" lon="0.33018">
        <ele>115</ele>
        <time>2022-03-06T07:49:16Z</time>
      </trkpt>
      <trkpt lat="46.52877" lon="0.33013">
        <ele>115.4</ele>
        <time>2022-03-06T07:49:17Z</time>
      </trkpt>
      <trkpt lat="46.52873" lon="0.32988">
        <ele>116.4</ele>
        <time>2022-03-06T07:49:23Z</time>
      </trkpt>
      <trkpt lat="46.52871" lon="0.32966">
        <ele>117.4</ele>
        <time>2022-03-06T07:49:27Z</time>
      </trkpt>
      <trkpt lat="46.52871" lon="0.32962">
        <ele>117.6</ele>
        <time>2022-03-06T07:49:28Z</time>
      </trkpt>
      <trkpt lat="46.52869" lon="0.32941">
        <ele>118.4</ele>
        <time>2022-03-06T07:49:33Z</time>
      </trkpt>
      <trkpt lat="46.52868" lon="0.32937">
        <ele>118.8</ele>
        <time>2022-03-06T07:49:34Z</time>
      </trkpt>
      <trkpt lat="46.52862" lon="0.32917">
        <ele>119.4</ele>
        <time>2022-03-06T07:49:39Z</time>
      </trkpt>
      <trkpt lat="46.5286" lon="0.32908">
        <ele>119.6</ele>
        <time>2022-03-06T07:49:41Z</time>
      </trkpt>
      <trkpt lat="46.52853" lon="0.32885">
        <ele>120</ele>
        <time>2022-03-06T07:49:46Z</time>
      </trkpt>
      <trkpt lat="46.52844" lon="0.3286">
        <ele>120.4</ele>
        <time>2022-03-06T07:49:52Z</time>
      </trkpt>
      <trkpt lat="46.52844" lon="0.32856">
        <ele>120.6</ele>
        <time>2022-03-06T07:49:53Z</time>
      </trkpt>
      <trkpt lat="46.52842" lon="0.32833">
        <ele>121.2</ele>
        <time>2022-03-06T07:49:58Z</time>
      </trkpt>
      <trkpt lat="46.52842" lon="0.32815">
        <ele>121.6</ele>
        <time>2022-03-06T07:50:02Z</time>
      </trkpt>
      <trkpt lat="46.52838" lon="0.32791">
        <ele>122</ele>
        <time>2022-03-06T07:50:07Z</time>
      </trkpt>
      <trkpt lat="46.52836" lon="0.3278">
        <ele>122</ele>
        <time>2022-03-06T07:50:09Z</time>
      </trkpt>
      <trkpt lat="46.52829" lon="0.32755">
        <ele>121.8</ele>
        <time>2022-03-06T07:50:14Z</time>
      </trkpt>
      <trkpt lat="46.52828" lon="0.32748">
        <ele>122</ele>
        <time>2022-03-06T07:50:15Z</time>
      </trkpt>
      <trkpt lat="46.52824" lon="0.32715">
        <ele>121.8</ele>
        <time>2022-03-06T07:50:21Z</time>
      </trkpt>
      <trkpt lat="46.52821" lon="0.3269">
        <ele>122</ele>
        <time>2022-03-06T07:50:26Z</time>
      </trkpt>
      <trkpt lat="46.52819" lon="0.32686">
        <ele>122</ele>
        <time>2022-03-06T07:50:27Z</time>
      </trkpt>
      <trkpt lat="46.52814" lon="0.32682">
        <ele>122.2</ele>
        <time>2022-03-06T07:50:29Z</time>
      </trkpt>
      <trkpt lat="46.5281" lon="0.32682">
        <ele>122.2</ele>
        <time>2022-03-06T07:50:30Z</time>
      </trkpt>
      <trkpt lat="46.52782" lon="0.32686">
        <ele>121</ele>
        <time>2022-03-06T07:50:36Z</time>
      </trkpt>
      <trkpt lat="46.52777" lon="0.32687">
        <ele>120.6</ele>
        <time>2022-03-06T07:50:37Z</time>
      </trkpt>
      <trkpt lat="46.52757" lon="0.32684">
        <ele>119.6</ele>
        <time>2022-03-06T07:50:41Z</time>
      </trkpt>
      <trkpt lat="46.52755" lon="0.32682">
        <ele>119.4</ele>
        <time>2022-03-06T07:50:42Z</time>
      </trkpt>
      <trkpt lat="46.52753" lon="0.3268">
        <ele>119.2</ele>
        <time>2022-03-06T07:50:43Z</time>
      </trkpt>
      <trkpt lat="46.52749" lon="0.32672">
        <ele>118.8</ele>
        <time>2022-03-06T07:50:46Z</time>
      </trkpt>
      <trkpt lat="46.52745" lon="0.32644">
        <ele>118.8</ele>
        <time>2022-03-06T07:50:54Z</time>
      </trkpt>
      <trkpt lat="46.52739" lon="0.32616">
        <ele>118.8</ele>
        <time>2022-03-06T07:50:59Z</time>
      </trkpt>
      <trkpt lat="46.52738" lon="0.3261">
        <ele>119</ele>
        <time>2022-03-06T07:51:00Z</time>
      </trkpt>
      <trkpt lat="46.52737" lon="0.32587">
        <ele>119.6</ele>
        <time>2022-03-06T07:51:04Z</time>
      </trkpt>
      <trkpt lat="46.52737" lon="0.32581">
        <ele>119.6</ele>
        <time>2022-03-06T07:51:05Z</time>
      </trkpt>
      <trkpt lat="46.52737" lon="0.32547">
        <ele>120.6</ele>
        <time>2022-03-06T07:51:10Z</time>
      </trkpt>
      <trkpt lat="46.52737" lon="0.32534">
        <ele>121.2</ele>
        <time>2022-03-06T07:51:12Z</time>
      </trkpt>
      <trkpt lat="46.52738" lon="0.32506">
        <ele>121.6</ele>
        <time>2022-03-06T07:51:16Z</time>
      </trkpt>
      <trkpt lat="46.52737" lon="0.32492">
        <ele>122.2</ele>
        <time>2022-03-06T07:51:18Z</time>
      </trkpt>
      <trkpt lat="46.52738" lon="0.32479">
        <ele>122.6</ele>
        <time>2022-03-06T07:51:20Z</time>
      </trkpt>
      <trkpt lat="46.52737" lon="0.32459">
        <ele>123</ele>
        <time>2022-03-06T07:51:23Z</time>
      </trkpt>
      <trkpt lat="46.52739" lon="0.32421">
        <ele>123.4</ele>
        <time>2022-03-06T07:51:29Z</time>
      </trkpt>
      <trkpt lat="46.52739" lon="0.32392">
        <ele>123.6</ele>
        <time>2022-03-06T07:51:33Z</time>
      </trkpt>
      <trkpt lat="46.52738" lon="0.32373">
        <ele>123.8</ele>
        <time>2022-03-06T07:51:36Z</time>
      </trkpt>
      <trkpt lat="46.52738" lon="0.32334">
        <ele>124</ele>
        <time>2022-03-06T07:51:42Z</time>
      </trkpt>
      <trkpt lat="46.52738" lon="0.32323">
        <ele>124</ele>
        <time>2022-03-06T07:51:44Z</time>
      </trkpt>
      <trkpt lat="46.52737" lon="0.32297">
        <ele>124.2</ele>
        <time>2022-03-06T07:51:48Z</time>
      </trkpt>
      <trkpt lat="46.52737" lon="0.32289">
        <ele>124</ele>
        <time>2022-03-06T07:51:49Z</time>
      </trkpt>
      <trkpt lat="46.52736" lon="0.32277">
        <ele>124</ele>
        <time>2022-03-06T07:51:51Z</time>
      </trkpt>
      <trkpt lat="46.52737" lon="0.32263">
        <ele>124</ele>
        <time>2022-03-06T07:51:53Z</time>
      </trkpt>
      <trkpt lat="46.52737" lon="0.32257">
        <ele>124</ele>
        <time>2022-03-06T07:51:54Z</time>
      </trkpt>
      <trkpt lat="46.52736" lon="0.32244">
        <ele>123.8</ele>
        <time>2022-03-06T07:51:56Z</time>
      </trkpt>
      <trkpt lat="46.52736" lon="0.32229">
        <ele>123.8</ele>
        <time>2022-03-06T07:51:58Z</time>
      </trkpt>
      <trkpt lat="46.52736" lon="0.32188">
        <ele>123</ele>
        <time>2022-03-06T07:52:04Z</time>
      </trkpt>
      <trkpt lat="46.52736" lon="0.32173">
        <ele>122.6</ele>
        <time>2022-03-06T07:52:06Z</time>
      </trkpt>
      <trkpt lat="46.52736" lon="0.32165">
        <ele>122.2</ele>
        <time>2022-03-06T07:52:07Z</time>
      </trkpt>
      <trkpt lat="46.52736" lon="0.32145">
        <ele>121.6</ele>
        <time>2022-03-06T07:52:10Z</time>
      </trkpt>
      <trkpt lat="46.52736" lon="0.32141">
        <ele>121.4</ele>
        <time>2022-03-06T07:52:11Z</time>
      </trkpt>
      <trkpt lat="46.52737" lon="0.32133">
        <ele>121</ele>
        <time>2022-03-06T07:52:14Z</time>
      </trkpt>
      <trkpt lat="46.52738" lon="0.32129">
        <ele>121</ele>
        <time>2022-03-06T07:52:15Z</time>
      </trkpt>
      <trkpt lat="46.52738" lon="0.32117">
        <ele>121</ele>
        <time>2022-03-06T07:52:20Z</time>
      </trkpt>
      <trkpt lat="46.52739" lon="0.32115">
        <ele>121</ele>
        <time>2022-03-06T07:52:21Z</time>
      </trkpt>
      <trkpt lat="46.52739" lon="0.32112">
        <ele>120.8</ele>
        <time>2022-03-06T07:52:22Z</time>
      </trkpt>
      <trkpt lat="46.52735" lon="0.32098">
        <ele>120.8</ele>
        <time>2022-03-06T07:52:26Z</time>
      </trkpt>
      <trkpt lat="46.52734" lon="0.32094">
        <ele>120.4</ele>
        <time>2022-03-06T07:52:27Z</time>
      </trkpt>
      <trkpt lat="46.52732" lon="0.3209">
        <ele>120.2</ele>
        <time>2022-03-06T07:52:28Z</time>
      </trkpt>
      <trkpt lat="46.52725" lon="0.32074">
        <ele>119.8</ele>
        <time>2022-03-06T07:52:31Z</time>
      </trkpt>
      <trkpt lat="46.52709" lon="0.32041">
        <ele>119.4</ele>
        <time>2022-03-06T07:52:37Z</time>
      </trkpt>
      <trkpt lat="46.527" lon="0.32022">
        <ele>119</ele>
        <time>2022-03-06T07:52:40Z</time>
      </trkpt>
      <trkpt lat="46.52695" lon="0.32009">
        <ele>118.8</ele>
        <time>2022-03-06T07:52:42Z</time>
      </trkpt>
      <trkpt lat="46.52692" lon="0.32003">
        <ele>118.6</ele>
        <time>2022-03-06T07:52:43Z</time>
      </trkpt>
      <trkpt lat="46.52671" lon="0.31964">
        <ele>118.2</ele>
        <time>2022-03-06T07:52:50Z</time>
      </trkpt>
      <trkpt lat="46.52669" lon="0.31959">
        <ele>118.2</ele>
        <time>2022-03-06T07:52:51Z</time>
      </trkpt>
      <trkpt lat="46.52666" lon="0.31953">
        <ele>117.8</ele>
        <time>2022-03-06T07:52:52Z</time>
      </trkpt>
      <trkpt lat="46.52655" lon="0.31928">
        <ele>117.2</ele>
        <time>2022-03-06T07:52:56Z</time>
      </trkpt>
      <trkpt lat="46.52646" lon="0.31912">
        <ele>116.6</ele>
        <time>2022-03-06T07:52:59Z</time>
      </trkpt>
      <trkpt lat="46.52637" lon="0.31895">
        <ele>116.4</ele>
        <time>2022-03-06T07:53:02Z</time>
      </trkpt>
      <trkpt lat="46.52627" lon="0.31879">
        <ele>115.6</ele>
        <time>2022-03-06T07:53:05Z</time>
      </trkpt>
      <trkpt lat="46.52625" lon="0.31873">
        <ele>115</ele>
        <time>2022-03-06T07:53:06Z</time>
      </trkpt>
      <trkpt lat="46.52625" lon="0.31873">
        <ele>114.4</ele>
        <time>2022-03-06T07:53:08Z</time>
      </trkpt>
      <trkpt lat="46.52617" lon="0.31858">
        <ele>114.2</ele>
        <time>2022-03-06T07:53:09Z</time>
      </trkpt>
      <trkpt lat="46.52612" lon="0.31845">
        <ele>114</ele>
        <time>2022-03-06T07:53:11Z</time>
      </trkpt>
      <trkpt lat="46.52605" lon="0.31833">
        <ele>114.8</ele>
        <time>2022-03-06T07:53:14Z</time>
      </trkpt>
      <trkpt lat="46.52595" lon="0.31817">
        <ele>115.8</ele>
        <time>2022-03-06T07:53:17Z</time>
      </trkpt>
      <trkpt lat="46.52592" lon="0.31812">
        <ele>116</ele>
        <time>2022-03-06T07:53:18Z</time>
      </trkpt>
      <trkpt lat="46.52586" lon="0.31799">
        <ele>116.8</ele>
        <time>2022-03-06T07:53:20Z</time>
      </trkpt>
      <trkpt lat="46.52582" lon="0.31792">
        <ele>116.8</ele>
        <time>2022-03-06T07:53:21Z</time>
      </trkpt>
      <trkpt lat="46.52566" lon="0.3176">
        <ele>117</ele>
        <time>2022-03-06T07:53:26Z</time>
      </trkpt>
      <trkpt lat="46.52561" lon="0.31753">
        <ele>117</ele>
        <time>2022-03-06T07:53:27Z</time>
      </trkpt>
      <trkpt lat="46.52557" lon="0.31748">
        <ele>117</ele>
        <time>2022-03-06T07:53:28Z</time>
      </trkpt>
      <trkpt lat="46.52546" lon="0.31734">
        <ele>117.2</ele>
        <time>2022-03-06T07:53:31Z</time>
      </trkpt>
      <trkpt lat="46.52543" lon="0.31722">
        <ele>117.2</ele>
        <time>2022-03-06T07:53:33Z</time>
      </trkpt>
      <trkpt lat="46.52539" lon="0.3171">
        <ele>116.6</ele>
        <time>2022-03-06T07:53:35Z</time>
      </trkpt>
      <trkpt lat="46.52535" lon="0.31691">
        <ele>115.8</ele>
        <time>2022-03-06T07:53:38Z</time>
      </trkpt>
      <trkpt lat="46.52534" lon="0.31684">
        <ele>115</ele>
        <time>2022-03-06T07:53:39Z</time>
      </trkpt>
      <trkpt lat="46.52533" lon="0.31677">
        <ele>114.4</ele>
        <time>2022-03-06T07:53:40Z</time>
      </trkpt>
      <trkpt lat="46.52532" lon="0.3167">
        <ele>114</ele>
        <time>2022-03-06T07:53:41Z</time>
      </trkpt>
      <trkpt lat="46.52532" lon="0.31664">
        <ele>113.4</ele>
        <time>2022-03-06T07:53:42Z</time>
      </trkpt>
      <trkpt lat="46.52529" lon="0.3165">
        <ele>112</ele>
        <time>2022-03-06T07:53:44Z</time>
      </trkpt>
      <trkpt lat="46.52527" lon="0.31635">
        <ele>110.6</ele>
        <time>2022-03-06T07:53:46Z</time>
      </trkpt>
      <trkpt lat="46.52524" lon="0.31623">
        <ele>109</ele>
        <time>2022-03-06T07:53:48Z</time>
      </trkpt>
      <trkpt lat="46.52524" lon="0.31618">
        <ele>108.8</ele>
        <time>2022-03-06T07:53:49Z</time>
      </trkpt>
      <trkpt lat="46.52521" lon="0.31609">
        <ele>108.6</ele>
        <time>2022-03-06T07:53:51Z</time>
      </trkpt>
      <trkpt lat="46.52516" lon="0.31601">
        <ele>108.6</ele>
        <time>2022-03-06T07:53:53Z</time>
      </trkpt>
      <trkpt lat="46.52514" lon="0.31597">
        <ele>108.8</ele>
        <time>2022-03-06T07:53:54Z</time>
      </trkpt>
      <trkpt lat="46.52508" lon="0.31588">
        <ele>109</ele>
        <time>2022-03-06T07:53:56Z</time>
      </trkpt>
      <trkpt lat="46.52506" lon="0.31583">
        <ele>109</ele>
        <time>2022-03-06T07:53:57Z</time>
      </trkpt>
      <trkpt lat="46.52504" lon="0.31578">
        <ele>109.2</ele>
        <time>2022-03-06T07:53:58Z</time>
      </trkpt>
      <trkpt lat="46.52496" lon="0.31552">
        <ele>109.4</ele>
        <time>2022-03-06T07:54:02Z</time>
      </trkpt>
      <trkpt lat="46.52494" lon="0.31546">
        <ele>109.4</ele>
        <time>2022-03-06T07:54:03Z</time>
      </trkpt>
      <trkpt lat="46.5249" lon="0.31534">
        <ele>109.4</ele>
        <time>2022-03-06T07:54:05Z</time>
      </trkpt>
      <trkpt lat="46.52486" lon="0.31524">
        <ele>109.4</ele>
        <time>2022-03-06T07:54:07Z</time>
      </trkpt>
      <trkpt lat="46.52481" lon="0.3151">
        <ele>109.6</ele>
        <time>2022-03-06T07:54:09Z</time>
      </trkpt>
      <trkpt lat="46.52477" lon="0.31497">
        <ele>110.2</ele>
        <time>2022-03-06T07:54:11Z</time>
      </trkpt>
      <trkpt lat="46.52471" lon="0.31484">
        <ele>110.6</ele>
        <time>2022-03-06T07:54:13Z</time>
      </trkpt>
      <trkpt lat="46.52458" lon="0.31456">
        <ele>111.4</ele>
        <time>2022-03-06T07:54:18Z</time>
      </trkpt>
      <trkpt lat="46.52455" lon="0.3145">
        <ele>111.4</ele>
        <time>2022-03-06T07:54:19Z</time>
      </trkpt>
      <trkpt lat="46.52453" lon="0.31445">
        <ele>111.4</ele>
        <time>2022-03-06T07:54:20Z</time>
      </trkpt>
      <trkpt lat="46.52448" lon="0.31433">
        <ele>111.8</ele>
        <time>2022-03-06T07:54:22Z</time>
      </trkpt>
      <trkpt lat="46.52441" lon="0.31411">
        <ele>112.4</ele>
        <time>2022-03-06T07:54:25Z</time>
      </trkpt>
      <trkpt lat="46.52438" lon="0.31398">
        <ele>112.8</ele>
        <time>2022-03-06T07:54:27Z</time>
      </trkpt>
      <trkpt lat="46.52435" lon="0.31379">
        <ele>112.8</ele>
        <time>2022-03-06T07:54:30Z</time>
      </trkpt>
      <trkpt lat="46.52434" lon="0.3136">
        <ele>113.8</ele>
        <time>2022-03-06T07:54:33Z</time>
      </trkpt>
      <trkpt lat="46.52434" lon="0.31346">
        <ele>115</ele>
        <time>2022-03-06T07:54:36Z</time>
      </trkpt>
      <trkpt lat="46.52439" lon="0.31337">
        <ele>116.2</ele>
        <time>2022-03-06T07:54:42Z</time>
      </trkpt>
      <trkpt lat="46.52442" lon="0.31335">
        <ele>117.2</ele>
        <time>2022-03-06T07:54:45Z</time>
      </trkpt>
      <trkpt lat="46.52447" lon="0.31334">
        <ele>118</ele>
        <time>2022-03-06T07:54:48Z</time>
      </trkpt>
      <trkpt lat="46.52452" lon="0.31333">
        <ele>118.6</ele>
        <time>2022-03-06T07:54:50Z</time>
      </trkpt>
      <trkpt lat="46.52461" lon="0.31337">
        <ele>119.8</ele>
        <time>2022-03-06T07:54:54Z</time>
      </trkpt>
      <trkpt lat="46.52476" lon="0.31346">
        <ele>120.4</ele>
        <time>2022-03-06T07:55:00Z</time>
      </trkpt>
      <trkpt lat="46.52479" lon="0.31347">
        <ele>120.8</ele>
        <time>2022-03-06T07:55:01Z</time>
      </trkpt>
      <trkpt lat="46.52493" lon="0.31357">
        <ele>121.4</ele>
        <time>2022-03-06T07:55:07Z</time>
      </trkpt>
      <trkpt lat="46.52499" lon="0.31361">
        <ele>121.4</ele>
        <time>2022-03-06T07:55:09Z</time>
      </trkpt>
      <trkpt lat="46.52515" lon="0.31372">
        <ele>121.8</ele>
        <time>2022-03-06T07:55:13Z</time>
      </trkpt>
      <trkpt lat="46.52523" lon="0.31378">
        <ele>122</ele>
        <time>2022-03-06T07:55:15Z</time>
      </trkpt>
      <trkpt lat="46.52534" lon="0.31386">
        <ele>122.4</ele>
        <time>2022-03-06T07:55:19Z</time>
      </trkpt>
      <trkpt lat="46.5254" lon="0.31389">
        <ele>122.4</ele>
        <time>2022-03-06T07:55:21Z</time>
      </trkpt>
      <trkpt lat="46.52553" lon="0.31395">
        <ele>122.6</ele>
        <time>2022-03-06T07:55:24Z</time>
      </trkpt>
      <trkpt lat="46.52559" lon="0.31398">
        <ele>123</ele>
        <time>2022-03-06T07:55:25Z</time>
      </trkpt>
      <trkpt lat="46.52566" lon="0.31398">
        <ele>123.2</ele>
        <time>2022-03-06T07:55:27Z</time>
      </trkpt>
      <trkpt lat="46.52569" lon="0.314">
        <ele>123.2</ele>
        <time>2022-03-06T07:55:28Z</time>
      </trkpt>
      <trkpt lat="46.52596" lon="0.31406">
        <ele>123.8</ele>
        <time>2022-03-06T07:55:35Z</time>
      </trkpt>
      <trkpt lat="46.52615" lon="0.31409">
        <ele>124</ele>
        <time>2022-03-06T07:55:39Z</time>
      </trkpt>
      <trkpt lat="46.5263" lon="0.31412">
        <ele>124</ele>
        <time>2022-03-06T07:55:42Z</time>
      </trkpt>
      <trkpt lat="46.52651" lon="0.31414">
        <ele>124</ele>
        <time>2022-03-06T07:55:46Z</time>
      </trkpt>
      <trkpt lat="46.5266" lon="0.31419">
        <ele>124.2</ele>
        <time>2022-03-06T07:55:48Z</time>
      </trkpt>
      <trkpt lat="46.52665" lon="0.31423">
        <ele>124.2</ele>
        <time>2022-03-06T07:55:49Z</time>
      </trkpt>
      <trkpt lat="46.52684" lon="0.31436">
        <ele>124</ele>
        <time>2022-03-06T07:55:53Z</time>
      </trkpt>
      <trkpt lat="46.52695" lon="0.31443">
        <ele>123.8</ele>
        <time>2022-03-06T07:55:55Z</time>
      </trkpt>
      <trkpt lat="46.52705" lon="0.31453">
        <ele>123.6</ele>
        <time>2022-03-06T07:55:57Z</time>
      </trkpt>
      <trkpt lat="46.52715" lon="0.31467">
        <ele>123</ele>
        <time>2022-03-06T07:55:59Z</time>
      </trkpt>
      <trkpt lat="46.52718" lon="0.31473">
        <ele>122.8</ele>
        <time>2022-03-06T07:56:00Z</time>
      </trkpt>
      <trkpt lat="46.5273" lon="0.3149">
        <ele>121.8</ele>
        <time>2022-03-06T07:56:03Z</time>
      </trkpt>
      <trkpt lat="46.5274" lon="0.31505">
        <ele>121.6</ele>
        <time>2022-03-06T07:56:05Z</time>
      </trkpt>
      <trkpt lat="46.52745" lon="0.31512">
        <ele>121.2</ele>
        <time>2022-03-06T07:56:06Z</time>
      </trkpt>
      <trkpt lat="46.52749" lon="0.31519">
        <ele>120.6</ele>
        <time>2022-03-06T07:56:07Z</time>
      </trkpt>
      <trkpt lat="46.52754" lon="0.31524">
        <ele>120</ele>
        <time>2022-03-06T07:56:08Z</time>
      </trkpt>
      <trkpt lat="46.52759" lon="0.31528">
        <ele>119.8</ele>
        <time>2022-03-06T07:56:09Z</time>
      </trkpt>
      <trkpt lat="46.52764" lon="0.3153">
        <ele>119.4</ele>
        <time>2022-03-06T07:56:10Z</time>
      </trkpt>
      <trkpt lat="46.52779" lon="0.31535">
        <ele>119.2</ele>
        <time>2022-03-06T07:56:13Z</time>
      </trkpt>
      <trkpt lat="46.52808" lon="0.31547">
        <ele>118.6</ele>
        <time>2022-03-06T07:56:19Z</time>
      </trkpt>
      <trkpt lat="46.52812" lon="0.31548">
        <ele>118.4</ele>
        <time>2022-03-06T07:56:20Z</time>
      </trkpt>
      <trkpt lat="46.52824" lon="0.31551">
        <ele>118.2</ele>
        <time>2022-03-06T07:56:22Z</time>
      </trkpt>
      <trkpt lat="46.52829" lon="0.3155">
        <ele>118</ele>
        <time>2022-03-06T07:56:23Z</time>
      </trkpt>
      <trkpt lat="46.52835" lon="0.31548">
        <ele>117.8</ele>
        <time>2022-03-06T07:56:24Z</time>
      </trkpt>
      <trkpt lat="46.52854" lon="0.31541">
        <ele>117.6</ele>
        <time>2022-03-06T07:56:27Z</time>
      </trkpt>
      <trkpt lat="46.52865" lon="0.31536">
        <ele>117.6</ele>
        <time>2022-03-06T07:56:29Z</time>
      </trkpt>
      <trkpt lat="46.52876" lon="0.31528">
        <ele>117.2</ele>
        <time>2022-03-06T07:56:31Z</time>
      </trkpt>
      <trkpt lat="46.52881" lon="0.31524">
        <ele>117</ele>
        <time>2022-03-06T07:56:32Z</time>
      </trkpt>
      <trkpt lat="46.52892" lon="0.31517">
        <ele>116.2</ele>
        <time>2022-03-06T07:56:34Z</time>
      </trkpt>
      <trkpt lat="46.52901" lon="0.31507">
        <ele>115</ele>
        <time>2022-03-06T07:56:36Z</time>
      </trkpt>
      <trkpt lat="46.52905" lon="0.315">
        <ele>114.8</ele>
        <time>2022-03-06T07:56:37Z</time>
      </trkpt>
      <trkpt lat="46.52918" lon="0.31479">
        <ele>113.6</ele>
        <time>2022-03-06T07:56:41Z</time>
      </trkpt>
      <trkpt lat="46.52921" lon="0.31476">
        <ele>112.8</ele>
        <time>2022-03-06T07:56:42Z</time>
      </trkpt>
      <trkpt lat="46.52923" lon="0.31473">
        <ele>111.6</ele>
        <time>2022-03-06T07:56:43Z</time>
      </trkpt>
      <trkpt lat="46.52927" lon="0.3147">
        <ele>110.2</ele>
        <time>2022-03-06T07:56:45Z</time>
      </trkpt>
      <trkpt lat="46.52931" lon="0.3147">
        <ele>109.4</ele>
        <time>2022-03-06T07:56:47Z</time>
      </trkpt>
      <trkpt lat="46.52933" lon="0.31471">
        <ele>109.2</ele>
        <time>2022-03-06T07:56:48Z</time>
      </trkpt>
      <trkpt lat="46.52939" lon="0.31478">
        <ele>108.8</ele>
        <time>2022-03-06T07:56:52Z</time>
      </trkpt>
      <trkpt lat="46.52947" lon="0.31493">
        <ele>108.6</ele>
        <time>2022-03-06T07:56:56Z</time>
      </trkpt>
      <trkpt lat="46.52949" lon="0.31497">
        <ele>108.4</ele>
        <time>2022-03-06T07:56:57Z</time>
      </trkpt>
      <trkpt lat="46.52961" lon="0.31517">
        <ele>108.6</ele>
        <time>2022-03-06T07:57:03Z</time>
      </trkpt>
      <trkpt lat="46.5297" lon="0.31539">
        <ele>109.2</ele>
        <time>2022-03-06T07:57:09Z</time>
      </trkpt>
      <trkpt lat="46.52977" lon="0.3156">
        <ele>108.8</ele>
        <time>2022-03-06T07:57:14Z</time>
      </trkpt>
      <trkpt lat="46.52982" lon="0.31579">
        <ele>108</ele>
        <time>2022-03-06T07:57:19Z</time>
      </trkpt>
      <trkpt lat="46.52987" lon="0.31601">
        <ele>107.2</ele>
        <time>2022-03-06T07:57:25Z</time>
      </trkpt>
      <trkpt lat="46.52988" lon="0.31605">
        <ele>106.6</ele>
        <time>2022-03-06T07:57:26Z</time>
      </trkpt>
      <trkpt lat="46.52991" lon="0.3162">
        <ele>105.4</ele>
        <time>2022-03-06T07:57:29Z</time>
      </trkpt>
      <trkpt lat="46.52992" lon="0.31624">
        <ele>105</ele>
        <time>2022-03-06T07:57:30Z</time>
      </trkpt>
      <trkpt lat="46.52994" lon="0.31628">
        <ele>104.8</ele>
        <time>2022-03-06T07:57:31Z</time>
      </trkpt>
      <trkpt lat="46.52996" lon="0.31631">
        <ele>104.2</ele>
        <time>2022-03-06T07:57:32Z</time>
      </trkpt>
      <trkpt lat="46.52998" lon="0.31631">
        <ele>103.2</ele>
        <time>2022-03-06T07:57:34Z</time>
      </trkpt>
      <trkpt lat="46.52999" lon="0.31632">
        <ele>102.6</ele>
        <time>2022-03-06T07:57:35Z</time>
      </trkpt>
      <trkpt lat="46.53" lon="0.31634">
        <ele>102</ele>
        <time>2022-03-06T07:57:36Z</time>
      </trkpt>
      <trkpt lat="46.53003" lon="0.31642">
        <ele>100.4</ele>
        <time>2022-03-06T07:57:39Z</time>
      </trkpt>
      <trkpt lat="46.53005" lon="0.31646">
        <ele>99.2</ele>
        <time>2022-03-06T07:57:41Z</time>
      </trkpt>
      <trkpt lat="46.53005" lon="0.31648">
        <ele>98.8</ele>
        <time>2022-03-06T07:57:42Z</time>
      </trkpt>
      <trkpt lat="46.53005" lon="0.31648">
        <ele>98</ele>
        <time>2022-03-06T07:57:44Z</time>
      </trkpt>
      <trkpt lat="46.53009" lon="0.31659">
        <ele>97.6</ele>
        <time>2022-03-06T07:57:48Z</time>
      </trkpt>
      <trkpt lat="46.53009" lon="0.31661">
        <ele>97.2</ele>
        <time>2022-03-06T07:57:49Z</time>
      </trkpt>
      <trkpt lat="46.53009" lon="0.31663">
        <ele>96.8</ele>
        <time>2022-03-06T07:57:50Z</time>
      </trkpt>
      <trkpt lat="46.53013" lon="0.31674">
        <ele>95.8</ele>
        <time>2022-03-06T07:57:53Z</time>
      </trkpt>
      <trkpt lat="46.53014" lon="0.31682">
        <ele>94.6</ele>
        <time>2022-03-06T07:57:55Z</time>
      </trkpt>
      <trkpt lat="46.53017" lon="0.31692">
        <ele>92.6</ele>
        <time>2022-03-06T07:57:57Z</time>
      </trkpt>
      <trkpt lat="46.53019" lon="0.317">
        <ele>91.4</ele>
        <time>2022-03-06T07:57:59Z</time>
      </trkpt>
      <trkpt lat="46.5302" lon="0.31704">
        <ele>90.8</ele>
        <time>2022-03-06T07:58:00Z</time>
      </trkpt>
      <trkpt lat="46.53021" lon="0.31709">
        <ele>90.6</ele>
        <time>2022-03-06T07:58:01Z</time>
      </trkpt>
      <trkpt lat="46.53024" lon="0.31715">
        <ele>90.4</ele>
        <time>2022-03-06T07:58:02Z</time>
      </trkpt>
      <trkpt lat="46.53026" lon="0.3172">
        <ele>89.4</ele>
        <time>2022-03-06T07:58:03Z</time>
      </trkpt>
      <trkpt lat="46.53028" lon="0.31725">
        <ele>88.8</ele>
        <time>2022-03-06T07:58:04Z</time>
      </trkpt>
      <trkpt lat="46.53028" lon="0.3173">
        <ele>88.4</ele>
        <time>2022-03-06T07:58:05Z</time>
      </trkpt>
      <trkpt lat="46.53029" lon="0.31739">
        <ele>87.6</ele>
        <time>2022-03-06T07:58:07Z</time>
      </trkpt>
      <trkpt lat="46.53031" lon="0.31748">
        <ele>86.6</ele>
        <time>2022-03-06T07:58:09Z</time>
      </trkpt>
      <trkpt lat="46.53031" lon="0.31754">
        <ele>86.2</ele>
        <time>2022-03-06T07:58:10Z</time>
      </trkpt>
      <trkpt lat="46.5303" lon="0.31761">
        <ele>86</ele>
        <time>2022-03-06T07:58:11Z</time>
      </trkpt>
      <trkpt lat="46.53032" lon="0.31769">
        <ele>85.4</ele>
        <time>2022-03-06T07:58:12Z</time>
      </trkpt>
      <trkpt lat="46.53034" lon="0.31784">
        <ele>84.4</ele>
        <time>2022-03-06T07:58:14Z</time>
      </trkpt>
      <trkpt lat="46.53037" lon="0.31793">
        <ele>83.6</ele>
        <time>2022-03-06T07:58:16Z</time>
      </trkpt>
      <trkpt lat="46.53038" lon="0.31801">
        <ele>83.2</ele>
        <time>2022-03-06T07:58:18Z</time>
      </trkpt>
      <trkpt lat="46.53041" lon="0.3181">
        <ele>82</ele>
        <time>2022-03-06T07:58:21Z</time>
      </trkpt>
      <trkpt lat="46.53042" lon="0.31812">
        <ele>81.6</ele>
        <time>2022-03-06T07:58:22Z</time>
      </trkpt>
      <trkpt lat="46.53044" lon="0.31816">
        <ele>81</ele>
        <time>2022-03-06T07:58:24Z</time>
      </trkpt>
      <trkpt lat="46.53045" lon="0.3182">
        <ele>80.2</ele>
        <time>2022-03-06T07:58:25Z</time>
      </trkpt>
      <trkpt lat="46.53043" lon="0.31827">
        <ele>79.2</ele>
        <time>2022-03-06T07:58:28Z</time>
      </trkpt>
      <trkpt lat="46.53041" lon="0.31831">
        <ele>79</ele>
        <time>2022-03-06T07:58:31Z</time>
      </trkpt>
      <trkpt lat="46.53036" lon="0.31831">
        <ele>80.4</ele>
        <time>2022-03-06T07:58:37Z</time>
      </trkpt>
      <trkpt lat="46.53035" lon="0.31831">
        <ele>80.8</ele>
        <time>2022-03-06T07:58:38Z</time>
      </trkpt>
      <trkpt lat="46.53034" lon="0.31831">
        <ele>81</ele>
        <time>2022-03-06T07:58:39Z</time>
      </trkpt>
      <trkpt lat="46.5303" lon="0.31828">
        <ele>81.6</ele>
        <time>2022-03-06T07:58:41Z</time>
      </trkpt>
      <trkpt lat="46.53024" lon="0.31827">
        <ele>82.8</ele>
        <time>2022-03-06T07:58:44Z</time>
      </trkpt>
      <trkpt lat="46.53014" lon="0.31826">
        <ele>83.8</ele>
        <time>2022-03-06T07:58:49Z</time>
      </trkpt>
      <trkpt lat="46.53011" lon="0.31826">
        <ele>83.8</ele>
        <time>2022-03-06T07:58:50Z</time>
      </trkpt>
      <trkpt lat="46.52996" lon="0.31823">
        <ele>84.4</ele>
        <time>2022-03-06T07:58:57Z</time>
      </trkpt>
      <trkpt lat="46.5299" lon="0.31821">
        <ele>85</ele>
        <time>2022-03-06T07:59:00Z</time>
      </trkpt>
      <trkpt lat="46.52982" lon="0.31817">
        <ele>85.8</ele>
        <time>2022-03-06T07:59:04Z</time>
      </trkpt>
      <trkpt lat="46.52979" lon="0.31816">
        <ele>86</ele>
        <time>2022-03-06T07:59:05Z</time>
      </trkpt>
      <trkpt lat="46.52963" lon="0.31815">
        <ele>86.4</ele>
        <time>2022-03-06T07:59:10Z</time>
      </trkpt>
      <trkpt lat="46.52951" lon="0.31812">
        <ele>87</ele>
        <time>2022-03-06T07:59:14Z</time>
      </trkpt>
      <trkpt lat="46.52943" lon="0.3181">
        <ele>87.6</ele>
        <time>2022-03-06T07:59:17Z</time>
      </trkpt>
      <trkpt lat="46.52935" lon="0.31807">
        <ele>88.6</ele>
        <time>2022-03-06T07:59:20Z</time>
      </trkpt>
      <trkpt lat="46.52925" lon="0.31803">
        <ele>89.6</ele>
        <time>2022-03-06T07:59:24Z</time>
      </trkpt>
      <trkpt lat="46.5292" lon="0.31801">
        <ele>89.6</ele>
        <time>2022-03-06T07:59:26Z</time>
      </trkpt>
      <trkpt lat="46.52908" lon="0.31799">
        <ele>90.2</ele>
        <time>2022-03-06T07:59:31Z</time>
      </trkpt>
      <trkpt lat="46.52895" lon="0.31795">
        <ele>90.8</ele>
        <time>2022-03-06T07:59:37Z</time>
      </trkpt>
      <trkpt lat="46.52889" lon="0.31794">
        <ele>91.2</ele>
        <time>2022-03-06T07:59:39Z</time>
      </trkpt>
      <trkpt lat="46.52883" lon="0.31794">
        <ele>91.8</ele>
        <time>2022-03-06T07:59:42Z</time>
      </trkpt>
      <trkpt lat="46.52875" lon="0.31794">
        <ele>92.8</ele>
        <time>2022-03-06T07:59:46Z</time>
      </trkpt>
      <trkpt lat="46.52851" lon="0.31791">
        <ele>93.4</ele>
        <time>2022-03-06T07:59:53Z</time>
      </trkpt>
      <trkpt lat="46.52837" lon="0.31792">
        <ele>93.8</ele>
        <time>2022-03-06T07:59:57Z</time>
      </trkpt>
      <trkpt lat="46.52831" lon="0.31793">
        <ele>94</ele>
        <time>2022-03-06T07:59:59Z</time>
      </trkpt>
      <trkpt lat="46.52811" lon="0.31799">
        <ele>94.8</ele>
        <time>2022-03-06T08:00:05Z</time>
      </trkpt>
      <trkpt lat="46.52809" lon="0.31801">
        <ele>95</ele>
        <time>2022-03-06T08:00:06Z</time>
      </trkpt>
      <trkpt lat="46.52807" lon="0.31807">
        <ele>95.6</ele>
        <time>2022-03-06T08:00:09Z</time>
      </trkpt>
      <trkpt lat="46.52802" lon="0.31816">
        <ele>96</ele>
        <time>2022-03-06T08:00:13Z</time>
      </trkpt>
      <trkpt lat="46.528" lon="0.3182">
        <ele>97.2</ele>
        <time>2022-03-06T08:00:15Z</time>
      </trkpt>
      <trkpt lat="46.528" lon="0.31823">
        <ele>97.4</ele>
        <time>2022-03-06T08:00:16Z</time>
      </trkpt>
      <trkpt lat="46.52796" lon="0.31834">
        <ele>98.4</ele>
        <time>2022-03-06T08:00:20Z</time>
      </trkpt>
      <trkpt lat="46.52796" lon="0.31841">
        <ele>99.4</ele>
        <time>2022-03-06T08:00:23Z</time>
      </trkpt>
      <trkpt lat="46.52797" lon="0.31842">
        <ele>99.6</ele>
        <time>2022-03-06T08:00:24Z</time>
      </trkpt>
      <trkpt lat="46.52797" lon="0.31844">
        <ele>99.6</ele>
        <time>2022-03-06T08:00:25Z</time>
      </trkpt>
      <trkpt lat="46.52798" lon="0.3185">
        <ele>100.8</ele>
        <time>2022-03-06T08:00:29Z</time>
      </trkpt>
      <trkpt lat="46.528" lon="0.31856">
        <ele>102</ele>
        <time>2022-03-06T08:00:33Z</time>
      </trkpt>
      <trkpt lat="46.52802" lon="0.31863">
        <ele>102.8</ele>
        <time>2022-03-06T08:00:37Z</time>
      </trkpt>
      <trkpt lat="46.52802" lon="0.31865">
        <ele>103</ele>
        <time>2022-03-06T08:00:38Z</time>
      </trkpt>
      <trkpt lat="46.52806" lon="0.3187">
        <ele>104.4</ele>
        <time>2022-03-06T08:00:41Z</time>
      </trkpt>
      <trkpt lat="46.52809" lon="0.31878">
        <ele>105</ele>
        <time>2022-03-06T08:00:44Z</time>
      </trkpt>
      <trkpt lat="46.52812" lon="0.31885">
        <ele>105.4</ele>
        <time>2022-03-06T08:00:47Z</time>
      </trkpt>
      <trkpt lat="46.52815" lon="0.31893">
        <ele>106.2</ele>
        <time>2022-03-06T08:00:51Z</time>
      </trkpt>
      <trkpt lat="46.52817" lon="0.31896">
        <ele>106.6</ele>
        <time>2022-03-06T08:00:52Z</time>
      </trkpt>
      <trkpt lat="46.52824" lon="0.31909">
        <ele>107.6</ele>
        <time>2022-03-06T08:00:58Z</time>
      </trkpt>
      <trkpt lat="46.52825" lon="0.31911">
        <ele>107.8</ele>
        <time>2022-03-06T08:00:59Z</time>
      </trkpt>
      <trkpt lat="46.52832" lon="0.31923">
        <ele>108.4</ele>
        <time>2022-03-06T08:01:04Z</time>
      </trkpt>
      <trkpt lat="46.52833" lon="0.31925">
        <ele>108.8</ele>
        <time>2022-03-06T08:01:05Z</time>
      </trkpt>
      <trkpt lat="46.52841" lon="0.3194">
        <ele>109.8</ele>
        <time>2022-03-06T08:01:11Z</time>
      </trkpt>
      <trkpt lat="46.5285" lon="0.31957">
        <ele>110.8</ele>
        <time>2022-03-06T08:01:17Z</time>
      </trkpt>
      <trkpt lat="46.52851" lon="0.31959">
        <ele>110.8</ele>
        <time>2022-03-06T08:01:18Z</time>
      </trkpt>
      <trkpt lat="46.5286" lon="0.31974">
        <ele>111.8</ele>
        <time>2022-03-06T08:01:25Z</time>
      </trkpt>
      <trkpt lat="46.52861" lon="0.31977">
        <ele>112</ele>
        <time>2022-03-06T08:01:26Z</time>
      </trkpt>
      <trkpt lat="46.5287" lon="0.31986">
        <ele>112.8</ele>
        <time>2022-03-06T08:01:31Z</time>
      </trkpt>
      <trkpt lat="46.52876" lon="0.3199">
        <ele>113</ele>
        <time>2022-03-06T08:01:34Z</time>
      </trkpt>
      <trkpt lat="46.52884" lon="0.31997">
        <ele>113.2</ele>
        <time>2022-03-06T08:01:38Z</time>
      </trkpt>
      <trkpt lat="46.52903" lon="0.32017">
        <ele>113.2</ele>
        <time>2022-03-06T08:01:47Z</time>
      </trkpt>
      <trkpt lat="46.52911" lon="0.32027">
        <ele>113.4</ele>
        <time>2022-03-06T08:01:52Z</time>
      </trkpt>
      <trkpt lat="46.52914" lon="0.32031">
        <ele>114</ele>
        <time>2022-03-06T08:01:55Z</time>
      </trkpt>
      <trkpt lat="46.52913" lon="0.32035">
        <ele>114.2</ele>
        <time>2022-03-06T08:01:57Z</time>
      </trkpt>
      <trkpt lat="46.52913" lon="0.32036">
        <ele>114.2</ele>
        <time>2022-03-06T08:01:59Z</time>
      </trkpt>
      <trkpt lat="46.52912" lon="0.32035">
        <ele>114.2</ele>
        <time>2022-03-06T08:02:00Z</time>
      </trkpt>
      <trkpt lat="46.52911" lon="0.32034">
        <ele>114.2</ele>
        <time>2022-03-06T08:02:03Z</time>
      </trkpt>
      <trkpt lat="46.52911" lon="0.32035">
        <ele>114.4</ele>
        <time>2022-03-06T08:02:04Z</time>
      </trkpt>
      <trkpt lat="46.52911" lon="0.3204">
        <ele>114.4</ele>
        <time>2022-03-06T08:02:07Z</time>
      </trkpt>
      <trkpt lat="46.52914" lon="0.32056">
        <ele>114.6</ele>
        <time>2022-03-06T08:02:12Z</time>
      </trkpt>
      <trkpt lat="46.52914" lon="0.32073">
        <ele>115.2</ele>
        <time>2022-03-06T08:02:17Z</time>
      </trkpt>
      <trkpt lat="46.52916" lon="0.32077">
        <ele>115.2</ele>
        <time>2022-03-06T08:02:18Z</time>
      </trkpt>
      <trkpt lat="46.52918" lon="0.32091">
        <ele>115.4</ele>
        <time>2022-03-06T08:02:22Z</time>
      </trkpt>
      <trkpt lat="46.5292" lon="0.32094">
        <ele>115.4</ele>
        <time>2022-03-06T08:02:23Z</time>
      </trkpt>
      <trkpt lat="46.52932" lon="0.32103">
        <ele>114.8</ele>
        <time>2022-03-06T08:02:28Z</time>
      </trkpt>
      <trkpt lat="46.52943" lon="0.32103">
        <ele>114.2</ele>
        <time>2022-03-06T08:02:32Z</time>
      </trkpt>
      <trkpt lat="46.52946" lon="0.32104">
        <ele>114</ele>
        <time>2022-03-06T08:02:33Z</time>
      </trkpt>
      <trkpt lat="46.52949" lon="0.32104">
        <ele>113.8</ele>
        <time>2022-03-06T08:02:34Z</time>
      </trkpt>
      <trkpt lat="46.52959" lon="0.32104">
        <ele>112.6</ele>
        <time>2022-03-06T08:02:37Z</time>
      </trkpt>
      <trkpt lat="46.52965" lon="0.32109">
        <ele>111.6</ele>
        <time>2022-03-06T08:02:39Z</time>
      </trkpt>
      <trkpt lat="46.52968" lon="0.32113">
        <ele>111.4</ele>
        <time>2022-03-06T08:02:40Z</time>
      </trkpt>
      <trkpt lat="46.52981" lon="0.32129">
        <ele>110.2</ele>
        <time>2022-03-06T08:02:44Z</time>
      </trkpt>
      <trkpt lat="46.52985" lon="0.32133">
        <ele>110.2</ele>
        <time>2022-03-06T08:02:45Z</time>
      </trkpt>
      <trkpt lat="46.53004" lon="0.32161">
        <ele>110.4</ele>
        <time>2022-03-06T08:02:50Z</time>
      </trkpt>
      <trkpt lat="46.53009" lon="0.32175">
        <ele>110.4</ele>
        <time>2022-03-06T08:02:52Z</time>
      </trkpt>
      <trkpt lat="46.5301" lon="0.32182">
        <ele>110.4</ele>
        <time>2022-03-06T08:02:53Z</time>
      </trkpt>
      <trkpt lat="46.53009" lon="0.32188">
        <ele>110.4</ele>
        <time>2022-03-06T08:02:54Z</time>
      </trkpt>
      <trkpt lat="46.53009" lon="0.322">
        <ele>111</ele>
        <time>2022-03-06T08:02:56Z</time>
      </trkpt>
      <trkpt lat="46.53006" lon="0.32212">
        <ele>111.8</ele>
        <time>2022-03-06T08:02:58Z</time>
      </trkpt>
      <trkpt lat="46.53006" lon="0.32217">
        <ele>112</ele>
        <time>2022-03-06T08:02:59Z</time>
      </trkpt>
      <trkpt lat="46.53006" lon="0.32223">
        <ele>112.4</ele>
        <time>2022-03-06T08:03:00Z</time>
      </trkpt>
      <trkpt lat="46.53005" lon="0.32234">
        <ele>112.6</ele>
        <time>2022-03-06T08:03:02Z</time>
      </trkpt>
      <trkpt lat="46.53004" lon="0.32245">
        <ele>112.8</ele>
        <time>2022-03-06T08:03:04Z</time>
      </trkpt>
      <trkpt lat="46.53002" lon="0.32271">
        <ele>114</ele>
        <time>2022-03-06T08:03:09Z</time>
      </trkpt>
      <trkpt lat="46.53001" lon="0.32281">
        <ele>114.4</ele>
        <time>2022-03-06T08:03:11Z</time>
      </trkpt>
      <trkpt lat="46.52995" lon="0.32311">
        <ele>115.2</ele>
        <time>2022-03-06T08:03:17Z</time>
      </trkpt>
      <trkpt lat="46.52988" lon="0.32346">
        <ele>116.4</ele>
        <time>2022-03-06T08:03:24Z</time>
      </trkpt>
      <trkpt lat="46.52987" lon="0.32352">
        <ele>116.6</ele>
        <time>2022-03-06T08:03:25Z</time>
      </trkpt>
      <trkpt lat="46.52979" lon="0.32382">
        <ele>117.4</ele>
        <time>2022-03-06T08:03:31Z</time>
      </trkpt>
      <trkpt lat="46.52978" lon="0.32388">
        <ele>117.6</ele>
        <time>2022-03-06T08:03:32Z</time>
      </trkpt>
      <trkpt lat="46.5297" lon="0.32418">
        <ele>118.4</ele>
        <time>2022-03-06T08:03:38Z</time>
      </trkpt>
      <trkpt lat="46.52968" lon="0.32424">
        <ele>118.6</ele>
        <time>2022-03-06T08:03:39Z</time>
      </trkpt>
      <trkpt lat="46.52964" lon="0.3244">
        <ele>118.8</ele>
        <time>2022-03-06T08:03:42Z</time>
      </trkpt>
      <trkpt lat="46.52959" lon="0.32462">
        <ele>119.2</ele>
        <time>2022-03-06T08:03:46Z</time>
      </trkpt>
      <trkpt lat="46.52954" lon="0.32482">
        <ele>119.4</ele>
        <time>2022-03-06T08:03:50Z</time>
      </trkpt>
      <trkpt lat="46.52951" lon="0.32493">
        <ele>120</ele>
        <time>2022-03-06T08:03:52Z</time>
      </trkpt>
      <trkpt lat="46.5295" lon="0.3251">
        <ele>120.6</ele>
        <time>2022-03-06T08:03:55Z</time>
      </trkpt>
      <trkpt lat="46.52951" lon="0.32521">
        <ele>120.8</ele>
        <time>2022-03-06T08:03:57Z</time>
      </trkpt>
      <trkpt lat="46.52958" lon="0.32541">
        <ele>121</ele>
        <time>2022-03-06T08:04:02Z</time>
      </trkpt>
      <trkpt lat="46.52961" lon="0.32549">
        <ele>121</ele>
        <time>2022-03-06T08:04:04Z</time>
      </trkpt>
      <trkpt lat="46.52969" lon="0.32564">
        <ele>121.4</ele>
        <time>2022-03-06T08:04:08Z</time>
      </trkpt>
      <trkpt lat="46.52981" lon="0.32585">
        <ele>121.2</ele>
        <time>2022-03-06T08:04:14Z</time>
      </trkpt>
      <trkpt lat="46.52986" lon="0.32592">
        <ele>121</ele>
        <time>2022-03-06T08:04:17Z</time>
      </trkpt>
      <trkpt lat="46.52991" lon="0.32594">
        <ele>121</ele>
        <time>2022-03-06T08:04:19Z</time>
      </trkpt>
      <trkpt lat="46.52993" lon="0.32596">
        <ele>121</ele>
        <time>2022-03-06T08:04:20Z</time>
      </trkpt>
      <trkpt lat="46.52999" lon="0.32603">
        <ele>121</ele>
        <time>2022-03-06T08:04:22Z</time>
      </trkpt>
      <trkpt lat="46.53003" lon="0.32606">
        <ele>121</ele>
        <time>2022-03-06T08:04:23Z</time>
      </trkpt>
      <trkpt lat="46.53017" lon="0.32624">
        <ele>121.2</ele>
        <time>2022-03-06T08:04:27Z</time>
      </trkpt>
      <trkpt lat="46.53023" lon="0.32634">
        <ele>121.2</ele>
        <time>2022-03-06T08:04:29Z</time>
      </trkpt>
      <trkpt lat="46.53027" lon="0.3264">
        <ele>121.2</ele>
        <time>2022-03-06T08:04:30Z</time>
      </trkpt>
      <trkpt lat="46.5303" lon="0.32645">
        <ele>121.2</ele>
        <time>2022-03-06T08:04:31Z</time>
      </trkpt>
      <trkpt lat="46.53035" lon="0.32656">
        <ele>121.2</ele>
        <time>2022-03-06T08:04:33Z</time>
      </trkpt>
      <trkpt lat="46.5304" lon="0.32666">
        <ele>121.4</ele>
        <time>2022-03-06T08:04:35Z</time>
      </trkpt>
      <trkpt lat="46.53042" lon="0.32672">
        <ele>121.6</ele>
        <time>2022-03-06T08:04:36Z</time>
      </trkpt>
      <trkpt lat="46.5306" lon="0.32709">
        <ele>121.8</ele>
        <time>2022-03-06T08:04:43Z</time>
      </trkpt>
      <trkpt lat="46.53066" lon="0.32719">
        <ele>121.8</ele>
        <time>2022-03-06T08:04:45Z</time>
      </trkpt>
      <trkpt lat="46.53079" lon="0.32739">
        <ele>122.2</ele>
        <time>2022-03-06T08:04:49Z</time>
      </trkpt>
      <trkpt lat="46.53084" lon="0.32748">
        <ele>122.2</ele>
        <time>2022-03-06T08:04:51Z</time>
      </trkpt>
      <trkpt lat="46.53095" lon="0.32773">
        <ele>121.8</ele>
        <time>2022-03-06T08:04:56Z</time>
      </trkpt>
      <trkpt lat="46.53103" lon="0.32788">
        <ele>121.8</ele>
        <time>2022-03-06T08:04:59Z</time>
      </trkpt>
      <trkpt lat="46.53109" lon="0.32798">
        <ele>121.6</ele>
        <time>2022-03-06T08:05:01Z</time>
      </trkpt>
      <trkpt lat="46.53111" lon="0.32803">
        <ele>121.6</ele>
        <time>2022-03-06T08:05:02Z</time>
      </trkpt>
      <trkpt lat="46.53113" lon="0.32809">
        <ele>121.4</ele>
        <time>2022-03-06T08:05:03Z</time>
      </trkpt>
      <trkpt lat="46.5312" lon="0.32834">
        <ele>120.6</ele>
        <time>2022-03-06T08:05:07Z</time>
      </trkpt>
      <trkpt lat="46.53123" lon="0.32841">
        <ele>120.2</ele>
        <time>2022-03-06T08:05:08Z</time>
      </trkpt>
      <trkpt lat="46.53131" lon="0.3286">
        <ele>119.4</ele>
        <time>2022-03-06T08:05:11Z</time>
      </trkpt>
      <trkpt lat="46.53133" lon="0.32867">
        <ele>119.4</ele>
        <time>2022-03-06T08:05:12Z</time>
      </trkpt>
      <trkpt lat="46.53137" lon="0.32878">
        <ele>119.4</ele>
        <time>2022-03-06T08:05:14Z</time>
      </trkpt>
      <trkpt lat="46.53139" lon="0.32885">
        <ele>119.4</ele>
        <time>2022-03-06T08:05:15Z</time>
      </trkpt>
      <trkpt lat="46.53149" lon="0.32908">
        <ele>119.2</ele>
        <time>2022-03-06T08:05:19Z</time>
      </trkpt>
      <trkpt lat="46.53152" lon="0.32914">
        <ele>119.2</ele>
        <time>2022-03-06T08:05:20Z</time>
      </trkpt>
      <trkpt lat="46.53164" lon="0.32945">
        <ele>119.4</ele>
        <time>2022-03-06T08:05:25Z</time>
      </trkpt>
      <trkpt lat="46.53166" lon="0.32957">
        <ele>119.6</ele>
        <time>2022-03-06T08:05:27Z</time>
      </trkpt>
      <trkpt lat="46.53167" lon="0.32963">
        <ele>119.8</ele>
        <time>2022-03-06T08:05:28Z</time>
      </trkpt>
      <trkpt lat="46.5317" lon="0.32974">
        <ele>119.8</ele>
        <time>2022-03-06T08:05:30Z</time>
      </trkpt>
      <trkpt lat="46.53172" lon="0.32978">
        <ele>120</ele>
        <time>2022-03-06T08:05:31Z</time>
      </trkpt>
      <trkpt lat="46.53174" lon="0.32982">
        <ele>120</ele>
        <time>2022-03-06T08:05:32Z</time>
      </trkpt>
      <trkpt lat="46.53179" lon="0.32987">
        <ele>120.6</ele>
        <time>2022-03-06T08:05:34Z</time>
      </trkpt>
      <trkpt lat="46.53181" lon="0.32987">
        <ele>120.8</ele>
        <time>2022-03-06T08:05:35Z</time>
      </trkpt>
      <trkpt lat="46.53199" lon="0.32989">
        <ele>120.8</ele>
        <time>2022-03-06T08:05:40Z</time>
      </trkpt>
      <trkpt lat="46.53202" lon="0.32987">
        <ele>120.8</ele>
        <time>2022-03-06T08:05:41Z</time>
      </trkpt>
      <trkpt lat="46.5321" lon="0.32984">
        <ele>120.8</ele>
        <time>2022-03-06T08:05:43Z</time>
      </trkpt>
      <trkpt lat="46.53218" lon="0.32985">
        <ele>120.8</ele>
        <time>2022-03-06T08:05:45Z</time>
      </trkpt>
      <trkpt lat="46.53224" lon="0.32991">
        <ele>120.8</ele>
        <time>2022-03-06T08:05:47Z</time>
      </trkpt>
      <trkpt lat="46.53231" lon="0.33">
        <ele>120.8</ele>
        <time>2022-03-06T08:05:49Z</time>
      </trkpt>
      <trkpt lat="46.53241" lon="0.33008">
        <ele>120.8</ele>
        <time>2022-03-06T08:05:51Z</time>
      </trkpt>
      <trkpt lat="46.53249" lon="0.33011">
        <ele>120.6</ele>
        <time>2022-03-06T08:05:53Z</time>
      </trkpt>
      <trkpt lat="46.53263" lon="0.3301">
        <ele>120.4</ele>
        <time>2022-03-06T08:05:57Z</time>
      </trkpt>
      <trkpt lat="46.53269" lon="0.33006">
        <ele>120.6</ele>
        <time>2022-03-06T08:05:59Z</time>
      </trkpt>
      <trkpt lat="46.53273" lon="0.33004">
        <ele>120.8</ele>
        <time>2022-03-06T08:06:00Z</time>
      </trkpt>
      <trkpt lat="46.53281" lon="0.33001">
        <ele>120.8</ele>
        <time>2022-03-06T08:06:02Z</time>
      </trkpt>
      <trkpt lat="46.53284" lon="0.32999">
        <ele>120.8</ele>
        <time>2022-03-06T08:06:03Z</time>
      </trkpt>
      <trkpt lat="46.53287" lon="0.32995">
        <ele>120.8</ele>
        <time>2022-03-06T08:06:04Z</time>
      </trkpt>
      <trkpt lat="46.53293" lon="0.32987">
        <ele>120.8</ele>
        <time>2022-03-06T08:06:06Z</time>
      </trkpt>
      <trkpt lat="46.53299" lon="0.3298">
        <ele>120.6</ele>
        <time>2022-03-06T08:06:08Z</time>
      </trkpt>
      <trkpt lat="46.53304" lon="0.32974">
        <ele>120.8</ele>
        <time>2022-03-06T08:06:10Z</time>
      </trkpt>
      <trkpt lat="46.53311" lon="0.32967">
        <ele>120.6</ele>
        <time>2022-03-06T08:06:13Z</time>
      </trkpt>
      <trkpt lat="46.53313" lon="0.32964">
        <ele>120.6</ele>
        <time>2022-03-06T08:06:14Z</time>
      </trkpt>
      <trkpt lat="46.5332" lon="0.32957">
        <ele>120.4</ele>
        <time>2022-03-06T08:06:17Z</time>
      </trkpt>
      <trkpt lat="46.53322" lon="0.32957">
        <ele>120.4</ele>
        <time>2022-03-06T08:06:18Z</time>
      </trkpt>
      <trkpt lat="46.5333" lon="0.32968">
        <ele>120.4</ele>
        <time>2022-03-06T08:06:22Z</time>
      </trkpt>
      <trkpt lat="46.53332" lon="0.32972">
        <ele>120.4</ele>
        <time>2022-03-06T08:06:23Z</time>
      </trkpt>
      <trkpt lat="46.53338" lon="0.32993">
        <ele>120.2</ele>
        <time>2022-03-06T08:06:27Z</time>
      </trkpt>
      <trkpt lat="46.53344" lon="0.33004">
        <ele>120</ele>
        <time>2022-03-06T08:06:29Z</time>
      </trkpt>
      <trkpt lat="46.53349" lon="0.33013">
        <ele>119.2</ele>
        <time>2022-03-06T08:06:31Z</time>
      </trkpt>
      <trkpt lat="46.53351" lon="0.33018">
        <ele>118.8</ele>
        <time>2022-03-06T08:06:32Z</time>
      </trkpt>
      <trkpt lat="46.53352" lon="0.33023">
        <ele>118.2</ele>
        <time>2022-03-06T08:06:33Z</time>
      </trkpt>
      <trkpt lat="46.53356" lon="0.33034">
        <ele>116.8</ele>
        <time>2022-03-06T08:06:35Z</time>
      </trkpt>
      <trkpt lat="46.53358" lon="0.3304">
        <ele>116.4</ele>
        <time>2022-03-06T08:06:36Z</time>
      </trkpt>
      <trkpt lat="46.53361" lon="0.33045">
        <ele>116.2</ele>
        <time>2022-03-06T08:06:37Z</time>
      </trkpt>
      <trkpt lat="46.53367" lon="0.33051">
        <ele>115.4</ele>
        <time>2022-03-06T08:06:39Z</time>
      </trkpt>
      <trkpt lat="46.5337" lon="0.33053">
        <ele>114.4</ele>
        <time>2022-03-06T08:06:40Z</time>
      </trkpt>
      <trkpt lat="46.53375" lon="0.33055">
        <ele>113.6</ele>
        <time>2022-03-06T08:06:41Z</time>
      </trkpt>
      <trkpt lat="46.53378" lon="0.33056">
        <ele>113</ele>
        <time>2022-03-06T08:06:42Z</time>
      </trkpt>
      <trkpt lat="46.53382" lon="0.33058">
        <ele>112.6</ele>
        <time>2022-03-06T08:06:43Z</time>
      </trkpt>
      <trkpt lat="46.53389" lon="0.33062">
        <ele>112</ele>
        <time>2022-03-06T08:06:45Z</time>
      </trkpt>
      <trkpt lat="46.53392" lon="0.33064">
        <ele>111.2</ele>
        <time>2022-03-06T08:06:46Z</time>
      </trkpt>
      <trkpt lat="46.53395" lon="0.33067">
        <ele>110.6</ele>
        <time>2022-03-06T08:06:47Z</time>
      </trkpt>
      <trkpt lat="46.534" lon="0.33074">
        <ele>110</ele>
        <time>2022-03-06T08:06:49Z</time>
      </trkpt>
      <trkpt lat="46.53404" lon="0.33083">
        <ele>110</ele>
        <time>2022-03-06T08:06:51Z</time>
      </trkpt>
      <trkpt lat="46.53407" lon="0.33093">
        <ele>109.4</ele>
        <time>2022-03-06T08:06:53Z</time>
      </trkpt>
      <trkpt lat="46.5341" lon="0.33104">
        <ele>109.4</ele>
        <time>2022-03-06T08:06:55Z</time>
      </trkpt>
      <trkpt lat="46.53413" lon="0.33113">
        <ele>109.4</ele>
        <time>2022-03-06T08:06:57Z</time>
      </trkpt>
      <trkpt lat="46.53417" lon="0.33121">
        <ele>109.4</ele>
        <time>2022-03-06T08:06:59Z</time>
      </trkpt>
      <trkpt lat="46.53425" lon="0.33138">
        <ele>110.6</ele>
        <time>2022-03-06T08:07:03Z</time>
      </trkpt>
      <trkpt lat="46.53429" lon="0.33143">
        <ele>110.8</ele>
        <time>2022-03-06T08:07:04Z</time>
      </trkpt>
      <trkpt lat="46.53445" lon="0.33173">
        <ele>111.4</ele>
        <time>2022-03-06T08:07:10Z</time>
      </trkpt>
      <trkpt lat="46.53448" lon="0.33184">
        <ele>111.4</ele>
        <time>2022-03-06T08:07:12Z</time>
      </trkpt>
      <trkpt lat="46.53453" lon="0.33191">
        <ele>111.6</ele>
        <time>2022-03-06T08:07:14Z</time>
      </trkpt>
      <trkpt lat="46.53465" lon="0.33206">
        <ele>111.8</ele>
        <time>2022-03-06T08:07:18Z</time>
      </trkpt>
      <trkpt lat="46.5347" lon="0.33213">
        <ele>111.8</ele>
        <time>2022-03-06T08:07:20Z</time>
      </trkpt>
      <trkpt lat="46.5348" lon="0.33229">
        <ele>111.8</ele>
        <time>2022-03-06T08:07:24Z</time>
      </trkpt>
      <trkpt lat="46.53488" lon="0.33238">
        <ele>111.8</ele>
        <time>2022-03-06T08:07:27Z</time>
      </trkpt>
      <trkpt lat="46.53509" lon="0.3326">
        <ele>111.4</ele>
        <time>2022-03-06T08:07:33Z</time>
      </trkpt>
      <trkpt lat="46.53532" lon="0.3329">
        <ele>111.2</ele>
        <time>2022-03-06T08:07:39Z</time>
      </trkpt>
      <trkpt lat="46.53537" lon="0.33297">
        <ele>111</ele>
        <time>2022-03-06T08:07:40Z</time>
      </trkpt>
      <trkpt lat="46.53548" lon="0.33305">
        <ele>110.8</ele>
        <time>2022-03-06T08:07:42Z</time>
      </trkpt>
      <trkpt lat="46.53552" lon="0.33308">
        <ele>110.8</ele>
        <time>2022-03-06T08:07:43Z</time>
      </trkpt>
      <trkpt lat="46.53582" lon="0.33317">
        <ele>111</ele>
        <time>2022-03-06T08:07:50Z</time>
      </trkpt>
      <trkpt lat="46.53586" lon="0.33318">
        <ele>111</ele>
        <time>2022-03-06T08:07:51Z</time>
      </trkpt>
      <trkpt lat="46.53595" lon="0.33319">
        <ele>110.8</ele>
        <time>2022-03-06T08:07:53Z</time>
      </trkpt>
      <trkpt lat="46.53603" lon="0.33315">
        <ele>110.6</ele>
        <time>2022-03-06T08:07:55Z</time>
      </trkpt>
      <trkpt lat="46.53612" lon="0.33307">
        <ele>110.4</ele>
        <time>2022-03-06T08:07:57Z</time>
      </trkpt>
      <trkpt lat="46.53631" lon="0.33289">
        <ele>109</ele>
        <time>2022-03-06T08:08:01Z</time>
      </trkpt>
      <trkpt lat="46.53659" lon="0.3326">
        <ele>108.4</ele>
        <time>2022-03-06T08:08:06Z</time>
      </trkpt>
      <trkpt lat="46.53688" lon="0.33233">
        <ele>108.2</ele>
        <time>2022-03-06T08:08:11Z</time>
      </trkpt>
      <trkpt lat="46.53693" lon="0.33228">
        <ele>107.8</ele>
        <time>2022-03-06T08:08:12Z</time>
      </trkpt>
      <trkpt lat="46.53697" lon="0.33223">
        <ele>107.4</ele>
        <time>2022-03-06T08:08:13Z</time>
      </trkpt>
      <trkpt lat="46.53714" lon="0.33204">
        <ele>106.6</ele>
        <time>2022-03-06T08:08:16Z</time>
      </trkpt>
      <trkpt lat="46.53719" lon="0.33197">
        <ele>106.4</ele>
        <time>2022-03-06T08:08:17Z</time>
      </trkpt>
      <trkpt lat="46.53726" lon="0.33185">
        <ele>105.6</ele>
        <time>2022-03-06T08:08:19Z</time>
      </trkpt>
      <trkpt lat="46.53731" lon="0.33179">
        <ele>104.6</ele>
        <time>2022-03-06T08:08:21Z</time>
      </trkpt>
      <trkpt lat="46.53733" lon="0.33178">
        <ele>104.2</ele>
        <time>2022-03-06T08:08:22Z</time>
      </trkpt>
      <trkpt lat="46.53734" lon="0.33179">
        <ele>103.8</ele>
        <time>2022-03-06T08:08:23Z</time>
      </trkpt>
      <trkpt lat="46.53735" lon="0.3318">
        <ele>103.4</ele>
        <time>2022-03-06T08:08:24Z</time>
      </trkpt>
      <trkpt lat="46.53736" lon="0.33182">
        <ele>103.2</ele>
        <time>2022-03-06T08:08:25Z</time>
      </trkpt>
      <trkpt lat="46.53743" lon="0.33189">
        <ele>102.8</ele>
        <time>2022-03-06T08:08:27Z</time>
      </trkpt>
      <trkpt lat="46.53746" lon="0.33192">
        <ele>102.4</ele>
        <time>2022-03-06T08:08:28Z</time>
      </trkpt>
      <trkpt lat="46.53749" lon="0.33194">
        <ele>101.8</ele>
        <time>2022-03-06T08:08:29Z</time>
      </trkpt>
      <trkpt lat="46.53753" lon="0.33194">
        <ele>100.8</ele>
        <time>2022-03-06T08:08:30Z</time>
      </trkpt>
      <trkpt lat="46.53756" lon="0.33193">
        <ele>99.6</ele>
        <time>2022-03-06T08:08:31Z</time>
      </trkpt>
      <trkpt lat="46.53763" lon="0.3319">
        <ele>98.2</ele>
        <time>2022-03-06T08:08:33Z</time>
      </trkpt>
      <trkpt lat="46.53766" lon="0.3319">
        <ele>97</ele>
        <time>2022-03-06T08:08:34Z</time>
      </trkpt>
      <trkpt lat="46.5377" lon="0.33189">
        <ele>95.8</ele>
        <time>2022-03-06T08:08:35Z</time>
      </trkpt>
      <trkpt lat="46.53773" lon="0.33189">
        <ele>94.8</ele>
        <time>2022-03-06T08:08:36Z</time>
      </trkpt>
      <trkpt lat="46.53777" lon="0.33187">
        <ele>92.8</ele>
        <time>2022-03-06T08:08:38Z</time>
      </trkpt>
      <trkpt lat="46.53779" lon="0.33182">
        <ele>91.6</ele>
        <time>2022-03-06T08:08:40Z</time>
      </trkpt>
      <trkpt lat="46.53781" lon="0.33179">
        <ele>90.2</ele>
        <time>2022-03-06T08:08:42Z</time>
      </trkpt>
      <trkpt lat="46.53782" lon="0.33176">
        <ele>89.6</ele>
        <time>2022-03-06T08:08:43Z</time>
      </trkpt>
      <trkpt lat="46.53782" lon="0.33172">
        <ele>89</ele>
        <time>2022-03-06T08:08:44Z</time>
      </trkpt>
      <trkpt lat="46.53783" lon="0.33167">
        <ele>88.4</ele>
        <time>2022-03-06T08:08:45Z</time>
      </trkpt>
      <trkpt lat="46.53784" lon="0.33163">
        <ele>87.8</ele>
        <time>2022-03-06T08:08:46Z</time>
      </trkpt>
      <trkpt lat="46.53786" lon="0.33159">
        <ele>87.2</ele>
        <time>2022-03-06T08:08:47Z</time>
      </trkpt>
      <trkpt lat="46.53788" lon="0.33155">
        <ele>86.2</ele>
        <time>2022-03-06T08:08:48Z</time>
      </trkpt>
      <trkpt lat="46.5379" lon="0.3315">
        <ele>84.6</ele>
        <time>2022-03-06T08:08:50Z</time>
      </trkpt>
      <trkpt lat="46.53795" lon="0.33145">
        <ele>83.4</ele>
        <time>2022-03-06T08:08:52Z</time>
      </trkpt>
      <trkpt lat="46.53798" lon="0.33142">
        <ele>82.4</ele>
        <time>2022-03-06T08:08:53Z</time>
      </trkpt>
      <trkpt lat="46.538" lon="0.33139">
        <ele>81.2</ele>
        <time>2022-03-06T08:08:54Z</time>
      </trkpt>
      <trkpt lat="46.53806" lon="0.33131">
        <ele>79.4</ele>
        <time>2022-03-06T08:08:56Z</time>
      </trkpt>
      <trkpt lat="46.53808" lon="0.33127">
        <ele>78.2</ele>
        <time>2022-03-06T08:08:57Z</time>
      </trkpt>
      <trkpt lat="46.53813" lon="0.3312">
        <ele>77.2</ele>
        <time>2022-03-06T08:08:59Z</time>
      </trkpt>
      <trkpt lat="46.53814" lon="0.33117">
        <ele>76</ele>
        <time>2022-03-06T08:09:00Z</time>
      </trkpt>
      <trkpt lat="46.53816" lon="0.33114">
        <ele>75.2</ele>
        <time>2022-03-06T08:09:01Z</time>
      </trkpt>
      <trkpt lat="46.53819" lon="0.3311">
        <ele>74.4</ele>
        <time>2022-03-06T08:09:02Z</time>
      </trkpt>
      <trkpt lat="46.53822" lon="0.33107">
        <ele>74</ele>
        <time>2022-03-06T08:09:03Z</time>
      </trkpt>
      <trkpt lat="46.53828" lon="0.33101">
        <ele>73</ele>
        <time>2022-03-06T08:09:05Z</time>
      </trkpt>
      <trkpt lat="46.53829" lon="0.33097">
        <ele>72.4</ele>
        <time>2022-03-06T08:09:06Z</time>
      </trkpt>
      <trkpt lat="46.53831" lon="0.33093">
        <ele>71.6</ele>
        <time>2022-03-06T08:09:07Z</time>
      </trkpt>
      <trkpt lat="46.53831" lon="0.3309">
        <ele>70.6</ele>
        <time>2022-03-06T08:09:08Z</time>
      </trkpt>
      <trkpt lat="46.53832" lon="0.33083">
        <ele>70</ele>
        <time>2022-03-06T08:09:09Z</time>
      </trkpt>
      <trkpt lat="46.53834" lon="0.33078">
        <ele>69.8</ele>
        <time>2022-03-06T08:09:10Z</time>
      </trkpt>
      <trkpt lat="46.53838" lon="0.33062">
        <ele>69</ele>
        <time>2022-03-06T08:09:13Z</time>
      </trkpt>
      <trkpt lat="46.53842" lon="0.3304">
        <ele>68.8</ele>
        <time>2022-03-06T08:09:17Z</time>
      </trkpt>
      <trkpt lat="46.53845" lon="0.33033">
        <ele>68.8</ele>
        <time>2022-03-06T08:09:18Z</time>
      </trkpt>
      <trkpt lat="46.53848" lon="0.33021">
        <ele>68.6</ele>
        <time>2022-03-06T08:09:20Z</time>
      </trkpt>
      <trkpt lat="46.53852" lon="0.33016">
        <ele>68.8</ele>
        <time>2022-03-06T08:09:21Z</time>
      </trkpt>
      <trkpt lat="46.5386" lon="0.33006">
        <ele>69.2</ele>
        <time>2022-03-06T08:09:23Z</time>
      </trkpt>
      <trkpt lat="46.53865" lon="0.32996">
        <ele>69.2</ele>
        <time>2022-03-06T08:09:25Z</time>
      </trkpt>
      <trkpt lat="46.5387" lon="0.32986">
        <ele>69.2</ele>
        <time>2022-03-06T08:09:27Z</time>
      </trkpt>
      <trkpt lat="46.53875" lon="0.32981">
        <ele>69</ele>
        <time>2022-03-06T08:09:28Z</time>
      </trkpt>
      <trkpt lat="46.53889" lon="0.3297">
        <ele>68.8</ele>
        <time>2022-03-06T08:09:30Z</time>
      </trkpt>
      <trkpt lat="46.539" lon="0.32964">
        <ele>68.8</ele>
        <time>2022-03-06T08:09:31Z</time>
      </trkpt>
      <trkpt lat="46.53912" lon="0.32958">
        <ele>68.6</ele>
        <time>2022-03-06T08:09:33Z</time>
      </trkpt>
      <trkpt lat="46.53923" lon="0.32953">
        <ele>68</ele>
        <time>2022-03-06T08:09:35Z</time>
      </trkpt>
      <trkpt lat="46.53928" lon="0.32949">
        <ele>67.8</ele>
        <time>2022-03-06T08:09:36Z</time>
      </trkpt>
      <trkpt lat="46.53951" lon="0.32938">
        <ele>67</ele>
        <time>2022-03-06T08:09:40Z</time>
      </trkpt>
      <trkpt lat="46.5396" lon="0.32932">
        <ele>66.8</ele>
        <time>2022-03-06T08:09:42Z</time>
      </trkpt>
      <trkpt lat="46.53964" lon="0.32929">
        <ele>66.8</ele>
        <time>2022-03-06T08:09:43Z</time>
      </trkpt>
      <trkpt lat="46.53992" lon="0.32914">
        <ele>66.8</ele>
        <time>2022-03-06T08:09:48Z</time>
      </trkpt>
      <trkpt lat="46.53996" lon="0.32912">
        <ele>66.8</ele>
        <time>2022-03-06T08:09:49Z</time>
      </trkpt>
      <trkpt lat="46.54015" lon="0.32899">
        <ele>67.4</ele>
        <time>2022-03-06T08:09:55Z</time>
      </trkpt>
      <trkpt lat="46.54027" lon="0.32892">
        <ele>68</ele>
        <time>2022-03-06T08:09:58Z</time>
      </trkpt>
      <trkpt lat="46.54034" lon="0.32887">
        <ele>68.4</ele>
        <time>2022-03-06T08:10:00Z</time>
      </trkpt>
      <trkpt lat="46.54055" lon="0.32875">
        <ele>69</ele>
        <time>2022-03-06T08:10:06Z</time>
      </trkpt>
      <trkpt lat="46.54056" lon="0.32873">
        <ele>69.2</ele>
        <time>2022-03-06T08:10:07Z</time>
      </trkpt>
      <trkpt lat="46.54062" lon="0.32864">
        <ele>69.8</ele>
        <time>2022-03-06T08:10:10Z</time>
      </trkpt>
      <trkpt lat="46.54064" lon="0.32863">
        <ele>69.8</ele>
        <time>2022-03-06T08:10:11Z</time>
      </trkpt>
      <trkpt lat="46.54073" lon="0.32852">
        <ele>69.8</ele>
        <time>2022-03-06T08:10:14Z</time>
      </trkpt>
      <trkpt lat="46.54078" lon="0.32844">
        <ele>69.6</ele>
        <time>2022-03-06T08:10:16Z</time>
      </trkpt>
      <trkpt lat="46.54091" lon="0.3283">
        <ele>69</ele>
        <time>2022-03-06T08:10:19Z</time>
      </trkpt>
      <trkpt lat="46.54115" lon="0.32815">
        <ele>68</ele>
        <time>2022-03-06T08:10:24Z</time>
      </trkpt>
      <trkpt lat="46.54124" lon="0.32809">
        <ele>67.6</ele>
        <time>2022-03-06T08:10:26Z</time>
      </trkpt>
      <trkpt lat="46.54135" lon="0.32804">
        <ele>67.4</ele>
        <time>2022-03-06T08:10:28Z</time>
      </trkpt>
      <trkpt lat="46.54146" lon="0.32798">
        <ele>67.2</ele>
        <time>2022-03-06T08:10:30Z</time>
      </trkpt>
      <trkpt lat="46.54178" lon="0.32779">
        <ele>67.4</ele>
        <time>2022-03-06T08:10:36Z</time>
      </trkpt>
      <trkpt lat="46.54186" lon="0.32768">
        <ele>67.4</ele>
        <time>2022-03-06T08:10:38Z</time>
      </trkpt>
      <trkpt lat="46.54191" lon="0.32752">
        <ele>67.6</ele>
        <time>2022-03-06T08:10:41Z</time>
      </trkpt>
      <trkpt lat="46.54197" lon="0.32737">
        <ele>67.6</ele>
        <time>2022-03-06T08:10:46Z</time>
      </trkpt>
      <trkpt lat="46.542" lon="0.3273">
        <ele>67.4</ele>
        <time>2022-03-06T08:10:49Z</time>
      </trkpt>
      <trkpt lat="46.54206" lon="0.32728">
        <ele>67.4</ele>
        <time>2022-03-06T08:10:51Z</time>
      </trkpt>
      <trkpt lat="46.54225" lon="0.32728">
        <ele>67.8</ele>
        <time>2022-03-06T08:10:56Z</time>
      </trkpt>
      <trkpt lat="46.54241" lon="0.32724">
        <ele>68.2</ele>
        <time>2022-03-06T08:11:01Z</time>
      </trkpt>
      <trkpt lat="46.54255" lon="0.32721">
        <ele>69.2</ele>
        <time>2022-03-06T08:11:07Z</time>
      </trkpt>
      <trkpt lat="46.54262" lon="0.3272">
        <ele>70.4</ele>
        <time>2022-03-06T08:11:11Z</time>
      </trkpt>
      <trkpt lat="46.54263" lon="0.3272">
        <ele>70.4</ele>
        <time>2022-03-06T08:11:12Z</time>
      </trkpt>
      <trkpt lat="46.54263" lon="0.3272">
        <ele>71.4</ele>
        <time>2022-03-06T08:11:14Z</time>
      </trkpt>
      <trkpt lat="46.54274" lon="0.32719">
        <ele>72.6</ele>
        <time>2022-03-06T08:11:18Z</time>
      </trkpt>
      <trkpt lat="46.54275" lon="0.3272">
        <ele>72.8</ele>
        <time>2022-03-06T08:11:19Z</time>
      </trkpt>
      <trkpt lat="46.54279" lon="0.3272">
        <ele>73.6</ele>
        <time>2022-03-06T08:11:21Z</time>
      </trkpt>
      <trkpt lat="46.54286" lon="0.32718">
        <ele>74.6</ele>
        <time>2022-03-06T08:11:26Z</time>
      </trkpt>
      <trkpt lat="46.54288" lon="0.32717">
        <ele>74.8</ele>
        <time>2022-03-06T08:11:27Z</time>
      </trkpt>
      <trkpt lat="46.54289" lon="0.32716">
        <ele>75.2</ele>
        <time>2022-03-06T08:11:28Z</time>
      </trkpt>
      <trkpt lat="46.54291" lon="0.32716">
        <ele>75.8</ele>
        <time>2022-03-06T08:11:30Z</time>
      </trkpt>
      <trkpt lat="46.54293" lon="0.32715">
        <ele>76</ele>
        <time>2022-03-06T08:11:32Z</time>
      </trkpt>
      <trkpt lat="46.54294" lon="0.32715">
        <ele>76.2</ele>
        <time>2022-03-06T08:11:33Z</time>
      </trkpt>
      <trkpt lat="46.54295" lon="0.32716">
        <ele>76.2</ele>
        <time>2022-03-06T08:11:34Z</time>
      </trkpt>
      <trkpt lat="46.54296" lon="0.32716">
        <ele>76.2</ele>
        <time>2022-03-06T08:11:36Z</time>
      </trkpt>
      <trkpt lat="46.54299" lon="0.32716">
        <ele>77</ele>
        <time>2022-03-06T08:11:40Z</time>
      </trkpt>
      <trkpt lat="46.54301" lon="0.32715">
        <ele>78</ele>
        <time>2022-03-06T08:11:44Z</time>
      </trkpt>
      <trkpt lat="46.54302" lon="0.32716">
        <ele>78.4</ele>
        <time>2022-03-06T08:11:45Z</time>
      </trkpt>
      <trkpt lat="46.54302" lon="0.32716">
        <ele>78.4</ele>
        <time>2022-03-06T08:11:46Z</time>
      </trkpt>
      <trkpt lat="46.5431" lon="0.32717">
        <ele>79.2</ele>
        <time>2022-03-06T08:11:53Z</time>
      </trkpt>
      <trkpt lat="46.54313" lon="0.32716">
        <ele>80.2</ele>
        <time>2022-03-06T08:12:00Z</time>
      </trkpt>
      <trkpt lat="46.54318" lon="0.32714">
        <ele>81.4</ele>
        <time>2022-03-06T08:12:07Z</time>
      </trkpt>
      <trkpt lat="46.5432" lon="0.32713">
        <ele>82.4</ele>
        <time>2022-03-06T08:12:11Z</time>
      </trkpt>
      <trkpt lat="46.54321" lon="0.32712">
        <ele>82.8</ele>
        <time>2022-03-06T08:12:13Z</time>
      </trkpt>
      <trkpt lat="46.54326" lon="0.3271">
        <ele>83.6</ele>
        <time>2022-03-06T08:12:20Z</time>
      </trkpt>
      <trkpt lat="46.54329" lon="0.32709">
        <ele>84.6</ele>
        <time>2022-03-06T08:12:26Z</time>
      </trkpt>
      <trkpt lat="46.54332" lon="0.32708">
        <ele>85.6</ele>
        <time>2022-03-06T08:12:31Z</time>
      </trkpt>
      <trkpt lat="46.54335" lon="0.32705">
        <ele>86.8</ele>
        <time>2022-03-06T08:12:39Z</time>
      </trkpt>
      <trkpt lat="46.54336" lon="0.32705">
        <ele>87</ele>
        <time>2022-03-06T08:12:40Z</time>
      </trkpt>
      <trkpt lat="46.5434" lon="0.32702">
        <ele>88</ele>
        <time>2022-03-06T08:12:46Z</time>
      </trkpt>
      <trkpt lat="46.54343" lon="0.327">
        <ele>89</ele>
        <time>2022-03-06T08:12:53Z</time>
      </trkpt>
      <trkpt lat="46.54346" lon="0.32701">
        <ele>90</ele>
        <time>2022-03-06T08:12:57Z</time>
      </trkpt>
      <trkpt lat="46.54349" lon="0.32699">
        <ele>91.2</ele>
        <time>2022-03-06T08:13:03Z</time>
      </trkpt>
      <trkpt lat="46.54351" lon="0.32699">
        <ele>91.4</ele>
        <time>2022-03-06T08:13:06Z</time>
      </trkpt>
      <trkpt lat="46.54355" lon="0.327">
        <ele>92.2</ele>
        <time>2022-03-06T08:13:11Z</time>
      </trkpt>
      <trkpt lat="46.54356" lon="0.32701">
        <ele>92.4</ele>
        <time>2022-03-06T08:13:12Z</time>
      </trkpt>
      <trkpt lat="46.54358" lon="0.32701">
        <ele>93.4</ele>
        <time>2022-03-06T08:13:15Z</time>
      </trkpt>
      <trkpt lat="46.54361" lon="0.32701">
        <ele>94.2</ele>
        <time>2022-03-06T08:13:20Z</time>
      </trkpt>
      <trkpt lat="46.54361" lon="0.32701">
        <ele>94.2</ele>
        <time>2022-03-06T08:13:21Z</time>
      </trkpt>
      <trkpt lat="46.54362" lon="0.32701">
        <ele>94.4</ele>
        <time>2022-03-06T08:13:22Z</time>
      </trkpt>
      <trkpt lat="46.54367" lon="0.32702">
        <ele>95.4</ele>
        <time>2022-03-06T08:13:27Z</time>
      </trkpt>
      <trkpt lat="46.54368" lon="0.32702">
        <ele>95.6</ele>
        <time>2022-03-06T08:13:28Z</time>
      </trkpt>
      <trkpt lat="46.5437" lon="0.32702">
        <ele>95.8</ele>
        <time>2022-03-06T08:13:30Z</time>
      </trkpt>
      <trkpt lat="46.54371" lon="0.32703">
        <ele>96</ele>
        <time>2022-03-06T08:13:32Z</time>
      </trkpt>
      <trkpt lat="46.54372" lon="0.32703">
        <ele>96</ele>
        <time>2022-03-06T08:13:33Z</time>
      </trkpt>
      <trkpt lat="46.54373" lon="0.32704">
        <ele>96.2</ele>
        <time>2022-03-06T08:13:45Z</time>
      </trkpt>
      <trkpt lat="46.54378" lon="0.32706">
        <ele>96.2</ele>
        <time>2022-03-06T08:14:03Z</time>
      </trkpt>
      <trkpt lat="46.54378" lon="0.32706">
        <ele>96.4</ele>
        <time>2022-03-06T08:14:20Z</time>
      </trkpt>
      <trkpt lat="46.5438" lon="0.32706">
        <ele>96</ele>
        <time>2022-03-06T08:14:39Z</time>
      </trkpt>
      <trkpt lat="46.54381" lon="0.32703">
        <ele>96</ele>
        <time>2022-03-06T08:14:57Z</time>
      </trkpt>
      <trkpt lat="46.5438" lon="0.32703">
        <ele>96</ele>
        <time>2022-03-06T08:15:11Z</time>
      </trkpt>
      <trkpt lat="46.5438" lon="0.32703">
        <ele>96</ele>
        <time>2022-03-06T08:15:14Z</time>
      </trkpt>
      <trkpt lat="46.54382" lon="0.32703">
        <ele>96</ele>
        <time>2022-03-06T08:15:25Z</time>
      </trkpt>
      <trkpt lat="46.54381" lon="0.32703">
        <ele>96</ele>
        <time>2022-03-06T08:15:41Z</time>
      </trkpt>
      <trkpt lat="46.54381" lon="0.32702">
        <ele>96</ele>
        <time>2022-03-06T08:15:59Z</time>
      </trkpt>
      <trkpt lat="46.54381" lon="0.32701">
        <ele>96</ele>
        <time>2022-03-06T08:16:15Z</time>
      </trkpt>
      <trkpt lat="46.54382" lon="0.32699">
        <ele>96</ele>
        <time>2022-03-06T08:16:27Z</time>
      </trkpt>
      <trkpt lat="46.54384" lon="0.32697">
        <ele>98.8</ele>
        <time>2022-03-06T08:16:29Z</time>
      </trkpt>
      <trkpt lat="46.54385" lon="0.32696">
        <ele>98.8</ele>
        <time>2022-03-06T08:16:31Z</time>
      </trkpt>
      <trkpt lat="46.54387" lon="0.32695">
        <ele>99</ele>
        <time>2022-03-06T08:16:35Z</time>
      </trkpt>
      <trkpt lat="46.54393" lon="0.32695">
        <ele>99.8</ele>
        <time>2022-03-06T08:16:40Z</time>
      </trkpt>
      <trkpt lat="46.54395" lon="0.32696">
        <ele>100</ele>
        <time>2022-03-06T08:16:41Z</time>
      </trkpt>
      <trkpt lat="46.544" lon="0.32697">
        <ele>101</ele>
        <time>2022-03-06T08:16:45Z</time>
      </trkpt>
      <trkpt lat="46.5441" lon="0.32696">
        <ele>101.8</ele>
        <time>2022-03-06T08:16:52Z</time>
      </trkpt>
      <trkpt lat="46.54414" lon="0.32696">
        <ele>102</ele>
        <time>2022-03-06T08:16:54Z</time>
      </trkpt>
      <trkpt lat="46.54419" lon="0.32696">
        <ele>102.4</ele>
        <time>2022-03-06T08:16:58Z</time>
      </trkpt>
      <trkpt lat="46.54426" lon="0.32694">
        <ele>102.4</ele>
        <time>2022-03-06T08:17:04Z</time>
      </trkpt>
      <trkpt lat="46.54433" lon="0.32688">
        <ele>103</ele>
        <time>2022-03-06T08:17:11Z</time>
      </trkpt>
      <trkpt lat="46.5444" lon="0.32686">
        <ele>103.4</ele>
        <time>2022-03-06T08:17:15Z</time>
      </trkpt>
      <trkpt lat="46.54447" lon="0.32684">
        <ele>104</ele>
        <time>2022-03-06T08:17:19Z</time>
      </trkpt>
      <trkpt lat="46.54461" lon="0.32681">
        <ele>105.2</ele>
        <time>2022-03-06T08:17:26Z</time>
      </trkpt>
      <trkpt lat="46.54464" lon="0.3268">
        <ele>105.6</ele>
        <time>2022-03-06T08:17:28Z</time>
      </trkpt>
      <trkpt lat="46.54476" lon="0.32677">
        <ele>106.2</ele>
        <time>2022-03-06T08:17:34Z</time>
      </trkpt>
      <trkpt lat="46.54489" lon="0.32677">
        <ele>106.6</ele>
        <time>2022-03-06T08:17:39Z</time>
      </trkpt>
      <trkpt lat="46.545" lon="0.32675">
        <ele>107.2</ele>
        <time>2022-03-06T08:17:44Z</time>
      </trkpt>
      <trkpt lat="46.54503" lon="0.32676">
        <ele>107.2</ele>
        <time>2022-03-06T08:17:46Z</time>
      </trkpt>
      <trkpt lat="46.54504" lon="0.32679">
        <ele>107.2</ele>
        <time>2022-03-06T08:17:48Z</time>
      </trkpt>
      <trkpt lat="46.54506" lon="0.32683">
        <ele>107.4</ele>
        <time>2022-03-06T08:17:50Z</time>
      </trkpt>
      <trkpt lat="46.54511" lon="0.32698">
        <ele>108.4</ele>
        <time>2022-03-06T08:17:57Z</time>
      </trkpt>
      <trkpt lat="46.54512" lon="0.327">
        <ele>108.6</ele>
        <time>2022-03-06T08:17:58Z</time>
      </trkpt>
      <trkpt lat="46.54519" lon="0.32709">
        <ele>109.4</ele>
        <time>2022-03-06T08:18:02Z</time>
      </trkpt>
      <trkpt lat="46.54523" lon="0.32712">
        <ele>109.8</ele>
        <time>2022-03-06T08:18:04Z</time>
      </trkpt>
      <trkpt lat="46.54523" lon="0.32712">
        <ele>110.4</ele>
        <time>2022-03-06T08:18:07Z</time>
      </trkpt>
      <trkpt lat="46.54538" lon="0.32725">
        <ele>111.2</ele>
        <time>2022-03-06T08:18:11Z</time>
      </trkpt>
      <trkpt lat="46.54544" lon="0.32734">
        <ele>111.6</ele>
        <time>2022-03-06T08:18:15Z</time>
      </trkpt>
      <trkpt lat="46.54545" lon="0.32736">
        <ele>111.8</ele>
        <time>2022-03-06T08:18:16Z</time>
      </trkpt>
      <trkpt lat="46.54549" lon="0.32744">
        <ele>112.6</ele>
        <time>2022-03-06T08:18:20Z</time>
      </trkpt>
      <trkpt lat="46.54552" lon="0.3275">
        <ele>113.4</ele>
        <time>2022-03-06T08:18:22Z</time>
      </trkpt>
      <trkpt lat="46.5456" lon="0.32759">
        <ele>113.6</ele>
        <time>2022-03-06T08:18:26Z</time>
      </trkpt>
      <trkpt lat="46.54562" lon="0.32761">
        <ele>114</ele>
        <time>2022-03-06T08:18:27Z</time>
      </trkpt>
      <trkpt lat="46.54568" lon="0.32764">
        <ele>114.4</ele>
        <time>2022-03-06T08:18:30Z</time>
      </trkpt>
      <trkpt lat="46.54571" lon="0.32772">
        <ele>114.4</ele>
        <time>2022-03-06T08:18:32Z</time>
      </trkpt>
      <trkpt lat="46.54572" lon="0.32775">
        <ele>114.8</ele>
        <time>2022-03-06T08:18:33Z</time>
      </trkpt>
      <trkpt lat="46.54577" lon="0.32788">
        <ele>115</ele>
        <time>2022-03-06T08:18:37Z</time>
      </trkpt>
      <trkpt lat="46.54584" lon="0.32803">
        <ele>115.8</ele>
        <time>2022-03-06T08:18:41Z</time>
      </trkpt>
      <trkpt lat="46.54586" lon="0.32806">
        <ele>116</ele>
        <time>2022-03-06T08:18:42Z</time>
      </trkpt>
      <trkpt lat="46.54586" lon="0.32809">
        <ele>116.2</ele>
        <time>2022-03-06T08:18:43Z</time>
      </trkpt>
      <trkpt lat="46.5459" lon="0.3282">
        <ele>116.6</ele>
        <time>2022-03-06T08:18:47Z</time>
      </trkpt>
      <trkpt lat="46.54591" lon="0.32824">
        <ele>116.8</ele>
        <time>2022-03-06T08:18:48Z</time>
      </trkpt>
      <trkpt lat="46.54596" lon="0.32829">
        <ele>117.2</ele>
        <time>2022-03-06T08:18:51Z</time>
      </trkpt>
      <trkpt lat="46.54598" lon="0.32829">
        <ele>117.4</ele>
        <time>2022-03-06T08:18:52Z</time>
      </trkpt>
      <trkpt lat="46.54599" lon="0.32829">
        <ele>117.6</ele>
        <time>2022-03-06T08:18:53Z</time>
      </trkpt>
      <trkpt lat="46.54608" lon="0.32839">
        <ele>117.8</ele>
        <time>2022-03-06T08:18:57Z</time>
      </trkpt>
      <trkpt lat="46.54609" lon="0.32842">
        <ele>117.8</ele>
        <time>2022-03-06T08:18:58Z</time>
      </trkpt>
      <trkpt lat="46.54622" lon="0.32858">
        <ele>118.2</ele>
        <time>2022-03-06T08:19:03Z</time>
      </trkpt>
      <trkpt lat="46.54637" lon="0.32865">
        <ele>118.6</ele>
        <time>2022-03-06T08:19:08Z</time>
      </trkpt>
      <trkpt lat="46.54639" lon="0.32867">
        <ele>118.8</ele>
        <time>2022-03-06T08:19:09Z</time>
      </trkpt>
      <trkpt lat="46.54643" lon="0.32871">
        <ele>119</ele>
        <time>2022-03-06T08:19:10Z</time>
      </trkpt>
      <trkpt lat="46.54649" lon="0.3288">
        <ele>119.4</ele>
        <time>2022-03-06T08:19:12Z</time>
      </trkpt>
      <trkpt lat="46.54658" lon="0.32904">
        <ele>119.6</ele>
        <time>2022-03-06T08:19:17Z</time>
      </trkpt>
      <trkpt lat="46.5466" lon="0.3291">
        <ele>119.2</ele>
        <time>2022-03-06T08:19:18Z</time>
      </trkpt>
      <trkpt lat="46.54666" lon="0.32917">
        <ele>119</ele>
        <time>2022-03-06T08:19:20Z</time>
      </trkpt>
      <trkpt lat="46.54668" lon="0.3292">
        <ele>118.8</ele>
        <time>2022-03-06T08:19:21Z</time>
      </trkpt>
      <trkpt lat="46.54682" lon="0.32937">
        <ele>119.4</ele>
        <time>2022-03-06T08:19:26Z</time>
      </trkpt>
      <trkpt lat="46.54688" lon="0.32944">
        <ele>119.6</ele>
        <time>2022-03-06T08:19:28Z</time>
      </trkpt>
      <trkpt lat="46.54697" lon="0.32949">
        <ele>119.6</ele>
        <time>2022-03-06T08:19:30Z</time>
      </trkpt>
      <trkpt lat="46.547" lon="0.32949">
        <ele>119.6</ele>
        <time>2022-03-06T08:19:31Z</time>
      </trkpt>
      <trkpt lat="46.54703" lon="0.32949">
        <ele>119.8</ele>
        <time>2022-03-06T08:19:32Z</time>
      </trkpt>
      <trkpt lat="46.54711" lon="0.32943">
        <ele>119.8</ele>
        <time>2022-03-06T08:19:35Z</time>
      </trkpt>
      <trkpt lat="46.54718" lon="0.32939">
        <ele>120</ele>
        <time>2022-03-06T08:19:37Z</time>
      </trkpt>
      <trkpt lat="46.54726" lon="0.32936">
        <ele>120</ele>
        <time>2022-03-06T08:19:39Z</time>
      </trkpt>
      <trkpt lat="46.54729" lon="0.32934">
        <ele>120</ele>
        <time>2022-03-06T08:19:40Z</time>
      </trkpt>
      <trkpt lat="46.54732" lon="0.32933">
        <ele>120.2</ele>
        <time>2022-03-06T08:19:41Z</time>
      </trkpt>
      <trkpt lat="46.54738" lon="0.32929">
        <ele>120.4</ele>
        <time>2022-03-06T08:19:43Z</time>
      </trkpt>
      <trkpt lat="46.54744" lon="0.32923">
        <ele>120.6</ele>
        <time>2022-03-06T08:19:45Z</time>
      </trkpt>
      <trkpt lat="46.54749" lon="0.32916">
        <ele>120.6</ele>
        <time>2022-03-06T08:19:47Z</time>
      </trkpt>
      <trkpt lat="46.54759" lon="0.32897">
        <ele>120.6</ele>
        <time>2022-03-06T08:19:51Z</time>
      </trkpt>
      <trkpt lat="46.54764" lon="0.32886">
        <ele>120.4</ele>
        <time>2022-03-06T08:19:53Z</time>
      </trkpt>
      <trkpt lat="46.54768" lon="0.32881">
        <ele>120.2</ele>
        <time>2022-03-06T08:19:55Z</time>
      </trkpt>
      <trkpt lat="46.54777" lon="0.32889">
        <ele>120.6</ele>
        <time>2022-03-06T08:19:59Z</time>
      </trkpt>
      <trkpt lat="46.54779" lon="0.32893">
        <ele>120.6</ele>
        <time>2022-03-06T08:20:00Z</time>
      </trkpt>
      <trkpt lat="46.54785" lon="0.32903">
        <ele>120.6</ele>
        <time>2022-03-06T08:20:02Z</time>
      </trkpt>
      <trkpt lat="46.54789" lon="0.32912">
        <ele>120.6</ele>
        <time>2022-03-06T08:20:04Z</time>
      </trkpt>
      <trkpt lat="46.54793" lon="0.32929">
        <ele>120.4</ele>
        <time>2022-03-06T08:20:07Z</time>
      </trkpt>
      <trkpt lat="46.54795" lon="0.32941">
        <ele>120.4</ele>
        <time>2022-03-06T08:20:09Z</time>
      </trkpt>
      <trkpt lat="46.54796" lon="0.32962">
        <ele>120.4</ele>
        <time>2022-03-06T08:20:12Z</time>
      </trkpt>
      <trkpt lat="46.54796" lon="0.32974">
        <ele>120.4</ele>
        <time>2022-03-06T08:20:14Z</time>
      </trkpt>
      <trkpt lat="46.54799" lon="0.33009">
        <ele>119.8</ele>
        <time>2022-03-06T08:20:19Z</time>
      </trkpt>
      <trkpt lat="46.54803" lon="0.33023">
        <ele>119.4</ele>
        <time>2022-03-06T08:20:21Z</time>
      </trkpt>
      <trkpt lat="46.54808" lon="0.33042">
        <ele>119</ele>
        <time>2022-03-06T08:20:24Z</time>
      </trkpt>
      <trkpt lat="46.5481" lon="0.33055">
        <ele>118.4</ele>
        <time>2022-03-06T08:20:26Z</time>
      </trkpt>
      <trkpt lat="46.54813" lon="0.33068">
        <ele>118</ele>
        <time>2022-03-06T08:20:28Z</time>
      </trkpt>
      <trkpt lat="46.54817" lon="0.33091">
        <ele>117.2</ele>
        <time>2022-03-06T08:20:31Z</time>
      </trkpt>
      <trkpt lat="46.54819" lon="0.331">
        <ele>117</ele>
        <time>2022-03-06T08:20:32Z</time>
      </trkpt>
      <trkpt lat="46.54824" lon="0.33116">
        <ele>116</ele>
        <time>2022-03-06T08:20:33Z</time>
      </trkpt>
      <trkpt lat="46.54832" lon="0.33137">
        <ele>115</ele>
        <time>2022-03-06T08:20:37Z</time>
      </trkpt>
      <trkpt lat="46.54841" lon="0.3316">
        <ele>113.8</ele>
        <time>2022-03-06T08:20:40Z</time>
      </trkpt>
      <trkpt lat="46.54847" lon="0.33176">
        <ele>112.8</ele>
        <time>2022-03-06T08:20:42Z</time>
      </trkpt>
      <trkpt lat="46.5485" lon="0.33184">
        <ele>112.6</ele>
        <time>2022-03-06T08:20:43Z</time>
      </trkpt>
      <trkpt lat="46.54857" lon="0.33204">
        <ele>111</ele>
        <time>2022-03-06T08:20:46Z</time>
      </trkpt>
      <trkpt lat="46.54859" lon="0.3321">
        <ele>110.6</ele>
        <time>2022-03-06T08:20:47Z</time>
      </trkpt>
      <trkpt lat="46.54861" lon="0.33215">
        <ele>110</ele>
        <time>2022-03-06T08:20:48Z</time>
      </trkpt>
      <trkpt lat="46.54864" lon="0.33221">
        <ele>108.6</ele>
        <time>2022-03-06T08:20:49Z</time>
      </trkpt>
      <trkpt lat="46.5487" lon="0.33231">
        <ele>107</ele>
        <time>2022-03-06T08:20:51Z</time>
      </trkpt>
      <trkpt lat="46.54873" lon="0.33236">
        <ele>106.8</ele>
        <time>2022-03-06T08:20:52Z</time>
      </trkpt>
      <trkpt lat="46.54875" lon="0.33241">
        <ele>106.2</ele>
        <time>2022-03-06T08:20:53Z</time>
      </trkpt>
      <trkpt lat="46.54877" lon="0.33245">
        <ele>105</ele>
        <time>2022-03-06T08:20:54Z</time>
      </trkpt>
      <trkpt lat="46.54879" lon="0.3325">
        <ele>103.8</ele>
        <time>2022-03-06T08:20:55Z</time>
      </trkpt>
      <trkpt lat="46.54883" lon="0.33255">
        <ele>103</ele>
        <time>2022-03-06T08:20:56Z</time>
      </trkpt>
      <trkpt lat="46.54888" lon="0.3326">
        <ele>102.2</ele>
        <time>2022-03-06T08:20:57Z</time>
      </trkpt>
      <trkpt lat="46.54897" lon="0.33269">
        <ele>100.4</ele>
        <time>2022-03-06T08:20:59Z</time>
      </trkpt>
      <trkpt lat="46.54902" lon="0.33276">
        <ele>98.8</ele>
        <time>2022-03-06T08:21:01Z</time>
      </trkpt>
      <trkpt lat="46.54908" lon="0.33283">
        <ele>96.6</ele>
        <time>2022-03-06T08:21:02Z</time>
      </trkpt>
      <trkpt lat="46.54911" lon="0.33287">
        <ele>95.4</ele>
        <time>2022-03-06T08:21:04Z</time>
      </trkpt>
      <trkpt lat="46.54914" lon="0.33292">
        <ele>94.4</ele>
        <time>2022-03-06T08:21:05Z</time>
      </trkpt>
      <trkpt lat="46.54917" lon="0.33296">
        <ele>93.4</ele>
        <time>2022-03-06T08:21:06Z</time>
      </trkpt>
      <trkpt lat="46.5492" lon="0.333">
        <ele>93</ele>
        <time>2022-03-06T08:21:07Z</time>
      </trkpt>
      <trkpt lat="46.54922" lon="0.33302">
        <ele>91.8</ele>
        <time>2022-03-06T08:21:08Z</time>
      </trkpt>
      <trkpt lat="46.54924" lon="0.33305">
        <ele>91.2</ele>
        <time>2022-03-06T08:21:09Z</time>
      </trkpt>
      <trkpt lat="46.54926" lon="0.33307">
        <ele>90.8</ele>
        <time>2022-03-06T08:21:10Z</time>
      </trkpt>
      <trkpt lat="46.54929" lon="0.3331">
        <ele>89.4</ele>
        <time>2022-03-06T08:21:12Z</time>
      </trkpt>
      <trkpt lat="46.54932" lon="0.33312">
        <ele>88.8</ele>
        <time>2022-03-06T08:21:13Z</time>
      </trkpt>
      <trkpt lat="46.54933" lon="0.33315">
        <ele>88.4</ele>
        <time>2022-03-06T08:21:14Z</time>
      </trkpt>
      <trkpt lat="46.54933" lon="0.33321">
        <ele>87.2</ele>
        <time>2022-03-06T08:21:16Z</time>
      </trkpt>
      <trkpt lat="46.54932" lon="0.33322">
        <ele>86.8</ele>
        <time>2022-03-06T08:21:17Z</time>
      </trkpt>
      <trkpt lat="46.54929" lon="0.33325">
        <ele>86</ele>
        <time>2022-03-06T08:21:20Z</time>
      </trkpt>
      <trkpt lat="46.54924" lon="0.33327">
        <ele>86</ele>
        <time>2022-03-06T08:21:23Z</time>
      </trkpt>
      <trkpt lat="46.54911" lon="0.33333">
        <ele>85.6</ele>
        <time>2022-03-06T08:21:27Z</time>
      </trkpt>
      <trkpt lat="46.54908" lon="0.33335">
        <ele>85.6</ele>
        <time>2022-03-06T08:21:28Z</time>
      </trkpt>
      <trkpt lat="46.54882" lon="0.33354">
        <ele>85.6</ele>
        <time>2022-03-06T08:21:33Z</time>
      </trkpt>
      <trkpt lat="46.5486" lon="0.33378">
        <ele>85.6</ele>
        <time>2022-03-06T08:21:39Z</time>
      </trkpt>
      <trkpt lat="46.54843" lon="0.33396">
        <ele>85.6</ele>
        <time>2022-03-06T08:21:44Z</time>
      </trkpt>
      <trkpt lat="46.5484" lon="0.33401">
        <ele>85.6</ele>
        <time>2022-03-06T08:21:45Z</time>
      </trkpt>
      <trkpt lat="46.54819" lon="0.33437">
        <ele>85.6</ele>
        <time>2022-03-06T08:21:51Z</time>
      </trkpt>
      <trkpt lat="46.54783" lon="0.33501">
        <ele>86</ele>
        <time>2022-03-06T08:22:01Z</time>
      </trkpt>
      <trkpt lat="46.54748" lon="0.33566">
        <ele>85.6</ele>
        <time>2022-03-06T08:22:12Z</time>
      </trkpt>
      <trkpt lat="46.54726" lon="0.33607">
        <ele>86</ele>
        <time>2022-03-06T08:22:20Z</time>
      </trkpt>
      <trkpt lat="46.54715" lon="0.33621">
        <ele>85.8</ele>
        <time>2022-03-06T08:22:23Z</time>
      </trkpt>
      <trkpt lat="46.54704" lon="0.33633">
        <ele>85.6</ele>
        <time>2022-03-06T08:22:26Z</time>
      </trkpt>
      <trkpt lat="46.54699" lon="0.33637">
        <ele>85.6</ele>
        <time>2022-03-06T08:22:28Z</time>
      </trkpt>
      <trkpt lat="46.54695" lon="0.33641">
        <ele>85.6</ele>
        <time>2022-03-06T08:22:30Z</time>
      </trkpt>
      <trkpt lat="46.54678" lon="0.33648">
        <ele>85.4</ele>
        <time>2022-03-06T08:22:35Z</time>
      </trkpt>
      <trkpt lat="46.54662" lon="0.3365">
        <ele>85.8</ele>
        <time>2022-03-06T08:22:39Z</time>
      </trkpt>
      <trkpt lat="46.54653" lon="0.33647">
        <ele>85.8</ele>
        <time>2022-03-06T08:22:41Z</time>
      </trkpt>
      <trkpt lat="46.5464" lon="0.3364">
        <ele>85.8</ele>
        <time>2022-03-06T08:22:44Z</time>
      </trkpt>
      <trkpt lat="46.54626" lon="0.33629">
        <ele>86.2</ele>
        <time>2022-03-06T08:22:47Z</time>
      </trkpt>
      <trkpt lat="46.54605" lon="0.33611">
        <ele>87</ele>
        <time>2022-03-06T08:22:53Z</time>
      </trkpt>
      <trkpt lat="46.54601" lon="0.33609">
        <ele>87</ele>
        <time>2022-03-06T08:22:54Z</time>
      </trkpt>
      <trkpt lat="46.54598" lon="0.33609">
        <ele>87.2</ele>
        <time>2022-03-06T08:22:55Z</time>
      </trkpt>
      <trkpt lat="46.54595" lon="0.33611">
        <ele>87.2</ele>
        <time>2022-03-06T08:22:56Z</time>
      </trkpt>
      <trkpt lat="46.54594" lon="0.33614">
        <ele>87.6</ele>
        <time>2022-03-06T08:22:57Z</time>
      </trkpt>
      <trkpt lat="46.54591" lon="0.33623">
        <ele>88.6</ele>
        <time>2022-03-06T08:23:00Z</time>
      </trkpt>
      <trkpt lat="46.54589" lon="0.33635">
        <ele>90</ele>
        <time>2022-03-06T08:23:03Z</time>
      </trkpt>
      <trkpt lat="46.54586" lon="0.33646">
        <ele>91.8</ele>
        <time>2022-03-06T08:23:06Z</time>
      </trkpt>
      <trkpt lat="46.54583" lon="0.33655">
        <ele>93.2</ele>
        <time>2022-03-06T08:23:09Z</time>
      </trkpt>
      <trkpt lat="46.54579" lon="0.33659">
        <ele>93.6</ele>
        <time>2022-03-06T08:23:10Z</time>
      </trkpt>
      <trkpt lat="46.54579" lon="0.33659">
        <ele>93.6</ele>
        <time>2022-03-06T08:23:11Z</time>
      </trkpt>
      <trkpt lat="46.54577" lon="0.33659">
        <ele>94</ele>
        <time>2022-03-06T08:23:12Z</time>
      </trkpt>
      <trkpt lat="46.54573" lon="0.33658">
        <ele>94.4</ele>
        <time>2022-03-06T08:23:13Z</time>
      </trkpt>
      <trkpt lat="46.54566" lon="0.33655">
        <ele>94.6</ele>
        <time>2022-03-06T08:23:15Z</time>
      </trkpt>
      <trkpt lat="46.5454" lon="0.33644">
        <ele>94.8</ele>
        <time>2022-03-06T08:23:22Z</time>
      </trkpt>
      <trkpt lat="46.54513" lon="0.3363">
        <ele>94.6</ele>
        <time>2022-03-06T08:23:29Z</time>
      </trkpt>
      <trkpt lat="46.5449" lon="0.33621">
        <ele>94.2</ele>
        <time>2022-03-06T08:23:34Z</time>
      </trkpt>
      <trkpt lat="46.54476" lon="0.33618">
        <ele>94.2</ele>
        <time>2022-03-06T08:23:37Z</time>
      </trkpt>
      <trkpt lat="46.5444" lon="0.33619">
        <ele>93.6</ele>
        <time>2022-03-06T08:23:45Z</time>
      </trkpt>
      <trkpt lat="46.54421" lon="0.33619">
        <ele>93.2</ele>
        <time>2022-03-06T08:23:49Z</time>
      </trkpt>
      <trkpt lat="46.54409" lon="0.33618">
        <ele>92.8</ele>
        <time>2022-03-06T08:23:51Z</time>
      </trkpt>
      <trkpt lat="46.54371" lon="0.33618">
        <ele>92.4</ele>
        <time>2022-03-06T08:23:58Z</time>
      </trkpt>
      <trkpt lat="46.54336" lon="0.33618">
        <ele>92.8</ele>
        <time>2022-03-06T08:24:05Z</time>
      </trkpt>
      <trkpt lat="46.54326" lon="0.33622">
        <ele>93.4</ele>
        <time>2022-03-06T08:24:07Z</time>
      </trkpt>
      <trkpt lat="46.54316" lon="0.33629">
        <ele>94</ele>
        <time>2022-03-06T08:24:09Z</time>
      </trkpt>
      <trkpt lat="46.54307" lon="0.33637">
        <ele>94.6</ele>
        <time>2022-03-06T08:24:11Z</time>
      </trkpt>
      <trkpt lat="46.54288" lon="0.33651">
        <ele>95.6</ele>
        <time>2022-03-06T08:24:15Z</time>
      </trkpt>
      <trkpt lat="46.54283" lon="0.33656">
        <ele>96</ele>
        <time>2022-03-06T08:24:16Z</time>
      </trkpt>
      <trkpt lat="46.54263" lon="0.33677">
        <ele>96.8</ele>
        <time>2022-03-06T08:24:21Z</time>
      </trkpt>
      <trkpt lat="46.54255" lon="0.33685">
        <ele>97.4</ele>
        <time>2022-03-06T08:24:23Z</time>
      </trkpt>
      <trkpt lat="46.54247" lon="0.33692">
        <ele>97.8</ele>
        <time>2022-03-06T08:24:25Z</time>
      </trkpt>
      <trkpt lat="46.54231" lon="0.33712">
        <ele>99</ele>
        <time>2022-03-06T08:24:30Z</time>
      </trkpt>
      <trkpt lat="46.54227" lon="0.33716">
        <ele>99.4</ele>
        <time>2022-03-06T08:24:31Z</time>
      </trkpt>
      <trkpt lat="46.54216" lon="0.33736">
        <ele>100.2</ele>
        <time>2022-03-06T08:24:35Z</time>
      </trkpt>
      <trkpt lat="46.54209" lon="0.33752">
        <ele>100.6</ele>
        <time>2022-03-06T08:24:38Z</time>
      </trkpt>
      <trkpt lat="46.542" lon="0.33778">
        <ele>101.4</ele>
        <time>2022-03-06T08:24:43Z</time>
      </trkpt>
      <trkpt lat="46.54197" lon="0.33789">
        <ele>101.8</ele>
        <time>2022-03-06T08:24:45Z</time>
      </trkpt>
      <trkpt lat="46.54188" lon="0.33816">
        <ele>102.4</ele>
        <time>2022-03-06T08:24:51Z</time>
      </trkpt>
      <trkpt lat="46.54188" lon="0.33821">
        <ele>102.6</ele>
        <time>2022-03-06T08:24:52Z</time>
      </trkpt>
      <trkpt lat="46.54188" lon="0.33842">
        <ele>103.6</ele>
        <time>2022-03-06T08:24:56Z</time>
      </trkpt>
      <trkpt lat="46.5419" lon="0.33874">
        <ele>104.8</ele>
        <time>2022-03-06T08:25:01Z</time>
      </trkpt>
      <trkpt lat="46.54192" lon="0.33886">
        <ele>105.6</ele>
        <time>2022-03-06T08:25:03Z</time>
      </trkpt>
      <trkpt lat="46.54192" lon="0.33892">
        <ele>105.8</ele>
        <time>2022-03-06T08:25:04Z</time>
      </trkpt>
      <trkpt lat="46.54195" lon="0.33922">
        <ele>107</ele>
        <time>2022-03-06T08:25:09Z</time>
      </trkpt>
      <trkpt lat="46.54198" lon="0.33944">
        <ele>108</ele>
        <time>2022-03-06T08:25:13Z</time>
      </trkpt>
      <trkpt lat="46.54198" lon="0.33949">
        <ele>108</ele>
        <time>2022-03-06T08:25:14Z</time>
      </trkpt>
      <trkpt lat="46.54197" lon="0.33952">
        <ele>108.2</ele>
        <time>2022-03-06T08:25:15Z</time>
      </trkpt>
      <trkpt lat="46.54195" lon="0.33956">
        <ele>108.2</ele>
        <time>2022-03-06T08:25:16Z</time>
      </trkpt>
      <trkpt lat="46.54188" lon="0.33976">
        <ele>107.8</ele>
        <time>2022-03-06T08:25:21Z</time>
      </trkpt>
      <trkpt lat="46.54187" lon="0.33981">
        <ele>107.8</ele>
        <time>2022-03-06T08:25:22Z</time>
      </trkpt>
      <trkpt lat="46.54188" lon="0.33993">
        <ele>107.8</ele>
        <time>2022-03-06T08:25:24Z</time>
      </trkpt>
      <trkpt lat="46.5419" lon="0.33998">
        <ele>107.6</ele>
        <time>2022-03-06T08:25:25Z</time>
      </trkpt>
      <trkpt lat="46.54194" lon="0.34024">
        <ele>107.8</ele>
        <time>2022-03-06T08:25:30Z</time>
      </trkpt>
      <trkpt lat="46.54193" lon="0.34027">
        <ele>107.6</ele>
        <time>2022-03-06T08:25:31Z</time>
      </trkpt>
      <trkpt lat="46.54191" lon="0.34032">
        <ele>107.6</ele>
        <time>2022-03-06T08:25:33Z</time>
      </trkpt>
      <trkpt lat="46.54191" lon="0.34035">
        <ele>107.6</ele>
        <time>2022-03-06T08:25:34Z</time>
      </trkpt>
      <trkpt lat="46.54188" lon="0.34053">
        <ele>107.6</ele>
        <time>2022-03-06T08:25:39Z</time>
      </trkpt>
      <trkpt lat="46.54187" lon="0.34062">
        <ele>108</ele>
        <time>2022-03-06T08:25:41Z</time>
      </trkpt>
      <trkpt lat="46.54181" lon="0.34074">
        <ele>108.4</ele>
        <time>2022-03-06T08:25:45Z</time>
      </trkpt>
      <trkpt lat="46.54181" lon="0.34078">
        <ele>108.4</ele>
        <time>2022-03-06T08:25:46Z</time>
      </trkpt>
      <trkpt lat="46.54173" lon="0.34097">
        <ele>108.6</ele>
        <time>2022-03-06T08:25:52Z</time>
      </trkpt>
      <trkpt lat="46.54159" lon="0.34123">
        <ele>108.6</ele>
        <time>2022-03-06T08:25:59Z</time>
      </trkpt>
      <trkpt lat="46.54153" lon="0.34139">
        <ele>107</ele>
        <time>2022-03-06T08:26:03Z</time>
      </trkpt>
      <trkpt lat="46.54152" lon="0.34143">
        <ele>106.6</ele>
        <time>2022-03-06T08:26:04Z</time>
      </trkpt>
      <trkpt lat="46.54151" lon="0.34147">
        <ele>106.4</ele>
        <time>2022-03-06T08:26:05Z</time>
      </trkpt>
      <trkpt lat="46.5415" lon="0.3416">
        <ele>105.8</ele>
        <time>2022-03-06T08:26:08Z</time>
      </trkpt>
      <trkpt lat="46.54149" lon="0.34166">
        <ele>105.6</ele>
        <time>2022-03-06T08:26:09Z</time>
      </trkpt>
      <trkpt lat="46.5414" lon="0.34191">
        <ele>105.8</ele>
        <time>2022-03-06T08:26:14Z</time>
      </trkpt>
      <trkpt lat="46.54135" lon="0.34203">
        <ele>106.8</ele>
        <time>2022-03-06T08:26:18Z</time>
      </trkpt>
      <trkpt lat="46.54132" lon="0.34207">
        <ele>107</ele>
        <time>2022-03-06T08:26:19Z</time>
      </trkpt>
      <trkpt lat="46.54122" lon="0.34229">
        <ele>106.6</ele>
        <time>2022-03-06T08:26:24Z</time>
      </trkpt>
      <trkpt lat="46.54119" lon="0.34236">
        <ele>105.8</ele>
        <time>2022-03-06T08:26:26Z</time>
      </trkpt>
      <trkpt lat="46.54112" lon="0.34246">
        <ele>105.2</ele>
        <time>2022-03-06T08:26:28Z</time>
      </trkpt>
      <trkpt lat="46.54112" lon="0.34246">
        <ele>104.2</ele>
        <time>2022-03-06T08:26:30Z</time>
      </trkpt>
      <trkpt lat="46.54108" lon="0.34256">
        <ele>103.8</ele>
        <time>2022-03-06T08:26:31Z</time>
      </trkpt>
      <trkpt lat="46.54107" lon="0.34264">
        <ele>103.4</ele>
        <time>2022-03-06T08:26:33Z</time>
      </trkpt>
      <trkpt lat="46.54105" lon="0.34268">
        <ele>103.2</ele>
        <time>2022-03-06T08:26:34Z</time>
      </trkpt>
      <trkpt lat="46.54103" lon="0.34272">
        <ele>102.8</ele>
        <time>2022-03-06T08:26:35Z</time>
      </trkpt>
      <trkpt lat="46.541" lon="0.34279">
        <ele>101.6</ele>
        <time>2022-03-06T08:26:37Z</time>
      </trkpt>
      <trkpt lat="46.541" lon="0.34282">
        <ele>101</ele>
        <time>2022-03-06T08:26:38Z</time>
      </trkpt>
      <trkpt lat="46.54099" lon="0.34294">
        <ele>100.6</ele>
        <time>2022-03-06T08:26:41Z</time>
      </trkpt>
      <trkpt lat="46.54099" lon="0.34298">
        <ele>100.8</ele>
        <time>2022-03-06T08:26:42Z</time>
      </trkpt>
      <trkpt lat="46.54099" lon="0.34315">
        <ele>100.6</ele>
        <time>2022-03-06T08:26:46Z</time>
      </trkpt>
      <trkpt lat="46.54096" lon="0.34318">
        <ele>99.8</ele>
        <time>2022-03-06T08:26:47Z</time>
      </trkpt>
      <trkpt lat="46.5409" lon="0.34324">
        <ele>99.4</ele>
        <time>2022-03-06T08:26:48Z</time>
      </trkpt>
      <trkpt lat="46.54085" lon="0.34328">
        <ele>98.2</ele>
        <time>2022-03-06T08:26:49Z</time>
      </trkpt>
      <trkpt lat="46.5408" lon="0.34334">
        <ele>97.2</ele>
        <time>2022-03-06T08:26:50Z</time>
      </trkpt>
      <trkpt lat="46.54075" lon="0.3434">
        <ele>96.6</ele>
        <time>2022-03-06T08:26:51Z</time>
      </trkpt>
      <trkpt lat="46.54068" lon="0.34348">
        <ele>95.8</ele>
        <time>2022-03-06T08:26:52Z</time>
      </trkpt>
      <trkpt lat="46.54064" lon="0.34355">
        <ele>95.2</ele>
        <time>2022-03-06T08:26:53Z</time>
      </trkpt>
      <trkpt lat="46.5406" lon="0.34361">
        <ele>94.6</ele>
        <time>2022-03-06T08:26:54Z</time>
      </trkpt>
      <trkpt lat="46.54056" lon="0.34367">
        <ele>94.2</ele>
        <time>2022-03-06T08:26:55Z</time>
      </trkpt>
      <trkpt lat="46.54051" lon="0.34372">
        <ele>94</ele>
        <time>2022-03-06T08:26:56Z</time>
      </trkpt>
      <trkpt lat="46.54041" lon="0.34381">
        <ele>93.8</ele>
        <time>2022-03-06T08:26:58Z</time>
      </trkpt>
      <trkpt lat="46.54035" lon="0.34382">
        <ele>93.4</ele>
        <time>2022-03-06T08:27:00Z</time>
      </trkpt>
      <trkpt lat="46.54028" lon="0.34382">
        <ele>92.8</ele>
        <time>2022-03-06T08:27:03Z</time>
      </trkpt>
      <trkpt lat="46.54028" lon="0.34379">
        <ele>92.6</ele>
        <time>2022-03-06T08:27:05Z</time>
      </trkpt>
      <trkpt lat="46.54029" lon="0.34373">
        <ele>92.2</ele>
        <time>2022-03-06T08:27:07Z</time>
      </trkpt>
      <trkpt lat="46.5403" lon="0.34369">
        <ele>91.2</ele>
        <time>2022-03-06T08:27:08Z</time>
      </trkpt>
      <trkpt lat="46.5403" lon="0.34366">
        <ele>90.4</ele>
        <time>2022-03-06T08:27:09Z</time>
      </trkpt>
      <trkpt lat="46.5403" lon="0.34364">
        <ele>89.2</ele>
        <time>2022-03-06T08:27:10Z</time>
      </trkpt>
      <trkpt lat="46.54029" lon="0.34361">
        <ele>88.2</ele>
        <time>2022-03-06T08:27:11Z</time>
      </trkpt>
      <trkpt lat="46.54029" lon="0.34359">
        <ele>87.4</ele>
        <time>2022-03-06T08:27:12Z</time>
      </trkpt>
      <trkpt lat="46.54026" lon="0.34354">
        <ele>85.8</ele>
        <time>2022-03-06T08:27:14Z</time>
      </trkpt>
      <trkpt lat="46.54025" lon="0.34352">
        <ele>83.6</ele>
        <time>2022-03-06T08:27:15Z</time>
      </trkpt>
      <trkpt lat="46.54023" lon="0.34351">
        <ele>81.8</ele>
        <time>2022-03-06T08:27:16Z</time>
      </trkpt>
      <trkpt lat="46.5402" lon="0.34348">
        <ele>80</ele>
        <time>2022-03-06T08:27:17Z</time>
      </trkpt>
      <trkpt lat="46.54018" lon="0.34346">
        <ele>78.2</ele>
        <time>2022-03-06T08:27:18Z</time>
      </trkpt>
      <trkpt lat="46.54016" lon="0.34343">
        <ele>76.2</ele>
        <time>2022-03-06T08:27:19Z</time>
      </trkpt>
      <trkpt lat="46.54013" lon="0.34342">
        <ele>74</ele>
        <time>2022-03-06T08:27:20Z</time>
      </trkpt>
      <trkpt lat="46.5401" lon="0.3434">
        <ele>72.4</ele>
        <time>2022-03-06T08:27:21Z</time>
      </trkpt>
      <trkpt lat="46.54008" lon="0.34337">
        <ele>71.4</ele>
        <time>2022-03-06T08:27:22Z</time>
      </trkpt>
      <trkpt lat="46.54005" lon="0.34335">
        <ele>70.2</ele>
        <time>2022-03-06T08:27:23Z</time>
      </trkpt>
      <trkpt lat="46.54002" lon="0.34331">
        <ele>69</ele>
        <time>2022-03-06T08:27:25Z</time>
      </trkpt>
      <trkpt lat="46.54001" lon="0.34332">
        <ele>68.2</ele>
        <time>2022-03-06T08:27:26Z</time>
      </trkpt>
      <trkpt lat="46.54" lon="0.34333">
        <ele>67.8</ele>
        <time>2022-03-06T08:27:27Z</time>
      </trkpt>
      <trkpt lat="46.5399" lon="0.3434">
        <ele>67.6</ele>
        <time>2022-03-06T08:27:32Z</time>
      </trkpt>
      <trkpt lat="46.53977" lon="0.34352">
        <ele>68.4</ele>
        <time>2022-03-06T08:27:38Z</time>
      </trkpt>
      <trkpt lat="46.53968" lon="0.34356">
        <ele>69</ele>
        <time>2022-03-06T08:27:42Z</time>
      </trkpt>
      <trkpt lat="46.53965" lon="0.34357">
        <ele>69.2</ele>
        <time>2022-03-06T08:27:43Z</time>
      </trkpt>
      <trkpt lat="46.53956" lon="0.34362">
        <ele>70</ele>
        <time>2022-03-06T08:27:47Z</time>
      </trkpt>
      <trkpt lat="46.53951" lon="0.34368">
        <ele>70.4</ele>
        <time>2022-03-06T08:27:49Z</time>
      </trkpt>
      <trkpt lat="46.53944" lon="0.34377">
        <ele>71.2</ele>
        <time>2022-03-06T08:27:52Z</time>
      </trkpt>
      <trkpt lat="46.53934" lon="0.34393">
        <ele>72.4</ele>
        <time>2022-03-06T08:27:57Z</time>
      </trkpt>
      <trkpt lat="46.53927" lon="0.34405">
        <ele>73.6</ele>
        <time>2022-03-06T08:28:00Z</time>
      </trkpt>
      <trkpt lat="46.53922" lon="0.34419">
        <ele>74.4</ele>
        <time>2022-03-06T08:28:03Z</time>
      </trkpt>
      <trkpt lat="46.53922" lon="0.34424">
        <ele>74.8</ele>
        <time>2022-03-06T08:28:04Z</time>
      </trkpt>
      <trkpt lat="46.53922" lon="0.34437">
        <ele>76.2</ele>
        <time>2022-03-06T08:28:07Z</time>
      </trkpt>
      <trkpt lat="46.53922" lon="0.34445">
        <ele>76.8</ele>
        <time>2022-03-06T08:28:09Z</time>
      </trkpt>
      <trkpt lat="46.53922" lon="0.34452">
        <ele>77.4</ele>
        <time>2022-03-06T08:28:11Z</time>
      </trkpt>
      <trkpt lat="46.53923" lon="0.34463">
        <ele>78.4</ele>
        <time>2022-03-06T08:28:14Z</time>
      </trkpt>
      <trkpt lat="46.53924" lon="0.34466">
        <ele>79</ele>
        <time>2022-03-06T08:28:15Z</time>
      </trkpt>
      <trkpt lat="46.53925" lon="0.34474">
        <ele>79.4</ele>
        <time>2022-03-06T08:28:18Z</time>
      </trkpt>
      <trkpt lat="46.53923" lon="0.3448">
        <ele>79.4</ele>
        <time>2022-03-06T08:28:21Z</time>
      </trkpt>
      <trkpt lat="46.53919" lon="0.34485">
        <ele>79.6</ele>
        <time>2022-03-06T08:28:24Z</time>
      </trkpt>
      <trkpt lat="46.53915" lon="0.34487">
        <ele>79.6</ele>
        <time>2022-03-06T08:28:26Z</time>
      </trkpt>
      <trkpt lat="46.53909" lon="0.34492">
        <ele>79.6</ele>
        <time>2022-03-06T08:28:29Z</time>
      </trkpt>
      <trkpt lat="46.53906" lon="0.34493">
        <ele>79.6</ele>
        <time>2022-03-06T08:28:31Z</time>
      </trkpt>
      <trkpt lat="46.53905" lon="0.34492">
        <ele>79.6</ele>
        <time>2022-03-06T08:28:32Z</time>
      </trkpt>
      <trkpt lat="46.53903" lon="0.34495">
        <ele>79.2</ele>
        <time>2022-03-06T08:28:37Z</time>
      </trkpt>
      <trkpt lat="46.539" lon="0.34496">
        <ele>79.2</ele>
        <time>2022-03-06T08:28:39Z</time>
      </trkpt>
      <trkpt lat="46.53894" lon="0.34499">
        <ele>79.2</ele>
        <time>2022-03-06T08:28:43Z</time>
      </trkpt>
      <trkpt lat="46.53882" lon="0.34503">
        <ele>79.4</ele>
        <time>2022-03-06T08:28:49Z</time>
      </trkpt>
      <trkpt lat="46.53863" lon="0.34506">
        <ele>80</ele>
        <time>2022-03-06T08:28:56Z</time>
      </trkpt>
      <trkpt lat="46.53854" lon="0.34506">
        <ele>80.6</ele>
        <time>2022-03-06T08:28:59Z</time>
      </trkpt>
      <trkpt lat="46.53839" lon="0.34502">
        <ele>81</ele>
        <time>2022-03-06T08:29:04Z</time>
      </trkpt>
      <trkpt lat="46.53815" lon="0.34492">
        <ele>80.8</ele>
        <time>2022-03-06T08:29:10Z</time>
      </trkpt>
      <trkpt lat="46.53786" lon="0.34485">
        <ele>80.8</ele>
        <time>2022-03-06T08:29:17Z</time>
      </trkpt>
      <trkpt lat="46.53781" lon="0.34484">
        <ele>80.8</ele>
        <time>2022-03-06T08:29:18Z</time>
      </trkpt>
      <trkpt lat="46.53754" lon="0.34474">
        <ele>80.8</ele>
        <time>2022-03-06T08:29:24Z</time>
      </trkpt>
      <trkpt lat="46.53725" lon="0.34461">
        <ele>80.4</ele>
        <time>2022-03-06T08:29:29Z</time>
      </trkpt>
      <trkpt lat="46.53686" lon="0.34439">
        <ele>80</ele>
        <time>2022-03-06T08:29:35Z</time>
      </trkpt>
      <trkpt lat="46.53659" lon="0.34427">
        <ele>79.4</ele>
        <time>2022-03-06T08:29:39Z</time>
      </trkpt>
      <trkpt lat="46.53638" lon="0.34419">
        <ele>79.4</ele>
        <time>2022-03-06T08:29:42Z</time>
      </trkpt>
      <trkpt lat="46.53616" lon="0.34414">
        <ele>79.2</ele>
        <time>2022-03-06T08:29:45Z</time>
      </trkpt>
      <trkpt lat="46.53601" lon="0.34414">
        <ele>78.6</ele>
        <time>2022-03-06T08:29:47Z</time>
      </trkpt>
      <trkpt lat="46.53593" lon="0.34415">
        <ele>78.4</ele>
        <time>2022-03-06T08:29:48Z</time>
      </trkpt>
      <trkpt lat="46.53586" lon="0.34415">
        <ele>78.2</ele>
        <time>2022-03-06T08:29:49Z</time>
      </trkpt>
      <trkpt lat="46.53571" lon="0.3441">
        <ele>78.2</ele>
        <time>2022-03-06T08:29:51Z</time>
      </trkpt>
      <trkpt lat="46.53558" lon="0.34401">
        <ele>78.2</ele>
        <time>2022-03-06T08:29:53Z</time>
      </trkpt>
      <trkpt lat="46.53546" lon="0.3439">
        <ele>78.2</ele>
        <time>2022-03-06T08:29:55Z</time>
      </trkpt>
      <trkpt lat="46.53529" lon="0.34377">
        <ele>78.2</ele>
        <time>2022-03-06T08:29:58Z</time>
      </trkpt>
      <trkpt lat="46.53518" lon="0.34371">
        <ele>78.8</ele>
        <time>2022-03-06T08:30:00Z</time>
      </trkpt>
      <trkpt lat="46.53496" lon="0.34363">
        <ele>79.6</ele>
        <time>2022-03-06T08:30:04Z</time>
      </trkpt>
      <trkpt lat="46.53486" lon="0.34359">
        <ele>80</ele>
        <time>2022-03-06T08:30:06Z</time>
      </trkpt>
      <trkpt lat="46.53464" lon="0.34351">
        <ele>80.6</ele>
        <time>2022-03-06T08:30:10Z</time>
      </trkpt>
      <trkpt lat="46.53443" lon="0.34344">
        <ele>81.2</ele>
        <time>2022-03-06T08:30:14Z</time>
      </trkpt>
      <trkpt lat="46.53432" lon="0.34344">
        <ele>81.4</ele>
        <time>2022-03-06T08:30:16Z</time>
      </trkpt>
      <trkpt lat="46.53415" lon="0.34346">
        <ele>81.4</ele>
        <time>2022-03-06T08:30:19Z</time>
      </trkpt>
      <trkpt lat="46.53403" lon="0.34345">
        <ele>81.2</ele>
        <time>2022-03-06T08:30:21Z</time>
      </trkpt>
      <trkpt lat="46.53385" lon="0.34339">
        <ele>81.2</ele>
        <time>2022-03-06T08:30:24Z</time>
      </trkpt>
      <trkpt lat="46.53379" lon="0.34336">
        <ele>81</ele>
        <time>2022-03-06T08:30:25Z</time>
      </trkpt>
      <trkpt lat="46.53359" lon="0.3432">
        <ele>80.6</ele>
        <time>2022-03-06T08:30:29Z</time>
      </trkpt>
      <trkpt lat="46.5332" lon="0.34281">
        <ele>80.6</ele>
        <time>2022-03-06T08:30:37Z</time>
      </trkpt>
      <trkpt lat="46.53277" lon="0.34253">
        <ele>81.6</ele>
        <time>2022-03-06T08:30:45Z</time>
      </trkpt>
      <trkpt lat="46.53261" lon="0.34244">
        <ele>81.6</ele>
        <time>2022-03-06T08:30:48Z</time>
      </trkpt>
      <trkpt lat="46.53245" lon="0.34233">
        <ele>81.8</ele>
        <time>2022-03-06T08:30:51Z</time>
      </trkpt>
      <trkpt lat="46.5321" lon="0.34199">
        <ele>82</ele>
        <time>2022-03-06T08:30:58Z</time>
      </trkpt>
      <trkpt lat="46.5317" lon="0.34154">
        <ele>81.6</ele>
        <time>2022-03-06T08:31:06Z</time>
      </trkpt>
      <trkpt lat="46.53131" lon="0.34113">
        <ele>81.2</ele>
        <time>2022-03-06T08:31:13Z</time>
      </trkpt>
      <trkpt lat="46.53099" lon="0.34094">
        <ele>80.6</ele>
        <time>2022-03-06T08:31:18Z</time>
      </trkpt>
      <trkpt lat="46.53085" lon="0.34086">
        <ele>80.2</ele>
        <time>2022-03-06T08:31:20Z</time>
      </trkpt>
      <trkpt lat="46.53057" lon="0.34069">
        <ele>79.6</ele>
        <time>2022-03-06T08:31:24Z</time>
      </trkpt>
      <trkpt lat="46.53042" lon="0.3406">
        <ele>78.6</ele>
        <time>2022-03-06T08:31:26Z</time>
      </trkpt>
      <trkpt lat="46.53034" lon="0.34058">
        <ele>78.2</ele>
        <time>2022-03-06T08:31:27Z</time>
      </trkpt>
      <trkpt lat="46.53026" lon="0.34057">
        <ele>78</ele>
        <time>2022-03-06T08:31:28Z</time>
      </trkpt>
      <trkpt lat="46.52994" lon="0.34057">
        <ele>76.8</ele>
        <time>2022-03-06T08:31:32Z</time>
      </trkpt>
      <trkpt lat="46.52961" lon="0.34053">
        <ele>75.4</ele>
        <time>2022-03-06T08:31:37Z</time>
      </trkpt>
      <trkpt lat="46.52955" lon="0.34051">
        <ele>75</ele>
        <time>2022-03-06T08:31:38Z</time>
      </trkpt>
      <trkpt lat="46.52946" lon="0.34039">
        <ele>74.2</ele>
        <time>2022-03-06T08:31:40Z</time>
      </trkpt>
      <trkpt lat="46.52942" lon="0.3402">
        <ele>73.6</ele>
        <time>2022-03-06T08:31:42Z</time>
      </trkpt>
      <trkpt lat="46.52941" lon="0.3401">
        <ele>73.2</ele>
        <time>2022-03-06T08:31:43Z</time>
      </trkpt>
      <trkpt lat="46.52941" lon="0.33978">
        <ele>72.8</ele>
        <time>2022-03-06T08:31:46Z</time>
      </trkpt>
      <trkpt lat="46.52937" lon="0.33956">
        <ele>72.2</ele>
        <time>2022-03-06T08:31:48Z</time>
      </trkpt>
      <trkpt lat="46.52932" lon="0.33934">
        <ele>71.4</ele>
        <time>2022-03-06T08:31:50Z</time>
      </trkpt>
      <trkpt lat="46.52922" lon="0.33917">
        <ele>71</ele>
        <time>2022-03-06T08:31:52Z</time>
      </trkpt>
      <trkpt lat="46.52909" lon="0.33909">
        <ele>70.6</ele>
        <time>2022-03-06T08:31:54Z</time>
      </trkpt>
      <trkpt lat="46.52901" lon="0.33909">
        <ele>70.4</ele>
        <time>2022-03-06T08:31:55Z</time>
      </trkpt>
      <trkpt lat="46.52843" lon="0.33912">
        <ele>70</ele>
        <time>2022-03-06T08:32:03Z</time>
      </trkpt>
      <trkpt lat="46.52836" lon="0.33913">
        <ele>70</ele>
        <time>2022-03-06T08:32:04Z</time>
      </trkpt>
      <trkpt lat="46.52809" lon="0.33919">
        <ele>70</ele>
        <time>2022-03-06T08:32:08Z</time>
      </trkpt>
      <trkpt lat="46.52791" lon="0.33922">
        <ele>70.2</ele>
        <time>2022-03-06T08:32:11Z</time>
      </trkpt>
      <trkpt lat="46.52786" lon="0.33926">
        <ele>70.2</ele>
        <time>2022-03-06T08:32:12Z</time>
      </trkpt>
      <trkpt lat="46.52782" lon="0.33931">
        <ele>70.4</ele>
        <time>2022-03-06T08:32:13Z</time>
      </trkpt>
      <trkpt lat="46.52778" lon="0.33946">
        <ele>70.4</ele>
        <time>2022-03-06T08:32:15Z</time>
      </trkpt>
      <trkpt lat="46.52773" lon="0.33979">
        <ele>71</ele>
        <time>2022-03-06T08:32:19Z</time>
      </trkpt>
      <trkpt lat="46.52771" lon="0.33986">
        <ele>71.2</ele>
        <time>2022-03-06T08:32:20Z</time>
      </trkpt>
      <trkpt lat="46.52765" lon="0.34011">
        <ele>72.2</ele>
        <time>2022-03-06T08:32:24Z</time>
      </trkpt>
      <trkpt lat="46.52763" lon="0.34016">
        <ele>73</ele>
        <time>2022-03-06T08:32:25Z</time>
      </trkpt>
      <trkpt lat="46.52761" lon="0.3402">
        <ele>73.6</ele>
        <time>2022-03-06T08:32:26Z</time>
      </trkpt>
      <trkpt lat="46.52755" lon="0.34026">
        <ele>75</ele>
        <time>2022-03-06T08:32:29Z</time>
      </trkpt>
      <trkpt lat="46.52745" lon="0.34029">
        <ele>76.2</ele>
        <time>2022-03-06T08:32:32Z</time>
      </trkpt>
      <trkpt lat="46.52736" lon="0.34032">
        <ele>76.8</ele>
        <time>2022-03-06T08:32:35Z</time>
      </trkpt>
      <trkpt lat="46.52733" lon="0.34033">
        <ele>77.6</ele>
        <time>2022-03-06T08:32:36Z</time>
      </trkpt>
      <trkpt lat="46.52723" lon="0.34036">
        <ele>78.8</ele>
        <time>2022-03-06T08:32:39Z</time>
      </trkpt>
      <trkpt lat="46.5271" lon="0.3404">
        <ele>79.6</ele>
        <time>2022-03-06T08:32:43Z</time>
      </trkpt>
      <trkpt lat="46.52699" lon="0.34042">
        <ele>79.8</ele>
        <time>2022-03-06T08:32:46Z</time>
      </trkpt>
      <trkpt lat="46.52695" lon="0.34041">
        <ele>80</ele>
        <time>2022-03-06T08:32:47Z</time>
      </trkpt>
      <trkpt lat="46.52687" lon="0.34041">
        <ele>80</ele>
        <time>2022-03-06T08:32:49Z</time>
      </trkpt>
      <trkpt lat="46.52683" lon="0.34041">
        <ele>80.2</ele>
        <time>2022-03-06T08:32:50Z</time>
      </trkpt>
      <trkpt lat="46.52676" lon="0.34042">
        <ele>80.4</ele>
        <time>2022-03-06T08:32:52Z</time>
      </trkpt>
      <trkpt lat="46.52665" lon="0.34041">
        <ele>80.6</ele>
        <time>2022-03-06T08:32:55Z</time>
      </trkpt>
      <trkpt lat="46.52654" lon="0.34041">
        <ele>80.8</ele>
        <time>2022-03-06T08:32:58Z</time>
      </trkpt>
      <trkpt lat="46.52651" lon="0.3404">
        <ele>81.2</ele>
        <time>2022-03-06T08:32:59Z</time>
      </trkpt>
      <trkpt lat="46.52643" lon="0.3404">
        <ele>81.4</ele>
        <time>2022-03-06T08:33:01Z</time>
      </trkpt>
      <trkpt lat="46.5262" lon="0.34038">
        <ele>81.4</ele>
        <time>2022-03-06T08:33:06Z</time>
      </trkpt>
      <trkpt lat="46.52604" lon="0.34041">
        <ele>82.2</ele>
        <time>2022-03-06T08:33:11Z</time>
      </trkpt>
      <trkpt lat="46.52596" lon="0.34041">
        <ele>83.4</ele>
        <time>2022-03-06T08:33:14Z</time>
      </trkpt>
      <trkpt lat="46.52587" lon="0.34042">
        <ele>83.8</ele>
        <time>2022-03-06T08:33:17Z</time>
      </trkpt>
      <trkpt lat="46.52578" lon="0.34043">
        <ele>84.4</ele>
        <time>2022-03-06T08:33:20Z</time>
      </trkpt>
      <trkpt lat="46.52571" lon="0.34045">
        <ele>85</ele>
        <time>2022-03-06T08:33:23Z</time>
      </trkpt>
      <trkpt lat="46.52567" lon="0.34046">
        <ele>85.6</ele>
        <time>2022-03-06T08:33:25Z</time>
      </trkpt>
      <trkpt lat="46.52562" lon="0.34049">
        <ele>86.4</ele>
        <time>2022-03-06T08:33:28Z</time>
      </trkpt>
      <trkpt lat="46.52561" lon="0.3405">
        <ele>86.6</ele>
        <time>2022-03-06T08:33:29Z</time>
      </trkpt>
      <trkpt lat="46.52544" lon="0.34053">
        <ele>87.6</ele>
        <time>2022-03-06T08:33:35Z</time>
      </trkpt>
      <trkpt lat="46.52528" lon="0.34061">
        <ele>88.8</ele>
        <time>2022-03-06T08:33:41Z</time>
      </trkpt>
      <trkpt lat="46.52517" lon="0.34067">
        <ele>90.2</ele>
        <time>2022-03-06T08:33:45Z</time>
      </trkpt>
      <trkpt lat="46.52512" lon="0.34074">
        <ele>90.8</ele>
        <time>2022-03-06T08:33:48Z</time>
      </trkpt>
      <trkpt lat="46.52508" lon="0.34079">
        <ele>91.2</ele>
        <time>2022-03-06T08:33:50Z</time>
      </trkpt>
      <trkpt lat="46.52502" lon="0.34089">
        <ele>92.4</ele>
        <time>2022-03-06T08:33:54Z</time>
      </trkpt>
      <trkpt lat="46.52499" lon="0.34094">
        <ele>92.8</ele>
        <time>2022-03-06T08:33:56Z</time>
      </trkpt>
      <trkpt lat="46.52495" lon="0.34102">
        <ele>93.4</ele>
        <time>2022-03-06T08:33:59Z</time>
      </trkpt>
      <trkpt lat="46.5249" lon="0.34113">
        <ele>94.6</ele>
        <time>2022-03-06T08:34:04Z</time>
      </trkpt>
      <trkpt lat="46.52486" lon="0.34121">
        <ele>95.6</ele>
        <time>2022-03-06T08:34:08Z</time>
      </trkpt>
      <trkpt lat="46.52482" lon="0.34129">
        <ele>96.6</ele>
        <time>2022-03-06T08:34:12Z</time>
      </trkpt>
      <trkpt lat="46.52481" lon="0.34131">
        <ele>96.8</ele>
        <time>2022-03-06T08:34:13Z</time>
      </trkpt>
      <trkpt lat="46.52476" lon="0.34142">
        <ele>97.8</ele>
        <time>2022-03-06T08:34:18Z</time>
      </trkpt>
      <trkpt lat="46.52472" lon="0.3415">
        <ele>99</ele>
        <time>2022-03-06T08:34:22Z</time>
      </trkpt>
      <trkpt lat="46.52467" lon="0.34158">
        <ele>100</ele>
        <time>2022-03-06T08:34:27Z</time>
      </trkpt>
      <trkpt lat="46.52465" lon="0.34162">
        <ele>100.8</ele>
        <time>2022-03-06T08:34:29Z</time>
      </trkpt>
      <trkpt lat="46.52463" lon="0.34166">
        <ele>101</ele>
        <time>2022-03-06T08:34:31Z</time>
      </trkpt>
      <trkpt lat="46.52456" lon="0.34177">
        <ele>102</ele>
        <time>2022-03-06T08:34:37Z</time>
      </trkpt>
      <trkpt lat="46.52451" lon="0.34192">
        <ele>102.8</ele>
        <time>2022-03-06T08:34:43Z</time>
      </trkpt>
      <trkpt lat="46.52447" lon="0.34204">
        <ele>103.2</ele>
        <time>2022-03-06T08:34:47Z</time>
      </trkpt>
      <trkpt lat="46.52445" lon="0.34213">
        <ele>104</ele>
        <time>2022-03-06T08:34:50Z</time>
      </trkpt>
      <trkpt lat="46.52443" lon="0.3422">
        <ele>104.2</ele>
        <time>2022-03-06T08:34:52Z</time>
      </trkpt>
      <trkpt lat="46.5244" lon="0.34238">
        <ele>104.4</ele>
        <time>2022-03-06T08:34:57Z</time>
      </trkpt>
      <trkpt lat="46.52434" lon="0.34257">
        <ele>104.8</ele>
        <time>2022-03-06T08:35:03Z</time>
      </trkpt>
      <trkpt lat="46.52423" lon="0.34276">
        <ele>104.8</ele>
        <time>2022-03-06T08:35:08Z</time>
      </trkpt>
      <trkpt lat="46.52395" lon="0.34308">
        <ele>105.2</ele>
        <time>2022-03-06T08:35:17Z</time>
      </trkpt>
      <trkpt lat="46.5238" lon="0.34324">
        <ele>106.2</ele>
        <time>2022-03-06T08:35:24Z</time>
      </trkpt>
      <trkpt lat="46.52379" lon="0.34326">
        <ele>106.6</ele>
        <time>2022-03-06T08:35:25Z</time>
      </trkpt>
      <trkpt lat="46.52373" lon="0.34333">
        <ele>107.6</ele>
        <time>2022-03-06T08:35:28Z</time>
      </trkpt>
      <trkpt lat="46.52369" lon="0.34338">
        <ele>108</ele>
        <time>2022-03-06T08:35:30Z</time>
      </trkpt>
      <trkpt lat="46.52364" lon="0.34347">
        <ele>108.8</ele>
        <time>2022-03-06T08:35:33Z</time>
      </trkpt>
      <trkpt lat="46.52358" lon="0.34354">
        <ele>110</ele>
        <time>2022-03-06T08:35:36Z</time>
      </trkpt>
      <trkpt lat="46.52352" lon="0.34365">
        <ele>111</ele>
        <time>2022-03-06T08:35:40Z</time>
      </trkpt>
      <trkpt lat="46.52351" lon="0.34368">
        <ele>111.2</ele>
        <time>2022-03-06T08:35:41Z</time>
      </trkpt>
      <trkpt lat="46.52346" lon="0.34377">
        <ele>112.2</ele>
        <time>2022-03-06T08:35:44Z</time>
      </trkpt>
      <trkpt lat="46.5234" lon="0.3439">
        <ele>113.4</ele>
        <time>2022-03-06T08:35:48Z</time>
      </trkpt>
      <trkpt lat="46.52339" lon="0.34392">
        <ele>113.8</ele>
        <time>2022-03-06T08:35:49Z</time>
      </trkpt>
      <trkpt lat="46.52336" lon="0.34402">
        <ele>114.4</ele>
        <time>2022-03-06T08:35:53Z</time>
      </trkpt>
      <trkpt lat="46.52335" lon="0.34409">
        <ele>115.6</ele>
        <time>2022-03-06T08:35:56Z</time>
      </trkpt>
      <trkpt lat="46.52332" lon="0.34418">
        <ele>116.6</ele>
        <time>2022-03-06T08:35:59Z</time>
      </trkpt>
      <trkpt lat="46.52329" lon="0.34428">
        <ele>117.4</ele>
        <time>2022-03-06T08:36:02Z</time>
      </trkpt>
      <trkpt lat="46.52329" lon="0.34431">
        <ele>117.6</ele>
        <time>2022-03-06T08:36:03Z</time>
      </trkpt>
      <trkpt lat="46.52326" lon="0.34442">
        <ele>118.2</ele>
        <time>2022-03-06T08:36:07Z</time>
      </trkpt>
      <trkpt lat="46.52323" lon="0.34454">
        <ele>118.8</ele>
        <time>2022-03-06T08:36:11Z</time>
      </trkpt>
      <trkpt lat="46.52322" lon="0.34461">
        <ele>119.2</ele>
        <time>2022-03-06T08:36:13Z</time>
      </trkpt>
      <trkpt lat="46.5232" lon="0.34476">
        <ele>119.8</ele>
        <time>2022-03-06T08:36:17Z</time>
      </trkpt>
      <trkpt lat="46.52318" lon="0.34488">
        <ele>120.4</ele>
        <time>2022-03-06T08:36:20Z</time>
      </trkpt>
      <trkpt lat="46.52314" lon="0.34508">
        <ele>120.8</ele>
        <time>2022-03-06T08:36:25Z</time>
      </trkpt>
      <trkpt lat="46.52312" lon="0.34518">
        <ele>121</ele>
        <time>2022-03-06T08:36:27Z</time>
      </trkpt>
      <trkpt lat="46.52306" lon="0.3454">
        <ele>121.4</ele>
        <time>2022-03-06T08:36:31Z</time>
      </trkpt>
      <trkpt lat="46.52298" lon="0.34579">
        <ele>122</ele>
        <time>2022-03-06T08:36:38Z</time>
      </trkpt>
      <trkpt lat="46.52296" lon="0.34585">
        <ele>122</ele>
        <time>2022-03-06T08:36:39Z</time>
      </trkpt>
      <trkpt lat="46.52294" lon="0.34598">
        <ele>122.2</ele>
        <time>2022-03-06T08:36:41Z</time>
      </trkpt>
      <trkpt lat="46.5229" lon="0.34619">
        <ele>122.2</ele>
        <time>2022-03-06T08:36:44Z</time>
      </trkpt>
      <trkpt lat="46.52285" lon="0.34672">
        <ele>122.2</ele>
        <time>2022-03-06T08:36:51Z</time>
      </trkpt>
      <trkpt lat="46.52281" lon="0.34728">
        <ele>123</ele>
        <time>2022-03-06T08:36:58Z</time>
      </trkpt>
      <trkpt lat="46.52281" lon="0.34735">
        <ele>123.2</ele>
        <time>2022-03-06T08:36:59Z</time>
      </trkpt>
      <trkpt lat="46.52274" lon="0.34817">
        <ele>123.4</ele>
        <time>2022-03-06T08:37:10Z</time>
      </trkpt>
      <trkpt lat="46.52273" lon="0.34847">
        <ele>123.8</ele>
        <time>2022-03-06T08:37:14Z</time>
      </trkpt>
      <trkpt lat="46.52275" lon="0.34869">
        <ele>124</ele>
        <time>2022-03-06T08:37:17Z</time>
      </trkpt>
      <trkpt lat="46.52277" lon="0.34884">
        <ele>124</ele>
        <time>2022-03-06T08:37:19Z</time>
      </trkpt>
      <trkpt lat="46.52284" lon="0.34915">
        <ele>123.4</ele>
        <time>2022-03-06T08:37:23Z</time>
      </trkpt>
      <trkpt lat="46.52301" lon="0.34991">
        <ele>123.6</ele>
        <time>2022-03-06T08:37:33Z</time>
      </trkpt>
      <trkpt lat="46.523" lon="0.35">
        <ele>123.4</ele>
        <time>2022-03-06T08:37:35Z</time>
      </trkpt>
      <trkpt lat="46.52299" lon="0.35002">
        <ele>123.2</ele>
        <time>2022-03-06T08:37:36Z</time>
      </trkpt>
      <trkpt lat="46.52286" lon="0.35005">
        <ele>122.8</ele>
        <time>2022-03-06T08:37:42Z</time>
      </trkpt>
      <trkpt lat="46.52265" lon="0.35006">
        <ele>122.6</ele>
        <time>2022-03-06T08:37:48Z</time>
      </trkpt>
      <trkpt lat="46.52237" lon="0.35007">
        <ele>122</ele>
        <time>2022-03-06T08:37:54Z</time>
      </trkpt>
      <trkpt lat="46.52232" lon="0.35008">
        <ele>122</ele>
        <time>2022-03-06T08:37:55Z</time>
      </trkpt>
      <trkpt lat="46.52188" lon="0.35009">
        <ele>121.2</ele>
        <time>2022-03-06T08:38:04Z</time>
      </trkpt>
      <trkpt lat="46.52179" lon="0.35008">
        <ele>120.8</ele>
        <time>2022-03-06T08:38:06Z</time>
      </trkpt>
      <trkpt lat="46.5217" lon="0.35003">
        <ele>120.4</ele>
        <time>2022-03-06T08:38:08Z</time>
      </trkpt>
      <trkpt lat="46.52165" lon="0.34999">
        <ele>120.2</ele>
        <time>2022-03-06T08:38:09Z</time>
      </trkpt>
      <trkpt lat="46.52156" lon="0.34993">
        <ele>119.8</ele>
        <time>2022-03-06T08:38:11Z</time>
      </trkpt>
      <trkpt lat="46.52146" lon="0.34986">
        <ele>118.2</ele>
        <time>2022-03-06T08:38:14Z</time>
      </trkpt>
      <trkpt lat="46.52136" lon="0.34979">
        <ele>117.2</ele>
        <time>2022-03-06T08:38:17Z</time>
      </trkpt>
      <trkpt lat="46.5212" lon="0.34971">
        <ele>116</ele>
        <time>2022-03-06T08:38:20Z</time>
      </trkpt>
      <trkpt lat="46.52109" lon="0.34969">
        <ele>114.8</ele>
        <time>2022-03-06T08:38:22Z</time>
      </trkpt>
      <trkpt lat="46.52095" lon="0.34969">
        <ele>113.6</ele>
        <time>2022-03-06T08:38:24Z</time>
      </trkpt>
      <trkpt lat="46.52079" lon="0.34969">
        <ele>112.2</ele>
        <time>2022-03-06T08:38:26Z</time>
      </trkpt>
      <trkpt lat="46.52047" lon="0.3497">
        <ele>111</ele>
        <time>2022-03-06T08:38:30Z</time>
      </trkpt>
      <trkpt lat="46.52028" lon="0.34971">
        <ele>112</ele>
        <time>2022-03-06T08:38:34Z</time>
      </trkpt>
      <trkpt lat="46.52012" lon="0.34972">
        <ele>113.6</ele>
        <time>2022-03-06T08:38:38Z</time>
      </trkpt>
      <trkpt lat="46.52" lon="0.3497">
        <ele>114.4</ele>
        <time>2022-03-06T08:38:41Z</time>
      </trkpt>
      <trkpt lat="46.51994" lon="0.34962">
        <ele>114.8</ele>
        <time>2022-03-06T08:38:43Z</time>
      </trkpt>
      <trkpt lat="46.51992" lon="0.34949">
        <ele>115</ele>
        <time>2022-03-06T08:38:44Z</time>
      </trkpt>
      <trkpt lat="46.51989" lon="0.34934">
        <ele>115</ele>
        <time>2022-03-06T08:38:47Z</time>
      </trkpt>
      <trkpt lat="46.51982" lon="0.34912">
        <ele>114.8</ele>
        <time>2022-03-06T08:38:50Z</time>
      </trkpt>
      <trkpt lat="46.51975" lon="0.34902">
        <ele>115</ele>
        <time>2022-03-06T08:38:52Z</time>
      </trkpt>
      <trkpt lat="46.51969" lon="0.349">
        <ele>115</ele>
        <time>2022-03-06T08:38:53Z</time>
      </trkpt>
      <trkpt lat="46.51964" lon="0.349">
        <ele>115</ele>
        <time>2022-03-06T08:38:54Z</time>
      </trkpt>
      <trkpt lat="46.5195" lon="0.34903">
        <ele>115.6</ele>
        <time>2022-03-06T08:38:57Z</time>
      </trkpt>
      <trkpt lat="46.51945" lon="0.34905">
        <ele>116</ele>
        <time>2022-03-06T08:38:58Z</time>
      </trkpt>
      <trkpt lat="46.51932" lon="0.34908">
        <ele>117.2</ele>
        <time>2022-03-06T08:39:01Z</time>
      </trkpt>
      <trkpt lat="46.5192" lon="0.34911">
        <ele>118.2</ele>
        <time>2022-03-06T08:39:04Z</time>
      </trkpt>
      <trkpt lat="46.51905" lon="0.34913">
        <ele>119.2</ele>
        <time>2022-03-06T08:39:08Z</time>
      </trkpt>
      <trkpt lat="46.51895" lon="0.34915">
        <ele>120</ele>
        <time>2022-03-06T08:39:11Z</time>
      </trkpt>
      <trkpt lat="46.51888" lon="0.34917">
        <ele>120.6</ele>
        <time>2022-03-06T08:39:13Z</time>
      </trkpt>
      <trkpt lat="46.51875" lon="0.34926">
        <ele>121.6</ele>
        <time>2022-03-06T08:39:18Z</time>
      </trkpt>
      <trkpt lat="46.51872" lon="0.34944">
        <ele>122.6</ele>
        <time>2022-03-06T08:39:22Z</time>
      </trkpt>
      <trkpt lat="46.51871" lon="0.34949">
        <ele>122.8</ele>
        <time>2022-03-06T08:39:23Z</time>
      </trkpt>
      <trkpt lat="46.51867" lon="0.34973">
        <ele>123.8</ele>
        <time>2022-03-06T08:39:28Z</time>
      </trkpt>
      <trkpt lat="46.51865" lon="0.34977">
        <ele>124</ele>
        <time>2022-03-06T08:39:29Z</time>
      </trkpt>
      <trkpt lat="46.51855" lon="0.34988">
        <ele>124.8</ele>
        <time>2022-03-06T08:39:33Z</time>
      </trkpt>
      <trkpt lat="46.51835" lon="0.34999">
        <ele>125.8</ele>
        <time>2022-03-06T08:39:39Z</time>
      </trkpt>
      <trkpt lat="46.51832" lon="0.35001">
        <ele>126</ele>
        <time>2022-03-06T08:39:40Z</time>
      </trkpt>
      <trkpt lat="46.51818" lon="0.35008">
        <ele>126.8</ele>
        <time>2022-03-06T08:39:44Z</time>
      </trkpt>
      <trkpt lat="46.51804" lon="0.35017">
        <ele>127.4</ele>
        <time>2022-03-06T08:39:48Z</time>
      </trkpt>
      <trkpt lat="46.51797" lon="0.35023">
        <ele>127.6</ele>
        <time>2022-03-06T08:39:50Z</time>
      </trkpt>
      <trkpt lat="46.5178" lon="0.35031">
        <ele>128</ele>
        <time>2022-03-06T08:39:54Z</time>
      </trkpt>
      <trkpt lat="46.51734" lon="0.35045">
        <ele>128.2</ele>
        <time>2022-03-06T08:40:04Z</time>
      </trkpt>
      <trkpt lat="46.51695" lon="0.35054">
        <ele>128</ele>
        <time>2022-03-06T08:40:12Z</time>
      </trkpt>
      <trkpt lat="46.51649" lon="0.35064">
        <ele>128.2</ele>
        <time>2022-03-06T08:40:21Z</time>
      </trkpt>
      <trkpt lat="46.51616" lon="0.35072">
        <ele>128.4</ele>
        <time>2022-03-06T08:40:27Z</time>
      </trkpt>
      <trkpt lat="46.51595" lon="0.35078">
        <ele>128</ele>
        <time>2022-03-06T08:40:31Z</time>
      </trkpt>
      <trkpt lat="46.51546" lon="0.35096">
        <ele>127.4</ele>
        <time>2022-03-06T08:40:40Z</time>
      </trkpt>
      <trkpt lat="46.51523" lon="0.35102">
        <ele>126.8</ele>
        <time>2022-03-06T08:40:44Z</time>
      </trkpt>
      <trkpt lat="46.51504" lon="0.35105">
        <ele>126.2</ele>
        <time>2022-03-06T08:40:47Z</time>
      </trkpt>
      <trkpt lat="46.51497" lon="0.35105">
        <ele>126.2</ele>
        <time>2022-03-06T08:40:48Z</time>
      </trkpt>
      <trkpt lat="46.51483" lon="0.35101">
        <ele>125.4</ele>
        <time>2022-03-06T08:40:50Z</time>
      </trkpt>
      <trkpt lat="46.51476" lon="0.35099">
        <ele>124.8</ele>
        <time>2022-03-06T08:40:51Z</time>
      </trkpt>
      <trkpt lat="46.51468" lon="0.35096">
        <ele>124.2</ele>
        <time>2022-03-06T08:40:52Z</time>
      </trkpt>
      <trkpt lat="46.51454" lon="0.35087">
        <ele>122.6</ele>
        <time>2022-03-06T08:40:54Z</time>
      </trkpt>
      <trkpt lat="46.51448" lon="0.35079">
        <ele>121.8</ele>
        <time>2022-03-06T08:40:55Z</time>
      </trkpt>
      <trkpt lat="46.51442" lon="0.3507">
        <ele>120.6</ele>
        <time>2022-03-06T08:40:56Z</time>
      </trkpt>
      <trkpt lat="46.51434" lon="0.35048">
        <ele>119</ele>
        <time>2022-03-06T08:40:58Z</time>
      </trkpt>
      <trkpt lat="46.5143" lon="0.35038">
        <ele>117.8</ele>
        <time>2022-03-06T08:40:59Z</time>
      </trkpt>
      <trkpt lat="46.51427" lon="0.35027">
        <ele>116.8</ele>
        <time>2022-03-06T08:41:00Z</time>
      </trkpt>
      <trkpt lat="46.51419" lon="0.35011">
        <ele>114.8</ele>
        <time>2022-03-06T08:41:02Z</time>
      </trkpt>
      <trkpt lat="46.51415" lon="0.35004">
        <ele>114</ele>
        <time>2022-03-06T08:41:03Z</time>
      </trkpt>
      <trkpt lat="46.51411" lon="0.34999">
        <ele>113.2</ele>
        <time>2022-03-06T08:41:04Z</time>
      </trkpt>
      <trkpt lat="46.51406" lon="0.34995">
        <ele>112</ele>
        <time>2022-03-06T08:41:05Z</time>
      </trkpt>
      <trkpt lat="46.514" lon="0.34994">
        <ele>111</ele>
        <time>2022-03-06T08:41:06Z</time>
      </trkpt>
      <trkpt lat="46.51395" lon="0.34995">
        <ele>110.6</ele>
        <time>2022-03-06T08:41:07Z</time>
      </trkpt>
      <trkpt lat="46.51385" lon="0.35003">
        <ele>110</ele>
        <time>2022-03-06T08:41:09Z</time>
      </trkpt>
      <trkpt lat="46.51381" lon="0.35008">
        <ele>110</ele>
        <time>2022-03-06T08:41:10Z</time>
      </trkpt>
      <trkpt lat="46.51374" lon="0.35015">
        <ele>110.2</ele>
        <time>2022-03-06T08:41:12Z</time>
      </trkpt>
      <trkpt lat="46.5137" lon="0.35017">
        <ele>110.2</ele>
        <time>2022-03-06T08:41:13Z</time>
      </trkpt>
      <trkpt lat="46.51356" lon="0.35025">
        <ele>111.2</ele>
        <time>2022-03-06T08:41:16Z</time>
      </trkpt>
      <trkpt lat="46.51347" lon="0.35031">
        <ele>112.4</ele>
        <time>2022-03-06T08:41:18Z</time>
      </trkpt>
      <trkpt lat="46.51342" lon="0.35037">
        <ele>113.6</ele>
        <time>2022-03-06T08:41:20Z</time>
      </trkpt>
      <trkpt lat="46.51338" lon="0.3504">
        <ele>114.2</ele>
        <time>2022-03-06T08:41:22Z</time>
      </trkpt>
      <trkpt lat="46.51337" lon="0.35045">
        <ele>114.4</ele>
        <time>2022-03-06T08:41:25Z</time>
      </trkpt>
      <trkpt lat="46.51337" lon="0.35048">
        <ele>114.6</ele>
        <time>2022-03-06T08:41:26Z</time>
      </trkpt>
      <trkpt lat="46.51338" lon="0.3505">
        <ele>114.8</ele>
        <time>2022-03-06T08:41:27Z</time>
      </trkpt>
      <trkpt lat="46.51342" lon="0.35063">
        <ele>115.8</ele>
        <time>2022-03-06T08:41:31Z</time>
      </trkpt>
      <trkpt lat="46.51346" lon="0.35087">
        <ele>116.8</ele>
        <time>2022-03-06T08:41:37Z</time>
      </trkpt>
      <trkpt lat="46.51347" lon="0.35092">
        <ele>117.4</ele>
        <time>2022-03-06T08:41:38Z</time>
      </trkpt>
      <trkpt lat="46.51351" lon="0.35103">
        <ele>117.8</ele>
        <time>2022-03-06T08:41:41Z</time>
      </trkpt>
      <trkpt lat="46.51355" lon="0.35121">
        <ele>118.4</ele>
        <time>2022-03-06T08:41:46Z</time>
      </trkpt>
      <trkpt lat="46.51357" lon="0.35134">
        <ele>119</ele>
        <time>2022-03-06T08:41:49Z</time>
      </trkpt>
      <trkpt lat="46.51358" lon="0.35147">
        <ele>119.8</ele>
        <time>2022-03-06T08:41:52Z</time>
      </trkpt>
      <trkpt lat="46.51357" lon="0.35151">
        <ele>120</ele>
        <time>2022-03-06T08:41:53Z</time>
      </trkpt>
      <trkpt lat="46.51362" lon="0.35167">
        <ele>120.6</ele>
        <time>2022-03-06T08:41:56Z</time>
      </trkpt>
      <trkpt lat="46.51361" lon="0.35175">
        <ele>121.2</ele>
        <time>2022-03-06T08:41:58Z</time>
      </trkpt>
      <trkpt lat="46.5136" lon="0.35193">
        <ele>121.6</ele>
        <time>2022-03-06T08:42:02Z</time>
      </trkpt>
      <trkpt lat="46.51358" lon="0.35207">
        <ele>122.2</ele>
        <time>2022-03-06T08:42:05Z</time>
      </trkpt>
      <trkpt lat="46.51356" lon="0.35221">
        <ele>122.8</ele>
        <time>2022-03-06T08:42:08Z</time>
      </trkpt>
      <trkpt lat="46.51356" lon="0.35236">
        <ele>123.2</ele>
        <time>2022-03-06T08:42:11Z</time>
      </trkpt>
      <trkpt lat="46.51355" lon="0.35252">
        <ele>123.8</ele>
        <time>2022-03-06T08:42:14Z</time>
      </trkpt>
      <trkpt lat="46.51358" lon="0.35286">
        <ele>124.2</ele>
        <time>2022-03-06T08:42:20Z</time>
      </trkpt>
      <trkpt lat="46.51361" lon="0.35297">
        <ele>124.4</ele>
        <time>2022-03-06T08:42:22Z</time>
      </trkpt>
      <trkpt lat="46.51374" lon="0.35334">
        <ele>124.8</ele>
        <time>2022-03-06T08:42:29Z</time>
      </trkpt>
      <trkpt lat="46.51381" lon="0.3535">
        <ele>125.4</ele>
        <time>2022-03-06T08:42:32Z</time>
      </trkpt>
      <trkpt lat="46.51392" lon="0.35377">
        <ele>125.8</ele>
        <time>2022-03-06T08:42:37Z</time>
      </trkpt>
      <trkpt lat="46.51405" lon="0.35423">
        <ele>126.4</ele>
        <time>2022-03-06T08:42:45Z</time>
      </trkpt>
      <trkpt lat="46.51411" lon="0.35444">
        <ele>126.6</ele>
        <time>2022-03-06T08:42:49Z</time>
      </trkpt>
      <trkpt lat="46.51419" lon="0.35464">
        <ele>127</ele>
        <time>2022-03-06T08:42:53Z</time>
      </trkpt>
      <trkpt lat="46.51424" lon="0.35474">
        <ele>127.2</ele>
        <time>2022-03-06T08:42:55Z</time>
      </trkpt>
      <trkpt lat="46.5143" lon="0.35481">
        <ele>127.2</ele>
        <time>2022-03-06T08:42:57Z</time>
      </trkpt>
      <trkpt lat="46.51434" lon="0.35484">
        <ele>127.2</ele>
        <time>2022-03-06T08:42:58Z</time>
      </trkpt>
      <trkpt lat="46.51438" lon="0.35486">
        <ele>127.2</ele>
        <time>2022-03-06T08:42:59Z</time>
      </trkpt>
      <trkpt lat="46.51457" lon="0.35492">
        <ele>127</ele>
        <time>2022-03-06T08:43:03Z</time>
      </trkpt>
      <trkpt lat="46.51501" lon="0.35499">
        <ele>126.6</ele>
        <time>2022-03-06T08:43:11Z</time>
      </trkpt>
      <trkpt lat="46.5154" lon="0.35497">
        <ele>126.8</ele>
        <time>2022-03-06T08:43:18Z</time>
      </trkpt>
      <trkpt lat="46.51578" lon="0.35481">
        <ele>126.4</ele>
        <time>2022-03-06T08:43:25Z</time>
      </trkpt>
      <trkpt lat="46.51628" lon="0.35453">
        <ele>126.8</ele>
        <time>2022-03-06T08:43:34Z</time>
      </trkpt>
      <trkpt lat="46.51672" lon="0.35435">
        <ele>127</ele>
        <time>2022-03-06T08:43:42Z</time>
      </trkpt>
      <trkpt lat="46.51721" lon="0.35432">
        <ele>127.6</ele>
        <time>2022-03-06T08:43:51Z</time>
      </trkpt>
      <trkpt lat="46.51726" lon="0.35432">
        <ele>127.6</ele>
        <time>2022-03-06T08:43:52Z</time>
      </trkpt>
      <trkpt lat="46.51764" lon="0.35434">
        <ele>128</ele>
        <time>2022-03-06T08:43:59Z</time>
      </trkpt>
      <trkpt lat="46.51784" lon="0.35442">
        <ele>128.2</ele>
        <time>2022-03-06T08:44:03Z</time>
      </trkpt>
      <trkpt lat="46.51788" lon="0.35447">
        <ele>128.4</ele>
        <time>2022-03-06T08:44:04Z</time>
      </trkpt>
      <trkpt lat="46.51791" lon="0.35452">
        <ele>128.6</ele>
        <time>2022-03-06T08:44:05Z</time>
      </trkpt>
      <trkpt lat="46.51794" lon="0.35458">
        <ele>128.6</ele>
        <time>2022-03-06T08:44:06Z</time>
      </trkpt>
      <trkpt lat="46.51803" lon="0.35476">
        <ele>128.8</ele>
        <time>2022-03-06T08:44:09Z</time>
      </trkpt>
      <trkpt lat="46.51806" lon="0.35491">
        <ele>128.8</ele>
        <time>2022-03-06T08:44:11Z</time>
      </trkpt>
      <trkpt lat="46.51807" lon="0.35506">
        <ele>128.8</ele>
        <time>2022-03-06T08:44:13Z</time>
      </trkpt>
      <trkpt lat="46.51811" lon="0.35576">
        <ele>129</ele>
        <time>2022-03-06T08:44:22Z</time>
      </trkpt>
      <trkpt lat="46.51812" lon="0.35617">
        <ele>129</ele>
        <time>2022-03-06T08:44:28Z</time>
      </trkpt>
      <trkpt lat="46.51811" lon="0.35624">
        <ele>129.2</ele>
        <time>2022-03-06T08:44:29Z</time>
      </trkpt>
      <trkpt lat="46.51805" lon="0.35634">
        <ele>129.2</ele>
        <time>2022-03-06T08:44:31Z</time>
      </trkpt>
      <trkpt lat="46.51802" lon="0.35638">
        <ele>129.2</ele>
        <time>2022-03-06T08:44:32Z</time>
      </trkpt>
      <trkpt lat="46.518" lon="0.35641">
        <ele>129.2</ele>
        <time>2022-03-06T08:44:33Z</time>
      </trkpt>
      <trkpt lat="46.51798" lon="0.35646">
        <ele>129.4</ele>
        <time>2022-03-06T08:44:35Z</time>
      </trkpt>
      <trkpt lat="46.51796" lon="0.35662">
        <ele>129.8</ele>
        <time>2022-03-06T08:44:39Z</time>
      </trkpt>
      <trkpt lat="46.51797" lon="0.35668">
        <ele>129.8</ele>
        <time>2022-03-06T08:44:40Z</time>
      </trkpt>
      <trkpt lat="46.518" lon="0.3568">
        <ele>129.8</ele>
        <time>2022-03-06T08:44:42Z</time>
      </trkpt>
      <trkpt lat="46.51806" lon="0.3569">
        <ele>129.8</ele>
        <time>2022-03-06T08:44:44Z</time>
      </trkpt>
      <trkpt lat="46.51819" lon="0.357">
        <ele>129.6</ele>
        <time>2022-03-06T08:44:47Z</time>
      </trkpt>
      <trkpt lat="46.51823" lon="0.35704">
        <ele>129.6</ele>
        <time>2022-03-06T08:44:48Z</time>
      </trkpt>
      <trkpt lat="46.51834" lon="0.35719">
        <ele>129.6</ele>
        <time>2022-03-06T08:44:51Z</time>
      </trkpt>
      <trkpt lat="46.51843" lon="0.35722">
        <ele>129.6</ele>
        <time>2022-03-06T08:44:53Z</time>
      </trkpt>
      <trkpt lat="46.51858" lon="0.35723">
        <ele>129.6</ele>
        <time>2022-03-06T08:44:56Z</time>
      </trkpt>
      <trkpt lat="46.51868" lon="0.35726">
        <ele>129.6</ele>
        <time>2022-03-06T08:44:58Z</time>
      </trkpt>
      <trkpt lat="46.51906" lon="0.3575">
        <ele>129.6</ele>
        <time>2022-03-06T08:45:06Z</time>
      </trkpt>
      <trkpt lat="46.51938" lon="0.35771">
        <ele>129.8</ele>
        <time>2022-03-06T08:45:13Z</time>
      </trkpt>
      <trkpt lat="46.5197" lon="0.35798">
        <ele>129</ele>
        <time>2022-03-06T08:45:21Z</time>
      </trkpt>
      <trkpt lat="46.51994" lon="0.35819">
        <ele>128.6</ele>
        <time>2022-03-06T08:45:27Z</time>
      </trkpt>
      <trkpt lat="46.52005" lon="0.35836">
        <ele>128.2</ele>
        <time>2022-03-06T08:45:30Z</time>
      </trkpt>
      <trkpt lat="46.52021" lon="0.35864">
        <ele>127.4</ele>
        <time>2022-03-06T08:45:34Z</time>
      </trkpt>
      <trkpt lat="46.52033" lon="0.35882">
        <ele>127</ele>
        <time>2022-03-06T08:45:36Z</time>
      </trkpt>
      <trkpt lat="46.52044" lon="0.359">
        <ele>126.2</ele>
        <time>2022-03-06T08:45:38Z</time>
      </trkpt>
      <trkpt lat="46.52074" lon="0.35948">
        <ele>125.2</ele>
        <time>2022-03-06T08:45:43Z</time>
      </trkpt>
      <trkpt lat="46.5208" lon="0.35958">
        <ele>124.4</ele>
        <time>2022-03-06T08:45:44Z</time>
      </trkpt>
      <trkpt lat="46.52092" lon="0.35979">
        <ele>123.2</ele>
        <time>2022-03-06T08:45:46Z</time>
      </trkpt>
      <trkpt lat="46.52116" lon="0.3602">
        <ele>122.2</ele>
        <time>2022-03-06T08:45:50Z</time>
      </trkpt>
      <trkpt lat="46.52122" lon="0.3603">
        <ele>122</ele>
        <time>2022-03-06T08:45:51Z</time>
      </trkpt>
      <trkpt lat="46.52157" lon="0.36092">
        <ele>121.4</ele>
        <time>2022-03-06T08:45:58Z</time>
      </trkpt>
      <trkpt lat="46.52166" lon="0.36109">
        <ele>120.6</ele>
        <time>2022-03-06T08:46:00Z</time>
      </trkpt>
      <trkpt lat="46.52181" lon="0.36147">
        <ele>119.6</ele>
        <time>2022-03-06T08:46:04Z</time>
      </trkpt>
      <trkpt lat="46.52211" lon="0.36224">
        <ele>119.4</ele>
        <time>2022-03-06T08:46:12Z</time>
      </trkpt>
      <trkpt lat="46.52236" lon="0.36275">
        <ele>118.4</ele>
        <time>2022-03-06T08:46:18Z</time>
      </trkpt>
      <trkpt lat="46.5224" lon="0.36283">
        <ele>118</ele>
        <time>2022-03-06T08:46:19Z</time>
      </trkpt>
      <trkpt lat="46.52252" lon="0.36305">
        <ele>117.4</ele>
        <time>2022-03-06T08:46:22Z</time>
      </trkpt>
      <trkpt lat="46.52264" lon="0.36325">
        <ele>117</ele>
        <time>2022-03-06T08:46:25Z</time>
      </trkpt>
      <trkpt lat="46.52277" lon="0.36343">
        <ele>116.4</ele>
        <time>2022-03-06T08:46:28Z</time>
      </trkpt>
      <trkpt lat="46.52282" lon="0.36348">
        <ele>116.2</ele>
        <time>2022-03-06T08:46:29Z</time>
      </trkpt>
      <trkpt lat="46.52287" lon="0.36353">
        <ele>116</ele>
        <time>2022-03-06T08:46:30Z</time>
      </trkpt>
      <trkpt lat="46.52308" lon="0.36374">
        <ele>115.6</ele>
        <time>2022-03-06T08:46:34Z</time>
      </trkpt>
      <trkpt lat="46.52313" lon="0.36381">
        <ele>115.6</ele>
        <time>2022-03-06T08:46:35Z</time>
      </trkpt>
      <trkpt lat="46.52327" lon="0.36408">
        <ele>115.2</ele>
        <time>2022-03-06T08:46:38Z</time>
      </trkpt>
      <trkpt lat="46.52337" lon="0.36428">
        <ele>114.4</ele>
        <time>2022-03-06T08:46:40Z</time>
      </trkpt>
      <trkpt lat="46.52343" lon="0.36438">
        <ele>114.2</ele>
        <time>2022-03-06T08:46:41Z</time>
      </trkpt>
      <trkpt lat="46.52357" lon="0.36471">
        <ele>112.6</ele>
        <time>2022-03-06T08:46:44Z</time>
      </trkpt>
      <trkpt lat="46.5236" lon="0.36482">
        <ele>112.4</ele>
        <time>2022-03-06T08:46:45Z</time>
      </trkpt>
      <trkpt lat="46.52362" lon="0.36492">
        <ele>112</ele>
        <time>2022-03-06T08:46:46Z</time>
      </trkpt>
      <trkpt lat="46.52363" lon="0.36503">
        <ele>111.6</ele>
        <time>2022-03-06T08:46:47Z</time>
      </trkpt>
      <trkpt lat="46.52363" lon="0.36512">
        <ele>111.4</ele>
        <time>2022-03-06T08:46:48Z</time>
      </trkpt>
      <trkpt lat="46.52362" lon="0.36532">
        <ele>111</ele>
        <time>2022-03-06T08:46:50Z</time>
      </trkpt>
      <trkpt lat="46.52359" lon="0.36561">
        <ele>110.6</ele>
        <time>2022-03-06T08:46:53Z</time>
      </trkpt>
      <trkpt lat="46.5236" lon="0.3659">
        <ele>109.8</ele>
        <time>2022-03-06T08:46:56Z</time>
      </trkpt>
      <trkpt lat="46.5236" lon="0.366">
        <ele>109.4</ele>
        <time>2022-03-06T08:46:57Z</time>
      </trkpt>
      <trkpt lat="46.52368" lon="0.36646">
        <ele>108.2</ele>
        <time>2022-03-06T08:47:01Z</time>
      </trkpt>
      <trkpt lat="46.52374" lon="0.3667">
        <ele>106.8</ele>
        <time>2022-03-06T08:47:03Z</time>
      </trkpt>
      <trkpt lat="46.52383" lon="0.36705">
        <ele>105.6</ele>
        <time>2022-03-06T08:47:06Z</time>
      </trkpt>
      <trkpt lat="46.52394" lon="0.36749">
        <ele>105</ele>
        <time>2022-03-06T08:47:10Z</time>
      </trkpt>
      <trkpt lat="46.52401" lon="0.36781">
        <ele>104.6</ele>
        <time>2022-03-06T08:47:13Z</time>
      </trkpt>
      <trkpt lat="46.52414" lon="0.36833">
        <ele>104.2</ele>
        <time>2022-03-06T08:47:18Z</time>
      </trkpt>
      <trkpt lat="46.52424" lon="0.36885">
        <ele>103.4</ele>
        <time>2022-03-06T08:47:23Z</time>
      </trkpt>
      <trkpt lat="46.52426" lon="0.36907">
        <ele>103.4</ele>
        <time>2022-03-06T08:47:25Z</time>
      </trkpt>
      <trkpt lat="46.52429" lon="0.3698">
        <ele>102.4</ele>
        <time>2022-03-06T08:47:32Z</time>
      </trkpt>
      <trkpt lat="46.52432" lon="0.37014">
        <ele>101</ele>
        <time>2022-03-06T08:47:35Z</time>
      </trkpt>
      <trkpt lat="46.52433" lon="0.37038">
        <ele>100.6</ele>
        <time>2022-03-06T08:47:37Z</time>
      </trkpt>
      <trkpt lat="46.52431" lon="0.37049">
        <ele>99.6</ele>
        <time>2022-03-06T08:47:38Z</time>
      </trkpt>
      <trkpt lat="46.52429" lon="0.37061">
        <ele>99.2</ele>
        <time>2022-03-06T08:47:39Z</time>
      </trkpt>
      <trkpt lat="46.52425" lon="0.37072">
        <ele>98</ele>
        <time>2022-03-06T08:47:40Z</time>
      </trkpt>
      <trkpt lat="46.52413" lon="0.37104">
        <ele>97</ele>
        <time>2022-03-06T08:47:43Z</time>
      </trkpt>
      <trkpt lat="46.52401" lon="0.37122">
        <ele>96</ele>
        <time>2022-03-06T08:47:45Z</time>
      </trkpt>
      <trkpt lat="46.52395" lon="0.37131">
        <ele>95.6</ele>
        <time>2022-03-06T08:47:46Z</time>
      </trkpt>
      <trkpt lat="46.52389" lon="0.37141">
        <ele>94.8</ele>
        <time>2022-03-06T08:47:47Z</time>
      </trkpt>
      <trkpt lat="46.52384" lon="0.37153">
        <ele>94</ele>
        <time>2022-03-06T08:47:48Z</time>
      </trkpt>
      <trkpt lat="46.5238" lon="0.37166">
        <ele>93.6</ele>
        <time>2022-03-06T08:47:49Z</time>
      </trkpt>
      <trkpt lat="46.52377" lon="0.37179">
        <ele>93</ele>
        <time>2022-03-06T08:47:50Z</time>
      </trkpt>
      <trkpt lat="46.52371" lon="0.37204">
        <ele>91.2</ele>
        <time>2022-03-06T08:47:52Z</time>
      </trkpt>
      <trkpt lat="46.52366" lon="0.37214">
        <ele>90.6</ele>
        <time>2022-03-06T08:47:53Z</time>
      </trkpt>
      <trkpt lat="46.52358" lon="0.37221">
        <ele>90</ele>
        <time>2022-03-06T08:47:54Z</time>
      </trkpt>
      <trkpt lat="46.52349" lon="0.37224">
        <ele>89.4</ele>
        <time>2022-03-06T08:47:55Z</time>
      </trkpt>
      <trkpt lat="46.52341" lon="0.37225">
        <ele>88.4</ele>
        <time>2022-03-06T08:47:56Z</time>
      </trkpt>
      <trkpt lat="46.52324" lon="0.37226">
        <ele>87.2</ele>
        <time>2022-03-06T08:47:58Z</time>
      </trkpt>
      <trkpt lat="46.52304" lon="0.37245">
        <ele>86.2</ele>
        <time>2022-03-06T08:47:59Z</time>
      </trkpt>
      <trkpt lat="46.52304" lon="0.37245">
        <ele>86</ele>
        <time>2022-03-06T08:48:01Z</time>
      </trkpt>
      <trkpt lat="46.523" lon="0.37254">
        <ele>85.6</ele>
        <time>2022-03-06T08:48:02Z</time>
      </trkpt>
      <trkpt lat="46.523" lon="0.37278">
        <ele>85.4</ele>
        <time>2022-03-06T08:48:04Z</time>
      </trkpt>
      <trkpt lat="46.52302" lon="0.37344">
        <ele>85</ele>
        <time>2022-03-06T08:48:10Z</time>
      </trkpt>
      <trkpt lat="46.52301" lon="0.37385">
        <ele>84.8</ele>
        <time>2022-03-06T08:48:14Z</time>
      </trkpt>
      <trkpt lat="46.52299" lon="0.37403">
        <ele>84.8</ele>
        <time>2022-03-06T08:48:16Z</time>
      </trkpt>
      <trkpt lat="46.52297" lon="0.3743">
        <ele>85</ele>
        <time>2022-03-06T08:48:19Z</time>
      </trkpt>
      <trkpt lat="46.52297" lon="0.37446">
        <ele>85.6</ele>
        <time>2022-03-06T08:48:21Z</time>
      </trkpt>
      <trkpt lat="46.52298" lon="0.37454">
        <ele>85.8</ele>
        <time>2022-03-06T08:48:22Z</time>
      </trkpt>
      <trkpt lat="46.52303" lon="0.37486">
        <ele>86.8</ele>
        <time>2022-03-06T08:48:27Z</time>
      </trkpt>
      <trkpt lat="46.52303" lon="0.37491">
        <ele>87.2</ele>
        <time>2022-03-06T08:48:28Z</time>
      </trkpt>
      <trkpt lat="46.52304" lon="0.37497">
        <ele>87.4</ele>
        <time>2022-03-06T08:48:29Z</time>
      </trkpt>
      <trkpt lat="46.52305" lon="0.37512">
        <ele>88.2</ele>
        <time>2022-03-06T08:48:32Z</time>
      </trkpt>
      <trkpt lat="46.52305" lon="0.37521">
        <ele>88.8</ele>
        <time>2022-03-06T08:48:34Z</time>
      </trkpt>
      <trkpt lat="46.52306" lon="0.37533">
        <ele>89.2</ele>
        <time>2022-03-06T08:48:37Z</time>
      </trkpt>
      <trkpt lat="46.52306" lon="0.3755">
        <ele>90.6</ele>
        <time>2022-03-06T08:48:41Z</time>
      </trkpt>
      <trkpt lat="46.52307" lon="0.37554">
        <ele>90.8</ele>
        <time>2022-03-06T08:48:42Z</time>
      </trkpt>
      <trkpt lat="46.52306" lon="0.37572">
        <ele>91.6</ele>
        <time>2022-03-06T08:48:46Z</time>
      </trkpt>
      <trkpt lat="46.52307" lon="0.37585">
        <ele>92.4</ele>
        <time>2022-03-06T08:48:49Z</time>
      </trkpt>
      <trkpt lat="46.52307" lon="0.37589">
        <ele>92.8</ele>
        <time>2022-03-06T08:48:50Z</time>
      </trkpt>
      <trkpt lat="46.52309" lon="0.37605">
        <ele>94</ele>
        <time>2022-03-06T08:48:54Z</time>
      </trkpt>
      <trkpt lat="46.52308" lon="0.37609">
        <ele>94.2</ele>
        <time>2022-03-06T08:48:55Z</time>
      </trkpt>
      <trkpt lat="46.52309" lon="0.37626">
        <ele>95</ele>
        <time>2022-03-06T08:48:59Z</time>
      </trkpt>
      <trkpt lat="46.52311" lon="0.37645">
        <ele>96</ele>
        <time>2022-03-06T08:49:03Z</time>
      </trkpt>
      <trkpt lat="46.52313" lon="0.3767">
        <ele>97.2</ele>
        <time>2022-03-06T08:49:09Z</time>
      </trkpt>
      <trkpt lat="46.52315" lon="0.37684">
        <ele>98</ele>
        <time>2022-03-06T08:49:13Z</time>
      </trkpt>
      <trkpt lat="46.52316" lon="0.37691">
        <ele>98.2</ele>
        <time>2022-03-06T08:49:15Z</time>
      </trkpt>
      <trkpt lat="46.52318" lon="0.3771">
        <ele>99.2</ele>
        <time>2022-03-06T08:49:20Z</time>
      </trkpt>
      <trkpt lat="46.52319" lon="0.3772">
        <ele>99.8</ele>
        <time>2022-03-06T08:49:23Z</time>
      </trkpt>
      <trkpt lat="46.52321" lon="0.37735">
        <ele>100.6</ele>
        <time>2022-03-06T08:49:27Z</time>
      </trkpt>
      <trkpt lat="46.52321" lon="0.37749">
        <ele>101.8</ele>
        <time>2022-03-06T08:49:31Z</time>
      </trkpt>
      <trkpt lat="46.52322" lon="0.37753">
        <ele>101.8</ele>
        <time>2022-03-06T08:49:32Z</time>
      </trkpt>
      <trkpt lat="46.52322" lon="0.37766">
        <ele>103</ele>
        <time>2022-03-06T08:49:36Z</time>
      </trkpt>
      <trkpt lat="46.52322" lon="0.37778">
        <ele>103.8</ele>
        <time>2022-03-06T08:49:40Z</time>
      </trkpt>
      <trkpt lat="46.52322" lon="0.37782">
        <ele>104</ele>
        <time>2022-03-06T08:49:41Z</time>
      </trkpt>
      <trkpt lat="46.52322" lon="0.37797">
        <ele>105.2</ele>
        <time>2022-03-06T08:49:46Z</time>
      </trkpt>
      <trkpt lat="46.52323" lon="0.37802">
        <ele>105.6</ele>
        <time>2022-03-06T08:49:48Z</time>
      </trkpt>
      <trkpt lat="46.52323" lon="0.37813">
        <ele>106.2</ele>
        <time>2022-03-06T08:49:52Z</time>
      </trkpt>
      <trkpt lat="46.52323" lon="0.37822">
        <ele>107.2</ele>
        <time>2022-03-06T08:49:55Z</time>
      </trkpt>
      <trkpt lat="46.52323" lon="0.37824">
        <ele>107.4</ele>
        <time>2022-03-06T08:49:56Z</time>
      </trkpt>
      <trkpt lat="46.52323" lon="0.37839">
        <ele>108.6</ele>
        <time>2022-03-06T08:50:02Z</time>
      </trkpt>
      <trkpt lat="46.52325" lon="0.37855">
        <ele>109.8</ele>
        <time>2022-03-06T08:50:08Z</time>
      </trkpt>
      <trkpt lat="46.52325" lon="0.37862">
        <ele>110.2</ele>
        <time>2022-03-06T08:50:10Z</time>
      </trkpt>
      <trkpt lat="46.52324" lon="0.37872">
        <ele>110.8</ele>
        <time>2022-03-06T08:50:13Z</time>
      </trkpt>
      <trkpt lat="46.52324" lon="0.37887">
        <ele>112</ele>
        <time>2022-03-06T08:50:18Z</time>
      </trkpt>
      <trkpt lat="46.52325" lon="0.379">
        <ele>113.4</ele>
        <time>2022-03-06T08:50:23Z</time>
      </trkpt>
      <trkpt lat="46.52325" lon="0.37902">
        <ele>113.6</ele>
        <time>2022-03-06T08:50:24Z</time>
      </trkpt>
      <trkpt lat="46.52326" lon="0.37914">
        <ele>114.6</ele>
        <time>2022-03-06T08:50:28Z</time>
      </trkpt>
      <trkpt lat="46.52327" lon="0.37926">
        <ele>115.4</ele>
        <time>2022-03-06T08:50:32Z</time>
      </trkpt>
      <trkpt lat="46.52328" lon="0.37929">
        <ele>115.6</ele>
        <time>2022-03-06T08:50:33Z</time>
      </trkpt>
      <trkpt lat="46.52333" lon="0.37946">
        <ele>116.6</ele>
        <time>2022-03-06T08:50:38Z</time>
      </trkpt>
      <trkpt lat="46.52334" lon="0.3795">
        <ele>116.8</ele>
        <time>2022-03-06T08:50:39Z</time>
      </trkpt>
      <trkpt lat="46.52337" lon="0.3797">
        <ele>117.6</ele>
        <time>2022-03-06T08:50:44Z</time>
      </trkpt>
      <trkpt lat="46.52339" lon="0.37988">
        <ele>118</ele>
        <time>2022-03-06T08:50:48Z</time>
      </trkpt>
      <trkpt lat="46.52342" lon="0.37997">
        <ele>118.2</ele>
        <time>2022-03-06T08:50:50Z</time>
      </trkpt>
      <trkpt lat="46.52355" lon="0.3802">
        <ele>118.8</ele>
        <time>2022-03-06T08:50:56Z</time>
      </trkpt>
      <trkpt lat="46.5236" lon="0.38028">
        <ele>119</ele>
        <time>2022-03-06T08:50:58Z</time>
      </trkpt>
      <trkpt lat="46.5237" lon="0.38048">
        <ele>119.4</ele>
        <time>2022-03-06T08:51:02Z</time>
      </trkpt>
      <trkpt lat="46.52374" lon="0.38057">
        <ele>119.6</ele>
        <time>2022-03-06T08:51:04Z</time>
      </trkpt>
      <trkpt lat="46.52381" lon="0.38079">
        <ele>120</ele>
        <time>2022-03-06T08:51:08Z</time>
      </trkpt>
      <trkpt lat="46.52383" lon="0.38085">
        <ele>120.2</ele>
        <time>2022-03-06T08:51:09Z</time>
      </trkpt>
      <trkpt lat="46.52388" lon="0.38102">
        <ele>120.4</ele>
        <time>2022-03-06T08:51:12Z</time>
      </trkpt>
      <trkpt lat="46.52394" lon="0.38116">
        <ele>120.8</ele>
        <time>2022-03-06T08:51:15Z</time>
      </trkpt>
      <trkpt lat="46.52398" lon="0.38128">
        <ele>121</ele>
        <time>2022-03-06T08:51:17Z</time>
      </trkpt>
      <trkpt lat="46.524" lon="0.38134">
        <ele>121.2</ele>
        <time>2022-03-06T08:51:18Z</time>
      </trkpt>
      <trkpt lat="46.52402" lon="0.38141">
        <ele>121.2</ele>
        <time>2022-03-06T08:51:19Z</time>
      </trkpt>
      <trkpt lat="46.52407" lon="0.38153">
        <ele>121.4</ele>
        <time>2022-03-06T08:51:21Z</time>
      </trkpt>
      <trkpt lat="46.52416" lon="0.38179">
        <ele>122</ele>
        <time>2022-03-06T08:51:25Z</time>
      </trkpt>
      <trkpt lat="46.52418" lon="0.38187">
        <ele>122</ele>
        <time>2022-03-06T08:51:26Z</time>
      </trkpt>
      <trkpt lat="46.52425" lon="0.38208">
        <ele>122.4</ele>
        <time>2022-03-06T08:51:29Z</time>
      </trkpt>
      <trkpt lat="46.52429" lon="0.38221">
        <ele>122.6</ele>
        <time>2022-03-06T08:51:31Z</time>
      </trkpt>
      <trkpt lat="46.52443" lon="0.38262">
        <ele>123.2</ele>
        <time>2022-03-06T08:51:38Z</time>
      </trkpt>
      <trkpt lat="46.52446" lon="0.38275">
        <ele>123.4</ele>
        <time>2022-03-06T08:51:40Z</time>
      </trkpt>
      <trkpt lat="46.52454" lon="0.38307">
        <ele>123.8</ele>
        <time>2022-03-06T08:51:45Z</time>
      </trkpt>
      <trkpt lat="46.52461" lon="0.38348">
        <ele>124.2</ele>
        <time>2022-03-06T08:51:51Z</time>
      </trkpt>
      <trkpt lat="46.52465" lon="0.38368">
        <ele>124.4</ele>
        <time>2022-03-06T08:51:54Z</time>
      </trkpt>
      <trkpt lat="46.52469" lon="0.38381">
        <ele>124.8</ele>
        <time>2022-03-06T08:51:56Z</time>
      </trkpt>
      <trkpt lat="46.5247" lon="0.38386">
        <ele>124.8</ele>
        <time>2022-03-06T08:51:57Z</time>
      </trkpt>
      <trkpt lat="46.52472" lon="0.38393">
        <ele>124.8</ele>
        <time>2022-03-06T08:51:58Z</time>
      </trkpt>
      <trkpt lat="46.52478" lon="0.38421">
        <ele>125</ele>
        <time>2022-03-06T08:52:02Z</time>
      </trkpt>
      <trkpt lat="46.5248" lon="0.38429">
        <ele>125</ele>
        <time>2022-03-06T08:52:03Z</time>
      </trkpt>
      <trkpt lat="46.52487" lon="0.38468">
        <ele>125.4</ele>
        <time>2022-03-06T08:52:08Z</time>
      </trkpt>
      <trkpt lat="46.5249" lon="0.38493">
        <ele>125.4</ele>
        <time>2022-03-06T08:52:11Z</time>
      </trkpt>
      <trkpt lat="46.52495" lon="0.38521">
        <ele>125.6</ele>
        <time>2022-03-06T08:52:15Z</time>
      </trkpt>
      <trkpt lat="46.52497" lon="0.38528">
        <ele>125.6</ele>
        <time>2022-03-06T08:52:16Z</time>
      </trkpt>
      <trkpt lat="46.525" lon="0.38543">
        <ele>125.6</ele>
        <time>2022-03-06T08:52:18Z</time>
      </trkpt>
      <trkpt lat="46.52502" lon="0.38557">
        <ele>125.6</ele>
        <time>2022-03-06T08:52:20Z</time>
      </trkpt>
      <trkpt lat="46.52504" lon="0.38564">
        <ele>125.6</ele>
        <time>2022-03-06T08:52:21Z</time>
      </trkpt>
      <trkpt lat="46.5251" lon="0.38598">
        <ele>125.8</ele>
        <time>2022-03-06T08:52:26Z</time>
      </trkpt>
      <trkpt lat="46.52513" lon="0.38641">
        <ele>126.4</ele>
        <time>2022-03-06T08:52:31Z</time>
      </trkpt>
      <trkpt lat="46.52516" lon="0.3866">
        <ele>126.8</ele>
        <time>2022-03-06T08:52:33Z</time>
      </trkpt>
      <trkpt lat="46.52522" lon="0.3872">
        <ele>127.2</ele>
        <time>2022-03-06T08:52:40Z</time>
      </trkpt>
      <trkpt lat="46.52532" lon="0.38805">
        <ele>127.2</ele>
        <time>2022-03-06T08:52:51Z</time>
      </trkpt>
      <trkpt lat="46.52536" lon="0.38835">
        <ele>127.8</ele>
        <time>2022-03-06T08:52:55Z</time>
      </trkpt>
      <trkpt lat="46.52542" lon="0.3888">
        <ele>128</ele>
        <time>2022-03-06T08:53:01Z</time>
      </trkpt>
      <trkpt lat="46.52553" lon="0.38961">
        <ele>128.4</ele>
        <time>2022-03-06T08:53:12Z</time>
      </trkpt>
      <trkpt lat="46.52557" lon="0.38998">
        <ele>128.8</ele>
        <time>2022-03-06T08:53:17Z</time>
      </trkpt>
      <trkpt lat="46.52561" lon="0.39025">
        <ele>129</ele>
        <time>2022-03-06T08:53:21Z</time>
      </trkpt>
      <trkpt lat="46.52566" lon="0.39061">
        <ele>128.8</ele>
        <time>2022-03-06T08:53:27Z</time>
      </trkpt>
      <trkpt lat="46.5256" lon="0.39069">
        <ele>128.2</ele>
        <time>2022-03-06T08:53:29Z</time>
      </trkpt>
      <trkpt lat="46.52556" lon="0.3907">
        <ele>128</ele>
        <time>2022-03-06T08:53:30Z</time>
      </trkpt>
      <trkpt lat="46.52552" lon="0.39068">
        <ele>127.8</ele>
        <time>2022-03-06T08:53:31Z</time>
      </trkpt>
      <trkpt lat="46.52547" lon="0.39066">
        <ele>127.6</ele>
        <time>2022-03-06T08:53:32Z</time>
      </trkpt>
      <trkpt lat="46.52538" lon="0.39062">
        <ele>127.6</ele>
        <time>2022-03-06T08:53:34Z</time>
      </trkpt>
      <trkpt lat="46.52503" lon="0.39044">
        <ele>127.2</ele>
        <time>2022-03-06T08:53:40Z</time>
      </trkpt>
      <trkpt lat="46.52458" lon="0.3902">
        <ele>126.6</ele>
        <time>2022-03-06T08:53:47Z</time>
      </trkpt>
      <trkpt lat="46.52406" lon="0.38997">
        <ele>126.2</ele>
        <time>2022-03-06T08:53:55Z</time>
      </trkpt>
      <trkpt lat="46.52354" lon="0.38967">
        <ele>125.8</ele>
        <time>2022-03-06T08:54:03Z</time>
      </trkpt>
      <trkpt lat="46.52348" lon="0.38963">
        <ele>125.8</ele>
        <time>2022-03-06T08:54:04Z</time>
      </trkpt>
      <trkpt lat="46.52334" lon="0.38955">
        <ele>125.4</ele>
        <time>2022-03-06T08:54:06Z</time>
      </trkpt>
      <trkpt lat="46.52281" lon="0.38922">
        <ele>125.2</ele>
        <time>2022-03-06T08:54:14Z</time>
      </trkpt>
      <trkpt lat="46.52248" lon="0.38902">
        <ele>124.4</ele>
        <time>2022-03-06T08:54:19Z</time>
      </trkpt>
      <trkpt lat="46.52235" lon="0.38894">
        <ele>124.2</ele>
        <time>2022-03-06T08:54:21Z</time>
      </trkpt>
      <trkpt lat="46.52189" lon="0.38869">
        <ele>124</ele>
        <time>2022-03-06T08:54:28Z</time>
      </trkpt>
      <trkpt lat="46.52145" lon="0.38846">
        <ele>123.8</ele>
        <time>2022-03-06T08:54:35Z</time>
      </trkpt>
      <trkpt lat="46.52087" lon="0.38815">
        <ele>123.4</ele>
        <time>2022-03-06T08:54:44Z</time>
      </trkpt>
      <trkpt lat="46.52034" lon="0.38781">
        <ele>122.4</ele>
        <time>2022-03-06T08:54:52Z</time>
      </trkpt>
      <trkpt lat="46.52028" lon="0.38776">
        <ele>122</ele>
        <time>2022-03-06T08:54:53Z</time>
      </trkpt>
      <trkpt lat="46.52" lon="0.38745">
        <ele>121.6</ele>
        <time>2022-03-06T08:54:58Z</time>
      </trkpt>
      <trkpt lat="46.51984" lon="0.38725">
        <ele>120.8</ele>
        <time>2022-03-06T08:55:01Z</time>
      </trkpt>
      <trkpt lat="46.51965" lon="0.38696">
        <ele>119.8</ele>
        <time>2022-03-06T08:55:05Z</time>
      </trkpt>
      <trkpt lat="46.51957" lon="0.38682">
        <ele>119.6</ele>
        <time>2022-03-06T08:55:07Z</time>
      </trkpt>
      <trkpt lat="46.51941" lon="0.38655">
        <ele>119</ele>
        <time>2022-03-06T08:55:11Z</time>
      </trkpt>
      <trkpt lat="46.51931" lon="0.38644">
        <ele>118.6</ele>
        <time>2022-03-06T08:55:13Z</time>
      </trkpt>
      <trkpt lat="46.51922" lon="0.38631">
        <ele>118</ele>
        <time>2022-03-06T08:55:15Z</time>
      </trkpt>
      <trkpt lat="46.51915" lon="0.38617">
        <ele>117.6</ele>
        <time>2022-03-06T08:55:17Z</time>
      </trkpt>
      <trkpt lat="46.51912" lon="0.38608">
        <ele>117.2</ele>
        <time>2022-03-06T08:55:18Z</time>
      </trkpt>
      <trkpt lat="46.51905" lon="0.38588">
        <ele>116.4</ele>
        <time>2022-03-06T08:55:20Z</time>
      </trkpt>
      <trkpt lat="46.51897" lon="0.38565">
        <ele>115</ele>
        <time>2022-03-06T08:55:22Z</time>
      </trkpt>
      <trkpt lat="46.51889" lon="0.38541">
        <ele>114</ele>
        <time>2022-03-06T08:55:24Z</time>
      </trkpt>
      <trkpt lat="46.5188" lon="0.38516">
        <ele>112.8</ele>
        <time>2022-03-06T08:55:26Z</time>
      </trkpt>
      <trkpt lat="46.51876" lon="0.38503">
        <ele>111.8</ele>
        <time>2022-03-06T08:55:27Z</time>
      </trkpt>
      <trkpt lat="46.51873" lon="0.3849">
        <ele>111</ele>
        <time>2022-03-06T08:55:28Z</time>
      </trkpt>
      <trkpt lat="46.51867" lon="0.38464">
        <ele>109.8</ele>
        <time>2022-03-06T08:55:30Z</time>
      </trkpt>
      <trkpt lat="46.51863" lon="0.38455">
        <ele>109.2</ele>
        <time>2022-03-06T08:55:31Z</time>
      </trkpt>
      <trkpt lat="46.51859" lon="0.38448">
        <ele>108.2</ele>
        <time>2022-03-06T08:55:32Z</time>
      </trkpt>
      <trkpt lat="46.51851" lon="0.38434">
        <ele>107.2</ele>
        <time>2022-03-06T08:55:34Z</time>
      </trkpt>
      <trkpt lat="46.51849" lon="0.38426">
        <ele>106.8</ele>
        <time>2022-03-06T08:55:35Z</time>
      </trkpt>
      <trkpt lat="46.51846" lon="0.38419">
        <ele>105.8</ele>
        <time>2022-03-06T08:55:36Z</time>
      </trkpt>
      <trkpt lat="46.51838" lon="0.384">
        <ele>104.6</ele>
        <time>2022-03-06T08:55:39Z</time>
      </trkpt>
      <trkpt lat="46.51834" lon="0.38394">
        <ele>103.4</ele>
        <time>2022-03-06T08:55:40Z</time>
      </trkpt>
      <trkpt lat="46.5183" lon="0.3839">
        <ele>102.4</ele>
        <time>2022-03-06T08:55:41Z</time>
      </trkpt>
      <trkpt lat="46.5182" lon="0.38383">
        <ele>101</ele>
        <time>2022-03-06T08:55:43Z</time>
      </trkpt>
      <trkpt lat="46.51814" lon="0.38379">
        <ele>100</ele>
        <time>2022-03-06T08:55:44Z</time>
      </trkpt>
      <trkpt lat="46.518" lon="0.38373">
        <ele>99</ele>
        <time>2022-03-06T08:55:46Z</time>
      </trkpt>
      <trkpt lat="46.51779" lon="0.38365">
        <ele>98.2</ele>
        <time>2022-03-06T08:55:49Z</time>
      </trkpt>
      <trkpt lat="46.51772" lon="0.38362">
        <ele>97.4</ele>
        <time>2022-03-06T08:55:50Z</time>
      </trkpt>
      <trkpt lat="46.51759" lon="0.38355">
        <ele>96</ele>
        <time>2022-03-06T08:55:52Z</time>
      </trkpt>
      <trkpt lat="46.5175" lon="0.38349">
        <ele>93.8</ele>
        <time>2022-03-06T08:55:54Z</time>
      </trkpt>
      <trkpt lat="46.51744" lon="0.38343">
        <ele>92.4</ele>
        <time>2022-03-06T08:55:56Z</time>
      </trkpt>
      <trkpt lat="46.51741" lon="0.38333">
        <ele>91.2</ele>
        <time>2022-03-06T08:55:58Z</time>
      </trkpt>
      <trkpt lat="46.5174" lon="0.38329">
        <ele>90.6</ele>
        <time>2022-03-06T08:55:59Z</time>
      </trkpt>
      <trkpt lat="46.51737" lon="0.38325">
        <ele>90</ele>
        <time>2022-03-06T08:56:00Z</time>
      </trkpt>
      <trkpt lat="46.51734" lon="0.38322">
        <ele>89.8</ele>
        <time>2022-03-06T08:56:01Z</time>
      </trkpt>
      <trkpt lat="46.5173" lon="0.38318">
        <ele>89.8</ele>
        <time>2022-03-06T08:56:02Z</time>
      </trkpt>
      <trkpt lat="46.51726" lon="0.38316">
        <ele>89.6</ele>
        <time>2022-03-06T08:56:03Z</time>
      </trkpt>
      <trkpt lat="46.51707" lon="0.38304">
        <ele>89.2</ele>
        <time>2022-03-06T08:56:07Z</time>
      </trkpt>
      <trkpt lat="46.51701" lon="0.38298">
        <ele>89</ele>
        <time>2022-03-06T08:56:08Z</time>
      </trkpt>
      <trkpt lat="46.51689" lon="0.38287">
        <ele>88.6</ele>
        <time>2022-03-06T08:56:11Z</time>
      </trkpt>
      <trkpt lat="46.51681" lon="0.3828">
        <ele>87.8</ele>
        <time>2022-03-06T08:56:13Z</time>
      </trkpt>
      <trkpt lat="46.51665" lon="0.38267">
        <ele>87.8</ele>
        <time>2022-03-06T08:56:18Z</time>
      </trkpt>
      <trkpt lat="46.5165" lon="0.38259">
        <ele>89</ele>
        <time>2022-03-06T08:56:23Z</time>
      </trkpt>
      <trkpt lat="46.5164" lon="0.38259">
        <ele>88.2</ele>
        <time>2022-03-06T08:56:27Z</time>
      </trkpt>
      <trkpt lat="46.51638" lon="0.38258">
        <ele>88.2</ele>
        <time>2022-03-06T08:56:28Z</time>
      </trkpt>
      <trkpt lat="46.51624" lon="0.38251">
        <ele>88.4</ele>
        <time>2022-03-06T08:56:33Z</time>
      </trkpt>
      <trkpt lat="46.51604" lon="0.38242">
        <ele>88.6</ele>
        <time>2022-03-06T08:56:39Z</time>
      </trkpt>
      <trkpt lat="46.51597" lon="0.38239">
        <ele>88.8</ele>
        <time>2022-03-06T08:56:41Z</time>
      </trkpt>
      <trkpt lat="46.5159" lon="0.38236">
        <ele>88.8</ele>
        <time>2022-03-06T08:56:43Z</time>
      </trkpt>
      <trkpt lat="46.51584" lon="0.38232">
        <ele>88.8</ele>
        <time>2022-03-06T08:56:45Z</time>
      </trkpt>
      <trkpt lat="46.5158" lon="0.38228">
        <ele>88.8</ele>
        <time>2022-03-06T08:56:46Z</time>
      </trkpt>
      <trkpt lat="46.51577" lon="0.38225">
        <ele>88.8</ele>
        <time>2022-03-06T08:56:47Z</time>
      </trkpt>
      <trkpt lat="46.51572" lon="0.38222">
        <ele>88.8</ele>
        <time>2022-03-06T08:56:49Z</time>
      </trkpt>
      <trkpt lat="46.51571" lon="0.38219">
        <ele>88.8</ele>
        <time>2022-03-06T08:56:50Z</time>
      </trkpt>
      <trkpt lat="46.51569" lon="0.38216">
        <ele>88.8</ele>
        <time>2022-03-06T08:56:51Z</time>
      </trkpt>
      <trkpt lat="46.51561" lon="0.38215">
        <ele>89</ele>
        <time>2022-03-06T08:56:54Z</time>
      </trkpt>
      <trkpt lat="46.51556" lon="0.38213">
        <ele>89</ele>
        <time>2022-03-06T08:56:56Z</time>
      </trkpt>
      <trkpt lat="46.5155" lon="0.3821">
        <ele>89</ele>
        <time>2022-03-06T08:56:58Z</time>
      </trkpt>
      <trkpt lat="46.51545" lon="0.38208">
        <ele>89</ele>
        <time>2022-03-06T08:56:59Z</time>
      </trkpt>
      <trkpt lat="46.51537" lon="0.38207">
        <ele>88.8</ele>
        <time>2022-03-06T08:57:01Z</time>
      </trkpt>
      <trkpt lat="46.51529" lon="0.382">
        <ele>88.6</ele>
        <time>2022-03-06T08:57:04Z</time>
      </trkpt>
      <trkpt lat="46.51526" lon="0.38197">
        <ele>88.6</ele>
        <time>2022-03-06T08:57:05Z</time>
      </trkpt>
      <trkpt lat="46.51523" lon="0.38194">
        <ele>88.6</ele>
        <time>2022-03-06T08:57:06Z</time>
      </trkpt>
      <trkpt lat="46.51512" lon="0.38182">
        <ele>88.8</ele>
        <time>2022-03-06T08:57:10Z</time>
      </trkpt>
      <trkpt lat="46.51506" lon="0.38181">
        <ele>88.8</ele>
        <time>2022-03-06T08:57:13Z</time>
      </trkpt>
      <trkpt lat="46.51501" lon="0.38181">
        <ele>88.8</ele>
        <time>2022-03-06T08:57:15Z</time>
      </trkpt>
      <trkpt lat="46.5149" lon="0.38183">
        <ele>88.4</ele>
        <time>2022-03-06T08:57:19Z</time>
      </trkpt>
      <trkpt lat="46.51482" lon="0.38182">
        <ele>88.2</ele>
        <time>2022-03-06T08:57:21Z</time>
      </trkpt>
      <trkpt lat="46.51474" lon="0.38183">
        <ele>88.2</ele>
        <time>2022-03-06T08:57:23Z</time>
      </trkpt>
      <trkpt lat="46.51464" lon="0.38183">
        <ele>88.2</ele>
        <time>2022-03-06T08:57:26Z</time>
      </trkpt>
      <trkpt lat="46.5146" lon="0.38182">
        <ele>88.2</ele>
        <time>2022-03-06T08:57:27Z</time>
      </trkpt>
      <trkpt lat="46.51457" lon="0.3818">
        <ele>88.2</ele>
        <time>2022-03-06T08:57:28Z</time>
      </trkpt>
      <trkpt lat="46.51448" lon="0.38175">
        <ele>88.2</ele>
        <time>2022-03-06T08:57:31Z</time>
      </trkpt>
      <trkpt lat="46.51445" lon="0.38174">
        <ele>88.2</ele>
        <time>2022-03-06T08:57:32Z</time>
      </trkpt>
      <trkpt lat="46.51439" lon="0.38172">
        <ele>88</ele>
        <time>2022-03-06T08:57:33Z</time>
      </trkpt>
      <trkpt lat="46.51424" lon="0.38166">
        <ele>88</ele>
        <time>2022-03-06T08:57:36Z</time>
      </trkpt>
      <trkpt lat="46.51419" lon="0.38162">
        <ele>87.8</ele>
        <time>2022-03-06T08:57:37Z</time>
      </trkpt>
      <trkpt lat="46.51409" lon="0.38145">
        <ele>88</ele>
        <time>2022-03-06T08:57:41Z</time>
      </trkpt>
      <trkpt lat="46.51399" lon="0.38123">
        <ele>88.6</ele>
        <time>2022-03-06T08:57:46Z</time>
      </trkpt>
      <trkpt lat="46.51392" lon="0.38119">
        <ele>88.8</ele>
        <time>2022-03-06T08:57:48Z</time>
      </trkpt>
      <trkpt lat="46.51384" lon="0.38115">
        <ele>89</ele>
        <time>2022-03-06T08:57:50Z</time>
      </trkpt>
      <trkpt lat="46.51361" lon="0.38109">
        <ele>89.6</ele>
        <time>2022-03-06T08:57:56Z</time>
      </trkpt>
      <trkpt lat="46.51342" lon="0.38105">
        <ele>89.4</ele>
        <time>2022-03-06T08:58:00Z</time>
      </trkpt>
      <trkpt lat="46.5133" lon="0.38101">
        <ele>89.2</ele>
        <time>2022-03-06T08:58:02Z</time>
      </trkpt>
      <trkpt lat="46.513" lon="0.38091">
        <ele>89.2</ele>
        <time>2022-03-06T08:58:08Z</time>
      </trkpt>
      <trkpt lat="46.51267" lon="0.38071">
        <ele>89.6</ele>
        <time>2022-03-06T08:58:16Z</time>
      </trkpt>
      <trkpt lat="46.5126" lon="0.38066">
        <ele>90</ele>
        <time>2022-03-06T08:58:18Z</time>
      </trkpt>
      <trkpt lat="46.51251" lon="0.38059">
        <ele>90.2</ele>
        <time>2022-03-06T08:58:22Z</time>
      </trkpt>
      <trkpt lat="46.51241" lon="0.38054">
        <ele>91</ele>
        <time>2022-03-06T08:58:27Z</time>
      </trkpt>
      <trkpt lat="46.51238" lon="0.38051">
        <ele>91.2</ele>
        <time>2022-03-06T08:58:29Z</time>
      </trkpt>
      <trkpt lat="46.51233" lon="0.38047">
        <ele>91.4</ele>
        <time>2022-03-06T08:58:33Z</time>
      </trkpt>
      <trkpt lat="46.51228" lon="0.38045">
        <ele>91.6</ele>
        <time>2022-03-06T08:58:39Z</time>
      </trkpt>
      <trkpt lat="46.51225" lon="0.38045">
        <ele>91.6</ele>
        <time>2022-03-06T08:58:43Z</time>
      </trkpt>
      <trkpt lat="46.51223" lon="0.38048">
        <ele>92</ele>
        <time>2022-03-06T08:58:49Z</time>
      </trkpt>
      <trkpt lat="46.51222" lon="0.38049">
        <ele>92.6</ele>
        <time>2022-03-06T08:58:52Z</time>
      </trkpt>
      <trkpt lat="46.5122" lon="0.38049">
        <ele>93</ele>
        <time>2022-03-06T08:58:55Z</time>
      </trkpt>
      <trkpt lat="46.51215" lon="0.3805">
        <ele>94.2</ele>
        <time>2022-03-06T08:59:00Z</time>
      </trkpt>
      <trkpt lat="46.51213" lon="0.3805">
        <ele>94.8</ele>
        <time>2022-03-06T08:59:04Z</time>
      </trkpt>
      <trkpt lat="46.51213" lon="0.38051">
        <ele>95.2</ele>
        <time>2022-03-06T08:59:06Z</time>
      </trkpt>
      <trkpt lat="46.51212" lon="0.38053">
        <ele>96.4</ele>
        <time>2022-03-06T08:59:11Z</time>
      </trkpt>
      <trkpt lat="46.5121" lon="0.38056">
        <ele>97.4</ele>
        <time>2022-03-06T08:59:15Z</time>
      </trkpt>
      <trkpt lat="46.51207" lon="0.38061">
        <ele>98.2</ele>
        <time>2022-03-06T08:59:21Z</time>
      </trkpt>
      <trkpt lat="46.51206" lon="0.38062">
        <ele>98.4</ele>
        <time>2022-03-06T08:59:23Z</time>
      </trkpt>
      <trkpt lat="46.51204" lon="0.38064">
        <ele>99</ele>
        <time>2022-03-06T08:59:26Z</time>
      </trkpt>
      <trkpt lat="46.51202" lon="0.38064">
        <ele>99.6</ele>
        <time>2022-03-06T08:59:30Z</time>
      </trkpt>
      <trkpt lat="46.51198" lon="0.38065">
        <ele>100.6</ele>
        <time>2022-03-06T08:59:40Z</time>
      </trkpt>
      <trkpt lat="46.51197" lon="0.38066">
        <ele>100.6</ele>
        <time>2022-03-06T08:59:41Z</time>
      </trkpt>
      <trkpt lat="46.51195" lon="0.38069">
        <ele>100.6</ele>
        <time>2022-03-06T08:59:44Z</time>
      </trkpt>
      <trkpt lat="46.5119" lon="0.38074">
        <ele>100.8</ele>
        <time>2022-03-06T08:59:49Z</time>
      </trkpt>
      <trkpt lat="46.5118" lon="0.38083">
        <ele>100.4</ele>
        <time>2022-03-06T08:59:59Z</time>
      </trkpt>
      <trkpt lat="46.51174" lon="0.38086">
        <ele>100.6</ele>
        <time>2022-03-06T09:00:04Z</time>
      </trkpt>
      <trkpt lat="46.51168" lon="0.38093">
        <ele>100</ele>
        <time>2022-03-06T09:00:10Z</time>
      </trkpt>
      <trkpt lat="46.51167" lon="0.38095">
        <ele>100</ele>
        <time>2022-03-06T09:00:11Z</time>
      </trkpt>
      <trkpt lat="46.51164" lon="0.38098">
        <ele>99.8</ele>
        <time>2022-03-06T09:00:15Z</time>
      </trkpt>
      <trkpt lat="46.51159" lon="0.381">
        <ele>100</ele>
        <time>2022-03-06T09:00:21Z</time>
      </trkpt>
      <trkpt lat="46.51151" lon="0.38104">
        <ele>100.4</ele>
        <time>2022-03-06T09:00:28Z</time>
      </trkpt>
      <trkpt lat="46.51145" lon="0.38109">
        <ele>100</ele>
        <time>2022-03-06T09:00:33Z</time>
      </trkpt>
      <trkpt lat="46.51143" lon="0.38111">
        <ele>99.8</ele>
        <time>2022-03-06T09:00:36Z</time>
      </trkpt>
      <trkpt lat="46.51141" lon="0.38112">
        <ele>99.4</ele>
        <time>2022-03-06T09:00:38Z</time>
      </trkpt>
      <trkpt lat="46.51137" lon="0.38114">
        <ele>99.4</ele>
        <time>2022-03-06T09:00:41Z</time>
      </trkpt>
      <trkpt lat="46.51136" lon="0.38115">
        <ele>99.4</ele>
        <time>2022-03-06T09:00:42Z</time>
      </trkpt>
      <trkpt lat="46.51134" lon="0.38116">
        <ele>99.6</ele>
        <time>2022-03-06T09:00:44Z</time>
      </trkpt>
      <trkpt lat="46.51131" lon="0.38118">
        <ele>99.6</ele>
        <time>2022-03-06T09:00:48Z</time>
      </trkpt>
      <trkpt lat="46.51128" lon="0.38121">
        <ele>99</ele>
        <time>2022-03-06T09:00:52Z</time>
      </trkpt>
      <trkpt lat="46.51126" lon="0.38123">
        <ele>98.4</ele>
        <time>2022-03-06T09:00:54Z</time>
      </trkpt>
      <trkpt lat="46.51124" lon="0.38124">
        <ele>98.4</ele>
        <time>2022-03-06T09:00:55Z</time>
      </trkpt>
      <trkpt lat="46.51113" lon="0.3813">
        <ele>99.4</ele>
        <time>2022-03-06T09:01:05Z</time>
      </trkpt>
      <trkpt lat="46.51112" lon="0.38131">
        <ele>99.6</ele>
        <time>2022-03-06T09:01:06Z</time>
      </trkpt>
      <trkpt lat="46.51111" lon="0.38131">
        <ele>100</ele>
        <time>2022-03-06T09:01:07Z</time>
      </trkpt>
      <trkpt lat="46.51108" lon="0.38132">
        <ele>100.6</ele>
        <time>2022-03-06T09:01:10Z</time>
      </trkpt>
      <trkpt lat="46.51105" lon="0.38132">
        <ele>100.8</ele>
        <time>2022-03-06T09:01:12Z</time>
      </trkpt>
      <trkpt lat="46.51103" lon="0.38133">
        <ele>101.6</ele>
        <time>2022-03-06T09:01:15Z</time>
      </trkpt>
      <trkpt lat="46.51101" lon="0.38133">
        <ele>101.8</ele>
        <time>2022-03-06T09:01:17Z</time>
      </trkpt>
      <trkpt lat="46.51098" lon="0.38133">
        <ele>102.6</ele>
        <time>2022-03-06T09:01:25Z</time>
      </trkpt>
      <trkpt lat="46.51097" lon="0.38133">
        <ele>102.8</ele>
        <time>2022-03-06T09:01:27Z</time>
      </trkpt>
      <trkpt lat="46.51094" lon="0.38133">
        <ele>103.4</ele>
        <time>2022-03-06T09:01:30Z</time>
      </trkpt>
      <trkpt lat="46.51093" lon="0.38134">
        <ele>103.6</ele>
        <time>2022-03-06T09:01:31Z</time>
      </trkpt>
      <trkpt lat="46.51089" lon="0.38134">
        <ele>104.6</ele>
        <time>2022-03-06T09:01:37Z</time>
      </trkpt>
      <trkpt lat="46.51086" lon="0.38134">
        <ele>105.6</ele>
        <time>2022-03-06T09:01:42Z</time>
      </trkpt>
      <trkpt lat="46.51086" lon="0.38134">
        <ele>105.8</ele>
        <time>2022-03-06T09:01:43Z</time>
      </trkpt>
      <trkpt lat="46.51082" lon="0.38135">
        <ele>106.6</ele>
        <time>2022-03-06T09:01:48Z</time>
      </trkpt>
      <trkpt lat="46.51082" lon="0.38135">
        <ele>106.8</ele>
        <time>2022-03-06T09:01:49Z</time>
      </trkpt>
      <trkpt lat="46.51081" lon="0.38133">
        <ele>107.2</ele>
        <time>2022-03-06T09:01:51Z</time>
      </trkpt>
      <trkpt lat="46.5108" lon="0.38131">
        <ele>107.8</ele>
        <time>2022-03-06T09:01:54Z</time>
      </trkpt>
      <trkpt lat="46.51081" lon="0.38129">
        <ele>108.4</ele>
        <time>2022-03-06T09:01:56Z</time>
      </trkpt>
      <trkpt lat="46.51081" lon="0.38127">
        <ele>109</ele>
        <time>2022-03-06T09:01:59Z</time>
      </trkpt>
      <trkpt lat="46.51082" lon="0.38125">
        <ele>109.2</ele>
        <time>2022-03-06T09:02:04Z</time>
      </trkpt>
      <trkpt lat="46.51081" lon="0.38122">
        <ele>109.6</ele>
        <time>2022-03-06T09:02:07Z</time>
      </trkpt>
      <trkpt lat="46.51081" lon="0.38119">
        <ele>110</ele>
        <time>2022-03-06T09:02:09Z</time>
      </trkpt>
      <trkpt lat="46.5108" lon="0.38117">
        <ele>110.4</ele>
        <time>2022-03-06T09:02:11Z</time>
      </trkpt>
      <trkpt lat="46.51079" lon="0.38113">
        <ele>110.6</ele>
        <time>2022-03-06T09:02:13Z</time>
      </trkpt>
      <trkpt lat="46.51075" lon="0.38108">
        <ele>111.2</ele>
        <time>2022-03-06T09:02:16Z</time>
      </trkpt>
      <trkpt lat="46.51072" lon="0.38108">
        <ele>112</ele>
        <time>2022-03-06T09:02:18Z</time>
      </trkpt>
      <trkpt lat="46.51072" lon="0.38108">
        <ele>112.2</ele>
        <time>2022-03-06T09:02:19Z</time>
      </trkpt>
      <trkpt lat="46.51071" lon="0.38109">
        <ele>112.4</ele>
        <time>2022-03-06T09:02:20Z</time>
      </trkpt>
      <trkpt lat="46.5107" lon="0.38111">
        <ele>112.6</ele>
        <time>2022-03-06T09:02:22Z</time>
      </trkpt>
      <trkpt lat="46.51067" lon="0.38122">
        <ele>112.8</ele>
        <time>2022-03-06T09:02:27Z</time>
      </trkpt>
      <trkpt lat="46.51061" lon="0.38135">
        <ele>111.8</ele>
        <time>2022-03-06T09:02:32Z</time>
      </trkpt>
      <trkpt lat="46.51059" lon="0.38138">
        <ele>111.6</ele>
        <time>2022-03-06T09:02:33Z</time>
      </trkpt>
      <trkpt lat="46.51054" lon="0.38145">
        <ele>111.2</ele>
        <time>2022-03-06T09:02:36Z</time>
      </trkpt>
      <trkpt lat="46.5105" lon="0.38153">
        <ele>111.2</ele>
        <time>2022-03-06T09:02:38Z</time>
      </trkpt>
      <trkpt lat="46.51038" lon="0.38171">
        <ele>111.2</ele>
        <time>2022-03-06T09:02:44Z</time>
      </trkpt>
      <trkpt lat="46.51028" lon="0.38184">
        <ele>111</ele>
        <time>2022-03-06T09:02:49Z</time>
      </trkpt>
      <trkpt lat="46.51019" lon="0.38201">
        <ele>111</ele>
        <time>2022-03-06T09:02:55Z</time>
      </trkpt>
      <trkpt lat="46.51016" lon="0.38204">
        <ele>111</ele>
        <time>2022-03-06T09:02:56Z</time>
      </trkpt>
      <trkpt lat="46.51007" lon="0.38216">
        <ele>111</ele>
        <time>2022-03-06T09:02:59Z</time>
      </trkpt>
      <trkpt lat="46.51001" lon="0.38226">
        <ele>111</ele>
        <time>2022-03-06T09:03:01Z</time>
      </trkpt>
      <trkpt lat="46.50998" lon="0.38235">
        <ele>110.8</ele>
        <time>2022-03-06T09:03:03Z</time>
      </trkpt>
      <trkpt lat="46.50995" lon="0.38241">
        <ele>110.6</ele>
        <time>2022-03-06T09:03:04Z</time>
      </trkpt>
      <trkpt lat="46.50993" lon="0.38245">
        <ele>110.4</ele>
        <time>2022-03-06T09:03:05Z</time>
      </trkpt>
      <trkpt lat="46.50991" lon="0.38256">
        <ele>110.2</ele>
        <time>2022-03-06T09:03:08Z</time>
      </trkpt>
      <trkpt lat="46.5099" lon="0.38259">
        <ele>110.2</ele>
        <time>2022-03-06T09:03:09Z</time>
      </trkpt>
      <trkpt lat="46.50988" lon="0.38263">
        <ele>110</ele>
        <time>2022-03-06T09:03:10Z</time>
      </trkpt>
      <trkpt lat="46.50985" lon="0.38269">
        <ele>110</ele>
        <time>2022-03-06T09:03:11Z</time>
      </trkpt>
      <trkpt lat="46.5098" lon="0.38278">
        <ele>109.6</ele>
        <time>2022-03-06T09:03:13Z</time>
      </trkpt>
      <trkpt lat="46.5096" lon="0.38306">
        <ele>109.8</ele>
        <time>2022-03-06T09:03:19Z</time>
      </trkpt>
      <trkpt lat="46.50945" lon="0.38322">
        <ele>111</ele>
        <time>2022-03-06T09:03:23Z</time>
      </trkpt>
      <trkpt lat="46.50942" lon="0.38327">
        <ele>111.4</ele>
        <time>2022-03-06T09:03:24Z</time>
      </trkpt>
      <trkpt lat="46.5094" lon="0.3833">
        <ele>111.4</ele>
        <time>2022-03-06T09:03:25Z</time>
      </trkpt>
      <trkpt lat="46.50924" lon="0.38345">
        <ele>111.6</ele>
        <time>2022-03-06T09:03:30Z</time>
      </trkpt>
      <trkpt lat="46.50912" lon="0.38361">
        <ele>112</ele>
        <time>2022-03-06T09:03:36Z</time>
      </trkpt>
      <trkpt lat="46.50909" lon="0.38365">
        <ele>112.2</ele>
        <time>2022-03-06T09:03:37Z</time>
      </trkpt>
      <trkpt lat="46.50893" lon="0.38379">
        <ele>112.2</ele>
        <time>2022-03-06T09:03:43Z</time>
      </trkpt>
      <trkpt lat="46.5088" lon="0.38391">
        <ele>111.8</ele>
        <time>2022-03-06T09:03:49Z</time>
      </trkpt>
      <trkpt lat="46.50878" lon="0.38393">
        <ele>111.8</ele>
        <time>2022-03-06T09:03:50Z</time>
      </trkpt>
      <trkpt lat="46.50874" lon="0.38399">
        <ele>112</ele>
        <time>2022-03-06T09:03:53Z</time>
      </trkpt>
      <trkpt lat="46.50872" lon="0.38401">
        <ele>111.8</ele>
        <time>2022-03-06T09:03:54Z</time>
      </trkpt>
      <trkpt lat="46.5087" lon="0.38403">
        <ele>111.8</ele>
        <time>2022-03-06T09:03:56Z</time>
      </trkpt>
      <trkpt lat="46.50867" lon="0.38403">
        <ele>112.2</ele>
        <time>2022-03-06T09:03:59Z</time>
      </trkpt>
      <trkpt lat="46.50861" lon="0.384">
        <ele>113.2</ele>
        <time>2022-03-06T09:04:03Z</time>
      </trkpt>
      <trkpt lat="46.50858" lon="0.38399">
        <ele>113.4</ele>
        <time>2022-03-06T09:04:04Z</time>
      </trkpt>
      <trkpt lat="46.50857" lon="0.38397">
        <ele>113.4</ele>
        <time>2022-03-06T09:04:05Z</time>
      </trkpt>
      <trkpt lat="46.50856" lon="0.38396">
        <ele>113.6</ele>
        <time>2022-03-06T09:04:06Z</time>
      </trkpt>
      <trkpt lat="46.50857" lon="0.38385">
        <ele>114.2</ele>
        <time>2022-03-06T09:04:11Z</time>
      </trkpt>
      <trkpt lat="46.50857" lon="0.38381">
        <ele>114.4</ele>
        <time>2022-03-06T09:04:13Z</time>
      </trkpt>
      <trkpt lat="46.50858" lon="0.38373">
        <ele>115</ele>
        <time>2022-03-06T09:04:16Z</time>
      </trkpt>
      <trkpt lat="46.50861" lon="0.38362">
        <ele>115.6</ele>
        <time>2022-03-06T09:04:20Z</time>
      </trkpt>
      <trkpt lat="46.50862" lon="0.38355">
        <ele>115.8</ele>
        <time>2022-03-06T09:04:22Z</time>
      </trkpt>
      <trkpt lat="46.5087" lon="0.3834">
        <ele>116</ele>
        <time>2022-03-06T09:04:27Z</time>
      </trkpt>
      <trkpt lat="46.50876" lon="0.38336">
        <ele>116</ele>
        <time>2022-03-06T09:04:29Z</time>
      </trkpt>
      <trkpt lat="46.5088" lon="0.38331">
        <ele>116</ele>
        <time>2022-03-06T09:04:31Z</time>
      </trkpt>
      <trkpt lat="46.50882" lon="0.38327">
        <ele>115.8</ele>
        <time>2022-03-06T09:04:32Z</time>
      </trkpt>
      <trkpt lat="46.50885" lon="0.38323">
        <ele>115.6</ele>
        <time>2022-03-06T09:04:33Z</time>
      </trkpt>
      <trkpt lat="46.50889" lon="0.38314">
        <ele>115.6</ele>
        <time>2022-03-06T09:04:35Z</time>
      </trkpt>
      <trkpt lat="46.50893" lon="0.38305">
        <ele>115.8</ele>
        <time>2022-03-06T09:04:37Z</time>
      </trkpt>
      <trkpt lat="46.50898" lon="0.3829">
        <ele>116</ele>
        <time>2022-03-06T09:04:40Z</time>
      </trkpt>
      <trkpt lat="46.50903" lon="0.38281">
        <ele>116.2</ele>
        <time>2022-03-06T09:04:42Z</time>
      </trkpt>
      <trkpt lat="46.50905" lon="0.38276">
        <ele>116.2</ele>
        <time>2022-03-06T09:04:43Z</time>
      </trkpt>
      <trkpt lat="46.50907" lon="0.38272">
        <ele>116</ele>
        <time>2022-03-06T09:04:44Z</time>
      </trkpt>
      <trkpt lat="46.50918" lon="0.38244">
        <ele>116.2</ele>
        <time>2022-03-06T09:04:49Z</time>
      </trkpt>
      <trkpt lat="46.50926" lon="0.38224">
        <ele>116.4</ele>
        <time>2022-03-06T09:04:53Z</time>
      </trkpt>
      <trkpt lat="46.50929" lon="0.38213">
        <ele>116.4</ele>
        <time>2022-03-06T09:04:55Z</time>
      </trkpt>
      <trkpt lat="46.50939" lon="0.38187">
        <ele>116.2</ele>
        <time>2022-03-06T09:04:59Z</time>
      </trkpt>
      <trkpt lat="46.50942" lon="0.38174">
        <ele>116</ele>
        <time>2022-03-06T09:05:01Z</time>
      </trkpt>
      <trkpt lat="46.50944" lon="0.38157">
        <ele>115.4</ele>
        <time>2022-03-06T09:05:04Z</time>
      </trkpt>
      <trkpt lat="46.50946" lon="0.38148">
        <ele>115.2</ele>
        <time>2022-03-06T09:05:06Z</time>
      </trkpt>
      <trkpt lat="46.50947" lon="0.38131">
        <ele>114.4</ele>
        <time>2022-03-06T09:05:10Z</time>
      </trkpt>
      <trkpt lat="46.50947" lon="0.38126">
        <ele>114.4</ele>
        <time>2022-03-06T09:05:11Z</time>
      </trkpt>
      <trkpt lat="46.50948" lon="0.38121">
        <ele>114.2</ele>
        <time>2022-03-06T09:05:12Z</time>
      </trkpt>
      <trkpt lat="46.50945" lon="0.38097">
        <ele>112.8</ele>
        <time>2022-03-06T09:05:15Z</time>
      </trkpt>
      <trkpt lat="46.50942" lon="0.38089">
        <ele>112.2</ele>
        <time>2022-03-06T09:05:16Z</time>
      </trkpt>
      <trkpt lat="46.50938" lon="0.3808">
        <ele>111.6</ele>
        <time>2022-03-06T09:05:17Z</time>
      </trkpt>
      <trkpt lat="46.5093" lon="0.38056">
        <ele>110.4</ele>
        <time>2022-03-06T09:05:20Z</time>
      </trkpt>
      <trkpt lat="46.50926" lon="0.3804">
        <ele>109.2</ele>
        <time>2022-03-06T09:05:22Z</time>
      </trkpt>
      <trkpt lat="46.50925" lon="0.38034">
        <ele>107.8</ele>
        <time>2022-03-06T09:05:23Z</time>
      </trkpt>
      <trkpt lat="46.50923" lon="0.38027">
        <ele>106.2</ele>
        <time>2022-03-06T09:05:24Z</time>
      </trkpt>
      <trkpt lat="46.50922" lon="0.38022">
        <ele>104.8</ele>
        <time>2022-03-06T09:05:25Z</time>
      </trkpt>
      <trkpt lat="46.50921" lon="0.38009">
        <ele>103.4</ele>
        <time>2022-03-06T09:05:27Z</time>
      </trkpt>
      <trkpt lat="46.50922" lon="0.38002">
        <ele>103</ele>
        <time>2022-03-06T09:05:28Z</time>
      </trkpt>
      <trkpt lat="46.50922" lon="0.37995">
        <ele>102.6</ele>
        <time>2022-03-06T09:05:29Z</time>
      </trkpt>
      <trkpt lat="46.50927" lon="0.37988">
        <ele>102.4</ele>
        <time>2022-03-06T09:05:31Z</time>
      </trkpt>
      <trkpt lat="46.50936" lon="0.37984">
        <ele>102.2</ele>
        <time>2022-03-06T09:05:34Z</time>
      </trkpt>
      <trkpt lat="46.50944" lon="0.37985">
        <ele>102</ele>
        <time>2022-03-06T09:05:36Z</time>
      </trkpt>
      <trkpt lat="46.50951" lon="0.37986">
        <ele>101.8</ele>
        <time>2022-03-06T09:05:38Z</time>
      </trkpt>
      <trkpt lat="46.50963" lon="0.37987">
        <ele>101.8</ele>
        <time>2022-03-06T09:05:41Z</time>
      </trkpt>
      <trkpt lat="46.50971" lon="0.37987">
        <ele>101.4</ele>
        <time>2022-03-06T09:05:43Z</time>
      </trkpt>
      <trkpt lat="46.50974" lon="0.37986">
        <ele>101.2</ele>
        <time>2022-03-06T09:05:44Z</time>
      </trkpt>
      <trkpt lat="46.50976" lon="0.37986">
        <ele>101</ele>
        <time>2022-03-06T09:05:45Z</time>
      </trkpt>
      <trkpt lat="46.50978" lon="0.37985">
        <ele>100.8</ele>
        <time>2022-03-06T09:05:46Z</time>
      </trkpt>
      <trkpt lat="46.50979" lon="0.37982">
        <ele>100.8</ele>
        <time>2022-03-06T09:05:47Z</time>
      </trkpt>
      <trkpt lat="46.50981" lon="0.37975">
        <ele>101</ele>
        <time>2022-03-06T09:05:50Z</time>
      </trkpt>
      <trkpt lat="46.50991" lon="0.37967">
        <ele>101.6</ele>
        <time>2022-03-06T09:05:55Z</time>
      </trkpt>
      <trkpt lat="46.5101" lon="0.37957">
        <ele>101.2</ele>
        <time>2022-03-06T09:06:01Z</time>
      </trkpt>
      <trkpt lat="46.51015" lon="0.37953">
        <ele>101</ele>
        <time>2022-03-06T09:06:02Z</time>
      </trkpt>
      <trkpt lat="46.51026" lon="0.37947">
        <ele>100.8</ele>
        <time>2022-03-06T09:06:04Z</time>
      </trkpt>
      <trkpt lat="46.51036" lon="0.37945">
        <ele>100.8</ele>
        <time>2022-03-06T09:06:06Z</time>
      </trkpt>
      <trkpt lat="46.51054" lon="0.37947">
        <ele>100.2</ele>
        <time>2022-03-06T09:06:09Z</time>
      </trkpt>
      <trkpt lat="46.51061" lon="0.37947">
        <ele>100</ele>
        <time>2022-03-06T09:06:10Z</time>
      </trkpt>
      <trkpt lat="46.51078" lon="0.37949">
        <ele>99.4</ele>
        <time>2022-03-06T09:06:13Z</time>
      </trkpt>
      <trkpt lat="46.51092" lon="0.37952">
        <ele>99</ele>
        <time>2022-03-06T09:06:15Z</time>
      </trkpt>
      <trkpt lat="46.51112" lon="0.37956">
        <ele>97.8</ele>
        <time>2022-03-06T09:06:18Z</time>
      </trkpt>
      <trkpt lat="46.51146" lon="0.37956">
        <ele>98.6</ele>
        <time>2022-03-06T09:06:24Z</time>
      </trkpt>
      <trkpt lat="46.51151" lon="0.37957">
        <ele>98.8</ele>
        <time>2022-03-06T09:06:25Z</time>
      </trkpt>
      <trkpt lat="46.51156" lon="0.37958">
        <ele>99</ele>
        <time>2022-03-06T09:06:26Z</time>
      </trkpt>
      <trkpt lat="46.51169" lon="0.37962">
        <ele>99.4</ele>
        <time>2022-03-06T09:06:29Z</time>
      </trkpt>
      <trkpt lat="46.51173" lon="0.37964">
        <ele>99.4</ele>
        <time>2022-03-06T09:06:30Z</time>
      </trkpt>
      <trkpt lat="46.51196" lon="0.37975">
        <ele>99</ele>
        <time>2022-03-06T09:06:35Z</time>
      </trkpt>
      <trkpt lat="46.51211" lon="0.37978">
        <ele>99.2</ele>
        <time>2022-03-06T09:06:38Z</time>
      </trkpt>
      <trkpt lat="46.51221" lon="0.37981">
        <ele>99.4</ele>
        <time>2022-03-06T09:06:40Z</time>
      </trkpt>
      <trkpt lat="46.5123" lon="0.37983">
        <ele>99.6</ele>
        <time>2022-03-06T09:06:42Z</time>
      </trkpt>
      <trkpt lat="46.51239" lon="0.37989">
        <ele>99.8</ele>
        <time>2022-03-06T09:06:45Z</time>
      </trkpt>
      <trkpt lat="46.51251" lon="0.37999">
        <ele>99.4</ele>
        <time>2022-03-06T09:06:50Z</time>
      </trkpt>
      <trkpt lat="46.51256" lon="0.38">
        <ele>99.2</ele>
        <time>2022-03-06T09:06:52Z</time>
      </trkpt>
      <trkpt lat="46.5126" lon="0.37998">
        <ele>100</ele>
        <time>2022-03-06T09:06:55Z</time>
      </trkpt>
      <trkpt lat="46.51264" lon="0.37997">
        <ele>101.4</ele>
        <time>2022-03-06T09:06:59Z</time>
      </trkpt>
      <trkpt lat="46.51265" lon="0.37997">
        <ele>101.8</ele>
        <time>2022-03-06T09:07:00Z</time>
      </trkpt>
      <trkpt lat="46.51266" lon="0.37995">
        <ele>102.6</ele>
        <time>2022-03-06T09:07:02Z</time>
      </trkpt>
      <trkpt lat="46.51267" lon="0.37995">
        <ele>102.8</ele>
        <time>2022-03-06T09:07:03Z</time>
      </trkpt>
      <trkpt lat="46.5127" lon="0.37993">
        <ele>103.6</ele>
        <time>2022-03-06T09:07:05Z</time>
      </trkpt>
      <trkpt lat="46.5127" lon="0.37992">
        <ele>104</ele>
        <time>2022-03-06T09:07:06Z</time>
      </trkpt>
      <trkpt lat="46.51272" lon="0.3799">
        <ele>104.8</ele>
        <time>2022-03-06T09:07:08Z</time>
      </trkpt>
      <trkpt lat="46.51272" lon="0.37989">
        <ele>105.2</ele>
        <time>2022-03-06T09:07:09Z</time>
      </trkpt>
      <trkpt lat="46.51273" lon="0.37986">
        <ele>106</ele>
        <time>2022-03-06T09:07:11Z</time>
      </trkpt>
      <trkpt lat="46.51277" lon="0.37981">
        <ele>107</ele>
        <time>2022-03-06T09:07:14Z</time>
      </trkpt>
      <trkpt lat="46.51278" lon="0.37979">
        <ele>107.2</ele>
        <time>2022-03-06T09:07:15Z</time>
      </trkpt>
      <trkpt lat="46.51281" lon="0.37973">
        <ele>108.6</ele>
        <time>2022-03-06T09:07:20Z</time>
      </trkpt>
      <trkpt lat="46.51285" lon="0.37967">
        <ele>109.4</ele>
        <time>2022-03-06T09:07:24Z</time>
      </trkpt>
      <trkpt lat="46.51287" lon="0.37961">
        <ele>109.8</ele>
        <time>2022-03-06T09:07:27Z</time>
      </trkpt>
      <trkpt lat="46.51291" lon="0.3795">
        <ele>110.8</ele>
        <time>2022-03-06T09:07:32Z</time>
      </trkpt>
      <trkpt lat="46.51294" lon="0.37945">
        <ele>111.6</ele>
        <time>2022-03-06T09:07:35Z</time>
      </trkpt>
      <trkpt lat="46.51295" lon="0.37943">
        <ele>112</ele>
        <time>2022-03-06T09:07:36Z</time>
      </trkpt>
      <trkpt lat="46.513" lon="0.37926">
        <ele>113</ele>
        <time>2022-03-06T09:07:43Z</time>
      </trkpt>
      <trkpt lat="46.51304" lon="0.37919">
        <ele>113.6</ele>
        <time>2022-03-06T09:07:47Z</time>
      </trkpt>
      <trkpt lat="46.51308" lon="0.37912">
        <ele>114.2</ele>
        <time>2022-03-06T09:07:51Z</time>
      </trkpt>
      <trkpt lat="46.51314" lon="0.37905">
        <ele>114.8</ele>
        <time>2022-03-06T09:07:57Z</time>
      </trkpt>
      <trkpt lat="46.51314" lon="0.37905">
        <ele>114.8</ele>
        <time>2022-03-06T09:07:58Z</time>
      </trkpt>
      <trkpt lat="46.51316" lon="0.37905">
        <ele>114.8</ele>
        <time>2022-03-06T09:07:59Z</time>
      </trkpt>
      <trkpt lat="46.51318" lon="0.37904">
        <ele>114.6</ele>
        <time>2022-03-06T09:08:01Z</time>
      </trkpt>
      <trkpt lat="46.51327" lon="0.37905">
        <ele>114.4</ele>
        <time>2022-03-06T09:08:06Z</time>
      </trkpt>
      <trkpt lat="46.51329" lon="0.37906">
        <ele>114.2</ele>
        <time>2022-03-06T09:08:07Z</time>
      </trkpt>
      <trkpt lat="46.51335" lon="0.37909">
        <ele>113.8</ele>
        <time>2022-03-06T09:08:11Z</time>
      </trkpt>
      <trkpt lat="46.51343" lon="0.37912">
        <ele>113.4</ele>
        <time>2022-03-06T09:08:15Z</time>
      </trkpt>
      <trkpt lat="46.51346" lon="0.37913">
        <ele>113.2</ele>
        <time>2022-03-06T09:08:16Z</time>
      </trkpt>
      <trkpt lat="46.51357" lon="0.37918">
        <ele>112.8</ele>
        <time>2022-03-06T09:08:20Z</time>
      </trkpt>
      <trkpt lat="46.51374" lon="0.37931">
        <ele>112</ele>
        <time>2022-03-06T09:08:26Z</time>
      </trkpt>
      <trkpt lat="46.5139" lon="0.3794">
        <ele>110.8</ele>
        <time>2022-03-06T09:08:30Z</time>
      </trkpt>
      <trkpt lat="46.51398" lon="0.37944">
        <ele>110.6</ele>
        <time>2022-03-06T09:08:32Z</time>
      </trkpt>
      <trkpt lat="46.51409" lon="0.37949">
        <ele>110</ele>
        <time>2022-03-06T09:08:35Z</time>
      </trkpt>
      <trkpt lat="46.51412" lon="0.3795">
        <ele>109.8</ele>
        <time>2022-03-06T09:08:36Z</time>
      </trkpt>
      <trkpt lat="46.51417" lon="0.37951">
        <ele>109.8</ele>
        <time>2022-03-06T09:08:37Z</time>
      </trkpt>
      <trkpt lat="46.51442" lon="0.37953">
        <ele>108.6</ele>
        <time>2022-03-06T09:08:42Z</time>
      </trkpt>
      <trkpt lat="46.51465" lon="0.37949">
        <ele>108.2</ele>
        <time>2022-03-06T09:08:47Z</time>
      </trkpt>
      <trkpt lat="46.51479" lon="0.37948">
        <ele>107.6</ele>
        <time>2022-03-06T09:08:50Z</time>
      </trkpt>
      <trkpt lat="46.5149" lon="0.37947">
        <ele>107.6</ele>
        <time>2022-03-06T09:08:52Z</time>
      </trkpt>
      <trkpt lat="46.51501" lon="0.37947">
        <ele>107.2</ele>
        <time>2022-03-06T09:08:54Z</time>
      </trkpt>
      <trkpt lat="46.51518" lon="0.37949">
        <ele>107</ele>
        <time>2022-03-06T09:08:57Z</time>
      </trkpt>
      <trkpt lat="46.51545" lon="0.37949">
        <ele>106.6</ele>
        <time>2022-03-06T09:09:02Z</time>
      </trkpt>
      <trkpt lat="46.5155" lon="0.3795">
        <ele>106.4</ele>
        <time>2022-03-06T09:09:03Z</time>
      </trkpt>
      <trkpt lat="46.5156" lon="0.37953">
        <ele>105.8</ele>
        <time>2022-03-06T09:09:05Z</time>
      </trkpt>
      <trkpt lat="46.51573" lon="0.37965">
        <ele>105.6</ele>
        <time>2022-03-06T09:09:08Z</time>
      </trkpt>
      <trkpt lat="46.51577" lon="0.37969">
        <ele>105.4</ele>
        <time>2022-03-06T09:09:09Z</time>
      </trkpt>
      <trkpt lat="46.51588" lon="0.37977">
        <ele>104.8</ele>
        <time>2022-03-06T09:09:12Z</time>
      </trkpt>
      <trkpt lat="46.51591" lon="0.37977">
        <ele>104.2</ele>
        <time>2022-03-06T09:09:13Z</time>
      </trkpt>
      <trkpt lat="46.51594" lon="0.37977">
        <ele>103.6</ele>
        <time>2022-03-06T09:09:14Z</time>
      </trkpt>
      <trkpt lat="46.51596" lon="0.37974">
        <ele>103.4</ele>
        <time>2022-03-06T09:09:15Z</time>
      </trkpt>
      <trkpt lat="46.51599" lon="0.37968">
        <ele>103.2</ele>
        <time>2022-03-06T09:09:17Z</time>
      </trkpt>
      <trkpt lat="46.51605" lon="0.37959">
        <ele>103.2</ele>
        <time>2022-03-06T09:09:20Z</time>
      </trkpt>
      <trkpt lat="46.51615" lon="0.37943">
        <ele>103.8</ele>
        <time>2022-03-06T09:09:25Z</time>
      </trkpt>
      <trkpt lat="46.51619" lon="0.37934">
        <ele>103.8</ele>
        <time>2022-03-06T09:09:27Z</time>
      </trkpt>
      <trkpt lat="46.51631" lon="0.37897">
        <ele>103.2</ele>
        <time>2022-03-06T09:09:32Z</time>
      </trkpt>
      <trkpt lat="46.5164" lon="0.37869">
        <ele>103.6</ele>
        <time>2022-03-06T09:09:36Z</time>
      </trkpt>
      <trkpt lat="46.51644" lon="0.37857">
        <ele>104.2</ele>
        <time>2022-03-06T09:09:38Z</time>
      </trkpt>
      <trkpt lat="46.51652" lon="0.37835">
        <ele>105.2</ele>
        <time>2022-03-06T09:09:42Z</time>
      </trkpt>
      <trkpt lat="46.51655" lon="0.37831">
        <ele>105.4</ele>
        <time>2022-03-06T09:09:43Z</time>
      </trkpt>
      <trkpt lat="46.51666" lon="0.37801">
        <ele>106.4</ele>
        <time>2022-03-06T09:09:49Z</time>
      </trkpt>
      <trkpt lat="46.51672" lon="0.3779">
        <ele>106.6</ele>
        <time>2022-03-06T09:09:51Z</time>
      </trkpt>
      <trkpt lat="46.51675" lon="0.37778">
        <ele>106.8</ele>
        <time>2022-03-06T09:09:53Z</time>
      </trkpt>
      <trkpt lat="46.51677" lon="0.37772">
        <ele>106.8</ele>
        <time>2022-03-06T09:09:54Z</time>
      </trkpt>
      <trkpt lat="46.51679" lon="0.37766">
        <ele>106.8</ele>
        <time>2022-03-06T09:09:55Z</time>
      </trkpt>
      <trkpt lat="46.51688" lon="0.37736">
        <ele>106.6</ele>
        <time>2022-03-06T09:10:00Z</time>
      </trkpt>
      <trkpt lat="46.51697" lon="0.37713">
        <ele>106.2</ele>
        <time>2022-03-06T09:10:03Z</time>
      </trkpt>
      <trkpt lat="46.51698" lon="0.37703">
        <ele>106</ele>
        <time>2022-03-06T09:10:04Z</time>
      </trkpt>
      <trkpt lat="46.51708" lon="0.3767">
        <ele>105.4</ele>
        <time>2022-03-06T09:10:08Z</time>
      </trkpt>
      <trkpt lat="46.51714" lon="0.37652">
        <ele>105</ele>
        <time>2022-03-06T09:10:10Z</time>
      </trkpt>
      <trkpt lat="46.51721" lon="0.37636">
        <ele>104.2</ele>
        <time>2022-03-06T09:10:12Z</time>
      </trkpt>
      <trkpt lat="46.51732" lon="0.37608">
        <ele>102.2</ele>
        <time>2022-03-06T09:10:15Z</time>
      </trkpt>
      <trkpt lat="46.51736" lon="0.37598">
        <ele>101.4</ele>
        <time>2022-03-06T09:10:16Z</time>
      </trkpt>
      <trkpt lat="46.5174" lon="0.37589">
        <ele>100.6</ele>
        <time>2022-03-06T09:10:17Z</time>
      </trkpt>
      <trkpt lat="46.51743" lon="0.37582">
        <ele>99.6</ele>
        <time>2022-03-06T09:10:18Z</time>
      </trkpt>
      <trkpt lat="46.51748" lon="0.3757">
        <ele>97.8</ele>
        <time>2022-03-06T09:10:20Z</time>
      </trkpt>
      <trkpt lat="46.51752" lon="0.37557">
        <ele>95.4</ele>
        <time>2022-03-06T09:10:22Z</time>
      </trkpt>
      <trkpt lat="46.51754" lon="0.37552">
        <ele>93.6</ele>
        <time>2022-03-06T09:10:23Z</time>
      </trkpt>
      <trkpt lat="46.51754" lon="0.37547">
        <ele>92.8</ele>
        <time>2022-03-06T09:10:24Z</time>
      </trkpt>
      <trkpt lat="46.51754" lon="0.37542">
        <ele>92.2</ele>
        <time>2022-03-06T09:10:25Z</time>
      </trkpt>
      <trkpt lat="46.51752" lon="0.37535">
        <ele>90.6</ele>
        <time>2022-03-06T09:10:27Z</time>
      </trkpt>
      <trkpt lat="46.51751" lon="0.37527">
        <ele>88.4</ele>
        <time>2022-03-06T09:10:29Z</time>
      </trkpt>
      <trkpt lat="46.51746" lon="0.37521">
        <ele>87</ele>
        <time>2022-03-06T09:10:31Z</time>
      </trkpt>
      <trkpt lat="46.51739" lon="0.37515">
        <ele>86.6</ele>
        <time>2022-03-06T09:10:33Z</time>
      </trkpt>
      <trkpt lat="46.51718" lon="0.37501">
        <ele>86</ele>
        <time>2022-03-06T09:10:39Z</time>
      </trkpt>
      <trkpt lat="46.51698" lon="0.37484">
        <ele>86.4</ele>
        <time>2022-03-06T09:10:45Z</time>
      </trkpt>
      <trkpt lat="46.51694" lon="0.37481">
        <ele>86.4</ele>
        <time>2022-03-06T09:10:46Z</time>
      </trkpt>
      <trkpt lat="46.51669" lon="0.37461">
        <ele>86</ele>
        <time>2022-03-06T09:10:52Z</time>
      </trkpt>
      <trkpt lat="46.5166" lon="0.37454">
        <ele>85.8</ele>
        <time>2022-03-06T09:10:54Z</time>
      </trkpt>
      <trkpt lat="46.51648" lon="0.37444">
        <ele>85.8</ele>
        <time>2022-03-06T09:10:57Z</time>
      </trkpt>
      <trkpt lat="46.51633" lon="0.37426">
        <ele>86.2</ele>
        <time>2022-03-06T09:11:02Z</time>
      </trkpt>
      <trkpt lat="46.51619" lon="0.37408">
        <ele>86.2</ele>
        <time>2022-03-06T09:11:07Z</time>
      </trkpt>
      <trkpt lat="46.51609" lon="0.37397">
        <ele>85.8</ele>
        <time>2022-03-06T09:11:10Z</time>
      </trkpt>
      <trkpt lat="46.51598" lon="0.37384">
        <ele>85.6</ele>
        <time>2022-03-06T09:11:15Z</time>
      </trkpt>
      <trkpt lat="46.5158" lon="0.37357">
        <ele>85.8</ele>
        <time>2022-03-06T09:11:22Z</time>
      </trkpt>
      <trkpt lat="46.51574" lon="0.37342">
        <ele>85.8</ele>
        <time>2022-03-06T09:11:26Z</time>
      </trkpt>
      <trkpt lat="46.51571" lon="0.37339">
        <ele>85.8</ele>
        <time>2022-03-06T09:11:27Z</time>
      </trkpt>
      <trkpt lat="46.51562" lon="0.37336">
        <ele>86.2</ele>
        <time>2022-03-06T09:11:31Z</time>
      </trkpt>
      <trkpt lat="46.51558" lon="0.37335">
        <ele>87.2</ele>
        <time>2022-03-06T09:11:34Z</time>
      </trkpt>
      <trkpt lat="46.51554" lon="0.37336">
        <ele>88.2</ele>
        <time>2022-03-06T09:11:37Z</time>
      </trkpt>
      <trkpt lat="46.51552" lon="0.37336">
        <ele>88.8</ele>
        <time>2022-03-06T09:11:38Z</time>
      </trkpt>
      <trkpt lat="46.5155" lon="0.37335">
        <ele>89.6</ele>
        <time>2022-03-06T09:11:40Z</time>
      </trkpt>
      <trkpt lat="46.51549" lon="0.37335">
        <ele>90.2</ele>
        <time>2022-03-06T09:11:41Z</time>
      </trkpt>
      <trkpt lat="46.51548" lon="0.37334">
        <ele>90.4</ele>
        <time>2022-03-06T09:11:42Z</time>
      </trkpt>
      <trkpt lat="46.51546" lon="0.37333">
        <ele>91.2</ele>
        <time>2022-03-06T09:11:44Z</time>
      </trkpt>
      <trkpt lat="46.51543" lon="0.37332">
        <ele>92.4</ele>
        <time>2022-03-06T09:11:46Z</time>
      </trkpt>
      <trkpt lat="46.5154" lon="0.37333">
        <ele>93.2</ele>
        <time>2022-03-06T09:11:48Z</time>
      </trkpt>
      <trkpt lat="46.51539" lon="0.37334">
        <ele>93.8</ele>
        <time>2022-03-06T09:11:49Z</time>
      </trkpt>
      <trkpt lat="46.51537" lon="0.37334">
        <ele>94.2</ele>
        <time>2022-03-06T09:11:51Z</time>
      </trkpt>
      <trkpt lat="46.51534" lon="0.37334">
        <ele>95</ele>
        <time>2022-03-06T09:11:53Z</time>
      </trkpt>
      <trkpt lat="46.51531" lon="0.37336">
        <ele>96</ele>
        <time>2022-03-06T09:11:56Z</time>
      </trkpt>
      <trkpt lat="46.5153" lon="0.37336">
        <ele>96.4</ele>
        <time>2022-03-06T09:11:57Z</time>
      </trkpt>
      <trkpt lat="46.51528" lon="0.37337">
        <ele>96.8</ele>
        <time>2022-03-06T09:11:59Z</time>
      </trkpt>
      <trkpt lat="46.51526" lon="0.3734">
        <ele>97.2</ele>
        <time>2022-03-06T09:12:01Z</time>
      </trkpt>
      <trkpt lat="46.51523" lon="0.37341">
        <ele>98.2</ele>
        <time>2022-03-06T09:12:04Z</time>
      </trkpt>
      <trkpt lat="46.51522" lon="0.37342">
        <ele>98.8</ele>
        <time>2022-03-06T09:12:05Z</time>
      </trkpt>
      <trkpt lat="46.51519" lon="0.37343">
        <ele>99.4</ele>
        <time>2022-03-06T09:12:07Z</time>
      </trkpt>
      <trkpt lat="46.51518" lon="0.37344">
        <ele>99.8</ele>
        <time>2022-03-06T09:12:08Z</time>
      </trkpt>
      <trkpt lat="46.51515" lon="0.37345">
        <ele>100.4</ele>
        <time>2022-03-06T09:12:10Z</time>
      </trkpt>
      <trkpt lat="46.51513" lon="0.37346">
        <ele>101.2</ele>
        <time>2022-03-06T09:12:12Z</time>
      </trkpt>
      <trkpt lat="46.51512" lon="0.37346">
        <ele>101.6</ele>
        <time>2022-03-06T09:12:13Z</time>
      </trkpt>
      <trkpt lat="46.51511" lon="0.37346">
        <ele>101.8</ele>
        <time>2022-03-06T09:12:14Z</time>
      </trkpt>
      <trkpt lat="46.51505" lon="0.37347">
        <ele>102.6</ele>
        <time>2022-03-06T09:12:20Z</time>
      </trkpt>
      <trkpt lat="46.51501" lon="0.37347">
        <ele>103.8</ele>
        <time>2022-03-06T09:12:24Z</time>
      </trkpt>
      <trkpt lat="46.51497" lon="0.37346">
        <ele>105</ele>
        <time>2022-03-06T09:12:28Z</time>
      </trkpt>
      <trkpt lat="46.51492" lon="0.37345">
        <ele>106</ele>
        <time>2022-03-06T09:12:33Z</time>
      </trkpt>
      <trkpt lat="46.51487" lon="0.37344">
        <ele>106.8</ele>
        <time>2022-03-06T09:12:38Z</time>
      </trkpt>
      <trkpt lat="46.51485" lon="0.37343">
        <ele>107</ele>
        <time>2022-03-06T09:12:40Z</time>
      </trkpt>
      <trkpt lat="46.51484" lon="0.37342">
        <ele>107.2</ele>
        <time>2022-03-06T09:12:41Z</time>
      </trkpt>
      <trkpt lat="46.51483" lon="0.37342">
        <ele>107.4</ele>
        <time>2022-03-06T09:12:43Z</time>
      </trkpt>
      <trkpt lat="46.51481" lon="0.37342">
        <ele>107.8</ele>
        <time>2022-03-06T09:12:45Z</time>
      </trkpt>
      <trkpt lat="46.51479" lon="0.37342">
        <ele>108</ele>
        <time>2022-03-06T09:12:47Z</time>
      </trkpt>
      <trkpt lat="46.51474" lon="0.3734">
        <ele>109</ele>
        <time>2022-03-06T09:12:52Z</time>
      </trkpt>
      <trkpt lat="46.51473" lon="0.3734">
        <ele>109.2</ele>
        <time>2022-03-06T09:12:53Z</time>
      </trkpt>
      <trkpt lat="46.51469" lon="0.37341">
        <ele>110.6</ele>
        <time>2022-03-06T09:12:56Z</time>
      </trkpt>
      <trkpt lat="46.51466" lon="0.37341">
        <ele>111</ele>
        <time>2022-03-06T09:12:59Z</time>
      </trkpt>
      <trkpt lat="46.51459" lon="0.3734">
        <ele>111.6</ele>
        <time>2022-03-06T09:13:04Z</time>
      </trkpt>
      <trkpt lat="46.51451" lon="0.37338">
        <ele>112.2</ele>
        <time>2022-03-06T09:13:10Z</time>
      </trkpt>
      <trkpt lat="46.51449" lon="0.37338">
        <ele>112.6</ele>
        <time>2022-03-06T09:13:12Z</time>
      </trkpt>
      <trkpt lat="46.51443" lon="0.3734">
        <ele>113.8</ele>
        <time>2022-03-06T09:13:19Z</time>
      </trkpt>
      <trkpt lat="46.51439" lon="0.37341">
        <ele>114.4</ele>
        <time>2022-03-06T09:13:22Z</time>
      </trkpt>
      <trkpt lat="46.51435" lon="0.37342">
        <ele>114.8</ele>
        <time>2022-03-06T09:13:25Z</time>
      </trkpt>
      <trkpt lat="46.51425" lon="0.37342">
        <ele>115.6</ele>
        <time>2022-03-06T09:13:31Z</time>
      </trkpt>
      <trkpt lat="46.51424" lon="0.37342">
        <ele>115.8</ele>
        <time>2022-03-06T09:13:32Z</time>
      </trkpt>
      <trkpt lat="46.5142" lon="0.37344">
        <ele>116.6</ele>
        <time>2022-03-06T09:13:36Z</time>
      </trkpt>
      <trkpt lat="46.51418" lon="0.37343">
        <ele>116.8</ele>
        <time>2022-03-06T09:13:39Z</time>
      </trkpt>
      <trkpt lat="46.51417" lon="0.37342">
        <ele>117</ele>
        <time>2022-03-06T09:13:40Z</time>
      </trkpt>
      <trkpt lat="46.51414" lon="0.37342">
        <ele>117.2</ele>
        <time>2022-03-06T09:13:43Z</time>
      </trkpt>
      <trkpt lat="46.51413" lon="0.37342">
        <ele>117.4</ele>
        <time>2022-03-06T09:13:44Z</time>
      </trkpt>
      <trkpt lat="46.51409" lon="0.3734">
        <ele>117.8</ele>
        <time>2022-03-06T09:13:47Z</time>
      </trkpt>
      <trkpt lat="46.51408" lon="0.37336">
        <ele>117.8</ele>
        <time>2022-03-06T09:13:49Z</time>
      </trkpt>
      <trkpt lat="46.51408" lon="0.37329">
        <ele>117.8</ele>
        <time>2022-03-06T09:13:54Z</time>
      </trkpt>
      <trkpt lat="46.51409" lon="0.37307">
        <ele>117.2</ele>
        <time>2022-03-06T09:14:03Z</time>
      </trkpt>
      <trkpt lat="46.5141" lon="0.3729">
        <ele>116.8</ele>
        <time>2022-03-06T09:14:08Z</time>
      </trkpt>
      <trkpt lat="46.51413" lon="0.37268">
        <ele>116.4</ele>
        <time>2022-03-06T09:14:13Z</time>
      </trkpt>
      <trkpt lat="46.51415" lon="0.3725">
        <ele>115.8</ele>
        <time>2022-03-06T09:14:16Z</time>
      </trkpt>
      <trkpt lat="46.51416" lon="0.37238">
        <ele>115.4</ele>
        <time>2022-03-06T09:14:18Z</time>
      </trkpt>
      <trkpt lat="46.51417" lon="0.37231">
        <ele>115.2</ele>
        <time>2022-03-06T09:14:19Z</time>
      </trkpt>
      <trkpt lat="46.51418" lon="0.37225">
        <ele>114.4</ele>
        <time>2022-03-06T09:14:20Z</time>
      </trkpt>
      <trkpt lat="46.51422" lon="0.37214">
        <ele>113.2</ele>
        <time>2022-03-06T09:14:22Z</time>
      </trkpt>
      <trkpt lat="46.51431" lon="0.37203">
        <ele>111.2</ele>
        <time>2022-03-06T09:14:24Z</time>
      </trkpt>
      <trkpt lat="46.51436" lon="0.37199">
        <ele>110.2</ele>
        <time>2022-03-06T09:14:25Z</time>
      </trkpt>
      <trkpt lat="46.51448" lon="0.37193">
        <ele>109</ele>
        <time>2022-03-06T09:14:27Z</time>
      </trkpt>
      <trkpt lat="46.51452" lon="0.3719">
        <ele>108</ele>
        <time>2022-03-06T09:14:28Z</time>
      </trkpt>
      <trkpt lat="46.51457" lon="0.37187">
        <ele>107.4</ele>
        <time>2022-03-06T09:14:29Z</time>
      </trkpt>
      <trkpt lat="46.5146" lon="0.37184">
        <ele>106.2</ele>
        <time>2022-03-06T09:14:30Z</time>
      </trkpt>
      <trkpt lat="46.51464" lon="0.3718">
        <ele>105.2</ele>
        <time>2022-03-06T09:14:31Z</time>
      </trkpt>
      <trkpt lat="46.51469" lon="0.37174">
        <ele>104.6</ele>
        <time>2022-03-06T09:14:32Z</time>
      </trkpt>
      <trkpt lat="46.51476" lon="0.37167">
        <ele>102.4</ele>
        <time>2022-03-06T09:14:33Z</time>
      </trkpt>
      <trkpt lat="46.51476" lon="0.37167">
        <ele>101.2</ele>
        <time>2022-03-06T09:14:35Z</time>
      </trkpt>
      <trkpt lat="46.51482" lon="0.37159">
        <ele>99.8</ele>
        <time>2022-03-06T09:14:36Z</time>
      </trkpt>
      <trkpt lat="46.51484" lon="0.37155">
        <ele>98.8</ele>
        <time>2022-03-06T09:14:37Z</time>
      </trkpt>
      <trkpt lat="46.51486" lon="0.37152">
        <ele>97.6</ele>
        <time>2022-03-06T09:14:38Z</time>
      </trkpt>
      <trkpt lat="46.51489" lon="0.37149">
        <ele>97</ele>
        <time>2022-03-06T09:14:39Z</time>
      </trkpt>
      <trkpt lat="46.51491" lon="0.37148">
        <ele>96</ele>
        <time>2022-03-06T09:14:40Z</time>
      </trkpt>
      <trkpt lat="46.51492" lon="0.37147">
        <ele>95</ele>
        <time>2022-03-06T09:14:41Z</time>
      </trkpt>
      <trkpt lat="46.51494" lon="0.37147">
        <ele>94.6</ele>
        <time>2022-03-06T09:14:42Z</time>
      </trkpt>
      <trkpt lat="46.515" lon="0.3715">
        <ele>93.2</ele>
        <time>2022-03-06T09:14:44Z</time>
      </trkpt>
      <trkpt lat="46.51503" lon="0.37152">
        <ele>92.2</ele>
        <time>2022-03-06T09:14:45Z</time>
      </trkpt>
      <trkpt lat="46.51511" lon="0.37157">
        <ele>89.6</ele>
        <time>2022-03-06T09:14:47Z</time>
      </trkpt>
      <trkpt lat="46.51513" lon="0.37157">
        <ele>88.4</ele>
        <time>2022-03-06T09:14:48Z</time>
      </trkpt>
      <trkpt lat="46.51517" lon="0.37155">
        <ele>87.4</ele>
        <time>2022-03-06T09:14:49Z</time>
      </trkpt>
      <trkpt lat="46.51519" lon="0.37154">
        <ele>87</ele>
        <time>2022-03-06T09:14:50Z</time>
      </trkpt>
      <trkpt lat="46.51519" lon="0.37152">
        <ele>86.6</ele>
        <time>2022-03-06T09:14:52Z</time>
      </trkpt>
      <trkpt lat="46.51518" lon="0.37149">
        <ele>86.6</ele>
        <time>2022-03-06T09:14:54Z</time>
      </trkpt>
      <trkpt lat="46.51515" lon="0.37138">
        <ele>88</ele>
        <time>2022-03-06T09:15:04Z</time>
      </trkpt>
      <trkpt lat="46.51515" lon="0.37136">
        <ele>88.2</ele>
        <time>2022-03-06T09:15:05Z</time>
      </trkpt>
      <trkpt lat="46.51512" lon="0.37119">
        <ele>89.2</ele>
        <time>2022-03-06T09:15:13Z</time>
      </trkpt>
      <trkpt lat="46.51511" lon="0.37117">
        <ele>89.6</ele>
        <time>2022-03-06T09:15:14Z</time>
      </trkpt>
      <trkpt lat="46.51509" lon="0.3711">
        <ele>90.4</ele>
        <time>2022-03-06T09:15:17Z</time>
      </trkpt>
      <trkpt lat="46.51506" lon="0.37102">
        <ele>90.6</ele>
        <time>2022-03-06T09:15:21Z</time>
      </trkpt>
      <trkpt lat="46.51499" lon="0.37083">
        <ele>90.8</ele>
        <time>2022-03-06T09:15:28Z</time>
      </trkpt>
      <trkpt lat="46.5149" lon="0.37056">
        <ele>91.4</ele>
        <time>2022-03-06T09:15:35Z</time>
      </trkpt>
      <trkpt lat="46.51486" lon="0.37033">
        <ele>91</ele>
        <time>2022-03-06T09:15:41Z</time>
      </trkpt>
      <trkpt lat="46.51486" lon="0.37013">
        <ele>90.4</ele>
        <time>2022-03-06T09:15:46Z</time>
      </trkpt>
      <trkpt lat="46.51485" lon="0.3701">
        <ele>90.2</ele>
        <time>2022-03-06T09:15:47Z</time>
      </trkpt>
      <trkpt lat="46.51484" lon="0.36996">
        <ele>90</ele>
        <time>2022-03-06T09:15:50Z</time>
      </trkpt>
      <trkpt lat="46.51484" lon="0.36986">
        <ele>90</ele>
        <time>2022-03-06T09:15:52Z</time>
      </trkpt>
      <trkpt lat="46.51484" lon="0.36963">
        <ele>90.2</ele>
        <time>2022-03-06T09:15:58Z</time>
      </trkpt>
      <trkpt lat="46.51481" lon="0.36945">
        <ele>90.4</ele>
        <time>2022-03-06T09:16:03Z</time>
      </trkpt>
      <trkpt lat="46.51478" lon="0.3694">
        <ele>90.4</ele>
        <time>2022-03-06T09:16:05Z</time>
      </trkpt>
      <trkpt lat="46.51474" lon="0.36937">
        <ele>91</ele>
        <time>2022-03-06T09:16:08Z</time>
      </trkpt>
      <trkpt lat="46.51473" lon="0.36936">
        <ele>91.6</ele>
        <time>2022-03-06T09:16:09Z</time>
      </trkpt>
      <trkpt lat="46.5147" lon="0.36931">
        <ele>92.4</ele>
        <time>2022-03-06T09:16:12Z</time>
      </trkpt>
      <trkpt lat="46.51469" lon="0.3693">
        <ele>92.8</ele>
        <time>2022-03-06T09:16:13Z</time>
      </trkpt>
      <trkpt lat="46.51468" lon="0.36929">
        <ele>92.8</ele>
        <time>2022-03-06T09:16:14Z</time>
      </trkpt>
      <trkpt lat="46.51466" lon="0.36925">
        <ele>93.8</ele>
        <time>2022-03-06T09:16:16Z</time>
      </trkpt>
      <trkpt lat="46.51463" lon="0.36922">
        <ele>95.2</ele>
        <time>2022-03-06T09:16:19Z</time>
      </trkpt>
      <trkpt lat="46.51461" lon="0.36915">
        <ele>96.4</ele>
        <time>2022-03-06T09:16:22Z</time>
      </trkpt>
      <trkpt lat="46.51459" lon="0.36908">
        <ele>97</ele>
        <time>2022-03-06T09:16:25Z</time>
      </trkpt>
      <trkpt lat="46.51453" lon="0.36901">
        <ele>97.8</ele>
        <time>2022-03-06T09:16:29Z</time>
      </trkpt>
      <trkpt lat="46.51452" lon="0.36897">
        <ele>98.4</ele>
        <time>2022-03-06T09:16:32Z</time>
      </trkpt>
      <trkpt lat="46.51451" lon="0.36896">
        <ele>99</ele>
        <time>2022-03-06T09:16:33Z</time>
      </trkpt>
      <trkpt lat="46.51451" lon="0.36895">
        <ele>99.2</ele>
        <time>2022-03-06T09:16:34Z</time>
      </trkpt>
      <trkpt lat="46.5145" lon="0.36893">
        <ele>99.6</ele>
        <time>2022-03-06T09:16:35Z</time>
      </trkpt>
      <trkpt lat="46.51449" lon="0.3689">
        <ele>100</ele>
        <time>2022-03-06T09:16:37Z</time>
      </trkpt>
      <trkpt lat="46.51447" lon="0.36887">
        <ele>100.2</ele>
        <time>2022-03-06T09:16:39Z</time>
      </trkpt>
      <trkpt lat="46.51445" lon="0.3688">
        <ele>100.6</ele>
        <time>2022-03-06T09:16:42Z</time>
      </trkpt>
      <trkpt lat="46.51442" lon="0.36877">
        <ele>100.8</ele>
        <time>2022-03-06T09:16:44Z</time>
      </trkpt>
      <trkpt lat="46.51441" lon="0.36875">
        <ele>101</ele>
        <time>2022-03-06T09:16:45Z</time>
      </trkpt>
      <trkpt lat="46.51439" lon="0.36873">
        <ele>101.2</ele>
        <time>2022-03-06T09:16:47Z</time>
      </trkpt>
      <trkpt lat="46.51438" lon="0.36872">
        <ele>101.4</ele>
        <time>2022-03-06T09:16:48Z</time>
      </trkpt>
      <trkpt lat="46.51433" lon="0.36871">
        <ele>102.4</ele>
        <time>2022-03-06T09:16:51Z</time>
      </trkpt>
      <trkpt lat="46.51426" lon="0.3687">
        <ele>103.2</ele>
        <time>2022-03-06T09:16:56Z</time>
      </trkpt>
      <trkpt lat="46.51425" lon="0.3687">
        <ele>103.6</ele>
        <time>2022-03-06T09:16:57Z</time>
      </trkpt>
      <trkpt lat="46.51425" lon="0.36869">
        <ele>104</ele>
        <time>2022-03-06T09:16:58Z</time>
      </trkpt>
      <trkpt lat="46.51425" lon="0.3687">
        <ele>104.6</ele>
        <time>2022-03-06T09:17:01Z</time>
      </trkpt>
      <trkpt lat="46.51424" lon="0.3687">
        <ele>104.6</ele>
        <time>2022-03-06T09:17:02Z</time>
      </trkpt>
      <trkpt lat="46.51423" lon="0.36869">
        <ele>104.6</ele>
        <time>2022-03-06T09:17:03Z</time>
      </trkpt>
      <trkpt lat="46.51422" lon="0.3687">
        <ele>105</ele>
        <time>2022-03-06T09:17:04Z</time>
      </trkpt>
      <trkpt lat="46.5142" lon="0.36871">
        <ele>105.4</ele>
        <time>2022-03-06T09:17:06Z</time>
      </trkpt>
      <trkpt lat="46.51419" lon="0.36872">
        <ele>105.6</ele>
        <time>2022-03-06T09:17:08Z</time>
      </trkpt>
      <trkpt lat="46.51417" lon="0.36873">
        <ele>105.8</ele>
        <time>2022-03-06T09:17:09Z</time>
      </trkpt>
      <trkpt lat="46.51416" lon="0.36874">
        <ele>106</ele>
        <time>2022-03-06T09:17:10Z</time>
      </trkpt>
      <trkpt lat="46.51414" lon="0.36876">
        <ele>106.8</ele>
        <time>2022-03-06T09:17:12Z</time>
      </trkpt>
      <trkpt lat="46.51412" lon="0.36876">
        <ele>107</ele>
        <time>2022-03-06T09:17:13Z</time>
      </trkpt>
      <trkpt lat="46.5141" lon="0.36878">
        <ele>107.4</ele>
        <time>2022-03-06T09:17:15Z</time>
      </trkpt>
      <trkpt lat="46.51409" lon="0.36879">
        <ele>108</ele>
        <time>2022-03-06T09:17:16Z</time>
      </trkpt>
      <trkpt lat="46.51403" lon="0.36884">
        <ele>109</ele>
        <time>2022-03-06T09:17:21Z</time>
      </trkpt>
      <trkpt lat="46.51399" lon="0.36889">
        <ele>110</ele>
        <time>2022-03-06T09:17:25Z</time>
      </trkpt>
      <trkpt lat="46.51396" lon="0.36891">
        <ele>110.6</ele>
        <time>2022-03-06T09:17:27Z</time>
      </trkpt>
      <trkpt lat="46.51392" lon="0.36894">
        <ele>111</ele>
        <time>2022-03-06T09:17:30Z</time>
      </trkpt>
      <trkpt lat="46.51384" lon="0.36897">
        <ele>112.2</ele>
        <time>2022-03-06T09:17:36Z</time>
      </trkpt>
      <trkpt lat="46.5138" lon="0.36897">
        <ele>113</ele>
        <time>2022-03-06T09:17:39Z</time>
      </trkpt>
      <trkpt lat="46.51377" lon="0.36897">
        <ele>113.4</ele>
        <time>2022-03-06T09:17:41Z</time>
      </trkpt>
      <trkpt lat="46.51368" lon="0.36894">
        <ele>114.4</ele>
        <time>2022-03-06T09:17:47Z</time>
      </trkpt>
      <trkpt lat="46.51363" lon="0.36892">
        <ele>114.8</ele>
        <time>2022-03-06T09:17:50Z</time>
      </trkpt>
      <trkpt lat="46.51359" lon="0.36891">
        <ele>115.4</ele>
        <time>2022-03-06T09:17:53Z</time>
      </trkpt>
      <trkpt lat="46.51347" lon="0.36884">
        <ele>116.4</ele>
        <time>2022-03-06T09:18:01Z</time>
      </trkpt>
      <trkpt lat="46.51334" lon="0.36876">
        <ele>117.4</ele>
        <time>2022-03-06T09:18:09Z</time>
      </trkpt>
      <trkpt lat="46.51321" lon="0.36869">
        <ele>118.2</ele>
        <time>2022-03-06T09:18:15Z</time>
      </trkpt>
      <trkpt lat="46.51315" lon="0.36868">
        <ele>118.6</ele>
        <time>2022-03-06T09:18:18Z</time>
      </trkpt>
      <trkpt lat="46.51309" lon="0.3687">
        <ele>119.2</ele>
        <time>2022-03-06T09:18:21Z</time>
      </trkpt>
      <trkpt lat="46.51304" lon="0.36872">
        <ele>119.6</ele>
        <time>2022-03-06T09:18:23Z</time>
      </trkpt>
      <trkpt lat="46.51295" lon="0.36878">
        <ele>120.4</ele>
        <time>2022-03-06T09:18:28Z</time>
      </trkpt>
      <trkpt lat="46.51291" lon="0.36879">
        <ele>120.8</ele>
        <time>2022-03-06T09:18:30Z</time>
      </trkpt>
      <trkpt lat="46.5128" lon="0.36882">
        <ele>121.2</ele>
        <time>2022-03-06T09:18:34Z</time>
      </trkpt>
      <trkpt lat="46.51265" lon="0.36884">
        <ele>122</ele>
        <time>2022-03-06T09:18:40Z</time>
      </trkpt>
      <trkpt lat="46.51247" lon="0.36882">
        <ele>122.8</ele>
        <time>2022-03-06T09:18:47Z</time>
      </trkpt>
      <trkpt lat="46.51241" lon="0.36883">
        <ele>123</ele>
        <time>2022-03-06T09:18:49Z</time>
      </trkpt>
      <trkpt lat="46.51227" lon="0.36885">
        <ele>123.6</ele>
        <time>2022-03-06T09:18:54Z</time>
      </trkpt>
      <trkpt lat="46.51212" lon="0.36882">
        <ele>124.2</ele>
        <time>2022-03-06T09:18:59Z</time>
      </trkpt>
      <trkpt lat="46.51209" lon="0.36881">
        <ele>124.2</ele>
        <time>2022-03-06T09:19:00Z</time>
      </trkpt>
      <trkpt lat="46.51189" lon="0.3687">
        <ele>124.4</ele>
        <time>2022-03-06T09:19:07Z</time>
      </trkpt>
      <trkpt lat="46.5117" lon="0.36859">
        <ele>124.6</ele>
        <time>2022-03-06T09:19:13Z</time>
      </trkpt>
      <trkpt lat="46.51145" lon="0.36849">
        <ele>125</ele>
        <time>2022-03-06T09:19:20Z</time>
      </trkpt>
      <trkpt lat="46.51133" lon="0.36845">
        <ele>124.8</ele>
        <time>2022-03-06T09:19:23Z</time>
      </trkpt>
      <trkpt lat="46.51129" lon="0.36845">
        <ele>124.8</ele>
        <time>2022-03-06T09:19:24Z</time>
      </trkpt>
      <trkpt lat="46.51128" lon="0.36846">
        <ele>124.4</ele>
        <time>2022-03-06T09:19:25Z</time>
      </trkpt>
      <trkpt lat="46.51125" lon="0.36855">
        <ele>124.4</ele>
        <time>2022-03-06T09:19:28Z</time>
      </trkpt>
      <trkpt lat="46.51122" lon="0.36867">
        <ele>125</ele>
        <time>2022-03-06T09:19:31Z</time>
      </trkpt>
      <trkpt lat="46.51121" lon="0.36875">
        <ele>125.2</ele>
        <time>2022-03-06T09:19:33Z</time>
      </trkpt>
      <trkpt lat="46.51121" lon="0.36879">
        <ele>125.2</ele>
        <time>2022-03-06T09:19:34Z</time>
      </trkpt>
      <trkpt lat="46.51121" lon="0.36891">
        <ele>126</ele>
        <time>2022-03-06T09:19:37Z</time>
      </trkpt>
      <trkpt lat="46.51122" lon="0.36896">
        <ele>126.2</ele>
        <time>2022-03-06T09:19:38Z</time>
      </trkpt>
      <trkpt lat="46.51122" lon="0.369">
        <ele>126.2</ele>
        <time>2022-03-06T09:19:39Z</time>
      </trkpt>
      <trkpt lat="46.51123" lon="0.36908">
        <ele>126.2</ele>
        <time>2022-03-06T09:19:41Z</time>
      </trkpt>
      <trkpt lat="46.51126" lon="0.3692">
        <ele>126.2</ele>
        <time>2022-03-06T09:19:44Z</time>
      </trkpt>
      <trkpt lat="46.51126" lon="0.36926">
        <ele>126.2</ele>
        <time>2022-03-06T09:19:45Z</time>
      </trkpt>
      <trkpt lat="46.51127" lon="0.36951">
        <ele>126.2</ele>
        <time>2022-03-06T09:19:49Z</time>
      </trkpt>
      <trkpt lat="46.51129" lon="0.36963">
        <ele>126</ele>
        <time>2022-03-06T09:19:51Z</time>
      </trkpt>
      <trkpt lat="46.51129" lon="0.36972">
        <ele>126</ele>
        <time>2022-03-06T09:19:53Z</time>
      </trkpt>
      <trkpt lat="46.51128" lon="0.36977">
        <ele>126</ele>
        <time>2022-03-06T09:19:54Z</time>
      </trkpt>
      <trkpt lat="46.51125" lon="0.3698">
        <ele>126</ele>
        <time>2022-03-06T09:19:55Z</time>
      </trkpt>
      <trkpt lat="46.51114" lon="0.3699">
        <ele>126</ele>
        <time>2022-03-06T09:19:58Z</time>
      </trkpt>
      <trkpt lat="46.51101" lon="0.36995">
        <ele>126.4</ele>
        <time>2022-03-06T09:20:03Z</time>
      </trkpt>
      <trkpt lat="46.51099" lon="0.36993">
        <ele>126.4</ele>
        <time>2022-03-06T09:20:04Z</time>
      </trkpt>
      <trkpt lat="46.51098" lon="0.3699">
        <ele>126.4</ele>
        <time>2022-03-06T09:20:05Z</time>
      </trkpt>
      <trkpt lat="46.51096" lon="0.36987">
        <ele>126.4</ele>
        <time>2022-03-06T09:20:07Z</time>
      </trkpt>
      <trkpt lat="46.51094" lon="0.36982">
        <ele>126.4</ele>
        <time>2022-03-06T09:20:09Z</time>
      </trkpt>
      <trkpt lat="46.5109" lon="0.36977">
        <ele>126.4</ele>
        <time>2022-03-06T09:20:11Z</time>
      </trkpt>
      <trkpt lat="46.51078" lon="0.36975">
        <ele>126.4</ele>
        <time>2022-03-06T09:20:14Z</time>
      </trkpt>
      <trkpt lat="46.5107" lon="0.36976">
        <ele>126.6</ele>
        <time>2022-03-06T09:20:16Z</time>
      </trkpt>
      <trkpt lat="46.51059" lon="0.36981">
        <ele>126.8</ele>
        <time>2022-03-06T09:20:19Z</time>
      </trkpt>
      <trkpt lat="46.51042" lon="0.36988">
        <ele>127.2</ele>
        <time>2022-03-06T09:20:23Z</time>
      </trkpt>
      <trkpt lat="46.51033" lon="0.36992">
        <ele>127.2</ele>
        <time>2022-03-06T09:20:25Z</time>
      </trkpt>
      <trkpt lat="46.51029" lon="0.36995">
        <ele>127.4</ele>
        <time>2022-03-06T09:20:26Z</time>
      </trkpt>
      <trkpt lat="46.51023" lon="0.37">
        <ele>127.6</ele>
        <time>2022-03-06T09:20:28Z</time>
      </trkpt>
      <trkpt lat="46.51023" lon="0.37004">
        <ele>127.6</ele>
        <time>2022-03-06T09:20:29Z</time>
      </trkpt>
      <trkpt lat="46.51024" lon="0.37007">
        <ele>127.6</ele>
        <time>2022-03-06T09:20:30Z</time>
      </trkpt>
      <trkpt lat="46.51027" lon="0.37017">
        <ele>127.6</ele>
        <time>2022-03-06T09:20:33Z</time>
      </trkpt>
      <trkpt lat="46.51029" lon="0.3702">
        <ele>127.6</ele>
        <time>2022-03-06T09:20:34Z</time>
      </trkpt>
      <trkpt lat="46.51036" lon="0.37032">
        <ele>127.6</ele>
        <time>2022-03-06T09:20:37Z</time>
      </trkpt>
      <trkpt lat="46.51039" lon="0.37041">
        <ele>127.6</ele>
        <time>2022-03-06T09:20:39Z</time>
      </trkpt>
      <trkpt lat="46.51039" lon="0.37045">
        <ele>127.8</ele>
        <time>2022-03-06T09:20:40Z</time>
      </trkpt>
      <trkpt lat="46.51038" lon="0.37057">
        <ele>128</ele>
        <time>2022-03-06T09:20:42Z</time>
      </trkpt>
      <trkpt lat="46.51036" lon="0.37064">
        <ele>128</ele>
        <time>2022-03-06T09:20:43Z</time>
      </trkpt>
      <trkpt lat="46.51034" lon="0.37077">
        <ele>127.8</ele>
        <time>2022-03-06T09:20:45Z</time>
      </trkpt>
      <trkpt lat="46.51032" lon="0.37093">
        <ele>127.8</ele>
        <time>2022-03-06T09:20:48Z</time>
      </trkpt>
      <trkpt lat="46.5103" lon="0.37104">
        <ele>127.8</ele>
        <time>2022-03-06T09:20:50Z</time>
      </trkpt>
      <trkpt lat="46.51025" lon="0.3712">
        <ele>128</ele>
        <time>2022-03-06T09:20:53Z</time>
      </trkpt>
      <trkpt lat="46.51013" lon="0.37164">
        <ele>128</ele>
        <time>2022-03-06T09:21:00Z</time>
      </trkpt>
      <trkpt lat="46.51014" lon="0.37171">
        <ele>128</ele>
        <time>2022-03-06T09:21:01Z</time>
      </trkpt>
      <trkpt lat="46.51017" lon="0.37192">
        <ele>127.8</ele>
        <time>2022-03-06T09:21:04Z</time>
      </trkpt>
      <trkpt lat="46.51021" lon="0.37204">
        <ele>127.6</ele>
        <time>2022-03-06T09:21:06Z</time>
      </trkpt>
      <trkpt lat="46.51028" lon="0.37223">
        <ele>127.4</ele>
        <time>2022-03-06T09:21:09Z</time>
      </trkpt>
      <trkpt lat="46.51035" lon="0.37242">
        <ele>127.2</ele>
        <time>2022-03-06T09:21:12Z</time>
      </trkpt>
      <trkpt lat="46.51037" lon="0.37248">
        <ele>127.2</ele>
        <time>2022-03-06T09:21:13Z</time>
      </trkpt>
      <trkpt lat="46.51047" lon="0.37271">
        <ele>126.8</ele>
        <time>2022-03-06T09:21:17Z</time>
      </trkpt>
      <trkpt lat="46.51049" lon="0.37277">
        <ele>126.8</ele>
        <time>2022-03-06T09:21:18Z</time>
      </trkpt>
      <trkpt lat="46.5105" lon="0.3729">
        <ele>127.2</ele>
        <time>2022-03-06T09:21:20Z</time>
      </trkpt>
      <trkpt lat="46.5105" lon="0.37298">
        <ele>127</ele>
        <time>2022-03-06T09:21:21Z</time>
      </trkpt>
      <trkpt lat="46.51051" lon="0.37307">
        <ele>126.8</ele>
        <time>2022-03-06T09:21:22Z</time>
      </trkpt>
      <trkpt lat="46.51053" lon="0.37323">
        <ele>126.8</ele>
        <time>2022-03-06T09:21:24Z</time>
      </trkpt>
      <trkpt lat="46.51054" lon="0.37329">
        <ele>126.8</ele>
        <time>2022-03-06T09:21:25Z</time>
      </trkpt>
      <trkpt lat="46.51055" lon="0.37335">
        <ele>126.8</ele>
        <time>2022-03-06T09:21:26Z</time>
      </trkpt>
      <trkpt lat="46.5106" lon="0.37347">
        <ele>126.8</ele>
        <time>2022-03-06T09:21:28Z</time>
      </trkpt>
      <trkpt lat="46.51067" lon="0.37357">
        <ele>126.8</ele>
        <time>2022-03-06T09:21:30Z</time>
      </trkpt>
      <trkpt lat="46.51072" lon="0.37362">
        <ele>126.8</ele>
        <time>2022-03-06T09:21:31Z</time>
      </trkpt>
      <trkpt lat="46.51081" lon="0.37372">
        <ele>127</ele>
        <time>2022-03-06T09:21:34Z</time>
      </trkpt>
      <trkpt lat="46.51085" lon="0.37374">
        <ele>127</ele>
        <time>2022-03-06T09:21:35Z</time>
      </trkpt>
      <trkpt lat="46.51092" lon="0.37377">
        <ele>127</ele>
        <time>2022-03-06T09:21:37Z</time>
      </trkpt>
      <trkpt lat="46.51102" lon="0.37379">
        <ele>126.8</ele>
        <time>2022-03-06T09:21:40Z</time>
      </trkpt>
      <trkpt lat="46.51116" lon="0.37376">
        <ele>126.8</ele>
        <time>2022-03-06T09:21:44Z</time>
      </trkpt>
      <trkpt lat="46.51123" lon="0.37373">
        <ele>126.8</ele>
        <time>2022-03-06T09:21:46Z</time>
      </trkpt>
      <trkpt lat="46.51148" lon="0.37363">
        <ele>126.4</ele>
        <time>2022-03-06T09:21:52Z</time>
      </trkpt>
      <trkpt lat="46.51152" lon="0.37361">
        <ele>126.4</ele>
        <time>2022-03-06T09:21:53Z</time>
      </trkpt>
      <trkpt lat="46.51184" lon="0.3735">
        <ele>126.2</ele>
        <time>2022-03-06T09:21:59Z</time>
      </trkpt>
      <trkpt lat="46.51206" lon="0.37341">
        <ele>125.6</ele>
        <time>2022-03-06T09:22:04Z</time>
      </trkpt>
      <trkpt lat="46.51213" lon="0.37338">
        <ele>125.4</ele>
        <time>2022-03-06T09:22:06Z</time>
      </trkpt>
      <trkpt lat="46.5122" lon="0.37339">
        <ele>125.4</ele>
        <time>2022-03-06T09:22:08Z</time>
      </trkpt>
      <trkpt lat="46.51234" lon="0.37345">
        <ele>125.2</ele>
        <time>2022-03-06T09:22:11Z</time>
      </trkpt>
      <trkpt lat="46.51238" lon="0.37347">
        <ele>125</ele>
        <time>2022-03-06T09:22:12Z</time>
      </trkpt>
      <trkpt lat="46.51243" lon="0.37349">
        <ele>124.8</ele>
        <time>2022-03-06T09:22:13Z</time>
      </trkpt>
      <trkpt lat="46.51247" lon="0.37352">
        <ele>124.8</ele>
        <time>2022-03-06T09:22:14Z</time>
      </trkpt>
      <trkpt lat="46.51261" lon="0.37366">
        <ele>124.8</ele>
        <time>2022-03-06T09:22:18Z</time>
      </trkpt>
      <trkpt lat="46.51267" lon="0.37367">
        <ele>124.4</ele>
        <time>2022-03-06T09:22:20Z</time>
      </trkpt>
      <trkpt lat="46.51274" lon="0.37365">
        <ele>124</ele>
        <time>2022-03-06T09:22:22Z</time>
      </trkpt>
      <trkpt lat="46.51276" lon="0.37364">
        <ele>123.8</ele>
        <time>2022-03-06T09:22:23Z</time>
      </trkpt>
      <trkpt lat="46.51285" lon="0.37362">
        <ele>123.4</ele>
        <time>2022-03-06T09:22:27Z</time>
      </trkpt>
      <trkpt lat="46.5129" lon="0.37359">
        <ele>123.2</ele>
        <time>2022-03-06T09:22:29Z</time>
      </trkpt>
      <trkpt lat="46.51296" lon="0.37358">
        <ele>122.8</ele>
        <time>2022-03-06T09:22:31Z</time>
      </trkpt>
      <trkpt lat="46.51307" lon="0.37359">
        <ele>122.4</ele>
        <time>2022-03-06T09:22:32Z</time>
      </trkpt>
      <trkpt lat="46.51309" lon="0.3736">
        <ele>122.2</ele>
        <time>2022-03-06T09:22:35Z</time>
      </trkpt>
      <trkpt lat="46.51315" lon="0.37365">
        <ele>122</ele>
        <time>2022-03-06T09:22:37Z</time>
      </trkpt>
      <trkpt lat="46.51318" lon="0.37366">
        <ele>122</ele>
        <time>2022-03-06T09:22:38Z</time>
      </trkpt>
      <trkpt lat="46.51327" lon="0.3737">
        <ele>122</ele>
        <time>2022-03-06T09:22:40Z</time>
      </trkpt>
      <trkpt lat="46.51339" lon="0.3737">
        <ele>121.4</ele>
        <time>2022-03-06T09:22:43Z</time>
      </trkpt>
      <trkpt lat="46.51344" lon="0.37372">
        <ele>121.2</ele>
        <time>2022-03-06T09:22:44Z</time>
      </trkpt>
      <trkpt lat="46.51353" lon="0.37378">
        <ele>120.4</ele>
        <time>2022-03-06T09:22:46Z</time>
      </trkpt>
      <trkpt lat="46.51357" lon="0.37382">
        <ele>120</ele>
        <time>2022-03-06T09:22:47Z</time>
      </trkpt>
      <trkpt lat="46.51362" lon="0.37386">
        <ele>119.6</ele>
        <time>2022-03-06T09:22:48Z</time>
      </trkpt>
      <trkpt lat="46.51365" lon="0.37387">
        <ele>119.2</ele>
        <time>2022-03-06T09:22:49Z</time>
      </trkpt>
      <trkpt lat="46.51375" lon="0.37388">
        <ele>118.8</ele>
        <time>2022-03-06T09:22:51Z</time>
      </trkpt>
      <trkpt lat="46.51387" lon="0.37389">
        <ele>118</ele>
        <time>2022-03-06T09:22:53Z</time>
      </trkpt>
      <trkpt lat="46.51393" lon="0.37389">
        <ele>117.6</ele>
        <time>2022-03-06T09:22:54Z</time>
      </trkpt>
      <trkpt lat="46.51399" lon="0.3739">
        <ele>117.2</ele>
        <time>2022-03-06T09:22:55Z</time>
      </trkpt>
      <trkpt lat="46.51405" lon="0.37391">
        <ele>116.2</ele>
        <time>2022-03-06T09:22:56Z</time>
      </trkpt>
      <trkpt lat="46.5141" lon="0.37391">
        <ele>115.6</ele>
        <time>2022-03-06T09:22:57Z</time>
      </trkpt>
      <trkpt lat="46.51414" lon="0.37392">
        <ele>114.4</ele>
        <time>2022-03-06T09:22:58Z</time>
      </trkpt>
      <trkpt lat="46.51418" lon="0.37394">
        <ele>113.8</ele>
        <time>2022-03-06T09:22:59Z</time>
      </trkpt>
      <trkpt lat="46.5142" lon="0.37397">
        <ele>113.2</ele>
        <time>2022-03-06T09:23:00Z</time>
      </trkpt>
      <trkpt lat="46.51423" lon="0.37399">
        <ele>112.8</ele>
        <time>2022-03-06T09:23:02Z</time>
      </trkpt>
      <trkpt lat="46.51427" lon="0.37404">
        <ele>112.8</ele>
        <time>2022-03-06T09:23:06Z</time>
      </trkpt>
      <trkpt lat="46.51428" lon="0.37409">
        <ele>113</ele>
        <time>2022-03-06T09:23:09Z</time>
      </trkpt>
      <trkpt lat="46.51429" lon="0.37417">
        <ele>114.2</ele>
        <time>2022-03-06T09:23:13Z</time>
      </trkpt>
      <trkpt lat="46.51428" lon="0.37422">
        <ele>114.6</ele>
        <time>2022-03-06T09:23:15Z</time>
      </trkpt>
      <trkpt lat="46.51426" lon="0.37437">
        <ele>115.2</ele>
        <time>2022-03-06T09:23:20Z</time>
      </trkpt>
      <trkpt lat="46.51425" lon="0.37445">
        <ele>115.6</ele>
        <time>2022-03-06T09:23:22Z</time>
      </trkpt>
      <trkpt lat="46.51421" lon="0.37465">
        <ele>116.4</ele>
        <time>2022-03-06T09:23:27Z</time>
      </trkpt>
      <trkpt lat="46.5142" lon="0.37469">
        <ele>116.6</ele>
        <time>2022-03-06T09:23:28Z</time>
      </trkpt>
      <trkpt lat="46.51413" lon="0.37501">
        <ele>117.4</ele>
        <time>2022-03-06T09:23:34Z</time>
      </trkpt>
      <trkpt lat="46.514" lon="0.37541">
        <ele>117.4</ele>
        <time>2022-03-06T09:23:40Z</time>
      </trkpt>
      <trkpt lat="46.51398" lon="0.37548">
        <ele>117.2</ele>
        <time>2022-03-06T09:23:41Z</time>
      </trkpt>
      <trkpt lat="46.51388" lon="0.37572">
        <ele>117</ele>
        <time>2022-03-06T09:23:45Z</time>
      </trkpt>
      <trkpt lat="46.51379" lon="0.37601">
        <ele>117</ele>
        <time>2022-03-06T09:23:50Z</time>
      </trkpt>
      <trkpt lat="46.51376" lon="0.37603">
        <ele>117.2</ele>
        <time>2022-03-06T09:23:51Z</time>
      </trkpt>
      <trkpt lat="46.51374" lon="0.37601">
        <ele>117.2</ele>
        <time>2022-03-06T09:23:54Z</time>
      </trkpt>
      <trkpt lat="46.51374" lon="0.37594">
        <ele>117.8</ele>
        <time>2022-03-06T09:23:57Z</time>
      </trkpt>
      <trkpt lat="46.51374" lon="0.37588">
        <ele>118</ele>
        <time>2022-03-06T09:23:59Z</time>
      </trkpt>
      <trkpt lat="46.51373" lon="0.37582">
        <ele>118.2</ele>
        <time>2022-03-06T09:24:01Z</time>
      </trkpt>
      <trkpt lat="46.51371" lon="0.37572">
        <ele>118</ele>
        <time>2022-03-06T09:24:04Z</time>
      </trkpt>
      <trkpt lat="46.51368" lon="0.37563">
        <ele>118.2</ele>
        <time>2022-03-06T09:24:06Z</time>
      </trkpt>
      <trkpt lat="46.51366" lon="0.3756">
        <ele>118.2</ele>
        <time>2022-03-06T09:24:07Z</time>
      </trkpt>
      <trkpt lat="46.51364" lon="0.37557">
        <ele>118.2</ele>
        <time>2022-03-06T09:24:08Z</time>
      </trkpt>
      <trkpt lat="46.51361" lon="0.37553">
        <ele>118.4</ele>
        <time>2022-03-06T09:24:09Z</time>
      </trkpt>
      <trkpt lat="46.51353" lon="0.37542">
        <ele>119.2</ele>
        <time>2022-03-06T09:24:12Z</time>
      </trkpt>
      <trkpt lat="46.51349" lon="0.37539">
        <ele>119.4</ele>
        <time>2022-03-06T09:24:13Z</time>
      </trkpt>
      <trkpt lat="46.51345" lon="0.37538">
        <ele>119.6</ele>
        <time>2022-03-06T09:24:14Z</time>
      </trkpt>
      <trkpt lat="46.51327" lon="0.37531">
        <ele>120.8</ele>
        <time>2022-03-06T09:24:19Z</time>
      </trkpt>
      <trkpt lat="46.51309" lon="0.37523">
        <ele>121.2</ele>
        <time>2022-03-06T09:24:24Z</time>
      </trkpt>
      <trkpt lat="46.51294" lon="0.37516">
        <ele>121.8</ele>
        <time>2022-03-06T09:24:28Z</time>
      </trkpt>
      <trkpt lat="46.5129" lon="0.37515">
        <ele>121.8</ele>
        <time>2022-03-06T09:24:29Z</time>
      </trkpt>
      <trkpt lat="46.51274" lon="0.37506">
        <ele>122.8</ele>
        <time>2022-03-06T09:24:34Z</time>
      </trkpt>
      <trkpt lat="46.51257" lon="0.37495">
        <ele>123.6</ele>
        <time>2022-03-06T09:24:40Z</time>
      </trkpt>
      <trkpt lat="46.51244" lon="0.37486">
        <ele>124</ele>
        <time>2022-03-06T09:24:44Z</time>
      </trkpt>
      <trkpt lat="46.51233" lon="0.3748">
        <ele>124.4</ele>
        <time>2022-03-06T09:24:47Z</time>
      </trkpt>
      <trkpt lat="46.51215" lon="0.37477">
        <ele>124.8</ele>
        <time>2022-03-06T09:24:52Z</time>
      </trkpt>
      <trkpt lat="46.51211" lon="0.37475">
        <ele>125</ele>
        <time>2022-03-06T09:24:53Z</time>
      </trkpt>
      <trkpt lat="46.51195" lon="0.37471">
        <ele>125.2</ele>
        <time>2022-03-06T09:24:57Z</time>
      </trkpt>
      <trkpt lat="46.51188" lon="0.37471">
        <ele>125.4</ele>
        <time>2022-03-06T09:24:59Z</time>
      </trkpt>
      <trkpt lat="46.51177" lon="0.37474">
        <ele>125.4</ele>
        <time>2022-03-06T09:25:02Z</time>
      </trkpt>
      <trkpt lat="46.51169" lon="0.37478">
        <ele>125.4</ele>
        <time>2022-03-06T09:25:04Z</time>
      </trkpt>
      <trkpt lat="46.51154" lon="0.37487">
        <ele>125.4</ele>
        <time>2022-03-06T09:25:07Z</time>
      </trkpt>
      <trkpt lat="46.5113" lon="0.37506">
        <ele>125.8</ele>
        <time>2022-03-06T09:25:13Z</time>
      </trkpt>
      <trkpt lat="46.51122" lon="0.37512">
        <ele>125.6</ele>
        <time>2022-03-06T09:25:15Z</time>
      </trkpt>
      <trkpt lat="46.51114" lon="0.37519">
        <ele>125.4</ele>
        <time>2022-03-06T09:25:17Z</time>
      </trkpt>
      <trkpt lat="46.51101" lon="0.37528">
        <ele>125.4</ele>
        <time>2022-03-06T09:25:20Z</time>
      </trkpt>
      <trkpt lat="46.51074" lon="0.37549">
        <ele>125.6</ele>
        <time>2022-03-06T09:25:26Z</time>
      </trkpt>
      <trkpt lat="46.51057" lon="0.37577">
        <ele>125</ele>
        <time>2022-03-06T09:25:31Z</time>
      </trkpt>
      <trkpt lat="46.51053" lon="0.37589">
        <ele>124.8</ele>
        <time>2022-03-06T09:25:33Z</time>
      </trkpt>
      <trkpt lat="46.51053" lon="0.37595">
        <ele>124.6</ele>
        <time>2022-03-06T09:25:34Z</time>
      </trkpt>
      <trkpt lat="46.51055" lon="0.37599">
        <ele>124.4</ele>
        <time>2022-03-06T09:25:35Z</time>
      </trkpt>
      <trkpt lat="46.51061" lon="0.37605">
        <ele>124.2</ele>
        <time>2022-03-06T09:25:37Z</time>
      </trkpt>
      <trkpt lat="46.51072" lon="0.37613">
        <ele>124</ele>
        <time>2022-03-06T09:25:40Z</time>
      </trkpt>
      <trkpt lat="46.51082" lon="0.37623">
        <ele>123.8</ele>
        <time>2022-03-06T09:25:43Z</time>
      </trkpt>
      <trkpt lat="46.51101" lon="0.37637">
        <ele>124.2</ele>
        <time>2022-03-06T09:25:48Z</time>
      </trkpt>
      <trkpt lat="46.51105" lon="0.37641">
        <ele>124.2</ele>
        <time>2022-03-06T09:25:49Z</time>
      </trkpt>
      <trkpt lat="46.5111" lon="0.37645">
        <ele>124.2</ele>
        <time>2022-03-06T09:25:50Z</time>
      </trkpt>
      <trkpt lat="46.51122" lon="0.37656">
        <ele>123.8</ele>
        <time>2022-03-06T09:25:53Z</time>
      </trkpt>
      <trkpt lat="46.51126" lon="0.37659">
        <ele>123.6</ele>
        <time>2022-03-06T09:25:54Z</time>
      </trkpt>
      <trkpt lat="46.51131" lon="0.37662">
        <ele>123.4</ele>
        <time>2022-03-06T09:25:55Z</time>
      </trkpt>
      <trkpt lat="46.51151" lon="0.37674">
        <ele>123.4</ele>
        <time>2022-03-06T09:25:59Z</time>
      </trkpt>
      <trkpt lat="46.5116" lon="0.37681">
        <ele>123</ele>
        <time>2022-03-06T09:26:01Z</time>
      </trkpt>
      <trkpt lat="46.51167" lon="0.37688">
        <ele>123</ele>
        <time>2022-03-06T09:26:03Z</time>
      </trkpt>
      <trkpt lat="46.5117" lon="0.37691">
        <ele>122.6</ele>
        <time>2022-03-06T09:26:04Z</time>
      </trkpt>
      <trkpt lat="46.51172" lon="0.37693">
        <ele>122.6</ele>
        <time>2022-03-06T09:26:05Z</time>
      </trkpt>
      <trkpt lat="46.51173" lon="0.377">
        <ele>122.4</ele>
        <time>2022-03-06T09:26:07Z</time>
      </trkpt>
      <trkpt lat="46.51172" lon="0.37712">
        <ele>122.2</ele>
        <time>2022-03-06T09:26:10Z</time>
      </trkpt>
      <trkpt lat="46.51171" lon="0.37717">
        <ele>122.2</ele>
        <time>2022-03-06T09:26:11Z</time>
      </trkpt>
      <trkpt lat="46.5117" lon="0.37722">
        <ele>122.2</ele>
        <time>2022-03-06T09:26:12Z</time>
      </trkpt>
      <trkpt lat="46.51162" lon="0.37755">
        <ele>121.8</ele>
        <time>2022-03-06T09:26:17Z</time>
      </trkpt>
      <trkpt lat="46.51161" lon="0.37762">
        <ele>121.6</ele>
        <time>2022-03-06T09:26:18Z</time>
      </trkpt>
      <trkpt lat="46.51158" lon="0.37778">
        <ele>120.4</ele>
        <time>2022-03-06T09:26:21Z</time>
      </trkpt>
      <trkpt lat="46.51152" lon="0.37786">
        <ele>119.8</ele>
        <time>2022-03-06T09:26:23Z</time>
      </trkpt>
      <trkpt lat="46.51149" lon="0.37788">
        <ele>119.6</ele>
        <time>2022-03-06T09:26:24Z</time>
      </trkpt>
      <trkpt lat="46.51145" lon="0.37789">
        <ele>119.2</ele>
        <time>2022-03-06T09:26:25Z</time>
      </trkpt>
      <trkpt lat="46.51127" lon="0.37791">
        <ele>118.8</ele>
        <time>2022-03-06T09:26:29Z</time>
      </trkpt>
      <trkpt lat="46.51111" lon="0.37788">
        <ele>118.8</ele>
        <time>2022-03-06T09:26:32Z</time>
      </trkpt>
      <trkpt lat="46.51101" lon="0.37785">
        <ele>118.8</ele>
        <time>2022-03-06T09:26:34Z</time>
      </trkpt>
      <trkpt lat="46.51096" lon="0.37782">
        <ele>119</ele>
        <time>2022-03-06T09:26:35Z</time>
      </trkpt>
      <trkpt lat="46.51079" lon="0.3777">
        <ele>119.2</ele>
        <time>2022-03-06T09:26:39Z</time>
      </trkpt>
      <trkpt lat="46.51072" lon="0.37763">
        <ele>119.2</ele>
        <time>2022-03-06T09:26:41Z</time>
      </trkpt>
      <trkpt lat="46.51063" lon="0.37754">
        <ele>119.8</ele>
        <time>2022-03-06T09:26:44Z</time>
      </trkpt>
      <trkpt lat="46.5106" lon="0.37751">
        <ele>119.8</ele>
        <time>2022-03-06T09:26:45Z</time>
      </trkpt>
      <trkpt lat="46.51051" lon="0.37747">
        <ele>120.2</ele>
        <time>2022-03-06T09:26:48Z</time>
      </trkpt>
      <trkpt lat="46.51049" lon="0.37749">
        <ele>120.2</ele>
        <time>2022-03-06T09:26:49Z</time>
      </trkpt>
      <trkpt lat="46.51042" lon="0.37767">
        <ele>119.8</ele>
        <time>2022-03-06T09:26:54Z</time>
      </trkpt>
      <trkpt lat="46.51034" lon="0.3778">
        <ele>119</ele>
        <time>2022-03-06T09:26:57Z</time>
      </trkpt>
      <trkpt lat="46.51029" lon="0.37789">
        <ele>118.8</ele>
        <time>2022-03-06T09:26:59Z</time>
      </trkpt>
      <trkpt lat="46.51021" lon="0.37804">
        <ele>118.4</ele>
        <time>2022-03-06T09:27:02Z</time>
      </trkpt>
      <trkpt lat="46.51017" lon="0.37816">
        <ele>117.8</ele>
        <time>2022-03-06T09:27:04Z</time>
      </trkpt>
      <trkpt lat="46.51015" lon="0.37825">
        <ele>117.4</ele>
        <time>2022-03-06T09:27:05Z</time>
      </trkpt>
      <trkpt lat="46.51012" lon="0.37832">
        <ele>116.8</ele>
        <time>2022-03-06T09:27:06Z</time>
      </trkpt>
      <trkpt lat="46.51004" lon="0.3785">
        <ele>115.4</ele>
        <time>2022-03-06T09:27:08Z</time>
      </trkpt>
      <trkpt lat="46.51001" lon="0.3786">
        <ele>115</ele>
        <time>2022-03-06T09:27:09Z</time>
      </trkpt>
      <trkpt lat="46.50994" lon="0.3788">
        <ele>114.2</ele>
        <time>2022-03-06T09:27:11Z</time>
      </trkpt>
      <trkpt lat="46.50992" lon="0.37888">
        <ele>113</ele>
        <time>2022-03-06T09:27:12Z</time>
      </trkpt>
      <trkpt lat="46.50985" lon="0.37905">
        <ele>110.8</ele>
        <time>2022-03-06T09:27:14Z</time>
      </trkpt>
      <trkpt lat="46.50984" lon="0.37911">
        <ele>110.2</ele>
        <time>2022-03-06T09:27:15Z</time>
      </trkpt>
      <trkpt lat="46.50982" lon="0.37916">
        <ele>109.8</ele>
        <time>2022-03-06T09:27:16Z</time>
      </trkpt>
      <trkpt lat="46.50979" lon="0.37927">
        <ele>108</ele>
        <time>2022-03-06T09:27:18Z</time>
      </trkpt>
      <trkpt lat="46.50976" lon="0.37933">
        <ele>106.4</ele>
        <time>2022-03-06T09:27:20Z</time>
      </trkpt>
      <trkpt lat="46.50974" lon="0.37936">
        <ele>105.6</ele>
        <time>2022-03-06T09:27:21Z</time>
      </trkpt>
      <trkpt lat="46.50972" lon="0.37938">
        <ele>104.6</ele>
        <time>2022-03-06T09:27:22Z</time>
      </trkpt>
      <trkpt lat="46.5097" lon="0.37938">
        <ele>103.8</ele>
        <time>2022-03-06T09:27:23Z</time>
      </trkpt>
      <trkpt lat="46.50963" lon="0.37938">
        <ele>103</ele>
        <time>2022-03-06T09:27:24Z</time>
      </trkpt>
      <trkpt lat="46.50946" lon="0.37941">
        <ele>102.6</ele>
        <time>2022-03-06T09:27:29Z</time>
      </trkpt>
      <trkpt lat="46.50938" lon="0.3794">
        <ele>102.4</ele>
        <time>2022-03-06T09:27:31Z</time>
      </trkpt>
      <trkpt lat="46.50934" lon="0.37938">
        <ele>102.2</ele>
        <time>2022-03-06T09:27:33Z</time>
      </trkpt>
      <trkpt lat="46.50934" lon="0.37934">
        <ele>102.2</ele>
        <time>2022-03-06T09:27:36Z</time>
      </trkpt>
      <trkpt lat="46.50933" lon="0.37933">
        <ele>102.6</ele>
        <time>2022-03-06T09:27:37Z</time>
      </trkpt>
      <trkpt lat="46.50934" lon="0.37932">
        <ele>103</ele>
        <time>2022-03-06T09:27:38Z</time>
      </trkpt>
      <trkpt lat="46.50934" lon="0.37929">
        <ele>104</ele>
        <time>2022-03-06T09:27:41Z</time>
      </trkpt>
      <trkpt lat="46.50935" lon="0.37928">
        <ele>104.4</ele>
        <time>2022-03-06T09:27:42Z</time>
      </trkpt>
      <trkpt lat="46.50936" lon="0.37925">
        <ele>105</ele>
        <time>2022-03-06T09:27:44Z</time>
      </trkpt>
      <trkpt lat="46.50936" lon="0.37924">
        <ele>105.6</ele>
        <time>2022-03-06T09:27:45Z</time>
      </trkpt>
      <trkpt lat="46.50937" lon="0.37922">
        <ele>106.4</ele>
        <time>2022-03-06T09:27:47Z</time>
      </trkpt>
      <trkpt lat="46.5094" lon="0.37918">
        <ele>107.6</ele>
        <time>2022-03-06T09:27:51Z</time>
      </trkpt>
      <trkpt lat="46.50944" lon="0.37915">
        <ele>108.4</ele>
        <time>2022-03-06T09:27:54Z</time>
      </trkpt>
      <trkpt lat="46.50945" lon="0.37914">
        <ele>108.6</ele>
        <time>2022-03-06T09:27:55Z</time>
      </trkpt>
      <trkpt lat="46.50955" lon="0.379">
        <ele>109.6</ele>
        <time>2022-03-06T09:28:03Z</time>
      </trkpt>
      <trkpt lat="46.50956" lon="0.37899">
        <ele>109.8</ele>
        <time>2022-03-06T09:28:04Z</time>
      </trkpt>
      <trkpt lat="46.50957" lon="0.37896">
        <ele>110</ele>
        <time>2022-03-06T09:28:05Z</time>
      </trkpt>
      <trkpt lat="46.50962" lon="0.37888">
        <ele>110.6</ele>
        <time>2022-03-06T09:28:09Z</time>
      </trkpt>
      <trkpt lat="46.50963" lon="0.37886">
        <ele>110.8</ele>
        <time>2022-03-06T09:28:10Z</time>
      </trkpt>
      <trkpt lat="46.50966" lon="0.37879">
        <ele>111.8</ele>
        <time>2022-03-06T09:28:14Z</time>
      </trkpt>
      <trkpt lat="46.50969" lon="0.37872">
        <ele>112.8</ele>
        <time>2022-03-06T09:28:18Z</time>
      </trkpt>
      <trkpt lat="46.5097" lon="0.3787">
        <ele>112.8</ele>
        <time>2022-03-06T09:28:19Z</time>
      </trkpt>
      <trkpt lat="46.50974" lon="0.37858">
        <ele>114</ele>
        <time>2022-03-06T09:28:25Z</time>
      </trkpt>
      <trkpt lat="46.50979" lon="0.37849">
        <ele>114.8</ele>
        <time>2022-03-06T09:28:30Z</time>
      </trkpt>
      <trkpt lat="46.5098" lon="0.37847">
        <ele>115</ele>
        <time>2022-03-06T09:28:31Z</time>
      </trkpt>
      <trkpt lat="46.50981" lon="0.37845">
        <ele>115.2</ele>
        <time>2022-03-06T09:28:32Z</time>
      </trkpt>
      <trkpt lat="46.50987" lon="0.37834">
        <ele>116.2</ele>
        <time>2022-03-06T09:28:37Z</time>
      </trkpt>
      <trkpt lat="46.5099" lon="0.37824">
        <ele>117</ele>
        <time>2022-03-06T09:28:41Z</time>
      </trkpt>
      <trkpt lat="46.50991" lon="0.37819">
        <ele>117.4</ele>
        <time>2022-03-06T09:28:43Z</time>
      </trkpt>
      <trkpt lat="46.50998" lon="0.37803">
        <ele>118.2</ele>
        <time>2022-03-06T09:28:49Z</time>
      </trkpt>
      <trkpt lat="46.51" lon="0.378">
        <ele>118.4</ele>
        <time>2022-03-06T09:28:50Z</time>
      </trkpt>
      <trkpt lat="46.51007" lon="0.37784">
        <ele>119</ele>
        <time>2022-03-06T09:28:55Z</time>
      </trkpt>
      <trkpt lat="46.5101" lon="0.37774">
        <ele>119.4</ele>
        <time>2022-03-06T09:28:58Z</time>
      </trkpt>
      <trkpt lat="46.51013" lon="0.37764">
        <ele>119.6</ele>
        <time>2022-03-06T09:29:01Z</time>
      </trkpt>
      <trkpt lat="46.51014" lon="0.37761">
        <ele>119.8</ele>
        <time>2022-03-06T09:29:02Z</time>
      </trkpt>
      <trkpt lat="46.5102" lon="0.37755">
        <ele>120.2</ele>
        <time>2022-03-06T09:29:05Z</time>
      </trkpt>
      <trkpt lat="46.51022" lon="0.37752">
        <ele>120.2</ele>
        <time>2022-03-06T09:29:06Z</time>
      </trkpt>
      <trkpt lat="46.51024" lon="0.37746">
        <ele>120.4</ele>
        <time>2022-03-06T09:29:08Z</time>
      </trkpt>
      <trkpt lat="46.51023" lon="0.37743">
        <ele>120.6</ele>
        <time>2022-03-06T09:29:09Z</time>
      </trkpt>
      <trkpt lat="46.51021" lon="0.37733">
        <ele>121.2</ele>
        <time>2022-03-06T09:29:12Z</time>
      </trkpt>
      <trkpt lat="46.5102" lon="0.37724">
        <ele>121.4</ele>
        <time>2022-03-06T09:29:14Z</time>
      </trkpt>
      <trkpt lat="46.5102" lon="0.37704">
        <ele>121.6</ele>
        <time>2022-03-06T09:29:18Z</time>
      </trkpt>
      <trkpt lat="46.51021" lon="0.37696">
        <ele>121.8</ele>
        <time>2022-03-06T09:29:20Z</time>
      </trkpt>
      <trkpt lat="46.5102" lon="0.37671">
        <ele>122.6</ele>
        <time>2022-03-06T09:29:25Z</time>
      </trkpt>
      <trkpt lat="46.51021" lon="0.37663">
        <ele>122.6</ele>
        <time>2022-03-06T09:29:27Z</time>
      </trkpt>
      <trkpt lat="46.51024" lon="0.37644">
        <ele>123</ele>
        <time>2022-03-06T09:29:31Z</time>
      </trkpt>
      <trkpt lat="46.51027" lon="0.37625">
        <ele>123.4</ele>
        <time>2022-03-06T09:29:35Z</time>
      </trkpt>
      <trkpt lat="46.51026" lon="0.37622">
        <ele>123.4</ele>
        <time>2022-03-06T09:29:36Z</time>
      </trkpt>
      <trkpt lat="46.51023" lon="0.37616">
        <ele>124</ele>
        <time>2022-03-06T09:29:38Z</time>
      </trkpt>
      <trkpt lat="46.51013" lon="0.37604">
        <ele>124.2</ele>
        <time>2022-03-06T09:29:42Z</time>
      </trkpt>
      <trkpt lat="46.50999" lon="0.37595">
        <ele>124</ele>
        <time>2022-03-06T09:29:47Z</time>
      </trkpt>
      <trkpt lat="46.50992" lon="0.37593">
        <ele>124</ele>
        <time>2022-03-06T09:29:49Z</time>
      </trkpt>
      <trkpt lat="46.50968" lon="0.37604">
        <ele>123</ele>
        <time>2022-03-06T09:29:55Z</time>
      </trkpt>
      <trkpt lat="46.50947" lon="0.37617">
        <ele>122.2</ele>
        <time>2022-03-06T09:29:59Z</time>
      </trkpt>
      <trkpt lat="46.50935" lon="0.37623">
        <ele>122</ele>
        <time>2022-03-06T09:30:01Z</time>
      </trkpt>
      <trkpt lat="46.50929" lon="0.37627">
        <ele>121.8</ele>
        <time>2022-03-06T09:30:02Z</time>
      </trkpt>
      <trkpt lat="46.50922" lon="0.37632">
        <ele>121.4</ele>
        <time>2022-03-06T09:30:03Z</time>
      </trkpt>
      <trkpt lat="46.5091" lon="0.37644">
        <ele>121</ele>
        <time>2022-03-06T09:30:05Z</time>
      </trkpt>
      <trkpt lat="46.50903" lon="0.37649">
        <ele>120.6</ele>
        <time>2022-03-06T09:30:06Z</time>
      </trkpt>
      <trkpt lat="46.50896" lon="0.37656">
        <ele>119.6</ele>
        <time>2022-03-06T09:30:07Z</time>
      </trkpt>
      <trkpt lat="46.50891" lon="0.37663">
        <ele>119.2</ele>
        <time>2022-03-06T09:30:08Z</time>
      </trkpt>
      <trkpt lat="46.50881" lon="0.37681">
        <ele>118.4</ele>
        <time>2022-03-06T09:30:09Z</time>
      </trkpt>
      <trkpt lat="46.50876" lon="0.37689">
        <ele>117.8</ele>
        <time>2022-03-06T09:30:11Z</time>
      </trkpt>
      <trkpt lat="46.50865" lon="0.37708">
        <ele>115.8</ele>
        <time>2022-03-06T09:30:14Z</time>
      </trkpt>
      <trkpt lat="46.50863" lon="0.3771">
        <ele>114.8</ele>
        <time>2022-03-06T09:30:15Z</time>
      </trkpt>
      <trkpt lat="46.50862" lon="0.3771">
        <ele>113.6</ele>
        <time>2022-03-06T09:30:16Z</time>
      </trkpt>
      <trkpt lat="46.50861" lon="0.37709">
        <ele>113</ele>
        <time>2022-03-06T09:30:17Z</time>
      </trkpt>
      <trkpt lat="46.5086" lon="0.37708">
        <ele>112.6</ele>
        <time>2022-03-06T09:30:18Z</time>
      </trkpt>
      <trkpt lat="46.5086" lon="0.37706">
        <ele>112.4</ele>
        <time>2022-03-06T09:30:19Z</time>
      </trkpt>
      <trkpt lat="46.50858" lon="0.37704">
        <ele>112.4</ele>
        <time>2022-03-06T09:30:20Z</time>
      </trkpt>
      <trkpt lat="46.50854" lon="0.377">
        <ele>112.2</ele>
        <time>2022-03-06T09:30:22Z</time>
      </trkpt>
      <trkpt lat="46.5085" lon="0.37694">
        <ele>111</ele>
        <time>2022-03-06T09:30:24Z</time>
      </trkpt>
      <trkpt lat="46.50847" lon="0.37691">
        <ele>110.2</ele>
        <time>2022-03-06T09:30:25Z</time>
      </trkpt>
      <trkpt lat="46.50845" lon="0.37689">
        <ele>109.8</ele>
        <time>2022-03-06T09:30:26Z</time>
      </trkpt>
      <trkpt lat="46.50843" lon="0.37688">
        <ele>109.4</ele>
        <time>2022-03-06T09:30:27Z</time>
      </trkpt>
      <trkpt lat="46.50839" lon="0.37684">
        <ele>109.2</ele>
        <time>2022-03-06T09:30:29Z</time>
      </trkpt>
      <trkpt lat="46.50835" lon="0.37683">
        <ele>108.4</ele>
        <time>2022-03-06T09:30:31Z</time>
      </trkpt>
      <trkpt lat="46.50831" lon="0.37684">
        <ele>108.2</ele>
        <time>2022-03-06T09:30:32Z</time>
      </trkpt>
      <trkpt lat="46.50821" lon="0.37695">
        <ele>107.4</ele>
        <time>2022-03-06T09:30:35Z</time>
      </trkpt>
      <trkpt lat="46.50813" lon="0.37703">
        <ele>107</ele>
        <time>2022-03-06T09:30:37Z</time>
      </trkpt>
      <trkpt lat="46.50798" lon="0.37721">
        <ele>108</ele>
        <time>2022-03-06T09:30:42Z</time>
      </trkpt>
      <trkpt lat="46.50795" lon="0.37724">
        <ele>108</ele>
        <time>2022-03-06T09:30:43Z</time>
      </trkpt>
      <trkpt lat="46.50779" lon="0.37737">
        <ele>108.4</ele>
        <time>2022-03-06T09:30:48Z</time>
      </trkpt>
      <trkpt lat="46.50777" lon="0.37736">
        <ele>108.4</ele>
        <time>2022-03-06T09:30:50Z</time>
      </trkpt>
      <trkpt lat="46.50776" lon="0.37734">
        <ele>108.4</ele>
        <time>2022-03-06T09:30:51Z</time>
      </trkpt>
      <trkpt lat="46.50779" lon="0.37721">
        <ele>109</ele>
        <time>2022-03-06T09:30:55Z</time>
      </trkpt>
      <trkpt lat="46.50781" lon="0.37708">
        <ele>109.6</ele>
        <time>2022-03-06T09:30:58Z</time>
      </trkpt>
      <trkpt lat="46.50783" lon="0.37699">
        <ele>109.8</ele>
        <time>2022-03-06T09:31:00Z</time>
      </trkpt>
      <trkpt lat="46.50783" lon="0.37694">
        <ele>109.8</ele>
        <time>2022-03-06T09:31:01Z</time>
      </trkpt>
      <trkpt lat="46.50786" lon="0.37683">
        <ele>110</ele>
        <time>2022-03-06T09:31:03Z</time>
      </trkpt>
      <trkpt lat="46.5079" lon="0.37667">
        <ele>109.8</ele>
        <time>2022-03-06T09:31:05Z</time>
      </trkpt>
      <trkpt lat="46.50799" lon="0.37625">
        <ele>108.8</ele>
        <time>2022-03-06T09:31:10Z</time>
      </trkpt>
      <trkpt lat="46.50804" lon="0.37611">
        <ele>108.8</ele>
        <time>2022-03-06T09:31:12Z</time>
      </trkpt>
      <trkpt lat="46.50812" lon="0.37595">
        <ele>110.8</ele>
        <time>2022-03-06T09:31:16Z</time>
      </trkpt>
      <trkpt lat="46.50814" lon="0.37592">
        <ele>111.4</ele>
        <time>2022-03-06T09:31:17Z</time>
      </trkpt>
      <trkpt lat="46.50815" lon="0.37587">
        <ele>112</ele>
        <time>2022-03-06T09:31:19Z</time>
      </trkpt>
      <trkpt lat="46.50817" lon="0.37576">
        <ele>113.2</ele>
        <time>2022-03-06T09:31:23Z</time>
      </trkpt>
      <trkpt lat="46.5082" lon="0.37564">
        <ele>114.6</ele>
        <time>2022-03-06T09:31:27Z</time>
      </trkpt>
      <trkpt lat="46.50822" lon="0.37558">
        <ele>115</ele>
        <time>2022-03-06T09:31:29Z</time>
      </trkpt>
      <trkpt lat="46.50824" lon="0.37553">
        <ele>115.6</ele>
        <time>2022-03-06T09:31:31Z</time>
      </trkpt>
      <trkpt lat="46.50825" lon="0.37551">
        <ele>115.8</ele>
        <time>2022-03-06T09:31:32Z</time>
      </trkpt>
      <trkpt lat="46.50827" lon="0.37543">
        <ele>116.4</ele>
        <time>2022-03-06T09:31:35Z</time>
      </trkpt>
      <trkpt lat="46.50829" lon="0.37536">
        <ele>116.6</ele>
        <time>2022-03-06T09:31:37Z</time>
      </trkpt>
      <trkpt lat="46.5083" lon="0.3753">
        <ele>117.2</ele>
        <time>2022-03-06T09:31:39Z</time>
      </trkpt>
      <trkpt lat="46.50828" lon="0.37526">
        <ele>117.6</ele>
        <time>2022-03-06T09:31:41Z</time>
      </trkpt>
      <trkpt lat="46.50826" lon="0.37521">
        <ele>117.8</ele>
        <time>2022-03-06T09:31:43Z</time>
      </trkpt>
      <trkpt lat="46.50827" lon="0.37513">
        <ele>118</ele>
        <time>2022-03-06T09:31:46Z</time>
      </trkpt>
      <trkpt lat="46.50826" lon="0.37511">
        <ele>118.2</ele>
        <time>2022-03-06T09:31:47Z</time>
      </trkpt>
      <trkpt lat="46.50822" lon="0.37498">
        <ele>118.6</ele>
        <time>2022-03-06T09:31:51Z</time>
      </trkpt>
      <trkpt lat="46.5082" lon="0.37488">
        <ele>118.8</ele>
        <time>2022-03-06T09:31:55Z</time>
      </trkpt>
      <trkpt lat="46.50819" lon="0.37484">
        <ele>118.8</ele>
        <time>2022-03-06T09:31:56Z</time>
      </trkpt>
      <trkpt lat="46.50818" lon="0.37481">
        <ele>118.8</ele>
        <time>2022-03-06T09:31:57Z</time>
      </trkpt>
      <trkpt lat="46.50816" lon="0.37479">
        <ele>119</ele>
        <time>2022-03-06T09:31:58Z</time>
      </trkpt>
      <trkpt lat="46.50806" lon="0.3747">
        <ele>119.4</ele>
        <time>2022-03-06T09:32:02Z</time>
      </trkpt>
      <trkpt lat="46.50801" lon="0.37464">
        <ele>119.6</ele>
        <time>2022-03-06T09:32:04Z</time>
      </trkpt>
      <trkpt lat="46.50793" lon="0.37455">
        <ele>119.6</ele>
        <time>2022-03-06T09:32:06Z</time>
      </trkpt>
      <trkpt lat="46.5079" lon="0.37452">
        <ele>119.6</ele>
        <time>2022-03-06T09:32:07Z</time>
      </trkpt>
      <trkpt lat="46.50777" lon="0.37442">
        <ele>119.2</ele>
        <time>2022-03-06T09:32:10Z</time>
      </trkpt>
      <trkpt lat="46.50767" lon="0.37435">
        <ele>118.8</ele>
        <time>2022-03-06T09:32:12Z</time>
      </trkpt>
      <trkpt lat="46.50755" lon="0.37426">
        <ele>118</ele>
        <time>2022-03-06T09:32:14Z</time>
      </trkpt>
      <trkpt lat="46.50749" lon="0.37421">
        <ele>117.8</ele>
        <time>2022-03-06T09:32:15Z</time>
      </trkpt>
      <trkpt lat="46.50727" lon="0.37403">
        <ele>116.6</ele>
        <time>2022-03-06T09:32:18Z</time>
      </trkpt>
      <trkpt lat="46.5072" lon="0.37397">
        <ele>116.2</ele>
        <time>2022-03-06T09:32:19Z</time>
      </trkpt>
      <trkpt lat="46.5072" lon="0.37397">
        <ele>115</ele>
        <time>2022-03-06T09:32:21Z</time>
      </trkpt>
      <trkpt lat="46.50676" lon="0.3736">
        <ele>114</ele>
        <time>2022-03-06T09:32:25Z</time>
      </trkpt>
      <trkpt lat="46.5067" lon="0.37355">
        <ele>113.8</ele>
        <time>2022-03-06T09:32:26Z</time>
      </trkpt>
      <trkpt lat="46.50646" lon="0.37337">
        <ele>114.4</ele>
        <time>2022-03-06T09:32:31Z</time>
      </trkpt>
      <trkpt lat="46.50648" lon="0.37326">
        <ele>114.8</ele>
        <time>2022-03-06T09:32:34Z</time>
      </trkpt>
      <trkpt lat="46.50661" lon="0.37309">
        <ele>114.4</ele>
        <time>2022-03-06T09:32:39Z</time>
      </trkpt>
      <trkpt lat="46.50663" lon="0.37305">
        <ele>114.4</ele>
        <time>2022-03-06T09:32:40Z</time>
      </trkpt>
      <trkpt lat="46.50668" lon="0.3729">
        <ele>115</ele>
        <time>2022-03-06T09:32:44Z</time>
      </trkpt>
      <trkpt lat="46.50669" lon="0.37283">
        <ele>116</ele>
        <time>2022-03-06T09:32:46Z</time>
      </trkpt>
      <trkpt lat="46.50672" lon="0.37272">
        <ele>117.4</ele>
        <time>2022-03-06T09:32:50Z</time>
      </trkpt>
      <trkpt lat="46.50673" lon="0.37269">
        <ele>117.6</ele>
        <time>2022-03-06T09:32:51Z</time>
      </trkpt>
      <trkpt lat="46.50677" lon="0.37259">
        <ele>118.8</ele>
        <time>2022-03-06T09:32:55Z</time>
      </trkpt>
      <trkpt lat="46.5068" lon="0.37252">
        <ele>119.4</ele>
        <time>2022-03-06T09:32:58Z</time>
      </trkpt>
      <trkpt lat="46.50681" lon="0.37247">
        <ele>119.8</ele>
        <time>2022-03-06T09:33:00Z</time>
      </trkpt>
      <trkpt lat="46.50685" lon="0.37238">
        <ele>120.8</ele>
        <time>2022-03-06T09:33:04Z</time>
      </trkpt>
      <trkpt lat="46.50686" lon="0.37236">
        <ele>121</ele>
        <time>2022-03-06T09:33:05Z</time>
      </trkpt>
      <trkpt lat="46.5069" lon="0.37227">
        <ele>121.6</ele>
        <time>2022-03-06T09:33:11Z</time>
      </trkpt>
      <trkpt lat="46.5069" lon="0.37223">
        <ele>121.8</ele>
        <time>2022-03-06T09:33:13Z</time>
      </trkpt>
      <trkpt lat="46.50691" lon="0.37222">
        <ele>122</ele>
        <time>2022-03-06T09:33:14Z</time>
      </trkpt>
      <trkpt lat="46.50691" lon="0.3722">
        <ele>122.2</ele>
        <time>2022-03-06T09:33:15Z</time>
      </trkpt>
      <trkpt lat="46.50695" lon="0.37214">
        <ele>122.6</ele>
        <time>2022-03-06T09:33:18Z</time>
      </trkpt>
      <trkpt lat="46.507" lon="0.372">
        <ele>123.2</ele>
        <time>2022-03-06T09:33:24Z</time>
      </trkpt>
      <trkpt lat="46.507" lon="0.37195">
        <ele>123.6</ele>
        <time>2022-03-06T09:33:26Z</time>
      </trkpt>
      <trkpt lat="46.50702" lon="0.37184">
        <ele>124.4</ele>
        <time>2022-03-06T09:33:30Z</time>
      </trkpt>
      <trkpt lat="46.50705" lon="0.37174">
        <ele>124.8</ele>
        <time>2022-03-06T09:33:34Z</time>
      </trkpt>
      <trkpt lat="46.5071" lon="0.37159">
        <ele>125.4</ele>
        <time>2022-03-06T09:33:39Z</time>
      </trkpt>
      <trkpt lat="46.50711" lon="0.37152">
        <ele>125.4</ele>
        <time>2022-03-06T09:33:41Z</time>
      </trkpt>
      <trkpt lat="46.5071" lon="0.37136">
        <ele>125.8</ele>
        <time>2022-03-06T09:33:47Z</time>
      </trkpt>
      <trkpt lat="46.50701" lon="0.3713">
        <ele>126</ele>
        <time>2022-03-06T09:33:52Z</time>
      </trkpt>
      <trkpt lat="46.50687" lon="0.37123">
        <ele>126</ele>
        <time>2022-03-06T09:33:58Z</time>
      </trkpt>
      <trkpt lat="46.50675" lon="0.37113">
        <ele>126.2</ele>
        <time>2022-03-06T09:34:03Z</time>
      </trkpt>
      <trkpt lat="46.5066" lon="0.37106">
        <ele>126.2</ele>
        <time>2022-03-06T09:34:08Z</time>
      </trkpt>
      <trkpt lat="46.50652" lon="0.37116">
        <ele>126</ele>
        <time>2022-03-06T09:34:12Z</time>
      </trkpt>
      <trkpt lat="46.50644" lon="0.37132">
        <ele>125.4</ele>
        <time>2022-03-06T09:34:16Z</time>
      </trkpt>
      <trkpt lat="46.50639" lon="0.37141">
        <ele>125.2</ele>
        <time>2022-03-06T09:34:18Z</time>
      </trkpt>
      <trkpt lat="46.50634" lon="0.3715">
        <ele>124.8</ele>
        <time>2022-03-06T09:34:20Z</time>
      </trkpt>
      <trkpt lat="46.50632" lon="0.3716">
        <ele>124.2</ele>
        <time>2022-03-06T09:34:22Z</time>
      </trkpt>
      <trkpt lat="46.50632" lon="0.3717">
        <ele>122.8</ele>
        <time>2022-03-06T09:34:24Z</time>
      </trkpt>
      <trkpt lat="46.50632" lon="0.37174">
        <ele>122.2</ele>
        <time>2022-03-06T09:34:25Z</time>
      </trkpt>
      <trkpt lat="46.5063" lon="0.37183">
        <ele>121.2</ele>
        <time>2022-03-06T09:34:27Z</time>
      </trkpt>
      <trkpt lat="46.50625" lon="0.37193">
        <ele>119.8</ele>
        <time>2022-03-06T09:34:29Z</time>
      </trkpt>
      <trkpt lat="46.5062" lon="0.372">
        <ele>119</ele>
        <time>2022-03-06T09:34:31Z</time>
      </trkpt>
      <trkpt lat="46.50619" lon="0.37203">
        <ele>118</ele>
        <time>2022-03-06T09:34:32Z</time>
      </trkpt>
      <trkpt lat="46.50619" lon="0.37206">
        <ele>117.4</ele>
        <time>2022-03-06T09:34:33Z</time>
      </trkpt>
      <trkpt lat="46.50619" lon="0.37209">
        <ele>117</ele>
        <time>2022-03-06T09:34:34Z</time>
      </trkpt>
      <trkpt lat="46.5062" lon="0.37212">
        <ele>116.6</ele>
        <time>2022-03-06T09:34:35Z</time>
      </trkpt>
      <trkpt lat="46.50621" lon="0.37216">
        <ele>115.8</ele>
        <time>2022-03-06T09:34:38Z</time>
      </trkpt>
      <trkpt lat="46.50623" lon="0.37218">
        <ele>115.8</ele>
        <time>2022-03-06T09:34:40Z</time>
      </trkpt>
      <trkpt lat="46.50625" lon="0.37223">
        <ele>115.8</ele>
        <time>2022-03-06T09:34:42Z</time>
      </trkpt>
      <trkpt lat="46.50624" lon="0.3723">
        <ele>115.6</ele>
        <time>2022-03-06T09:34:44Z</time>
      </trkpt>
      <trkpt lat="46.50625" lon="0.37235">
        <ele>115.6</ele>
        <time>2022-03-06T09:34:45Z</time>
      </trkpt>
      <trkpt lat="46.50624" lon="0.3724">
        <ele>115.6</ele>
        <time>2022-03-06T09:34:46Z</time>
      </trkpt>
      <trkpt lat="46.50621" lon="0.37251">
        <ele>115.8</ele>
        <time>2022-03-06T09:34:48Z</time>
      </trkpt>
      <trkpt lat="46.5062" lon="0.37254">
        <ele>116.2</ele>
        <time>2022-03-06T09:34:49Z</time>
      </trkpt>
      <trkpt lat="46.50618" lon="0.37268">
        <ele>117</ele>
        <time>2022-03-06T09:34:52Z</time>
      </trkpt>
      <trkpt lat="46.50619" lon="0.37279">
        <ele>117.2</ele>
        <time>2022-03-06T09:34:54Z</time>
      </trkpt>
      <trkpt lat="46.50617" lon="0.37299">
        <ele>117.4</ele>
        <time>2022-03-06T09:34:58Z</time>
      </trkpt>
      <trkpt lat="46.5061" lon="0.37322">
        <ele>118</ele>
        <time>2022-03-06T09:35:02Z</time>
      </trkpt>
      <trkpt lat="46.50609" lon="0.37327">
        <ele>118.2</ele>
        <time>2022-03-06T09:35:03Z</time>
      </trkpt>
      <trkpt lat="46.50607" lon="0.37332">
        <ele>118.2</ele>
        <time>2022-03-06T09:35:04Z</time>
      </trkpt>
      <trkpt lat="46.50601" lon="0.3735">
        <ele>119.4</ele>
        <time>2022-03-06T09:35:07Z</time>
      </trkpt>
      <trkpt lat="46.50596" lon="0.37365">
        <ele>120.2</ele>
        <time>2022-03-06T09:35:10Z</time>
      </trkpt>
      <trkpt lat="46.50591" lon="0.37373">
        <ele>120.8</ele>
        <time>2022-03-06T09:35:12Z</time>
      </trkpt>
      <trkpt lat="46.50588" lon="0.37376">
        <ele>121.4</ele>
        <time>2022-03-06T09:35:14Z</time>
      </trkpt>
      <trkpt lat="46.50581" lon="0.37377">
        <ele>122</ele>
        <time>2022-03-06T09:35:18Z</time>
      </trkpt>
      <trkpt lat="46.50579" lon="0.37375">
        <ele>122.2</ele>
        <time>2022-03-06T09:35:19Z</time>
      </trkpt>
      <trkpt lat="46.5057" lon="0.37362">
        <ele>122.6</ele>
        <time>2022-03-06T09:35:26Z</time>
      </trkpt>
      <trkpt lat="46.50568" lon="0.37343">
        <ele>122.4</ele>
        <time>2022-03-06T09:35:31Z</time>
      </trkpt>
      <trkpt lat="46.50566" lon="0.37337">
        <ele>122.2</ele>
        <time>2022-03-06T09:35:33Z</time>
      </trkpt>
      <trkpt lat="46.50565" lon="0.37329">
        <ele>122.2</ele>
        <time>2022-03-06T09:35:35Z</time>
      </trkpt>
      <trkpt lat="46.50565" lon="0.37312">
        <ele>121.8</ele>
        <time>2022-03-06T09:35:39Z</time>
      </trkpt>
      <trkpt lat="46.50564" lon="0.37307">
        <ele>121.6</ele>
        <time>2022-03-06T09:35:40Z</time>
      </trkpt>
      <trkpt lat="46.50563" lon="0.37303">
        <ele>121.4</ele>
        <time>2022-03-06T09:35:41Z</time>
      </trkpt>
      <trkpt lat="46.50563" lon="0.37294">
        <ele>121.4</ele>
        <time>2022-03-06T09:35:43Z</time>
      </trkpt>
      <trkpt lat="46.50563" lon="0.37285">
        <ele>121.2</ele>
        <time>2022-03-06T09:35:45Z</time>
      </trkpt>
      <trkpt lat="46.50562" lon="0.37272">
        <ele>121</ele>
        <time>2022-03-06T09:35:47Z</time>
      </trkpt>
      <trkpt lat="46.50562" lon="0.37265">
        <ele>120.8</ele>
        <time>2022-03-06T09:35:48Z</time>
      </trkpt>
      <trkpt lat="46.50564" lon="0.37252">
        <ele>120.2</ele>
        <time>2022-03-06T09:35:50Z</time>
      </trkpt>
      <trkpt lat="46.50563" lon="0.37243">
        <ele>119.4</ele>
        <time>2022-03-06T09:35:51Z</time>
      </trkpt>
      <trkpt lat="46.50562" lon="0.3722">
        <ele>118.2</ele>
        <time>2022-03-06T09:35:54Z</time>
      </trkpt>
      <trkpt lat="46.50563" lon="0.37214">
        <ele>118.2</ele>
        <time>2022-03-06T09:35:55Z</time>
      </trkpt>
      <trkpt lat="46.50563" lon="0.37208">
        <ele>118.4</ele>
        <time>2022-03-06T09:35:56Z</time>
      </trkpt>
      <trkpt lat="46.5056" lon="0.372">
        <ele>119.2</ele>
        <time>2022-03-06T09:35:58Z</time>
      </trkpt>
      <trkpt lat="46.50557" lon="0.37199">
        <ele>119.4</ele>
        <time>2022-03-06T09:35:59Z</time>
      </trkpt>
      <trkpt lat="46.50548" lon="0.372">
        <ele>119.4</ele>
        <time>2022-03-06T09:36:02Z</time>
      </trkpt>
      <trkpt lat="46.50541" lon="0.37204">
        <ele>119.4</ele>
        <time>2022-03-06T09:36:04Z</time>
      </trkpt>
      <trkpt lat="46.50531" lon="0.37206">
        <ele>120</ele>
        <time>2022-03-06T09:36:07Z</time>
      </trkpt>
      <trkpt lat="46.50525" lon="0.37208">
        <ele>120.4</ele>
        <time>2022-03-06T09:36:09Z</time>
      </trkpt>
      <trkpt lat="46.50517" lon="0.37207">
        <ele>121</ele>
        <time>2022-03-06T09:36:11Z</time>
      </trkpt>
      <trkpt lat="46.5051" lon="0.37206">
        <ele>121.6</ele>
        <time>2022-03-06T09:36:13Z</time>
      </trkpt>
      <trkpt lat="46.505" lon="0.37211">
        <ele>122.4</ele>
        <time>2022-03-06T09:36:17Z</time>
      </trkpt>
      <trkpt lat="46.50498" lon="0.37212">
        <ele>122.6</ele>
        <time>2022-03-06T09:36:18Z</time>
      </trkpt>
      <trkpt lat="46.50489" lon="0.37219">
        <ele>123.2</ele>
        <time>2022-03-06T09:36:22Z</time>
      </trkpt>
      <trkpt lat="46.50483" lon="0.37221">
        <ele>123.4</ele>
        <time>2022-03-06T09:36:27Z</time>
      </trkpt>
      <trkpt lat="46.50476" lon="0.3722">
        <ele>123.4</ele>
        <time>2022-03-06T09:36:42Z</time>
      </trkpt>
      <trkpt lat="46.50476" lon="0.37221">
        <ele>123.4</ele>
        <time>2022-03-06T09:36:58Z</time>
      </trkpt>
      <trkpt lat="46.50476" lon="0.37221">
        <ele>123.6</ele>
        <time>2022-03-06T09:37:02Z</time>
      </trkpt>
      <trkpt lat="46.50473" lon="0.37223">
        <ele>123.6</ele>
        <time>2022-03-06T09:37:11Z</time>
      </trkpt>
      <trkpt lat="46.50467" lon="0.37234">
        <ele>123.6</ele>
        <time>2022-03-06T09:37:16Z</time>
      </trkpt>
      <trkpt lat="46.50466" lon="0.37242">
        <ele>124</ele>
        <time>2022-03-06T09:37:19Z</time>
      </trkpt>
      <trkpt lat="46.50468" lon="0.37245">
        <ele>124.2</ele>
        <time>2022-03-06T09:37:21Z</time>
      </trkpt>
      <trkpt lat="46.50481" lon="0.37254">
        <ele>124.4</ele>
        <time>2022-03-06T09:37:26Z</time>
      </trkpt>
      <trkpt lat="46.50488" lon="0.37259">
        <ele>124.2</ele>
        <time>2022-03-06T09:37:28Z</time>
      </trkpt>
      <trkpt lat="46.50497" lon="0.37266">
        <ele>124.2</ele>
        <time>2022-03-06T09:37:30Z</time>
      </trkpt>
      <trkpt lat="46.50521" lon="0.37286">
        <ele>123.2</ele>
        <time>2022-03-06T09:37:36Z</time>
      </trkpt>
      <trkpt lat="46.50523" lon="0.37289">
        <ele>123.2</ele>
        <time>2022-03-06T09:37:37Z</time>
      </trkpt>
      <trkpt lat="46.50525" lon="0.37299">
        <ele>123.2</ele>
        <time>2022-03-06T09:37:39Z</time>
      </trkpt>
      <trkpt lat="46.50525" lon="0.37304">
        <ele>123.2</ele>
        <time>2022-03-06T09:37:40Z</time>
      </trkpt>
      <trkpt lat="46.50521" lon="0.37313">
        <ele>123.6</ele>
        <time>2022-03-06T09:37:42Z</time>
      </trkpt>
      <trkpt lat="46.50513" lon="0.37324">
        <ele>124</ele>
        <time>2022-03-06T09:37:44Z</time>
      </trkpt>
      <trkpt lat="46.50509" lon="0.37329">
        <ele>124</ele>
        <time>2022-03-06T09:37:45Z</time>
      </trkpt>
      <trkpt lat="46.50503" lon="0.3734">
        <ele>124.2</ele>
        <time>2022-03-06T09:37:47Z</time>
      </trkpt>
      <trkpt lat="46.50498" lon="0.37352">
        <ele>124.2</ele>
        <time>2022-03-06T09:37:49Z</time>
      </trkpt>
      <trkpt lat="46.50497" lon="0.37362">
        <ele>124.4</ele>
        <time>2022-03-06T09:37:51Z</time>
      </trkpt>
      <trkpt lat="46.50498" lon="0.37364">
        <ele>124.4</ele>
        <time>2022-03-06T09:37:52Z</time>
      </trkpt>
      <trkpt lat="46.50502" lon="0.37369">
        <ele>124.6</ele>
        <time>2022-03-06T09:37:56Z</time>
      </trkpt>
      <trkpt lat="46.50502" lon="0.37385">
        <ele>124.2</ele>
        <time>2022-03-06T09:38:00Z</time>
      </trkpt>
      <trkpt lat="46.50501" lon="0.37391">
        <ele>124.2</ele>
        <time>2022-03-06T09:38:01Z</time>
      </trkpt>
      <trkpt lat="46.50497" lon="0.37408">
        <ele>124</ele>
        <time>2022-03-06T09:38:04Z</time>
      </trkpt>
      <trkpt lat="46.50494" lon="0.37418">
        <ele>124</ele>
        <time>2022-03-06T09:38:06Z</time>
      </trkpt>
      <trkpt lat="46.50487" lon="0.37428">
        <ele>123.8</ele>
        <time>2022-03-06T09:38:08Z</time>
      </trkpt>
      <trkpt lat="46.5047" lon="0.37436">
        <ele>123.2</ele>
        <time>2022-03-06T09:38:12Z</time>
      </trkpt>
      <trkpt lat="46.50466" lon="0.37435">
        <ele>123.2</ele>
        <time>2022-03-06T09:38:13Z</time>
      </trkpt>
      <trkpt lat="46.50463" lon="0.37435">
        <ele>123.2</ele>
        <time>2022-03-06T09:38:14Z</time>
      </trkpt>
      <trkpt lat="46.50456" lon="0.37437">
        <ele>123.2</ele>
        <time>2022-03-06T09:38:16Z</time>
      </trkpt>
      <trkpt lat="46.50446" lon="0.3745">
        <ele>123.2</ele>
        <time>2022-03-06T09:38:19Z</time>
      </trkpt>
      <trkpt lat="46.50437" lon="0.37461">
        <ele>123</ele>
        <time>2022-03-06T09:38:21Z</time>
      </trkpt>
      <trkpt lat="46.50426" lon="0.37476">
        <ele>122.8</ele>
        <time>2022-03-06T09:38:24Z</time>
      </trkpt>
      <trkpt lat="46.50424" lon="0.37482">
        <ele>122.6</ele>
        <time>2022-03-06T09:38:25Z</time>
      </trkpt>
      <trkpt lat="46.5042" lon="0.37493">
        <ele>122</ele>
        <time>2022-03-06T09:38:27Z</time>
      </trkpt>
      <trkpt lat="46.50417" lon="0.37503">
        <ele>121.4</ele>
        <time>2022-03-06T09:38:29Z</time>
      </trkpt>
      <trkpt lat="46.50413" lon="0.37515">
        <ele>120.6</ele>
        <time>2022-03-06T09:38:31Z</time>
      </trkpt>
      <trkpt lat="46.50408" lon="0.37521">
        <ele>120</ele>
        <time>2022-03-06T09:38:32Z</time>
      </trkpt>
      <trkpt lat="46.50404" lon="0.37526">
        <ele>119.6</ele>
        <time>2022-03-06T09:38:33Z</time>
      </trkpt>
      <trkpt lat="46.50402" lon="0.37531">
        <ele>119.2</ele>
        <time>2022-03-06T09:38:34Z</time>
      </trkpt>
      <trkpt lat="46.504" lon="0.37536">
        <ele>118.8</ele>
        <time>2022-03-06T09:38:35Z</time>
      </trkpt>
      <trkpt lat="46.504" lon="0.37541">
        <ele>118.4</ele>
        <time>2022-03-06T09:38:36Z</time>
      </trkpt>
      <trkpt lat="46.50406" lon="0.37551">
        <ele>117.6</ele>
        <time>2022-03-06T09:38:39Z</time>
      </trkpt>
      <trkpt lat="46.50414" lon="0.3756">
        <ele>117</ele>
        <time>2022-03-06T09:38:41Z</time>
      </trkpt>
      <trkpt lat="46.50419" lon="0.37564">
        <ele>117</ele>
        <time>2022-03-06T09:38:42Z</time>
      </trkpt>
      <trkpt lat="46.50424" lon="0.37569">
        <ele>116.8</ele>
        <time>2022-03-06T09:38:43Z</time>
      </trkpt>
      <trkpt lat="46.50433" lon="0.3758">
        <ele>116.4</ele>
        <time>2022-03-06T09:38:45Z</time>
      </trkpt>
      <trkpt lat="46.50438" lon="0.37585">
        <ele>116.2</ele>
        <time>2022-03-06T09:38:46Z</time>
      </trkpt>
      <trkpt lat="46.50463" lon="0.37606">
        <ele>115.8</ele>
        <time>2022-03-06T09:38:51Z</time>
      </trkpt>
      <trkpt lat="46.50477" lon="0.37612">
        <ele>115</ele>
        <time>2022-03-06T09:38:53Z</time>
      </trkpt>
      <trkpt lat="46.50487" lon="0.37617">
        <ele>114.4</ele>
        <time>2022-03-06T09:38:55Z</time>
      </trkpt>
      <trkpt lat="46.5049" lon="0.37619">
        <ele>114.2</ele>
        <time>2022-03-06T09:38:56Z</time>
      </trkpt>
      <trkpt lat="46.50494" lon="0.37626">
        <ele>114</ele>
        <time>2022-03-06T09:38:58Z</time>
      </trkpt>
      <trkpt lat="46.50496" lon="0.37635">
        <ele>114</ele>
        <time>2022-03-06T09:39:00Z</time>
      </trkpt>
      <trkpt lat="46.50496" lon="0.37645">
        <ele>115</ele>
        <time>2022-03-06T09:39:03Z</time>
      </trkpt>
      <trkpt lat="46.50495" lon="0.37651">
        <ele>115.2</ele>
        <time>2022-03-06T09:39:04Z</time>
      </trkpt>
      <trkpt lat="46.50495" lon="0.37659">
        <ele>116.2</ele>
        <time>2022-03-06T09:39:06Z</time>
      </trkpt>
      <trkpt lat="46.50494" lon="0.37672">
        <ele>117.6</ele>
        <time>2022-03-06T09:39:09Z</time>
      </trkpt>
      <trkpt lat="46.50492" lon="0.37675">
        <ele>118</ele>
        <time>2022-03-06T09:39:10Z</time>
      </trkpt>
      <trkpt lat="46.50484" lon="0.37684">
        <ele>118.4</ele>
        <time>2022-03-06T09:39:13Z</time>
      </trkpt>
      <trkpt lat="46.50481" lon="0.3769">
        <ele>118.6</ele>
        <time>2022-03-06T09:39:15Z</time>
      </trkpt>
      <trkpt lat="46.50479" lon="0.37693">
        <ele>119</ele>
        <time>2022-03-06T09:39:16Z</time>
      </trkpt>
      <trkpt lat="46.50476" lon="0.37701">
        <ele>119.6</ele>
        <time>2022-03-06T09:39:18Z</time>
      </trkpt>
      <trkpt lat="46.50474" lon="0.3771">
        <ele>120</ele>
        <time>2022-03-06T09:39:20Z</time>
      </trkpt>
      <trkpt lat="46.50473" lon="0.37719">
        <ele>120.8</ele>
        <time>2022-03-06T09:39:23Z</time>
      </trkpt>
      <trkpt lat="46.50473" lon="0.37727">
        <ele>121.2</ele>
        <time>2022-03-06T09:39:25Z</time>
      </trkpt>
      <trkpt lat="46.50468" lon="0.3775">
        <ele>121.6</ele>
        <time>2022-03-06T09:39:30Z</time>
      </trkpt>
      <trkpt lat="46.50466" lon="0.37768">
        <ele>122.2</ele>
        <time>2022-03-06T09:39:34Z</time>
      </trkpt>
      <trkpt lat="46.50465" lon="0.37778">
        <ele>122.4</ele>
        <time>2022-03-06T09:39:36Z</time>
      </trkpt>
      <trkpt lat="46.50466" lon="0.37783">
        <ele>122.4</ele>
        <time>2022-03-06T09:39:37Z</time>
      </trkpt>
      <trkpt lat="46.50466" lon="0.37797">
        <ele>122.6</ele>
        <time>2022-03-06T09:39:40Z</time>
      </trkpt>
      <trkpt lat="46.50468" lon="0.37809">
        <ele>122.6</ele>
        <time>2022-03-06T09:39:42Z</time>
      </trkpt>
      <trkpt lat="46.50469" lon="0.37815">
        <ele>122.6</ele>
        <time>2022-03-06T09:39:43Z</time>
      </trkpt>
      <trkpt lat="46.50472" lon="0.37826">
        <ele>122.4</ele>
        <time>2022-03-06T09:39:45Z</time>
      </trkpt>
      <trkpt lat="46.50475" lon="0.37838">
        <ele>122.4</ele>
        <time>2022-03-06T09:39:47Z</time>
      </trkpt>
      <trkpt lat="46.50476" lon="0.37842">
        <ele>122.2</ele>
        <time>2022-03-06T09:39:48Z</time>
      </trkpt>
      <trkpt lat="46.50481" lon="0.37866">
        <ele>122.2</ele>
        <time>2022-03-06T09:39:52Z</time>
      </trkpt>
      <trkpt lat="46.50484" lon="0.37893">
        <ele>122.8</ele>
        <time>2022-03-06T09:39:57Z</time>
      </trkpt>
      <trkpt lat="46.50485" lon="0.37908">
        <ele>123</ele>
        <time>2022-03-06T09:39:59Z</time>
      </trkpt>
      <trkpt lat="46.50487" lon="0.37918">
        <ele>123.2</ele>
        <time>2022-03-06T09:40:01Z</time>
      </trkpt>
      <trkpt lat="46.50489" lon="0.37926">
        <ele>123.2</ele>
        <time>2022-03-06T09:40:02Z</time>
      </trkpt>
      <trkpt lat="46.50492" lon="0.3794">
        <ele>123.4</ele>
        <time>2022-03-06T09:40:04Z</time>
      </trkpt>
      <trkpt lat="46.50498" lon="0.37958">
        <ele>123.6</ele>
        <time>2022-03-06T09:40:07Z</time>
      </trkpt>
      <trkpt lat="46.50501" lon="0.37979">
        <ele>123.8</ele>
        <time>2022-03-06T09:40:10Z</time>
      </trkpt>
      <trkpt lat="46.50502" lon="0.37991">
        <ele>124</ele>
        <time>2022-03-06T09:40:12Z</time>
      </trkpt>
      <trkpt lat="46.50504" lon="0.38006">
        <ele>124</ele>
        <time>2022-03-06T09:40:14Z</time>
      </trkpt>
      <trkpt lat="46.50508" lon="0.38021">
        <ele>124</ele>
        <time>2022-03-06T09:40:16Z</time>
      </trkpt>
      <trkpt lat="46.50508" lon="0.38036">
        <ele>124</ele>
        <time>2022-03-06T09:40:18Z</time>
      </trkpt>
      <trkpt lat="46.50506" lon="0.38043">
        <ele>124</ele>
        <time>2022-03-06T09:40:19Z</time>
      </trkpt>
      <trkpt lat="46.50498" lon="0.3806">
        <ele>124.2</ele>
        <time>2022-03-06T09:40:22Z</time>
      </trkpt>
      <trkpt lat="46.5049" lon="0.38072">
        <ele>124.2</ele>
        <time>2022-03-06T09:40:24Z</time>
      </trkpt>
      <trkpt lat="46.50487" lon="0.38077">
        <ele>124.2</ele>
        <time>2022-03-06T09:40:25Z</time>
      </trkpt>
      <trkpt lat="46.50473" lon="0.38082">
        <ele>124.2</ele>
        <time>2022-03-06T09:40:29Z</time>
      </trkpt>
      <trkpt lat="46.5047" lon="0.3808">
        <ele>124.4</ele>
        <time>2022-03-06T09:40:30Z</time>
      </trkpt>
      <trkpt lat="46.50464" lon="0.38078">
        <ele>124.6</ele>
        <time>2022-03-06T09:40:32Z</time>
      </trkpt>
      <trkpt lat="46.50454" lon="0.38074">
        <ele>125</ele>
        <time>2022-03-06T09:40:35Z</time>
      </trkpt>
      <trkpt lat="46.50446" lon="0.3807">
        <ele>125.4</ele>
        <time>2022-03-06T09:40:37Z</time>
      </trkpt>
      <trkpt lat="46.50441" lon="0.38068">
        <ele>125.6</ele>
        <time>2022-03-06T09:40:38Z</time>
      </trkpt>
      <trkpt lat="46.50428" lon="0.38059">
        <ele>125.6</ele>
        <time>2022-03-06T09:40:41Z</time>
      </trkpt>
      <trkpt lat="46.50407" lon="0.38046">
        <ele>125.6</ele>
        <time>2022-03-06T09:40:46Z</time>
      </trkpt>
      <trkpt lat="46.50403" lon="0.38043">
        <ele>125.6</ele>
        <time>2022-03-06T09:40:47Z</time>
      </trkpt>
      <trkpt lat="46.50398" lon="0.38041">
        <ele>125.6</ele>
        <time>2022-03-06T09:40:48Z</time>
      </trkpt>
      <trkpt lat="46.50388" lon="0.38044">
        <ele>125.8</ele>
        <time>2022-03-06T09:40:50Z</time>
      </trkpt>
      <trkpt lat="46.50376" lon="0.38053">
        <ele>126.4</ele>
        <time>2022-03-06T09:40:53Z</time>
      </trkpt>
      <trkpt lat="46.50367" lon="0.38062">
        <ele>126.6</ele>
        <time>2022-03-06T09:40:55Z</time>
      </trkpt>
      <trkpt lat="46.50343" lon="0.38083">
        <ele>126.6</ele>
        <time>2022-03-06T09:41:00Z</time>
      </trkpt>
      <trkpt lat="46.50333" lon="0.38091">
        <ele>126.6</ele>
        <time>2022-03-06T09:41:02Z</time>
      </trkpt>
      <trkpt lat="46.50325" lon="0.38101">
        <ele>126.6</ele>
        <time>2022-03-06T09:41:04Z</time>
      </trkpt>
      <trkpt lat="46.50316" lon="0.38108">
        <ele>126.6</ele>
        <time>2022-03-06T09:41:06Z</time>
      </trkpt>
      <trkpt lat="46.50306" lon="0.38112">
        <ele>126.6</ele>
        <time>2022-03-06T09:41:08Z</time>
      </trkpt>
      <trkpt lat="46.5028" lon="0.38112">
        <ele>126.4</ele>
        <time>2022-03-06T09:41:13Z</time>
      </trkpt>
      <trkpt lat="46.50275" lon="0.38113">
        <ele>126.6</ele>
        <time>2022-03-06T09:41:14Z</time>
      </trkpt>
      <trkpt lat="46.50266" lon="0.38116">
        <ele>126.8</ele>
        <time>2022-03-06T09:41:16Z</time>
      </trkpt>
      <trkpt lat="46.50262" lon="0.38119">
        <ele>127</ele>
        <time>2022-03-06T09:41:17Z</time>
      </trkpt>
      <trkpt lat="46.50251" lon="0.38134">
        <ele>127</ele>
        <time>2022-03-06T09:41:20Z</time>
      </trkpt>
      <trkpt lat="46.50242" lon="0.38145">
        <ele>126.8</ele>
        <time>2022-03-06T09:41:22Z</time>
      </trkpt>
      <trkpt lat="46.50235" lon="0.38156">
        <ele>126.4</ele>
        <time>2022-03-06T09:41:24Z</time>
      </trkpt>
      <trkpt lat="46.50235" lon="0.38164">
        <ele>126</ele>
        <time>2022-03-06T09:41:26Z</time>
      </trkpt>
      <trkpt lat="46.50238" lon="0.3817">
        <ele>125.8</ele>
        <time>2022-03-06T09:41:28Z</time>
      </trkpt>
      <trkpt lat="46.50239" lon="0.38174">
        <ele>125.4</ele>
        <time>2022-03-06T09:41:29Z</time>
      </trkpt>
      <trkpt lat="46.50241" lon="0.38177">
        <ele>125.4</ele>
        <time>2022-03-06T09:41:30Z</time>
      </trkpt>
      <trkpt lat="46.50244" lon="0.3818">
        <ele>125.2</ele>
        <time>2022-03-06T09:41:31Z</time>
      </trkpt>
      <trkpt lat="46.50249" lon="0.38186">
        <ele>125.2</ele>
        <time>2022-03-06T09:41:33Z</time>
      </trkpt>
      <trkpt lat="46.50255" lon="0.38199">
        <ele>124.8</ele>
        <time>2022-03-06T09:41:36Z</time>
      </trkpt>
      <trkpt lat="46.50258" lon="0.38204">
        <ele>124.8</ele>
        <time>2022-03-06T09:41:37Z</time>
      </trkpt>
      <trkpt lat="46.50264" lon="0.38216">
        <ele>124.8</ele>
        <time>2022-03-06T09:41:39Z</time>
      </trkpt>
      <trkpt lat="46.50272" lon="0.38228">
        <ele>124.6</ele>
        <time>2022-03-06T09:41:41Z</time>
      </trkpt>
      <trkpt lat="46.50278" lon="0.38232">
        <ele>124.6</ele>
        <time>2022-03-06T09:41:42Z</time>
      </trkpt>
      <trkpt lat="46.50287" lon="0.38242">
        <ele>124.2</ele>
        <time>2022-03-06T09:41:44Z</time>
      </trkpt>
      <trkpt lat="46.50297" lon="0.38249">
        <ele>124.2</ele>
        <time>2022-03-06T09:41:46Z</time>
      </trkpt>
      <trkpt lat="46.50311" lon="0.38261">
        <ele>123.8</ele>
        <time>2022-03-06T09:41:49Z</time>
      </trkpt>
      <trkpt lat="46.50325" lon="0.38271">
        <ele>123.2</ele>
        <time>2022-03-06T09:41:52Z</time>
      </trkpt>
      <trkpt lat="46.50329" lon="0.38281">
        <ele>123.2</ele>
        <time>2022-03-06T09:41:54Z</time>
      </trkpt>
      <trkpt lat="46.50332" lon="0.38293">
        <ele>122.8</ele>
        <time>2022-03-06T09:41:56Z</time>
      </trkpt>
      <trkpt lat="46.50332" lon="0.3831">
        <ele>122.6</ele>
        <time>2022-03-06T09:41:58Z</time>
      </trkpt>
      <trkpt lat="46.50334" lon="0.38334">
        <ele>122.2</ele>
        <time>2022-03-06T09:42:01Z</time>
      </trkpt>
      <trkpt lat="46.50338" lon="0.38352">
        <ele>121.6</ele>
        <time>2022-03-06T09:42:03Z</time>
      </trkpt>
      <trkpt lat="46.50341" lon="0.38367">
        <ele>121</ele>
        <time>2022-03-06T09:42:05Z</time>
      </trkpt>
      <trkpt lat="46.50344" lon="0.38395">
        <ele>120.2</ele>
        <time>2022-03-06T09:42:08Z</time>
      </trkpt>
      <trkpt lat="46.50346" lon="0.38421">
        <ele>119.8</ele>
        <time>2022-03-06T09:42:10Z</time>
      </trkpt>
      <trkpt lat="46.50349" lon="0.3845">
        <ele>118.8</ele>
        <time>2022-03-06T09:42:13Z</time>
      </trkpt>
      <trkpt lat="46.50352" lon="0.38505">
        <ele>118.4</ele>
        <time>2022-03-06T09:42:18Z</time>
      </trkpt>
      <trkpt lat="46.50351" lon="0.38517">
        <ele>118.4</ele>
        <time>2022-03-06T09:42:19Z</time>
      </trkpt>
      <trkpt lat="46.50349" lon="0.38529">
        <ele>118.4</ele>
        <time>2022-03-06T09:42:20Z</time>
      </trkpt>
      <trkpt lat="46.50343" lon="0.38546">
        <ele>118.4</ele>
        <time>2022-03-06T09:42:22Z</time>
      </trkpt>
      <trkpt lat="46.50326" lon="0.38592">
        <ele>118</ele>
        <time>2022-03-06T09:42:27Z</time>
      </trkpt>
      <trkpt lat="46.50315" lon="0.38621">
        <ele>117.8</ele>
        <time>2022-03-06T09:42:30Z</time>
      </trkpt>
      <trkpt lat="46.5031" lon="0.3864">
        <ele>117.2</ele>
        <time>2022-03-06T09:42:32Z</time>
      </trkpt>
      <trkpt lat="46.50303" lon="0.38668">
        <ele>117</ele>
        <time>2022-03-06T09:42:34Z</time>
      </trkpt>
      <trkpt lat="46.50301" lon="0.38679">
        <ele>116.8</ele>
        <time>2022-03-06T09:42:35Z</time>
      </trkpt>
      <trkpt lat="46.50299" lon="0.387">
        <ele>116.4</ele>
        <time>2022-03-06T09:42:37Z</time>
      </trkpt>
      <trkpt lat="46.50301" lon="0.38719">
        <ele>116.2</ele>
        <time>2022-03-06T09:42:39Z</time>
      </trkpt>
      <trkpt lat="46.50304" lon="0.3875">
        <ele>116</ele>
        <time>2022-03-06T09:42:42Z</time>
      </trkpt>
      <trkpt lat="46.50303" lon="0.38762">
        <ele>116</ele>
        <time>2022-03-06T09:42:43Z</time>
      </trkpt>
      <trkpt lat="46.50303" lon="0.38782">
        <ele>115.6</ele>
        <time>2022-03-06T09:42:45Z</time>
      </trkpt>
      <trkpt lat="46.503" lon="0.38793">
        <ele>115.6</ele>
        <time>2022-03-06T09:42:46Z</time>
      </trkpt>
      <trkpt lat="46.50295" lon="0.38814">
        <ele>115.2</ele>
        <time>2022-03-06T09:42:48Z</time>
      </trkpt>
      <trkpt lat="46.50289" lon="0.38844">
        <ele>114.4</ele>
        <time>2022-03-06T09:42:51Z</time>
      </trkpt>
      <trkpt lat="46.50285" lon="0.38873">
        <ele>113.4</ele>
        <time>2022-03-06T09:42:54Z</time>
      </trkpt>
      <trkpt lat="46.50286" lon="0.3891">
        <ele>112.4</ele>
        <time>2022-03-06T09:42:57Z</time>
      </trkpt>
      <trkpt lat="46.50288" lon="0.38921">
        <ele>112.2</ele>
        <time>2022-03-06T09:42:58Z</time>
      </trkpt>
      <trkpt lat="46.50292" lon="0.38945">
        <ele>111.8</ele>
        <time>2022-03-06T09:43:00Z</time>
      </trkpt>
      <trkpt lat="46.50299" lon="0.38983">
        <ele>111</ele>
        <time>2022-03-06T09:43:03Z</time>
      </trkpt>
      <trkpt lat="46.50302" lon="0.39007">
        <ele>110</ele>
        <time>2022-03-06T09:43:05Z</time>
      </trkpt>
      <trkpt lat="46.50302" lon="0.3902">
        <ele>109.6</ele>
        <time>2022-03-06T09:43:06Z</time>
      </trkpt>
      <trkpt lat="46.50302" lon="0.39054">
        <ele>108.6</ele>
        <time>2022-03-06T09:43:09Z</time>
      </trkpt>
      <trkpt lat="46.50303" lon="0.39088">
        <ele>107.2</ele>
        <time>2022-03-06T09:43:12Z</time>
      </trkpt>
      <trkpt lat="46.503" lon="0.39129">
        <ele>106</ele>
        <time>2022-03-06T09:43:15Z</time>
      </trkpt>
      <trkpt lat="46.50299" lon="0.39144">
        <ele>104.8</ele>
        <time>2022-03-06T09:43:16Z</time>
      </trkpt>
      <trkpt lat="46.50298" lon="0.39169">
        <ele>103.8</ele>
        <time>2022-03-06T09:43:18Z</time>
      </trkpt>
      <trkpt lat="46.50298" lon="0.3918">
        <ele>103.4</ele>
        <time>2022-03-06T09:43:19Z</time>
      </trkpt>
      <trkpt lat="46.50298" lon="0.39198">
        <ele>102.4</ele>
        <time>2022-03-06T09:43:21Z</time>
      </trkpt>
      <trkpt lat="46.50296" lon="0.39205">
        <ele>102</ele>
        <time>2022-03-06T09:43:22Z</time>
      </trkpt>
      <trkpt lat="46.50292" lon="0.39214">
        <ele>101.6</ele>
        <time>2022-03-06T09:43:23Z</time>
      </trkpt>
      <trkpt lat="46.50287" lon="0.39221">
        <ele>101.4</ele>
        <time>2022-03-06T09:43:24Z</time>
      </trkpt>
      <trkpt lat="46.50282" lon="0.39223">
        <ele>101</ele>
        <time>2022-03-06T09:43:25Z</time>
      </trkpt>
      <trkpt lat="46.50274" lon="0.39221">
        <ele>100.2</ele>
        <time>2022-03-06T09:43:27Z</time>
      </trkpt>
      <trkpt lat="46.50268" lon="0.39216">
        <ele>99.6</ele>
        <time>2022-03-06T09:43:29Z</time>
      </trkpt>
      <trkpt lat="46.5026" lon="0.39207">
        <ele>99</ele>
        <time>2022-03-06T09:43:31Z</time>
      </trkpt>
      <trkpt lat="46.50257" lon="0.39202">
        <ele>98.8</ele>
        <time>2022-03-06T09:43:32Z</time>
      </trkpt>
      <trkpt lat="46.50251" lon="0.3919">
        <ele>98.6</ele>
        <time>2022-03-06T09:43:34Z</time>
      </trkpt>
      <trkpt lat="46.50245" lon="0.39176">
        <ele>98.4</ele>
        <time>2022-03-06T09:43:36Z</time>
      </trkpt>
      <trkpt lat="46.50241" lon="0.39171">
        <ele>98.4</ele>
        <time>2022-03-06T09:43:37Z</time>
      </trkpt>
      <trkpt lat="46.50237" lon="0.39166">
        <ele>98.4</ele>
        <time>2022-03-06T09:43:38Z</time>
      </trkpt>
      <trkpt lat="46.50223" lon="0.39157">
        <ele>98.2</ele>
        <time>2022-03-06T09:43:41Z</time>
      </trkpt>
      <trkpt lat="46.50203" lon="0.39149">
        <ele>100.2</ele>
        <time>2022-03-06T09:43:47Z</time>
      </trkpt>
      <trkpt lat="46.50196" lon="0.39147">
        <ele>101.2</ele>
        <time>2022-03-06T09:43:49Z</time>
      </trkpt>
      <trkpt lat="46.50188" lon="0.39143">
        <ele>102</ele>
        <time>2022-03-06T09:43:51Z</time>
      </trkpt>
      <trkpt lat="46.50185" lon="0.39142">
        <ele>102.2</ele>
        <time>2022-03-06T09:43:52Z</time>
      </trkpt>
      <trkpt lat="46.50181" lon="0.39141">
        <ele>102.4</ele>
        <time>2022-03-06T09:43:53Z</time>
      </trkpt>
      <trkpt lat="46.50178" lon="0.39139">
        <ele>102.4</ele>
        <time>2022-03-06T09:43:54Z</time>
      </trkpt>
      <trkpt lat="46.5017" lon="0.39138">
        <ele>102.6</ele>
        <time>2022-03-06T09:43:56Z</time>
      </trkpt>
      <trkpt lat="46.50162" lon="0.39137">
        <ele>102.8</ele>
        <time>2022-03-06T09:43:58Z</time>
      </trkpt>
      <trkpt lat="46.50157" lon="0.39138">
        <ele>102.6</ele>
        <time>2022-03-06T09:43:59Z</time>
      </trkpt>
      <trkpt lat="46.5014" lon="0.3914">
        <ele>102.6</ele>
        <time>2022-03-06T09:44:02Z</time>
      </trkpt>
      <trkpt lat="46.50105" lon="0.39144">
        <ele>102.2</ele>
        <time>2022-03-06T09:44:07Z</time>
      </trkpt>
      <trkpt lat="46.50093" lon="0.39146">
        <ele>102.2</ele>
        <time>2022-03-06T09:44:10Z</time>
      </trkpt>
      <trkpt lat="46.50089" lon="0.39145">
        <ele>102.4</ele>
        <time>2022-03-06T09:44:11Z</time>
      </trkpt>
      <trkpt lat="46.50081" lon="0.39145">
        <ele>103</ele>
        <time>2022-03-06T09:44:13Z</time>
      </trkpt>
      <trkpt lat="46.5007" lon="0.39145">
        <ele>103.6</ele>
        <time>2022-03-06T09:44:16Z</time>
      </trkpt>
      <trkpt lat="46.50066" lon="0.39146">
        <ele>103.8</ele>
        <time>2022-03-06T09:44:17Z</time>
      </trkpt>
      <trkpt lat="46.50058" lon="0.39145">
        <ele>104.2</ele>
        <time>2022-03-06T09:44:19Z</time>
      </trkpt>
      <trkpt lat="46.5005" lon="0.39145">
        <ele>104.8</ele>
        <time>2022-03-06T09:44:21Z</time>
      </trkpt>
      <trkpt lat="46.50046" lon="0.39144">
        <ele>105</ele>
        <time>2022-03-06T09:44:22Z</time>
      </trkpt>
      <trkpt lat="46.50037" lon="0.39142">
        <ele>105.4</ele>
        <time>2022-03-06T09:44:24Z</time>
      </trkpt>
      <trkpt lat="46.50024" lon="0.3914">
        <ele>105.8</ele>
        <time>2022-03-06T09:44:27Z</time>
      </trkpt>
      <trkpt lat="46.50013" lon="0.39137">
        <ele>106.2</ele>
        <time>2022-03-06T09:44:29Z</time>
      </trkpt>
      <trkpt lat="46.50007" lon="0.39136">
        <ele>106.6</ele>
        <time>2022-03-06T09:44:30Z</time>
      </trkpt>
      <trkpt lat="46.49992" lon="0.39136">
        <ele>106.8</ele>
        <time>2022-03-06T09:44:33Z</time>
      </trkpt>
      <trkpt lat="46.49967" lon="0.39137">
        <ele>107.2</ele>
        <time>2022-03-06T09:44:38Z</time>
      </trkpt>
      <trkpt lat="46.49937" lon="0.39137">
        <ele>107.8</ele>
        <time>2022-03-06T09:44:45Z</time>
      </trkpt>
      <trkpt lat="46.49932" lon="0.39137">
        <ele>108</ele>
        <time>2022-03-06T09:44:46Z</time>
      </trkpt>
      <trkpt lat="46.49913" lon="0.39134">
        <ele>108.4</ele>
        <time>2022-03-06T09:44:50Z</time>
      </trkpt>
      <trkpt lat="46.49908" lon="0.39132">
        <ele>108.6</ele>
        <time>2022-03-06T09:44:51Z</time>
      </trkpt>
      <trkpt lat="46.49884" lon="0.39118">
        <ele>108.6</ele>
        <time>2022-03-06T09:44:56Z</time>
      </trkpt>
      <trkpt lat="46.4986" lon="0.39092">
        <ele>108.2</ele>
        <time>2022-03-06T09:45:03Z</time>
      </trkpt>
      <trkpt lat="46.49846" lon="0.39068">
        <ele>108.2</ele>
        <time>2022-03-06T09:45:09Z</time>
      </trkpt>
      <trkpt lat="46.4984" lon="0.39054">
        <ele>108.6</ele>
        <time>2022-03-06T09:45:12Z</time>
      </trkpt>
      <trkpt lat="46.49836" lon="0.39044">
        <ele>108.8</ele>
        <time>2022-03-06T09:45:14Z</time>
      </trkpt>
      <trkpt lat="46.49834" lon="0.39039">
        <ele>108.8</ele>
        <time>2022-03-06T09:45:15Z</time>
      </trkpt>
      <trkpt lat="46.4983" lon="0.39029">
        <ele>108.8</ele>
        <time>2022-03-06T09:45:17Z</time>
      </trkpt>
      <trkpt lat="46.49822" lon="0.39012">
        <ele>108.8</ele>
        <time>2022-03-06T09:45:20Z</time>
      </trkpt>
      <trkpt lat="46.4982" lon="0.39008">
        <ele>108.8</ele>
        <time>2022-03-06T09:45:21Z</time>
      </trkpt>
      <trkpt lat="46.498" lon="0.38973">
        <ele>108.8</ele>
        <time>2022-03-06T09:45:27Z</time>
      </trkpt>
      <trkpt lat="46.4979" lon="0.38946">
        <ele>108.8</ele>
        <time>2022-03-06T09:45:31Z</time>
      </trkpt>
      <trkpt lat="46.49783" lon="0.38932">
        <ele>108.6</ele>
        <time>2022-03-06T09:45:33Z</time>
      </trkpt>
      <trkpt lat="46.49779" lon="0.38924">
        <ele>108.6</ele>
        <time>2022-03-06T09:45:34Z</time>
      </trkpt>
      <trkpt lat="46.49774" lon="0.38909">
        <ele>108.4</ele>
        <time>2022-03-06T09:45:36Z</time>
      </trkpt>
      <trkpt lat="46.49771" lon="0.38895">
        <ele>108.4</ele>
        <time>2022-03-06T09:45:38Z</time>
      </trkpt>
      <trkpt lat="46.49769" lon="0.38882">
        <ele>108.4</ele>
        <time>2022-03-06T09:45:40Z</time>
      </trkpt>
      <trkpt lat="46.49761" lon="0.38857">
        <ele>109.2</ele>
        <time>2022-03-06T09:45:44Z</time>
      </trkpt>
      <trkpt lat="46.49752" lon="0.38833">
        <ele>109.6</ele>
        <time>2022-03-06T09:45:48Z</time>
      </trkpt>
      <trkpt lat="46.49749" lon="0.38821">
        <ele>109.8</ele>
        <time>2022-03-06T09:45:50Z</time>
      </trkpt>
      <trkpt lat="46.49747" lon="0.38816">
        <ele>109.8</ele>
        <time>2022-03-06T09:45:51Z</time>
      </trkpt>
      <trkpt lat="46.49741" lon="0.38797">
        <ele>110</ele>
        <time>2022-03-06T09:45:55Z</time>
      </trkpt>
      <trkpt lat="46.49736" lon="0.38786">
        <ele>110</ele>
        <time>2022-03-06T09:45:58Z</time>
      </trkpt>
      <trkpt lat="46.49734" lon="0.38781">
        <ele>110</ele>
        <time>2022-03-06T09:46:00Z</time>
      </trkpt>
      <trkpt lat="46.49734" lon="0.38778">
        <ele>110.2</ele>
        <time>2022-03-06T09:46:02Z</time>
      </trkpt>
      <trkpt lat="46.49734" lon="0.38776">
        <ele>110.2</ele>
        <time>2022-03-06T09:46:04Z</time>
      </trkpt>
      <trkpt lat="46.4973" lon="0.38763">
        <ele>110.2</ele>
        <time>2022-03-06T09:46:10Z</time>
      </trkpt>
      <trkpt lat="46.49726" lon="0.38741">
        <ele>110.2</ele>
        <time>2022-03-06T09:46:16Z</time>
      </trkpt>
      <trkpt lat="46.49719" lon="0.38718">
        <ele>111</ele>
        <time>2022-03-06T09:46:22Z</time>
      </trkpt>
      <trkpt lat="46.49717" lon="0.38705">
        <ele>111.2</ele>
        <time>2022-03-06T09:46:25Z</time>
      </trkpt>
      <trkpt lat="46.49712" lon="0.38686">
        <ele>111.2</ele>
        <time>2022-03-06T09:46:30Z</time>
      </trkpt>
      <trkpt lat="46.49706" lon="0.38668">
        <ele>112</ele>
        <time>2022-03-06T09:46:35Z</time>
      </trkpt>
      <trkpt lat="46.49705" lon="0.38664">
        <ele>112.4</ele>
        <time>2022-03-06T09:46:36Z</time>
      </trkpt>
      <trkpt lat="46.497" lon="0.38645">
        <ele>113</ele>
        <time>2022-03-06T09:46:41Z</time>
      </trkpt>
      <trkpt lat="46.49698" lon="0.38634">
        <ele>113.4</ele>
        <time>2022-03-06T09:46:44Z</time>
      </trkpt>
      <trkpt lat="46.49696" lon="0.38622">
        <ele>113.8</ele>
        <time>2022-03-06T09:46:47Z</time>
      </trkpt>
      <trkpt lat="46.49688" lon="0.38589">
        <ele>114.4</ele>
        <time>2022-03-06T09:46:54Z</time>
      </trkpt>
      <trkpt lat="46.49687" lon="0.38585">
        <ele>114.4</ele>
        <time>2022-03-06T09:46:55Z</time>
      </trkpt>
      <trkpt lat="46.49684" lon="0.38564">
        <ele>115.4</ele>
        <time>2022-03-06T09:47:00Z</time>
      </trkpt>
      <trkpt lat="46.49683" lon="0.38561">
        <ele>115.6</ele>
        <time>2022-03-06T09:47:01Z</time>
      </trkpt>
      <trkpt lat="46.4968" lon="0.38542">
        <ele>116.6</ele>
        <time>2022-03-06T09:47:06Z</time>
      </trkpt>
      <trkpt lat="46.49677" lon="0.3853">
        <ele>116.8</ele>
        <time>2022-03-06T09:47:08Z</time>
      </trkpt>
      <trkpt lat="46.49674" lon="0.38514">
        <ele>117.8</ele>
        <time>2022-03-06T09:47:11Z</time>
      </trkpt>
      <trkpt lat="46.49669" lon="0.38494">
        <ele>118.4</ele>
        <time>2022-03-06T09:47:15Z</time>
      </trkpt>
      <trkpt lat="46.49663" lon="0.38479">
        <ele>118.4</ele>
        <time>2022-03-06T09:47:20Z</time>
      </trkpt>
      <trkpt lat="46.49668" lon="0.38477">
        <ele>118.8</ele>
        <time>2022-03-06T09:47:24Z</time>
      </trkpt>
      <trkpt lat="46.49669" lon="0.38478">
        <ele>119</ele>
        <time>2022-03-06T09:47:25Z</time>
      </trkpt>
      <trkpt lat="46.49674" lon="0.38477">
        <ele>119</ele>
        <time>2022-03-06T09:47:30Z</time>
      </trkpt>
      <trkpt lat="46.49674" lon="0.38472">
        <ele>118.4</ele>
        <time>2022-03-06T09:47:42Z</time>
      </trkpt>
      <trkpt lat="46.49674" lon="0.38473">
        <ele>118.4</ele>
        <time>2022-03-06T09:48:00Z</time>
      </trkpt>
      <trkpt lat="46.49674" lon="0.38474">
        <ele>118.4</ele>
        <time>2022-03-06T09:48:08Z</time>
      </trkpt>
      <trkpt lat="46.49675" lon="0.38474">
        <ele>118.4</ele>
        <time>2022-03-06T09:48:18Z</time>
      </trkpt>
      <trkpt lat="46.49675" lon="0.38474">
        <ele>118.4</ele>
        <time>2022-03-06T09:48:35Z</time>
      </trkpt>
      <trkpt lat="46.49676" lon="0.38473">
        <ele>118.4</ele>
        <time>2022-03-06T09:48:55Z</time>
      </trkpt>
      <trkpt lat="46.49676" lon="0.38472">
        <ele>118.4</ele>
        <time>2022-03-06T09:49:12Z</time>
      </trkpt>
      <trkpt lat="46.49676" lon="0.38473">
        <ele>118.4</ele>
        <time>2022-03-06T09:49:23Z</time>
      </trkpt>
      <trkpt lat="46.49683" lon="0.38471">
        <ele>117.6</ele>
        <time>2022-03-06T09:53:57Z</time>
      </trkpt>
      <trkpt lat="46.49683" lon="0.38473">
        <ele>117.6</ele>
        <time>2022-03-06T09:54:04Z</time>
      </trkpt>
      <trkpt lat="46.49684" lon="0.38475">
        <ele>117.6</ele>
        <time>2022-03-06T09:54:06Z</time>
      </trkpt>
      <trkpt lat="46.49693" lon="0.38479">
        <ele>117.6</ele>
        <time>2022-03-06T09:54:11Z</time>
      </trkpt>
      <trkpt lat="46.49694" lon="0.38481">
        <ele>117.4</ele>
        <time>2022-03-06T09:54:16Z</time>
      </trkpt>
      <trkpt lat="46.49706" lon="0.38485">
        <ele>118.6</ele>
        <time>2022-03-06T09:54:24Z</time>
      </trkpt>
      <trkpt lat="46.49724" lon="0.38485">
        <ele>119.6</ele>
        <time>2022-03-06T09:54:31Z</time>
      </trkpt>
      <trkpt lat="46.49729" lon="0.38485">
        <ele>120</ele>
        <time>2022-03-06T09:54:33Z</time>
      </trkpt>
      <trkpt lat="46.49733" lon="0.38487">
        <ele>120.2</ele>
        <time>2022-03-06T09:54:35Z</time>
      </trkpt>
      <trkpt lat="46.49739" lon="0.38491">
        <ele>120.6</ele>
        <time>2022-03-06T09:54:37Z</time>
      </trkpt>
      <trkpt lat="46.49741" lon="0.38493">
        <ele>120.6</ele>
        <time>2022-03-06T09:54:38Z</time>
      </trkpt>
      <trkpt lat="46.49745" lon="0.38493">
        <ele>120.8</ele>
        <time>2022-03-06T09:54:39Z</time>
      </trkpt>
      <trkpt lat="46.49762" lon="0.38501">
        <ele>121.2</ele>
        <time>2022-03-06T09:54:44Z</time>
      </trkpt>
      <trkpt lat="46.49767" lon="0.38502">
        <ele>121.2</ele>
        <time>2022-03-06T09:54:45Z</time>
      </trkpt>
      <trkpt lat="46.49773" lon="0.38505">
        <ele>121.2</ele>
        <time>2022-03-06T09:54:47Z</time>
      </trkpt>
      <trkpt lat="46.49781" lon="0.38507">
        <ele>121.4</ele>
        <time>2022-03-06T09:54:49Z</time>
      </trkpt>
      <trkpt lat="46.49785" lon="0.38508">
        <ele>121.4</ele>
        <time>2022-03-06T09:54:50Z</time>
      </trkpt>
      <trkpt lat="46.49801" lon="0.38511">
        <ele>121.8</ele>
        <time>2022-03-06T09:54:54Z</time>
      </trkpt>
      <trkpt lat="46.49808" lon="0.38513">
        <ele>121.8</ele>
        <time>2022-03-06T09:54:56Z</time>
      </trkpt>
      <trkpt lat="46.49817" lon="0.38515">
        <ele>121.8</ele>
        <time>2022-03-06T09:54:58Z</time>
      </trkpt>
      <trkpt lat="46.49842" lon="0.38519">
        <ele>121.8</ele>
        <time>2022-03-06T09:55:04Z</time>
      </trkpt>
      <trkpt lat="46.49846" lon="0.3852">
        <ele>121.8</ele>
        <time>2022-03-06T09:55:05Z</time>
      </trkpt>
      <trkpt lat="46.4985" lon="0.38521">
        <ele>121.8</ele>
        <time>2022-03-06T09:55:06Z</time>
      </trkpt>
      <trkpt lat="46.49859" lon="0.38523">
        <ele>121.8</ele>
        <time>2022-03-06T09:55:08Z</time>
      </trkpt>
      <trkpt lat="46.49875" lon="0.38527">
        <ele>121.4</ele>
        <time>2022-03-06T09:55:11Z</time>
      </trkpt>
      <trkpt lat="46.4989" lon="0.3853">
        <ele>121</ele>
        <time>2022-03-06T09:55:14Z</time>
      </trkpt>
      <trkpt lat="46.49895" lon="0.3853">
        <ele>120.6</ele>
        <time>2022-03-06T09:55:15Z</time>
      </trkpt>
      <trkpt lat="46.49914" lon="0.38531">
        <ele>120.8</ele>
        <time>2022-03-06T09:55:18Z</time>
      </trkpt>
      <trkpt lat="46.49942" lon="0.38529">
        <ele>121</ele>
        <time>2022-03-06T09:55:23Z</time>
      </trkpt>
      <trkpt lat="46.49962" lon="0.38536">
        <ele>120.4</ele>
        <time>2022-03-06T09:55:28Z</time>
      </trkpt>
      <trkpt lat="46.49968" lon="0.38537">
        <ele>120.2</ele>
        <time>2022-03-06T09:55:29Z</time>
      </trkpt>
      <trkpt lat="46.49977" lon="0.38538">
        <ele>120.2</ele>
        <time>2022-03-06T09:55:31Z</time>
      </trkpt>
      <trkpt lat="46.50004" lon="0.38541">
        <ele>120.4</ele>
        <time>2022-03-06T09:55:36Z</time>
      </trkpt>
      <trkpt lat="46.50017" lon="0.38541">
        <ele>120.2</ele>
        <time>2022-03-06T09:55:38Z</time>
      </trkpt>
      <trkpt lat="46.50031" lon="0.38539">
        <ele>120</ele>
        <time>2022-03-06T09:55:40Z</time>
      </trkpt>
      <trkpt lat="46.50037" lon="0.38537">
        <ele>119.8</ele>
        <time>2022-03-06T09:55:41Z</time>
      </trkpt>
      <trkpt lat="46.50042" lon="0.38533">
        <ele>119.8</ele>
        <time>2022-03-06T09:55:42Z</time>
      </trkpt>
      <trkpt lat="46.50053" lon="0.38524">
        <ele>119.8</ele>
        <time>2022-03-06T09:55:44Z</time>
      </trkpt>
      <trkpt lat="46.50058" lon="0.38519">
        <ele>119.6</ele>
        <time>2022-03-06T09:55:45Z</time>
      </trkpt>
      <trkpt lat="46.50061" lon="0.38514">
        <ele>119.6</ele>
        <time>2022-03-06T09:55:46Z</time>
      </trkpt>
      <trkpt lat="46.50065" lon="0.38505">
        <ele>119.6</ele>
        <time>2022-03-06T09:55:48Z</time>
      </trkpt>
      <trkpt lat="46.50069" lon="0.38497">
        <ele>119.6</ele>
        <time>2022-03-06T09:55:50Z</time>
      </trkpt>
      <trkpt lat="46.50069" lon="0.38486">
        <ele>119.8</ele>
        <time>2022-03-06T09:55:52Z</time>
      </trkpt>
      <trkpt lat="46.50067" lon="0.38483">
        <ele>120</ele>
        <time>2022-03-06T09:55:53Z</time>
      </trkpt>
      <trkpt lat="46.50058" lon="0.38453">
        <ele>120.6</ele>
        <time>2022-03-06T09:55:59Z</time>
      </trkpt>
      <trkpt lat="46.50055" lon="0.38449">
        <ele>120.6</ele>
        <time>2022-03-06T09:56:00Z</time>
      </trkpt>
      <trkpt lat="46.5005" lon="0.38438">
        <ele>121</ele>
        <time>2022-03-06T09:56:03Z</time>
      </trkpt>
      <trkpt lat="46.50049" lon="0.38434">
        <ele>121.2</ele>
        <time>2022-03-06T09:56:04Z</time>
      </trkpt>
      <trkpt lat="46.50043" lon="0.38417">
        <ele>121.8</ele>
        <time>2022-03-06T09:56:08Z</time>
      </trkpt>
      <trkpt lat="46.50038" lon="0.38404">
        <ele>122.2</ele>
        <time>2022-03-06T09:56:11Z</time>
      </trkpt>
      <trkpt lat="46.50028" lon="0.38381">
        <ele>122.8</ele>
        <time>2022-03-06T09:56:17Z</time>
      </trkpt>
      <trkpt lat="46.50025" lon="0.38368">
        <ele>122.8</ele>
        <time>2022-03-06T09:56:20Z</time>
      </trkpt>
      <trkpt lat="46.50019" lon="0.38354">
        <ele>123.2</ele>
        <time>2022-03-06T09:56:23Z</time>
      </trkpt>
      <trkpt lat="46.50001" lon="0.38328">
        <ele>123.8</ele>
        <time>2022-03-06T09:56:28Z</time>
      </trkpt>
      <trkpt lat="46.49994" lon="0.38318">
        <ele>123.8</ele>
        <time>2022-03-06T09:56:30Z</time>
      </trkpt>
      <trkpt lat="46.49983" lon="0.38304">
        <ele>124</ele>
        <time>2022-03-06T09:56:33Z</time>
      </trkpt>
      <trkpt lat="46.49976" lon="0.38294">
        <ele>124</ele>
        <time>2022-03-06T09:56:35Z</time>
      </trkpt>
      <trkpt lat="46.4997" lon="0.38285">
        <ele>124.4</ele>
        <time>2022-03-06T09:56:37Z</time>
      </trkpt>
      <trkpt lat="46.49962" lon="0.3827">
        <ele>124.8</ele>
        <time>2022-03-06T09:56:40Z</time>
      </trkpt>
      <trkpt lat="46.49959" lon="0.38264">
        <ele>125</ele>
        <time>2022-03-06T09:56:41Z</time>
      </trkpt>
      <trkpt lat="46.49942" lon="0.38236">
        <ele>125</ele>
        <time>2022-03-06T09:56:47Z</time>
      </trkpt>
      <trkpt lat="46.4993" lon="0.38221">
        <ele>125.2</ele>
        <time>2022-03-06T09:56:50Z</time>
      </trkpt>
      <trkpt lat="46.49927" lon="0.38215">
        <ele>125.2</ele>
        <time>2022-03-06T09:56:51Z</time>
      </trkpt>
      <trkpt lat="46.49922" lon="0.38209">
        <ele>125.4</ele>
        <time>2022-03-06T09:56:52Z</time>
      </trkpt>
      <trkpt lat="46.49898" lon="0.38169">
        <ele>125.2</ele>
        <time>2022-03-06T09:56:58Z</time>
      </trkpt>
      <trkpt lat="46.49889" lon="0.38163">
        <ele>125.2</ele>
        <time>2022-03-06T09:57:00Z</time>
      </trkpt>
      <trkpt lat="46.49886" lon="0.38166">
        <ele>125.2</ele>
        <time>2022-03-06T09:57:01Z</time>
      </trkpt>
      <trkpt lat="46.4986" lon="0.38189">
        <ele>125.6</ele>
        <time>2022-03-06T09:57:07Z</time>
      </trkpt>
      <trkpt lat="46.4984" lon="0.38213">
        <ele>125.8</ele>
        <time>2022-03-06T09:57:12Z</time>
      </trkpt>
      <trkpt lat="46.49823" lon="0.38226">
        <ele>125.4</ele>
        <time>2022-03-06T09:57:16Z</time>
      </trkpt>
      <trkpt lat="46.49819" lon="0.38229">
        <ele>125.2</ele>
        <time>2022-03-06T09:57:17Z</time>
      </trkpt>
      <trkpt lat="46.49801" lon="0.38246">
        <ele>124.8</ele>
        <time>2022-03-06T09:57:21Z</time>
      </trkpt>
      <trkpt lat="46.49773" lon="0.38272">
        <ele>123.8</ele>
        <time>2022-03-06T09:57:27Z</time>
      </trkpt>
      <trkpt lat="46.49748" lon="0.38293">
        <ele>123.2</ele>
        <time>2022-03-06T09:57:33Z</time>
      </trkpt>
      <trkpt lat="46.49744" lon="0.38296">
        <ele>123.2</ele>
        <time>2022-03-06T09:57:34Z</time>
      </trkpt>
      <trkpt lat="46.49739" lon="0.38298">
        <ele>123.2</ele>
        <time>2022-03-06T09:57:35Z</time>
      </trkpt>
      <trkpt lat="46.49719" lon="0.3831">
        <ele>123.2</ele>
        <time>2022-03-06T09:57:39Z</time>
      </trkpt>
      <trkpt lat="46.4969" lon="0.38324">
        <ele>123</ele>
        <time>2022-03-06T09:57:44Z</time>
      </trkpt>
      <trkpt lat="46.49684" lon="0.38327">
        <ele>122.6</ele>
        <time>2022-03-06T09:57:45Z</time>
      </trkpt>
      <trkpt lat="46.49663" lon="0.38339">
        <ele>121.8</ele>
        <time>2022-03-06T09:57:49Z</time>
      </trkpt>
      <trkpt lat="46.49657" lon="0.38346">
        <ele>121.4</ele>
        <time>2022-03-06T09:57:51Z</time>
      </trkpt>
      <trkpt lat="46.49648" lon="0.38356">
        <ele>121.2</ele>
        <time>2022-03-06T09:57:53Z</time>
      </trkpt>
      <trkpt lat="46.49624" lon="0.3837">
        <ele>120.8</ele>
        <time>2022-03-06T09:57:57Z</time>
      </trkpt>
      <trkpt lat="46.49589" lon="0.38379">
        <ele>120.8</ele>
        <time>2022-03-06T09:58:03Z</time>
      </trkpt>
      <trkpt lat="46.49579" lon="0.38379">
        <ele>121</ele>
        <time>2022-03-06T09:58:05Z</time>
      </trkpt>
      <trkpt lat="46.49564" lon="0.38375">
        <ele>121.4</ele>
        <time>2022-03-06T09:58:08Z</time>
      </trkpt>
      <trkpt lat="46.49534" lon="0.38366">
        <ele>122</ele>
        <time>2022-03-06T09:58:15Z</time>
      </trkpt>
      <trkpt lat="46.49519" lon="0.38364">
        <ele>122.2</ele>
        <time>2022-03-06T09:58:18Z</time>
      </trkpt>
      <trkpt lat="46.49491" lon="0.38357">
        <ele>122.6</ele>
        <time>2022-03-06T09:58:24Z</time>
      </trkpt>
      <trkpt lat="46.49487" lon="0.38355">
        <ele>122.6</ele>
        <time>2022-03-06T09:58:25Z</time>
      </trkpt>
      <trkpt lat="46.49484" lon="0.38352">
        <ele>122.8</ele>
        <time>2022-03-06T09:58:26Z</time>
      </trkpt>
      <trkpt lat="46.49475" lon="0.38349">
        <ele>123.2</ele>
        <time>2022-03-06T09:58:28Z</time>
      </trkpt>
      <trkpt lat="46.49465" lon="0.38347">
        <ele>123.6</ele>
        <time>2022-03-06T09:58:30Z</time>
      </trkpt>
      <trkpt lat="46.49461" lon="0.38345">
        <ele>123.6</ele>
        <time>2022-03-06T09:58:31Z</time>
      </trkpt>
      <trkpt lat="46.49438" lon="0.38338">
        <ele>123.8</ele>
        <time>2022-03-06T09:58:36Z</time>
      </trkpt>
      <trkpt lat="46.49409" lon="0.38329">
        <ele>123.8</ele>
        <time>2022-03-06T09:58:42Z</time>
      </trkpt>
      <trkpt lat="46.49379" lon="0.38313">
        <ele>124</ele>
        <time>2022-03-06T09:58:49Z</time>
      </trkpt>
      <trkpt lat="46.49365" lon="0.38308">
        <ele>124.2</ele>
        <time>2022-03-06T09:58:52Z</time>
      </trkpt>
      <trkpt lat="46.49356" lon="0.38304">
        <ele>124.2</ele>
        <time>2022-03-06T09:58:54Z</time>
      </trkpt>
      <trkpt lat="46.49345" lon="0.38301">
        <ele>124.2</ele>
        <time>2022-03-06T09:58:56Z</time>
      </trkpt>
      <trkpt lat="46.49334" lon="0.38301">
        <ele>123.8</ele>
        <time>2022-03-06T09:58:58Z</time>
      </trkpt>
      <trkpt lat="46.49314" lon="0.38303">
        <ele>123.6</ele>
        <time>2022-03-06T09:59:02Z</time>
      </trkpt>
      <trkpt lat="46.49306" lon="0.38302">
        <ele>123.6</ele>
        <time>2022-03-06T09:59:04Z</time>
      </trkpt>
      <trkpt lat="46.49302" lon="0.38297">
        <ele>123.6</ele>
        <time>2022-03-06T09:59:06Z</time>
      </trkpt>
      <trkpt lat="46.49302" lon="0.38294">
        <ele>123.6</ele>
        <time>2022-03-06T09:59:07Z</time>
      </trkpt>
      <trkpt lat="46.49307" lon="0.38277">
        <ele>124</ele>
        <time>2022-03-06T09:59:11Z</time>
      </trkpt>
      <trkpt lat="46.49313" lon="0.38258">
        <ele>124</ele>
        <time>2022-03-06T09:59:14Z</time>
      </trkpt>
      <trkpt lat="46.49315" lon="0.38246">
        <ele>124.2</ele>
        <time>2022-03-06T09:59:16Z</time>
      </trkpt>
      <trkpt lat="46.49329" lon="0.382">
        <ele>124.4</ele>
        <time>2022-03-06T09:59:23Z</time>
      </trkpt>
      <trkpt lat="46.49342" lon="0.38156">
        <ele>124.4</ele>
        <time>2022-03-06T09:59:29Z</time>
      </trkpt>
      <trkpt lat="46.49361" lon="0.38093">
        <ele>124.4</ele>
        <time>2022-03-06T09:59:37Z</time>
      </trkpt>
      <trkpt lat="46.49366" lon="0.38077">
        <ele>124.4</ele>
        <time>2022-03-06T09:59:39Z</time>
      </trkpt>
      <trkpt lat="46.49377" lon="0.38056">
        <ele>124.4</ele>
        <time>2022-03-06T09:59:42Z</time>
      </trkpt>
      <trkpt lat="46.49387" lon="0.38037">
        <ele>124.6</ele>
        <time>2022-03-06T09:59:45Z</time>
      </trkpt>
      <trkpt lat="46.49398" lon="0.38019">
        <ele>125</ele>
        <time>2022-03-06T09:59:48Z</time>
      </trkpt>
      <trkpt lat="46.49434" lon="0.37965">
        <ele>125.4</ele>
        <time>2022-03-06T09:59:57Z</time>
      </trkpt>
      <trkpt lat="46.49448" lon="0.37942">
        <ele>125.6</ele>
        <time>2022-03-06T10:00:01Z</time>
      </trkpt>
      <trkpt lat="46.49454" lon="0.37929">
        <ele>125.8</ele>
        <time>2022-03-06T10:00:03Z</time>
      </trkpt>
      <trkpt lat="46.4946" lon="0.37908">
        <ele>126</ele>
        <time>2022-03-06T10:00:06Z</time>
      </trkpt>
      <trkpt lat="46.49464" lon="0.37894">
        <ele>126</ele>
        <time>2022-03-06T10:00:08Z</time>
      </trkpt>
      <trkpt lat="46.49473" lon="0.3784">
        <ele>126.2</ele>
        <time>2022-03-06T10:00:15Z</time>
      </trkpt>
      <trkpt lat="46.49481" lon="0.37782">
        <ele>126.2</ele>
        <time>2022-03-06T10:00:22Z</time>
      </trkpt>
      <trkpt lat="46.49488" lon="0.37744">
        <ele>126.8</ele>
        <time>2022-03-06T10:00:27Z</time>
      </trkpt>
      <trkpt lat="46.49492" lon="0.37723">
        <ele>127</ele>
        <time>2022-03-06T10:00:30Z</time>
      </trkpt>
      <trkpt lat="46.49503" lon="0.3769">
        <ele>127</ele>
        <time>2022-03-06T10:00:35Z</time>
      </trkpt>
      <trkpt lat="46.49527" lon="0.37646">
        <ele>127.4</ele>
        <time>2022-03-06T10:00:41Z</time>
      </trkpt>
      <trkpt lat="46.49556" lon="0.37589">
        <ele>127.6</ele>
        <time>2022-03-06T10:00:49Z</time>
      </trkpt>
      <trkpt lat="46.49563" lon="0.37575">
        <ele>127.8</ele>
        <time>2022-03-06T10:00:51Z</time>
      </trkpt>
      <trkpt lat="46.49575" lon="0.3755">
        <ele>127.8</ele>
        <time>2022-03-06T10:00:55Z</time>
      </trkpt>
      <trkpt lat="46.49579" lon="0.37546">
        <ele>127.8</ele>
        <time>2022-03-06T10:00:56Z</time>
      </trkpt>
      <trkpt lat="46.49586" lon="0.37545">
        <ele>128</ele>
        <time>2022-03-06T10:00:58Z</time>
      </trkpt>
      <trkpt lat="46.49592" lon="0.3755">
        <ele>128</ele>
        <time>2022-03-06T10:01:00Z</time>
      </trkpt>
      <trkpt lat="46.49614" lon="0.37568">
        <ele>128.2</ele>
        <time>2022-03-06T10:01:06Z</time>
      </trkpt>
      <trkpt lat="46.49635" lon="0.37579">
        <ele>128.4</ele>
        <time>2022-03-06T10:01:11Z</time>
      </trkpt>
      <trkpt lat="46.49663" lon="0.37598">
        <ele>128.8</ele>
        <time>2022-03-06T10:01:18Z</time>
      </trkpt>
      <trkpt lat="46.49668" lon="0.37603">
        <ele>128.8</ele>
        <time>2022-03-06T10:01:19Z</time>
      </trkpt>
      <trkpt lat="46.49684" lon="0.37622">
        <ele>128.6</ele>
        <time>2022-03-06T10:01:23Z</time>
      </trkpt>
      <trkpt lat="46.49712" lon="0.37649">
        <ele>128.4</ele>
        <time>2022-03-06T10:01:29Z</time>
      </trkpt>
      <trkpt lat="46.49723" lon="0.37665">
        <ele>128.8</ele>
        <time>2022-03-06T10:01:32Z</time>
      </trkpt>
      <trkpt lat="46.4973" lon="0.37677">
        <ele>128.6</ele>
        <time>2022-03-06T10:01:34Z</time>
      </trkpt>
      <trkpt lat="46.49755" lon="0.37726">
        <ele>128.4</ele>
        <time>2022-03-06T10:01:41Z</time>
      </trkpt>
      <trkpt lat="46.49768" lon="0.37746">
        <ele>128.4</ele>
        <time>2022-03-06T10:01:44Z</time>
      </trkpt>
      <trkpt lat="46.49781" lon="0.37763">
        <ele>128.2</ele>
        <time>2022-03-06T10:01:47Z</time>
      </trkpt>
      <trkpt lat="46.49785" lon="0.37767">
        <ele>128.2</ele>
        <time>2022-03-06T10:01:48Z</time>
      </trkpt>
      <trkpt lat="46.49791" lon="0.37768">
        <ele>128.2</ele>
        <time>2022-03-06T10:01:50Z</time>
      </trkpt>
      <trkpt lat="46.498" lon="0.37755">
        <ele>128.2</ele>
        <time>2022-03-06T10:01:54Z</time>
      </trkpt>
      <trkpt lat="46.49807" lon="0.37745">
        <ele>128.2</ele>
        <time>2022-03-06T10:01:57Z</time>
      </trkpt>
      <trkpt lat="46.4982" lon="0.37727">
        <ele>127.8</ele>
        <time>2022-03-06T10:02:01Z</time>
      </trkpt>
      <trkpt lat="46.49842" lon="0.37697">
        <ele>127.8</ele>
        <time>2022-03-06T10:02:06Z</time>
      </trkpt>
      <trkpt lat="46.49847" lon="0.37691">
        <ele>127.8</ele>
        <time>2022-03-06T10:02:07Z</time>
      </trkpt>
      <trkpt lat="46.49875" lon="0.3765">
        <ele>128</ele>
        <time>2022-03-06T10:02:13Z</time>
      </trkpt>
      <trkpt lat="46.49899" lon="0.3761">
        <ele>128.2</ele>
        <time>2022-03-06T10:02:19Z</time>
      </trkpt>
      <trkpt lat="46.49919" lon="0.37578">
        <ele>128.2</ele>
        <time>2022-03-06T10:02:24Z</time>
      </trkpt>
      <trkpt lat="46.49949" lon="0.37528">
        <ele>127.8</ele>
        <time>2022-03-06T10:02:32Z</time>
      </trkpt>
      <trkpt lat="46.4997" lon="0.37493">
        <ele>127.4</ele>
        <time>2022-03-06T10:02:38Z</time>
      </trkpt>
      <trkpt lat="46.49991" lon="0.37455">
        <ele>127</ele>
        <time>2022-03-06T10:02:44Z</time>
      </trkpt>
      <trkpt lat="46.50004" lon="0.37429">
        <ele>127</ele>
        <time>2022-03-06T10:02:48Z</time>
      </trkpt>
      <trkpt lat="46.5001" lon="0.37416">
        <ele>126.8</ele>
        <time>2022-03-06T10:02:50Z</time>
      </trkpt>
      <trkpt lat="46.50013" lon="0.37411">
        <ele>126.8</ele>
        <time>2022-03-06T10:02:51Z</time>
      </trkpt>
      <trkpt lat="46.50017" lon="0.37406">
        <ele>126.8</ele>
        <time>2022-03-06T10:02:52Z</time>
      </trkpt>
      <trkpt lat="46.50019" lon="0.37401">
        <ele>126.6</ele>
        <time>2022-03-06T10:02:53Z</time>
      </trkpt>
      <trkpt lat="46.50019" lon="0.37396">
        <ele>126.4</ele>
        <time>2022-03-06T10:02:54Z</time>
      </trkpt>
      <trkpt lat="46.50018" lon="0.37392">
        <ele>126.6</ele>
        <time>2022-03-06T10:02:55Z</time>
      </trkpt>
      <trkpt lat="46.50013" lon="0.37385">
        <ele>126.2</ele>
        <time>2022-03-06T10:02:57Z</time>
      </trkpt>
      <trkpt lat="46.49994" lon="0.37364">
        <ele>126.4</ele>
        <time>2022-03-06T10:03:02Z</time>
      </trkpt>
      <trkpt lat="46.49969" lon="0.37336">
        <ele>126.4</ele>
        <time>2022-03-06T10:03:08Z</time>
      </trkpt>
      <trkpt lat="46.49945" lon="0.3731">
        <ele>126.8</ele>
        <time>2022-03-06T10:03:15Z</time>
      </trkpt>
      <trkpt lat="46.49924" lon="0.37285">
        <ele>126.8</ele>
        <time>2022-03-06T10:03:21Z</time>
      </trkpt>
      <trkpt lat="46.49904" lon="0.37262">
        <ele>126.8</ele>
        <time>2022-03-06T10:03:27Z</time>
      </trkpt>
      <trkpt lat="46.49882" lon="0.37241">
        <ele>127.2</ele>
        <time>2022-03-06T10:03:32Z</time>
      </trkpt>
      <trkpt lat="46.49879" lon="0.37237">
        <ele>127.2</ele>
        <time>2022-03-06T10:03:33Z</time>
      </trkpt>
      <trkpt lat="46.49868" lon="0.37225">
        <ele>127</ele>
        <time>2022-03-06T10:03:37Z</time>
      </trkpt>
      <trkpt lat="46.49868" lon="0.37219">
        <ele>127</ele>
        <time>2022-03-06T10:03:40Z</time>
      </trkpt>
      <trkpt lat="46.4987" lon="0.37214">
        <ele>127.4</ele>
        <time>2022-03-06T10:03:42Z</time>
      </trkpt>
      <trkpt lat="46.49873" lon="0.37208">
        <ele>127.4</ele>
        <time>2022-03-06T10:03:44Z</time>
      </trkpt>
      <trkpt lat="46.49875" lon="0.37203">
        <ele>127.6</ele>
        <time>2022-03-06T10:03:45Z</time>
      </trkpt>
      <trkpt lat="46.49876" lon="0.37199">
        <ele>127.6</ele>
        <time>2022-03-06T10:03:46Z</time>
      </trkpt>
      <trkpt lat="46.49878" lon="0.3719">
        <ele>127.6</ele>
        <time>2022-03-06T10:03:48Z</time>
      </trkpt>
      <trkpt lat="46.49881" lon="0.37184">
        <ele>127.2</ele>
        <time>2022-03-06T10:03:50Z</time>
      </trkpt>
      <trkpt lat="46.49882" lon="0.3718">
        <ele>127.4</ele>
        <time>2022-03-06T10:03:51Z</time>
      </trkpt>
      <trkpt lat="46.49883" lon="0.37174">
        <ele>127.4</ele>
        <time>2022-03-06T10:03:53Z</time>
      </trkpt>
      <trkpt lat="46.49885" lon="0.37164">
        <ele>127.4</ele>
        <time>2022-03-06T10:03:55Z</time>
      </trkpt>
      <trkpt lat="46.4989" lon="0.37152">
        <ele>127.6</ele>
        <time>2022-03-06T10:03:57Z</time>
      </trkpt>
      <trkpt lat="46.49891" lon="0.37146">
        <ele>127.8</ele>
        <time>2022-03-06T10:03:58Z</time>
      </trkpt>
      <trkpt lat="46.49894" lon="0.37141">
        <ele>127.8</ele>
        <time>2022-03-06T10:03:59Z</time>
      </trkpt>
      <trkpt lat="46.49895" lon="0.37138">
        <ele>127.6</ele>
        <time>2022-03-06T10:04:00Z</time>
      </trkpt>
      <trkpt lat="46.49898" lon="0.37136">
        <ele>127.2</ele>
        <time>2022-03-06T10:04:01Z</time>
      </trkpt>
      <trkpt lat="46.49904" lon="0.3713">
        <ele>126.8</ele>
        <time>2022-03-06T10:04:04Z</time>
      </trkpt>
      <trkpt lat="46.49912" lon="0.37116">
        <ele>126.6</ele>
        <time>2022-03-06T10:04:07Z</time>
      </trkpt>
      <trkpt lat="46.49913" lon="0.37111">
        <ele>126.6</ele>
        <time>2022-03-06T10:04:08Z</time>
      </trkpt>
      <trkpt lat="46.49915" lon="0.37107">
        <ele>126.4</ele>
        <time>2022-03-06T10:04:09Z</time>
      </trkpt>
      <trkpt lat="46.49924" lon="0.37096">
        <ele>126</ele>
        <time>2022-03-06T10:04:14Z</time>
      </trkpt>
      <trkpt lat="46.49927" lon="0.37092">
        <ele>126.2</ele>
        <time>2022-03-06T10:04:17Z</time>
      </trkpt>
      <trkpt lat="46.4993" lon="0.3709">
        <ele>126</ele>
        <time>2022-03-06T10:04:19Z</time>
      </trkpt>
      <trkpt lat="46.49931" lon="0.37088">
        <ele>126</ele>
        <time>2022-03-06T10:04:20Z</time>
      </trkpt>
      <trkpt lat="46.49936" lon="0.37083">
        <ele>126</ele>
        <time>2022-03-06T10:04:24Z</time>
      </trkpt>
      <trkpt lat="46.49939" lon="0.3708">
        <ele>126.2</ele>
        <time>2022-03-06T10:04:26Z</time>
      </trkpt>
      <trkpt lat="46.49945" lon="0.37076">
        <ele>126.2</ele>
        <time>2022-03-06T10:04:29Z</time>
      </trkpt>
      <trkpt lat="46.49947" lon="0.37074">
        <ele>126</ele>
        <time>2022-03-06T10:04:30Z</time>
      </trkpt>
      <trkpt lat="46.49964" lon="0.37071">
        <ele>126</ele>
        <time>2022-03-06T10:04:36Z</time>
      </trkpt>
      <trkpt lat="46.49967" lon="0.37071">
        <ele>126</ele>
        <time>2022-03-06T10:04:37Z</time>
      </trkpt>
      <trkpt lat="46.49979" lon="0.3707">
        <ele>125.8</ele>
        <time>2022-03-06T10:04:41Z</time>
      </trkpt>
      <trkpt lat="46.49983" lon="0.37067">
        <ele>125.6</ele>
        <time>2022-03-06T10:04:44Z</time>
      </trkpt>
      <trkpt lat="46.49989" lon="0.37063">
        <ele>125.6</ele>
        <time>2022-03-06T10:04:47Z</time>
      </trkpt>
      <trkpt lat="46.50001" lon="0.37064">
        <ele>125.6</ele>
        <time>2022-03-06T10:04:51Z</time>
      </trkpt>
      <trkpt lat="46.50016" lon="0.37072">
        <ele>125.6</ele>
        <time>2022-03-06T10:04:56Z</time>
      </trkpt>
      <trkpt lat="46.50023" lon="0.37078">
        <ele>125.4</ele>
        <time>2022-03-06T10:04:59Z</time>
      </trkpt>
      <trkpt lat="46.50026" lon="0.37079">
        <ele>125</ele>
        <time>2022-03-06T10:05:00Z</time>
      </trkpt>
      <trkpt lat="46.50038" lon="0.37084">
        <ele>125</ele>
        <time>2022-03-06T10:05:04Z</time>
      </trkpt>
      <trkpt lat="46.50044" lon="0.37089">
        <ele>124.6</ele>
        <time>2022-03-06T10:05:06Z</time>
      </trkpt>
      <trkpt lat="46.50051" lon="0.37095">
        <ele>124.6</ele>
        <time>2022-03-06T10:05:08Z</time>
      </trkpt>
      <trkpt lat="46.50058" lon="0.37101">
        <ele>124.4</ele>
        <time>2022-03-06T10:05:10Z</time>
      </trkpt>
      <trkpt lat="46.50063" lon="0.37103">
        <ele>124.8</ele>
        <time>2022-03-06T10:05:12Z</time>
      </trkpt>
      <trkpt lat="46.50066" lon="0.37104">
        <ele>125</ele>
        <time>2022-03-06T10:05:13Z</time>
      </trkpt>
      <trkpt lat="46.50074" lon="0.37097">
        <ele>125</ele>
        <time>2022-03-06T10:05:16Z</time>
      </trkpt>
      <trkpt lat="46.50093" lon="0.37073">
        <ele>125</ele>
        <time>2022-03-06T10:05:22Z</time>
      </trkpt>
      <trkpt lat="46.50097" lon="0.37069">
        <ele>125</ele>
        <time>2022-03-06T10:05:23Z</time>
      </trkpt>
      <trkpt lat="46.50104" lon="0.37068">
        <ele>125</ele>
        <time>2022-03-06T10:05:25Z</time>
      </trkpt>
      <trkpt lat="46.50126" lon="0.37077">
        <ele>125.2</ele>
        <time>2022-03-06T10:05:29Z</time>
      </trkpt>
      <trkpt lat="46.50167" lon="0.37091">
        <ele>124.8</ele>
        <time>2022-03-06T10:05:36Z</time>
      </trkpt>
      <trkpt lat="46.50172" lon="0.37092">
        <ele>124.6</ele>
        <time>2022-03-06T10:05:37Z</time>
      </trkpt>
      <trkpt lat="46.50177" lon="0.37088">
        <ele>124.4</ele>
        <time>2022-03-06T10:05:39Z</time>
      </trkpt>
      <trkpt lat="46.50177" lon="0.37076">
        <ele>124.4</ele>
        <time>2022-03-06T10:05:43Z</time>
      </trkpt>
      <trkpt lat="46.50178" lon="0.37071">
        <ele>124.4</ele>
        <time>2022-03-06T10:05:44Z</time>
      </trkpt>
      <trkpt lat="46.50177" lon="0.3706">
        <ele>124.8</ele>
        <time>2022-03-06T10:05:47Z</time>
      </trkpt>
      <trkpt lat="46.50176" lon="0.37049">
        <ele>125</ele>
        <time>2022-03-06T10:05:50Z</time>
      </trkpt>
      <trkpt lat="46.50176" lon="0.37044">
        <ele>125.2</ele>
        <time>2022-03-06T10:05:51Z</time>
      </trkpt>
      <trkpt lat="46.50174" lon="0.37026">
        <ele>125.6</ele>
        <time>2022-03-06T10:05:54Z</time>
      </trkpt>
      <trkpt lat="46.5017" lon="0.37">
        <ele>125.8</ele>
        <time>2022-03-06T10:05:58Z</time>
      </trkpt>
      <trkpt lat="46.50164" lon="0.36964">
        <ele>125.8</ele>
        <time>2022-03-06T10:06:03Z</time>
      </trkpt>
      <trkpt lat="46.50163" lon="0.36956">
        <ele>125.8</ele>
        <time>2022-03-06T10:06:04Z</time>
      </trkpt>
      <trkpt lat="46.5016" lon="0.36933">
        <ele>125.8</ele>
        <time>2022-03-06T10:06:07Z</time>
      </trkpt>
      <trkpt lat="46.5016" lon="0.36923">
        <ele>125.8</ele>
        <time>2022-03-06T10:06:09Z</time>
      </trkpt>
      <trkpt lat="46.50161" lon="0.36918">
        <ele>125.8</ele>
        <time>2022-03-06T10:06:10Z</time>
      </trkpt>
      <trkpt lat="46.50165" lon="0.36909">
        <ele>125.8</ele>
        <time>2022-03-06T10:06:12Z</time>
      </trkpt>
      <trkpt lat="46.50171" lon="0.36895">
        <ele>126.2</ele>
        <time>2022-03-06T10:06:16Z</time>
      </trkpt>
      <trkpt lat="46.50174" lon="0.36892">
        <ele>126</ele>
        <time>2022-03-06T10:06:17Z</time>
      </trkpt>
      <trkpt lat="46.50183" lon="0.36882">
        <ele>126.2</ele>
        <time>2022-03-06T10:06:20Z</time>
      </trkpt>
      <trkpt lat="46.50189" lon="0.36879">
        <ele>126</ele>
        <time>2022-03-06T10:06:22Z</time>
      </trkpt>
      <trkpt lat="46.50198" lon="0.36873">
        <ele>125.6</ele>
        <time>2022-03-06T10:06:25Z</time>
      </trkpt>
      <trkpt lat="46.50203" lon="0.36868">
        <ele>125.4</ele>
        <time>2022-03-06T10:06:27Z</time>
      </trkpt>
      <trkpt lat="46.50206" lon="0.36867">
        <ele>125.4</ele>
        <time>2022-03-06T10:06:28Z</time>
      </trkpt>
      <trkpt lat="46.50208" lon="0.36865">
        <ele>125.2</ele>
        <time>2022-03-06T10:06:29Z</time>
      </trkpt>
      <trkpt lat="46.50215" lon="0.36859">
        <ele>125.4</ele>
        <time>2022-03-06T10:06:32Z</time>
      </trkpt>
      <trkpt lat="46.50217" lon="0.36858">
        <ele>125.6</ele>
        <time>2022-03-06T10:06:33Z</time>
      </trkpt>
      <trkpt lat="46.5022" lon="0.36857">
        <ele>125.6</ele>
        <time>2022-03-06T10:06:34Z</time>
      </trkpt>
      <trkpt lat="46.50234" lon="0.36856">
        <ele>125.6</ele>
        <time>2022-03-06T10:06:38Z</time>
      </trkpt>
      <trkpt lat="46.50237" lon="0.36856">
        <ele>125.6</ele>
        <time>2022-03-06T10:06:39Z</time>
      </trkpt>
      <trkpt lat="46.50246" lon="0.36857">
        <ele>125.4</ele>
        <time>2022-03-06T10:06:41Z</time>
      </trkpt>
      <trkpt lat="46.50252" lon="0.3686">
        <ele>125.6</ele>
        <time>2022-03-06T10:06:43Z</time>
      </trkpt>
      <trkpt lat="46.50261" lon="0.3687">
        <ele>125.6</ele>
        <time>2022-03-06T10:06:46Z</time>
      </trkpt>
      <trkpt lat="46.50265" lon="0.36877">
        <ele>125.8</ele>
        <time>2022-03-06T10:06:48Z</time>
      </trkpt>
      <trkpt lat="46.50273" lon="0.36891">
        <ele>125.4</ele>
        <time>2022-03-06T10:06:52Z</time>
      </trkpt>
      <trkpt lat="46.50279" lon="0.36902">
        <ele>125.4</ele>
        <time>2022-03-06T10:06:54Z</time>
      </trkpt>
      <trkpt lat="46.50282" lon="0.36907">
        <ele>125.4</ele>
        <time>2022-03-06T10:06:55Z</time>
      </trkpt>
      <trkpt lat="46.50291" lon="0.36922">
        <ele>125.4</ele>
        <time>2022-03-06T10:06:58Z</time>
      </trkpt>
      <trkpt lat="46.50293" lon="0.36929">
        <ele>125.2</ele>
        <time>2022-03-06T10:06:59Z</time>
      </trkpt>
      <trkpt lat="46.50295" lon="0.36934">
        <ele>125</ele>
        <time>2022-03-06T10:07:00Z</time>
      </trkpt>
      <trkpt lat="46.50297" lon="0.36966">
        <ele>125</ele>
        <time>2022-03-06T10:07:05Z</time>
      </trkpt>
      <trkpt lat="46.50299" lon="0.36973">
        <ele>125</ele>
        <time>2022-03-06T10:07:06Z</time>
      </trkpt>
      <trkpt lat="46.50301" lon="0.36989">
        <ele>125</ele>
        <time>2022-03-06T10:07:08Z</time>
      </trkpt>
      <trkpt lat="46.50302" lon="0.36997">
        <ele>125</ele>
        <time>2022-03-06T10:07:09Z</time>
      </trkpt>
      <trkpt lat="46.50305" lon="0.37001">
        <ele>125</ele>
        <time>2022-03-06T10:07:10Z</time>
      </trkpt>
      <trkpt lat="46.50314" lon="0.37011">
        <ele>124.8</ele>
        <time>2022-03-06T10:07:13Z</time>
      </trkpt>
      <trkpt lat="46.50317" lon="0.37013">
        <ele>124.8</ele>
        <time>2022-03-06T10:07:14Z</time>
      </trkpt>
      <trkpt lat="46.50329" lon="0.37025">
        <ele>124.8</ele>
        <time>2022-03-06T10:07:17Z</time>
      </trkpt>
      <trkpt lat="46.50336" lon="0.37028">
        <ele>124.6</ele>
        <time>2022-03-06T10:07:19Z</time>
      </trkpt>
      <trkpt lat="46.50344" lon="0.37026">
        <ele>124.6</ele>
        <time>2022-03-06T10:07:21Z</time>
      </trkpt>
      <trkpt lat="46.5035" lon="0.37023">
        <ele>124.4</ele>
        <time>2022-03-06T10:07:23Z</time>
      </trkpt>
      <trkpt lat="46.50356" lon="0.37018">
        <ele>124.4</ele>
        <time>2022-03-06T10:07:25Z</time>
      </trkpt>
      <trkpt lat="46.50358" lon="0.37012">
        <ele>124.4</ele>
        <time>2022-03-06T10:07:27Z</time>
      </trkpt>
      <trkpt lat="46.50364" lon="0.36997">
        <ele>124.6</ele>
        <time>2022-03-06T10:07:30Z</time>
      </trkpt>
      <trkpt lat="46.50371" lon="0.36989">
        <ele>124.8</ele>
        <time>2022-03-06T10:07:32Z</time>
      </trkpt>
      <trkpt lat="46.50382" lon="0.36982">
        <ele>124.6</ele>
        <time>2022-03-06T10:07:34Z</time>
      </trkpt>
      <trkpt lat="46.50395" lon="0.36973">
        <ele>124.6</ele>
        <time>2022-03-06T10:07:36Z</time>
      </trkpt>
      <trkpt lat="46.50408" lon="0.36962">
        <ele>124.4</ele>
        <time>2022-03-06T10:07:38Z</time>
      </trkpt>
      <trkpt lat="46.50418" lon="0.36948">
        <ele>124.6</ele>
        <time>2022-03-06T10:07:41Z</time>
      </trkpt>
      <trkpt lat="46.50424" lon="0.36946">
        <ele>124.6</ele>
        <time>2022-03-06T10:07:43Z</time>
      </trkpt>
      <trkpt lat="46.50429" lon="0.36946">
        <ele>124.6</ele>
        <time>2022-03-06T10:07:45Z</time>
      </trkpt>
      <trkpt lat="46.50452" lon="0.36956">
        <ele>124.6</ele>
        <time>2022-03-06T10:07:51Z</time>
      </trkpt>
      <trkpt lat="46.50457" lon="0.36957">
        <ele>124.8</ele>
        <time>2022-03-06T10:07:52Z</time>
      </trkpt>
      <trkpt lat="46.50476" lon="0.36961">
        <ele>125</ele>
        <time>2022-03-06T10:07:56Z</time>
      </trkpt>
      <trkpt lat="46.50499" lon="0.36961">
        <ele>125.4</ele>
        <time>2022-03-06T10:08:01Z</time>
      </trkpt>
      <trkpt lat="46.50504" lon="0.36959">
        <ele>125.6</ele>
        <time>2022-03-06T10:08:02Z</time>
      </trkpt>
      <trkpt lat="46.50507" lon="0.36958">
        <ele>125.6</ele>
        <time>2022-03-06T10:08:03Z</time>
      </trkpt>
      <trkpt lat="46.50514" lon="0.36952">
        <ele>125.6</ele>
        <time>2022-03-06T10:08:06Z</time>
      </trkpt>
      <trkpt lat="46.50518" lon="0.36946">
        <ele>125.6</ele>
        <time>2022-03-06T10:08:08Z</time>
      </trkpt>
      <trkpt lat="46.50518" lon="0.36942">
        <ele>125.6</ele>
        <time>2022-03-06T10:08:09Z</time>
      </trkpt>
      <trkpt lat="46.5052" lon="0.36937">
        <ele>125.8</ele>
        <time>2022-03-06T10:08:10Z</time>
      </trkpt>
      <trkpt lat="46.50523" lon="0.36928">
        <ele>126</ele>
        <time>2022-03-06T10:08:12Z</time>
      </trkpt>
      <trkpt lat="46.50528" lon="0.36916">
        <ele>126</ele>
        <time>2022-03-06T10:08:14Z</time>
      </trkpt>
      <trkpt lat="46.50531" lon="0.36905">
        <ele>126</ele>
        <time>2022-03-06T10:08:16Z</time>
      </trkpt>
      <trkpt lat="46.50533" lon="0.36901">
        <ele>126</ele>
        <time>2022-03-06T10:08:17Z</time>
      </trkpt>
      <trkpt lat="46.50547" lon="0.36873">
        <ele>126.2</ele>
        <time>2022-03-06T10:08:21Z</time>
      </trkpt>
      <trkpt lat="46.50552" lon="0.36859">
        <ele>126</ele>
        <time>2022-03-06T10:08:23Z</time>
      </trkpt>
      <trkpt lat="46.50556" lon="0.36839">
        <ele>125.8</ele>
        <time>2022-03-06T10:08:26Z</time>
      </trkpt>
      <trkpt lat="46.50563" lon="0.36822">
        <ele>125.6</ele>
        <time>2022-03-06T10:08:29Z</time>
      </trkpt>
      <trkpt lat="46.50572" lon="0.36813">
        <ele>125.6</ele>
        <time>2022-03-06T10:08:31Z</time>
      </trkpt>
      <trkpt lat="46.50581" lon="0.36807">
        <ele>125.6</ele>
        <time>2022-03-06T10:08:33Z</time>
      </trkpt>
      <trkpt lat="46.5059" lon="0.36803">
        <ele>125</ele>
        <time>2022-03-06T10:08:35Z</time>
      </trkpt>
      <trkpt lat="46.50595" lon="0.36799">
        <ele>124.8</ele>
        <time>2022-03-06T10:08:36Z</time>
      </trkpt>
      <trkpt lat="46.50604" lon="0.36784">
        <ele>124.6</ele>
        <time>2022-03-06T10:08:38Z</time>
      </trkpt>
      <trkpt lat="46.50618" lon="0.36753">
        <ele>123.4</ele>
        <time>2022-03-06T10:08:42Z</time>
      </trkpt>
      <trkpt lat="46.50623" lon="0.36736">
        <ele>123</ele>
        <time>2022-03-06T10:08:44Z</time>
      </trkpt>
      <trkpt lat="46.50628" lon="0.36693">
        <ele>121.8</ele>
        <time>2022-03-06T10:08:49Z</time>
      </trkpt>
      <trkpt lat="46.50629" lon="0.36684">
        <ele>121.4</ele>
        <time>2022-03-06T10:08:50Z</time>
      </trkpt>
      <trkpt lat="46.50633" lon="0.36666">
        <ele>120.6</ele>
        <time>2022-03-06T10:08:52Z</time>
      </trkpt>
      <trkpt lat="46.50642" lon="0.36644">
        <ele>119.8</ele>
        <time>2022-03-06T10:08:54Z</time>
      </trkpt>
      <trkpt lat="46.50649" lon="0.36635">
        <ele>119.4</ele>
        <time>2022-03-06T10:08:55Z</time>
      </trkpt>
      <trkpt lat="46.50663" lon="0.36619">
        <ele>117.8</ele>
        <time>2022-03-06T10:08:57Z</time>
      </trkpt>
      <trkpt lat="46.50677" lon="0.36602">
        <ele>116.8</ele>
        <time>2022-03-06T10:08:59Z</time>
      </trkpt>
      <trkpt lat="46.50681" lon="0.36592">
        <ele>116.6</ele>
        <time>2022-03-06T10:09:00Z</time>
      </trkpt>
      <trkpt lat="46.50685" lon="0.36581">
        <ele>116.2</ele>
        <time>2022-03-06T10:09:01Z</time>
      </trkpt>
      <trkpt lat="46.50691" lon="0.36549">
        <ele>115.4</ele>
        <time>2022-03-06T10:09:04Z</time>
      </trkpt>
      <trkpt lat="46.50694" lon="0.36528">
        <ele>115.4</ele>
        <time>2022-03-06T10:09:06Z</time>
      </trkpt>
      <trkpt lat="46.507" lon="0.36469">
        <ele>115.6</ele>
        <time>2022-03-06T10:09:12Z</time>
      </trkpt>
      <trkpt lat="46.50707" lon="0.36429">
        <ele>116.6</ele>
        <time>2022-03-06T10:09:16Z</time>
      </trkpt>
      <trkpt lat="46.50711" lon="0.36408">
        <ele>117.4</ele>
        <time>2022-03-06T10:09:18Z</time>
      </trkpt>
      <trkpt lat="46.50714" lon="0.36388">
        <ele>117.6</ele>
        <time>2022-03-06T10:09:20Z</time>
      </trkpt>
      <trkpt lat="46.50721" lon="0.36342">
        <ele>118.8</ele>
        <time>2022-03-06T10:09:25Z</time>
      </trkpt>
      <trkpt lat="46.50722" lon="0.36333">
        <ele>119</ele>
        <time>2022-03-06T10:09:26Z</time>
      </trkpt>
      <trkpt lat="46.50727" lon="0.36307">
        <ele>119.8</ele>
        <time>2022-03-06T10:09:29Z</time>
      </trkpt>
      <trkpt lat="46.50735" lon="0.36257">
        <ele>121</ele>
        <time>2022-03-06T10:09:35Z</time>
      </trkpt>
      <trkpt lat="46.50744" lon="0.36201">
        <ele>122</ele>
        <time>2022-03-06T10:09:42Z</time>
      </trkpt>
      <trkpt lat="46.50746" lon="0.36194">
        <ele>122</ele>
        <time>2022-03-06T10:09:43Z</time>
      </trkpt>
      <trkpt lat="46.50756" lon="0.36145">
        <ele>122.6</ele>
        <time>2022-03-06T10:09:50Z</time>
      </trkpt>
      <trkpt lat="46.50761" lon="0.36134">
        <ele>122.8</ele>
        <time>2022-03-06T10:09:52Z</time>
      </trkpt>
      <trkpt lat="46.50768" lon="0.36124">
        <ele>122.8</ele>
        <time>2022-03-06T10:09:54Z</time>
      </trkpt>
      <trkpt lat="46.50775" lon="0.36112">
        <ele>122.8</ele>
        <time>2022-03-06T10:09:56Z</time>
      </trkpt>
      <trkpt lat="46.5078" lon="0.36095">
        <ele>122.2</ele>
        <time>2022-03-06T10:09:58Z</time>
      </trkpt>
      <trkpt lat="46.50783" lon="0.36068">
        <ele>121.4</ele>
        <time>2022-03-06T10:10:01Z</time>
      </trkpt>
      <trkpt lat="46.5078" lon="0.36055">
        <ele>121.2</ele>
        <time>2022-03-06T10:10:03Z</time>
      </trkpt>
      <trkpt lat="46.50774" lon="0.3602">
        <ele>122.8</ele>
        <time>2022-03-06T10:10:09Z</time>
      </trkpt>
      <trkpt lat="46.50774" lon="0.36015">
        <ele>123.2</ele>
        <time>2022-03-06T10:10:10Z</time>
      </trkpt>
      <trkpt lat="46.50771" lon="0.35993">
        <ele>124.2</ele>
        <time>2022-03-06T10:10:14Z</time>
      </trkpt>
      <trkpt lat="46.50771" lon="0.35982">
        <ele>124.6</ele>
        <time>2022-03-06T10:10:16Z</time>
      </trkpt>
      <trkpt lat="46.5077" lon="0.35971">
        <ele>125.4</ele>
        <time>2022-03-06T10:10:18Z</time>
      </trkpt>
      <trkpt lat="46.50766" lon="0.35936">
        <ele>126.2</ele>
        <time>2022-03-06T10:10:24Z</time>
      </trkpt>
      <trkpt lat="46.50762" lon="0.35916">
        <ele>126.4</ele>
        <time>2022-03-06T10:10:27Z</time>
      </trkpt>
      <trkpt lat="46.50756" lon="0.35886">
        <ele>127.2</ele>
        <time>2022-03-06T10:10:32Z</time>
      </trkpt>
      <trkpt lat="46.50753" lon="0.35876">
        <ele>127.6</ele>
        <time>2022-03-06T10:10:34Z</time>
      </trkpt>
      <trkpt lat="46.50752" lon="0.35858">
        <ele>128.2</ele>
        <time>2022-03-06T10:10:37Z</time>
      </trkpt>
      <trkpt lat="46.50757" lon="0.3584">
        <ele>128.6</ele>
        <time>2022-03-06T10:10:40Z</time>
      </trkpt>
      <trkpt lat="46.50759" lon="0.35834">
        <ele>128.6</ele>
        <time>2022-03-06T10:10:41Z</time>
      </trkpt>
      <trkpt lat="46.50763" lon="0.35822">
        <ele>129</ele>
        <time>2022-03-06T10:10:43Z</time>
      </trkpt>
      <trkpt lat="46.50767" lon="0.3581">
        <ele>129</ele>
        <time>2022-03-06T10:10:45Z</time>
      </trkpt>
      <trkpt lat="46.50783" lon="0.35781">
        <ele>129.2</ele>
        <time>2022-03-06T10:10:50Z</time>
      </trkpt>
      <trkpt lat="46.50794" lon="0.35764">
        <ele>129</ele>
        <time>2022-03-06T10:10:53Z</time>
      </trkpt>
      <trkpt lat="46.50803" lon="0.35755">
        <ele>128.8</ele>
        <time>2022-03-06T10:10:55Z</time>
      </trkpt>
      <trkpt lat="46.50806" lon="0.35743">
        <ele>128.4</ele>
        <time>2022-03-06T10:10:57Z</time>
      </trkpt>
      <trkpt lat="46.50805" lon="0.35737">
        <ele>128.4</ele>
        <time>2022-03-06T10:10:58Z</time>
      </trkpt>
      <trkpt lat="46.50802" lon="0.35732">
        <ele>128.4</ele>
        <time>2022-03-06T10:10:59Z</time>
      </trkpt>
      <trkpt lat="46.50793" lon="0.35727">
        <ele>128.4</ele>
        <time>2022-03-06T10:11:01Z</time>
      </trkpt>
      <trkpt lat="46.50766" lon="0.35725">
        <ele>128.6</ele>
        <time>2022-03-06T10:11:06Z</time>
      </trkpt>
      <trkpt lat="46.50723" lon="0.35725">
        <ele>129.2</ele>
        <time>2022-03-06T10:11:14Z</time>
      </trkpt>
      <trkpt lat="46.50712" lon="0.35724">
        <ele>129.6</ele>
        <time>2022-03-06T10:11:16Z</time>
      </trkpt>
      <trkpt lat="46.5068" lon="0.35721">
        <ele>130.4</ele>
        <time>2022-03-06T10:11:22Z</time>
      </trkpt>
      <trkpt lat="46.50655" lon="0.35716">
        <ele>130.4</ele>
        <time>2022-03-06T10:11:27Z</time>
      </trkpt>
      <trkpt lat="46.50651" lon="0.35712">
        <ele>130.4</ele>
        <time>2022-03-06T10:11:28Z</time>
      </trkpt>
      <trkpt lat="46.50648" lon="0.35708">
        <ele>130.4</ele>
        <time>2022-03-06T10:11:29Z</time>
      </trkpt>
      <trkpt lat="46.50645" lon="0.35695">
        <ele>130.4</ele>
        <time>2022-03-06T10:11:31Z</time>
      </trkpt>
      <trkpt lat="46.50647" lon="0.35656">
        <ele>130</ele>
        <time>2022-03-06T10:11:36Z</time>
      </trkpt>
      <trkpt lat="46.5065" lon="0.3561">
        <ele>129.4</ele>
        <time>2022-03-06T10:11:42Z</time>
      </trkpt>
      <trkpt lat="46.50652" lon="0.3558">
        <ele>129</ele>
        <time>2022-03-06T10:11:46Z</time>
      </trkpt>
      <trkpt lat="46.50654" lon="0.35572">
        <ele>129.2</ele>
        <time>2022-03-06T10:11:47Z</time>
      </trkpt>
      <trkpt lat="46.50658" lon="0.35565">
        <ele>129.2</ele>
        <time>2022-03-06T10:11:48Z</time>
      </trkpt>
      <trkpt lat="46.50673" lon="0.35535">
        <ele>129</ele>
        <time>2022-03-06T10:11:52Z</time>
      </trkpt>
      <trkpt lat="46.50695" lon="0.35494">
        <ele>129</ele>
        <time>2022-03-06T10:11:58Z</time>
      </trkpt>
      <trkpt lat="46.50706" lon="0.35474">
        <ele>128.6</ele>
        <time>2022-03-06T10:12:01Z</time>
      </trkpt>
      <trkpt lat="46.50717" lon="0.35453">
        <ele>128.2</ele>
        <time>2022-03-06T10:12:04Z</time>
      </trkpt>
      <trkpt lat="46.50727" lon="0.3543">
        <ele>127.8</ele>
        <time>2022-03-06T10:12:07Z</time>
      </trkpt>
      <trkpt lat="46.50735" lon="0.35406">
        <ele>127.2</ele>
        <time>2022-03-06T10:12:10Z</time>
      </trkpt>
      <trkpt lat="46.50743" lon="0.35353">
        <ele>126.2</ele>
        <time>2022-03-06T10:12:16Z</time>
      </trkpt>
      <trkpt lat="46.50744" lon="0.35344">
        <ele>126.2</ele>
        <time>2022-03-06T10:12:17Z</time>
      </trkpt>
      <trkpt lat="46.50746" lon="0.35326">
        <ele>125.2</ele>
        <time>2022-03-06T10:12:19Z</time>
      </trkpt>
      <trkpt lat="46.50748" lon="0.35307">
        <ele>124</ele>
        <time>2022-03-06T10:12:20Z</time>
      </trkpt>
      <trkpt lat="46.50748" lon="0.35307">
        <ele>124</ele>
        <time>2022-03-06T10:12:21Z</time>
      </trkpt>
      <trkpt lat="46.5075" lon="0.35276">
        <ele>122.8</ele>
        <time>2022-03-06T10:12:24Z</time>
      </trkpt>
      <trkpt lat="46.50753" lon="0.35254">
        <ele>121.4</ele>
        <time>2022-03-06T10:12:26Z</time>
      </trkpt>
      <trkpt lat="46.50755" lon="0.35243">
        <ele>121</ele>
        <time>2022-03-06T10:12:27Z</time>
      </trkpt>
      <trkpt lat="46.50758" lon="0.35233">
        <ele>120.4</ele>
        <time>2022-03-06T10:12:28Z</time>
      </trkpt>
      <trkpt lat="46.50766" lon="0.35216">
        <ele>119.4</ele>
        <time>2022-03-06T10:12:30Z</time>
      </trkpt>
      <trkpt lat="46.50771" lon="0.35209">
        <ele>119.2</ele>
        <time>2022-03-06T10:12:31Z</time>
      </trkpt>
      <trkpt lat="46.50786" lon="0.35191">
        <ele>117.8</ele>
        <time>2022-03-06T10:12:34Z</time>
      </trkpt>
      <trkpt lat="46.50789" lon="0.35188">
        <ele>117.6</ele>
        <time>2022-03-06T10:12:35Z</time>
      </trkpt>
      <trkpt lat="46.50793" lon="0.35183">
        <ele>117.2</ele>
        <time>2022-03-06T10:12:36Z</time>
      </trkpt>
      <trkpt lat="46.50794" lon="0.35171">
        <ele>116.8</ele>
        <time>2022-03-06T10:12:38Z</time>
      </trkpt>
      <trkpt lat="46.50792" lon="0.35167">
        <ele>116.6</ele>
        <time>2022-03-06T10:12:39Z</time>
      </trkpt>
      <trkpt lat="46.50784" lon="0.35159">
        <ele>116.8</ele>
        <time>2022-03-06T10:12:41Z</time>
      </trkpt>
      <trkpt lat="46.50766" lon="0.35142">
        <ele>117.6</ele>
        <time>2022-03-06T10:12:46Z</time>
      </trkpt>
      <trkpt lat="46.50762" lon="0.35139">
        <ele>117.8</ele>
        <time>2022-03-06T10:12:47Z</time>
      </trkpt>
      <trkpt lat="46.50758" lon="0.35136">
        <ele>118.2</ele>
        <time>2022-03-06T10:12:48Z</time>
      </trkpt>
      <trkpt lat="46.50733" lon="0.35118">
        <ele>118.8</ele>
        <time>2022-03-06T10:12:54Z</time>
      </trkpt>
      <trkpt lat="46.50722" lon="0.3511">
        <ele>119</ele>
        <time>2022-03-06T10:12:57Z</time>
      </trkpt>
      <trkpt lat="46.50713" lon="0.35107">
        <ele>119.4</ele>
        <time>2022-03-06T10:13:00Z</time>
      </trkpt>
      <trkpt lat="46.50711" lon="0.35109">
        <ele>119.4</ele>
        <time>2022-03-06T10:13:01Z</time>
      </trkpt>
      <trkpt lat="46.50705" lon="0.35119">
        <ele>120</ele>
        <time>2022-03-06T10:13:04Z</time>
      </trkpt>
      <trkpt lat="46.50703" lon="0.35123">
        <ele>120.2</ele>
        <time>2022-03-06T10:13:05Z</time>
      </trkpt>
      <trkpt lat="46.50694" lon="0.3513">
        <ele>120.4</ele>
        <time>2022-03-06T10:13:09Z</time>
      </trkpt>
      <trkpt lat="46.50689" lon="0.35131">
        <ele>121</ele>
        <time>2022-03-06T10:13:12Z</time>
      </trkpt>
      <trkpt lat="46.50684" lon="0.3513">
        <ele>121.4</ele>
        <time>2022-03-06T10:13:15Z</time>
      </trkpt>
      <trkpt lat="46.50683" lon="0.35129">
        <ele>121.6</ele>
        <time>2022-03-06T10:13:18Z</time>
      </trkpt>
      <trkpt lat="46.50681" lon="0.3513">
        <ele>119</ele>
        <time>2022-03-06T10:25:39Z</time>
      </trkpt>
      <trkpt lat="46.50681" lon="0.3513">
        <ele>119</ele>
        <time>2022-03-06T10:25:40Z</time>
      </trkpt>
      <trkpt lat="46.5068" lon="0.35127">
        <ele>119</ele>
        <time>2022-03-06T10:25:48Z</time>
      </trkpt>
      <trkpt lat="46.5068" lon="0.35127">
        <ele>119</ele>
        <time>2022-03-06T10:25:56Z</time>
      </trkpt>
      <trkpt lat="46.5068" lon="0.35125">
        <ele>119</ele>
        <time>2022-03-06T10:26:10Z</time>
      </trkpt>
      <trkpt lat="46.5068" lon="0.35125">
        <ele>119</ele>
        <time>2022-03-06T10:26:30Z</time>
      </trkpt>
      <trkpt lat="46.50677" lon="0.35121">
        <ele>119</ele>
        <time>2022-03-06T10:26:43Z</time>
      </trkpt>
      <trkpt lat="46.50667" lon="0.35109">
        <ele>119.2</ele>
        <time>2022-03-06T10:26:49Z</time>
      </trkpt>
      <trkpt lat="46.50659" lon="0.35101">
        <ele>119.4</ele>
        <time>2022-03-06T10:26:53Z</time>
      </trkpt>
      <trkpt lat="46.50659" lon="0.35099">
        <ele>119.4</ele>
        <time>2022-03-06T10:26:54Z</time>
      </trkpt>
      <trkpt lat="46.50662" lon="0.35084">
        <ele>119.4</ele>
        <time>2022-03-06T10:27:01Z</time>
      </trkpt>
      <trkpt lat="46.50663" lon="0.3508">
        <ele>119</ele>
        <time>2022-03-06T10:27:05Z</time>
      </trkpt>
      <trkpt lat="46.50663" lon="0.35076">
        <ele>118.8</ele>
        <time>2022-03-06T10:27:08Z</time>
      </trkpt>
      <trkpt lat="46.50662" lon="0.35071">
        <ele>118.8</ele>
        <time>2022-03-06T10:27:10Z</time>
      </trkpt>
      <trkpt lat="46.50658" lon="0.35067">
        <ele>118.6</ele>
        <time>2022-03-06T10:27:12Z</time>
      </trkpt>
      <trkpt lat="46.50649" lon="0.35062">
        <ele>118.8</ele>
        <time>2022-03-06T10:27:17Z</time>
      </trkpt>
      <trkpt lat="46.50631" lon="0.35051">
        <ele>119.4</ele>
        <time>2022-03-06T10:27:23Z</time>
      </trkpt>
      <trkpt lat="46.50611" lon="0.3504">
        <ele>120</ele>
        <time>2022-03-06T10:27:29Z</time>
      </trkpt>
      <trkpt lat="46.50601" lon="0.35034">
        <ele>120.8</ele>
        <time>2022-03-06T10:27:32Z</time>
      </trkpt>
      <trkpt lat="46.50594" lon="0.3503">
        <ele>121.2</ele>
        <time>2022-03-06T10:27:34Z</time>
      </trkpt>
      <trkpt lat="46.50586" lon="0.35028">
        <ele>121.6</ele>
        <time>2022-03-06T10:27:36Z</time>
      </trkpt>
      <trkpt lat="46.50564" lon="0.35022">
        <ele>122.2</ele>
        <time>2022-03-06T10:27:41Z</time>
      </trkpt>
      <trkpt lat="46.50549" lon="0.35016">
        <ele>122.8</ele>
        <time>2022-03-06T10:27:45Z</time>
      </trkpt>
      <trkpt lat="46.50525" lon="0.35009">
        <ele>123.4</ele>
        <time>2022-03-06T10:27:51Z</time>
      </trkpt>
      <trkpt lat="46.50521" lon="0.35008">
        <ele>123.6</ele>
        <time>2022-03-06T10:27:52Z</time>
      </trkpt>
      <trkpt lat="46.50492" lon="0.35">
        <ele>124.4</ele>
        <time>2022-03-06T10:28:00Z</time>
      </trkpt>
      <trkpt lat="46.5049" lon="0.35">
        <ele>124.4</ele>
        <time>2022-03-06T10:28:01Z</time>
      </trkpt>
      <trkpt lat="46.50488" lon="0.34999">
        <ele>124.4</ele>
        <time>2022-03-06T10:28:03Z</time>
      </trkpt>
      <trkpt lat="46.50489" lon="0.34988">
        <ele>124.4</ele>
        <time>2022-03-06T10:28:05Z</time>
      </trkpt>
      <trkpt lat="46.50494" lon="0.34966">
        <ele>124.6</ele>
        <time>2022-03-06T10:28:13Z</time>
      </trkpt>
      <trkpt lat="46.50494" lon="0.34939">
        <ele>124.2</ele>
        <time>2022-03-06T10:28:18Z</time>
      </trkpt>
      <trkpt lat="46.50494" lon="0.3493">
        <ele>124.4</ele>
        <time>2022-03-06T10:28:20Z</time>
      </trkpt>
      <trkpt lat="46.50496" lon="0.34924">
        <ele>124.4</ele>
        <time>2022-03-06T10:28:22Z</time>
      </trkpt>
      <trkpt lat="46.50505" lon="0.34909">
        <ele>124</ele>
        <time>2022-03-06T10:28:26Z</time>
      </trkpt>
      <trkpt lat="46.50514" lon="0.34868">
        <ele>123.8</ele>
        <time>2022-03-06T10:28:33Z</time>
      </trkpt>
      <trkpt lat="46.50518" lon="0.34849">
        <ele>123.2</ele>
        <time>2022-03-06T10:28:36Z</time>
      </trkpt>
      <trkpt lat="46.50525" lon="0.34816">
        <ele>123</ele>
        <time>2022-03-06T10:28:41Z</time>
      </trkpt>
      <trkpt lat="46.50536" lon="0.34775">
        <ele>122.8</ele>
        <time>2022-03-06T10:28:47Z</time>
      </trkpt>
      <trkpt lat="46.50538" lon="0.34769">
        <ele>122.6</ele>
        <time>2022-03-06T10:28:48Z</time>
      </trkpt>
      <trkpt lat="46.50541" lon="0.34763">
        <ele>122.6</ele>
        <time>2022-03-06T10:28:49Z</time>
      </trkpt>
      <trkpt lat="46.5055" lon="0.34753">
        <ele>122.6</ele>
        <time>2022-03-06T10:28:52Z</time>
      </trkpt>
      <trkpt lat="46.50552" lon="0.34751">
        <ele>122.6</ele>
        <time>2022-03-06T10:28:53Z</time>
      </trkpt>
      <trkpt lat="46.50553" lon="0.34748">
        <ele>122.8</ele>
        <time>2022-03-06T10:28:54Z</time>
      </trkpt>
      <trkpt lat="46.50552" lon="0.34743">
        <ele>123</ele>
        <time>2022-03-06T10:28:56Z</time>
      </trkpt>
      <trkpt lat="46.5055" lon="0.34741">
        <ele>123</ele>
        <time>2022-03-06T10:28:58Z</time>
      </trkpt>
      <trkpt lat="46.50548" lon="0.34743">
        <ele>123.2</ele>
        <time>2022-03-06T10:29:00Z</time>
      </trkpt>
      <trkpt lat="46.50549" lon="0.34747">
        <ele>123.2</ele>
        <time>2022-03-06T10:29:02Z</time>
      </trkpt>
      <trkpt lat="46.50552" lon="0.34746">
        <ele>123</ele>
        <time>2022-03-06T10:29:04Z</time>
      </trkpt>
      <trkpt lat="46.50551" lon="0.34741">
        <ele>123</ele>
        <time>2022-03-06T10:29:06Z</time>
      </trkpt>
      <trkpt lat="46.50549" lon="0.3474">
        <ele>123</ele>
        <time>2022-03-06T10:29:07Z</time>
      </trkpt>
      <trkpt lat="46.50546" lon="0.34741">
        <ele>123</ele>
        <time>2022-03-06T10:29:09Z</time>
      </trkpt>
      <trkpt lat="46.50546" lon="0.34743">
        <ele>123</ele>
        <time>2022-03-06T10:29:10Z</time>
      </trkpt>
      <trkpt lat="46.50549" lon="0.34746">
        <ele>123</ele>
        <time>2022-03-06T10:29:12Z</time>
      </trkpt>
      <trkpt lat="46.50552" lon="0.34744">
        <ele>122.8</ele>
        <time>2022-03-06T10:29:14Z</time>
      </trkpt>
      <trkpt lat="46.50565" lon="0.34731">
        <ele>123</ele>
        <time>2022-03-06T10:29:19Z</time>
      </trkpt>
      <trkpt lat="46.50578" lon="0.34717">
        <ele>123</ele>
        <time>2022-03-06T10:29:23Z</time>
      </trkpt>
      <trkpt lat="46.50583" lon="0.3471">
        <ele>123</ele>
        <time>2022-03-06T10:29:25Z</time>
      </trkpt>
      <trkpt lat="46.50581" lon="0.34705">
        <ele>123.2</ele>
        <time>2022-03-06T10:29:27Z</time>
      </trkpt>
      <trkpt lat="46.5058" lon="0.34705">
        <ele>123.2</ele>
        <time>2022-03-06T10:29:28Z</time>
      </trkpt>
      <trkpt lat="46.50578" lon="0.34713">
        <ele>123.4</ele>
        <time>2022-03-06T10:29:31Z</time>
      </trkpt>
      <trkpt lat="46.50567" lon="0.34728">
        <ele>123.4</ele>
        <time>2022-03-06T10:29:35Z</time>
      </trkpt>
      <trkpt lat="46.50561" lon="0.34736">
        <ele>123.4</ele>
        <time>2022-03-06T10:29:37Z</time>
      </trkpt>
      <trkpt lat="46.50553" lon="0.3474">
        <ele>123.4</ele>
        <time>2022-03-06T10:29:39Z</time>
      </trkpt>
      <trkpt lat="46.50545" lon="0.34733">
        <ele>123.4</ele>
        <time>2022-03-06T10:29:41Z</time>
      </trkpt>
      <trkpt lat="46.50542" lon="0.34729">
        <ele>123.4</ele>
        <time>2022-03-06T10:29:42Z</time>
      </trkpt>
      <trkpt lat="46.50527" lon="0.34703">
        <ele>123.2</ele>
        <time>2022-03-06T10:29:48Z</time>
      </trkpt>
      <trkpt lat="46.50506" lon="0.34676">
        <ele>123.4</ele>
        <time>2022-03-06T10:29:54Z</time>
      </trkpt>
      <trkpt lat="46.50504" lon="0.34672">
        <ele>123.6</ele>
        <time>2022-03-06T10:29:55Z</time>
      </trkpt>
      <trkpt lat="46.505" lon="0.34662">
        <ele>123.6</ele>
        <time>2022-03-06T10:29:57Z</time>
      </trkpt>
      <trkpt lat="46.505" lon="0.34655">
        <ele>123.6</ele>
        <time>2022-03-06T10:29:58Z</time>
      </trkpt>
      <trkpt lat="46.50503" lon="0.34611">
        <ele>123.6</ele>
        <time>2022-03-06T10:30:04Z</time>
      </trkpt>
      <trkpt lat="46.50505" lon="0.34557">
        <ele>123.4</ele>
        <time>2022-03-06T10:30:10Z</time>
      </trkpt>
      <trkpt lat="46.50505" lon="0.34538">
        <ele>123.2</ele>
        <time>2022-03-06T10:30:12Z</time>
      </trkpt>
      <trkpt lat="46.50505" lon="0.34459">
        <ele>122.6</ele>
        <time>2022-03-06T10:30:20Z</time>
      </trkpt>
      <trkpt lat="46.50503" lon="0.34441">
        <ele>122.2</ele>
        <time>2022-03-06T10:30:22Z</time>
      </trkpt>
      <trkpt lat="46.50498" lon="0.34416">
        <ele>121.8</ele>
        <time>2022-03-06T10:30:25Z</time>
      </trkpt>
      <trkpt lat="46.50496" lon="0.34407">
        <ele>121.8</ele>
        <time>2022-03-06T10:30:26Z</time>
      </trkpt>
      <trkpt lat="46.50495" lon="0.34399">
        <ele>121.8</ele>
        <time>2022-03-06T10:30:27Z</time>
      </trkpt>
      <trkpt lat="46.50495" lon="0.34385">
        <ele>121.6</ele>
        <time>2022-03-06T10:30:29Z</time>
      </trkpt>
      <trkpt lat="46.50497" lon="0.34372">
        <ele>121.6</ele>
        <time>2022-03-06T10:30:31Z</time>
      </trkpt>
      <trkpt lat="46.50502" lon="0.3436">
        <ele>121.6</ele>
        <time>2022-03-06T10:30:33Z</time>
      </trkpt>
      <trkpt lat="46.50506" lon="0.34355">
        <ele>121.6</ele>
        <time>2022-03-06T10:30:34Z</time>
      </trkpt>
      <trkpt lat="46.50526" lon="0.34318">
        <ele>122.6</ele>
        <time>2022-03-06T10:30:40Z</time>
      </trkpt>
      <trkpt lat="46.50529" lon="0.34311">
        <ele>122.8</ele>
        <time>2022-03-06T10:30:41Z</time>
      </trkpt>
      <trkpt lat="46.5055" lon="0.34267">
        <ele>123.2</ele>
        <time>2022-03-06T10:30:48Z</time>
      </trkpt>
      <trkpt lat="46.50568" lon="0.34222">
        <ele>122.8</ele>
        <time>2022-03-06T10:30:55Z</time>
      </trkpt>
      <trkpt lat="46.50574" lon="0.3421">
        <ele>123</ele>
        <time>2022-03-06T10:30:57Z</time>
      </trkpt>
      <trkpt lat="46.5058" lon="0.34197">
        <ele>123</ele>
        <time>2022-03-06T10:30:59Z</time>
      </trkpt>
      <trkpt lat="46.50586" lon="0.34184">
        <ele>123.2</ele>
        <time>2022-03-06T10:31:01Z</time>
      </trkpt>
      <trkpt lat="46.50603" lon="0.34142">
        <ele>122.8</ele>
        <time>2022-03-06T10:31:07Z</time>
      </trkpt>
      <trkpt lat="46.50609" lon="0.34127">
        <ele>122.6</ele>
        <time>2022-03-06T10:31:09Z</time>
      </trkpt>
      <trkpt lat="46.50627" lon="0.34082">
        <ele>122.2</ele>
        <time>2022-03-06T10:31:15Z</time>
      </trkpt>
      <trkpt lat="46.50639" lon="0.34051">
        <ele>121.6</ele>
        <time>2022-03-06T10:31:19Z</time>
      </trkpt>
      <trkpt lat="46.50642" lon="0.34043">
        <ele>121.2</ele>
        <time>2022-03-06T10:31:20Z</time>
      </trkpt>
      <trkpt lat="46.50646" lon="0.34026">
        <ele>120.4</ele>
        <time>2022-03-06T10:31:22Z</time>
      </trkpt>
      <trkpt lat="46.50647" lon="0.34017">
        <ele>120</ele>
        <time>2022-03-06T10:31:23Z</time>
      </trkpt>
      <trkpt lat="46.50646" lon="0.34008">
        <ele>119.6</ele>
        <time>2022-03-06T10:31:24Z</time>
      </trkpt>
      <trkpt lat="46.50638" lon="0.3399">
        <ele>118.6</ele>
        <time>2022-03-06T10:31:26Z</time>
      </trkpt>
      <trkpt lat="46.50633" lon="0.33984">
        <ele>118</ele>
        <time>2022-03-06T10:31:27Z</time>
      </trkpt>
      <trkpt lat="46.5062" lon="0.3397">
        <ele>117.4</ele>
        <time>2022-03-06T10:31:29Z</time>
      </trkpt>
      <trkpt lat="46.5061" lon="0.33953">
        <ele>116.4</ele>
        <time>2022-03-06T10:31:31Z</time>
      </trkpt>
      <trkpt lat="46.50607" lon="0.33943">
        <ele>116.4</ele>
        <time>2022-03-06T10:31:32Z</time>
      </trkpt>
      <trkpt lat="46.50605" lon="0.33932">
        <ele>116.2</ele>
        <time>2022-03-06T10:31:33Z</time>
      </trkpt>
      <trkpt lat="46.50604" lon="0.3392">
        <ele>116.2</ele>
        <time>2022-03-06T10:31:34Z</time>
      </trkpt>
      <trkpt lat="46.50605" lon="0.33897">
        <ele>115.6</ele>
        <time>2022-03-06T10:31:36Z</time>
      </trkpt>
      <trkpt lat="46.50607" lon="0.33875">
        <ele>115</ele>
        <time>2022-03-06T10:31:38Z</time>
      </trkpt>
      <trkpt lat="46.50608" lon="0.33864">
        <ele>114.4</ele>
        <time>2022-03-06T10:31:39Z</time>
      </trkpt>
      <trkpt lat="46.5061" lon="0.33854">
        <ele>114</ele>
        <time>2022-03-06T10:31:40Z</time>
      </trkpt>
      <trkpt lat="46.50612" lon="0.33843">
        <ele>113.4</ele>
        <time>2022-03-06T10:31:41Z</time>
      </trkpt>
      <trkpt lat="46.50621" lon="0.33803">
        <ele>112.4</ele>
        <time>2022-03-06T10:31:45Z</time>
      </trkpt>
      <trkpt lat="46.50637" lon="0.33745">
        <ele>111.4</ele>
        <time>2022-03-06T10:31:51Z</time>
      </trkpt>
      <trkpt lat="46.5064" lon="0.33736">
        <ele>111.2</ele>
        <time>2022-03-06T10:31:52Z</time>
      </trkpt>
      <trkpt lat="46.50648" lon="0.33722">
        <ele>111</ele>
        <time>2022-03-06T10:31:54Z</time>
      </trkpt>
      <trkpt lat="46.5067" lon="0.33702">
        <ele>110</ele>
        <time>2022-03-06T10:31:58Z</time>
      </trkpt>
      <trkpt lat="46.50676" lon="0.33698">
        <ele>109.8</ele>
        <time>2022-03-06T10:31:59Z</time>
      </trkpt>
      <trkpt lat="46.50707" lon="0.33685">
        <ele>109.8</ele>
        <time>2022-03-06T10:32:04Z</time>
      </trkpt>
      <trkpt lat="46.50724" lon="0.33683">
        <ele>110.2</ele>
        <time>2022-03-06T10:32:07Z</time>
      </trkpt>
      <trkpt lat="46.5074" lon="0.33684">
        <ele>110.2</ele>
        <time>2022-03-06T10:32:10Z</time>
      </trkpt>
      <trkpt lat="46.50754" lon="0.33686">
        <ele>110.4</ele>
        <time>2022-03-06T10:32:13Z</time>
      </trkpt>
      <trkpt lat="46.50769" lon="0.33688">
        <ele>110.4</ele>
        <time>2022-03-06T10:32:16Z</time>
      </trkpt>
      <trkpt lat="46.5079" lon="0.33687">
        <ele>110.4</ele>
        <time>2022-03-06T10:32:20Z</time>
      </trkpt>
      <trkpt lat="46.50805" lon="0.33683">
        <ele>110.4</ele>
        <time>2022-03-06T10:32:23Z</time>
      </trkpt>
      <trkpt lat="46.50813" lon="0.33677">
        <ele>110.4</ele>
        <time>2022-03-06T10:32:25Z</time>
      </trkpt>
      <trkpt lat="46.50824" lon="0.33665">
        <ele>110</ele>
        <time>2022-03-06T10:32:28Z</time>
      </trkpt>
      <trkpt lat="46.50827" lon="0.33661">
        <ele>109.6</ele>
        <time>2022-03-06T10:32:29Z</time>
      </trkpt>
      <trkpt lat="46.50829" lon="0.3365">
        <ele>109</ele>
        <time>2022-03-06T10:32:31Z</time>
      </trkpt>
      <trkpt lat="46.50828" lon="0.33627">
        <ele>108</ele>
        <time>2022-03-06T10:32:34Z</time>
      </trkpt>
      <trkpt lat="46.50828" lon="0.33618">
        <ele>107.4</ele>
        <time>2022-03-06T10:32:35Z</time>
      </trkpt>
      <trkpt lat="46.50829" lon="0.33608">
        <ele>106.6</ele>
        <time>2022-03-06T10:32:36Z</time>
      </trkpt>
      <trkpt lat="46.5083" lon="0.33598">
        <ele>105.6</ele>
        <time>2022-03-06T10:32:37Z</time>
      </trkpt>
      <trkpt lat="46.50832" lon="0.33572">
        <ele>104</ele>
        <time>2022-03-06T10:32:39Z</time>
      </trkpt>
      <trkpt lat="46.50833" lon="0.33545">
        <ele>101.8</ele>
        <time>2022-03-06T10:32:41Z</time>
      </trkpt>
      <trkpt lat="46.50834" lon="0.33533">
        <ele>100.8</ele>
        <time>2022-03-06T10:32:42Z</time>
      </trkpt>
      <trkpt lat="46.50836" lon="0.3352">
        <ele>99.8</ele>
        <time>2022-03-06T10:32:43Z</time>
      </trkpt>
      <trkpt lat="46.50838" lon="0.33509">
        <ele>97.8</ele>
        <time>2022-03-06T10:32:44Z</time>
      </trkpt>
      <trkpt lat="46.50845" lon="0.33488">
        <ele>95.6</ele>
        <time>2022-03-06T10:32:46Z</time>
      </trkpt>
      <trkpt lat="46.50855" lon="0.3347">
        <ele>94.2</ele>
        <time>2022-03-06T10:32:48Z</time>
      </trkpt>
      <trkpt lat="46.50866" lon="0.33454">
        <ele>92.6</ele>
        <time>2022-03-06T10:32:50Z</time>
      </trkpt>
      <trkpt lat="46.50878" lon="0.33438">
        <ele>90.8</ele>
        <time>2022-03-06T10:32:52Z</time>
      </trkpt>
      <trkpt lat="46.50884" lon="0.3343">
        <ele>89.6</ele>
        <time>2022-03-06T10:32:53Z</time>
      </trkpt>
      <trkpt lat="46.50897" lon="0.33415">
        <ele>88</ele>
        <time>2022-03-06T10:32:55Z</time>
      </trkpt>
      <trkpt lat="46.50911" lon="0.33399">
        <ele>86.6</ele>
        <time>2022-03-06T10:32:57Z</time>
      </trkpt>
      <trkpt lat="46.50917" lon="0.33391">
        <ele>86</ele>
        <time>2022-03-06T10:32:58Z</time>
      </trkpt>
      <trkpt lat="46.50922" lon="0.33381">
        <ele>85</ele>
        <time>2022-03-06T10:32:59Z</time>
      </trkpt>
      <trkpt lat="46.50926" lon="0.3337">
        <ele>84.4</ele>
        <time>2022-03-06T10:33:00Z</time>
      </trkpt>
      <trkpt lat="46.50929" lon="0.33359">
        <ele>83.6</ele>
        <time>2022-03-06T10:33:01Z</time>
      </trkpt>
      <trkpt lat="46.50936" lon="0.33337">
        <ele>82</ele>
        <time>2022-03-06T10:33:03Z</time>
      </trkpt>
      <trkpt lat="46.50941" lon="0.33321">
        <ele>80.8</ele>
        <time>2022-03-06T10:33:05Z</time>
      </trkpt>
      <trkpt lat="46.50944" lon="0.33314">
        <ele>80.2</ele>
        <time>2022-03-06T10:33:06Z</time>
      </trkpt>
      <trkpt lat="46.50947" lon="0.33306">
        <ele>79.6</ele>
        <time>2022-03-06T10:33:07Z</time>
      </trkpt>
      <trkpt lat="46.50948" lon="0.33305">
        <ele>78.4</ele>
        <time>2022-03-06T10:33:09Z</time>
      </trkpt>
      <trkpt lat="46.5095" lon="0.33302">
        <ele>77.2</ele>
        <time>2022-03-06T10:33:13Z</time>
      </trkpt>
      <trkpt lat="46.5095" lon="0.33301">
        <ele>76.8</ele>
        <time>2022-03-06T10:33:26Z</time>
      </trkpt>
      <trkpt lat="46.5095" lon="0.33301">
        <ele>76.8</ele>
        <time>2022-03-06T10:33:45Z</time>
      </trkpt>
      <trkpt lat="46.5095" lon="0.33301">
        <ele>76.8</ele>
        <time>2022-03-06T10:34:01Z</time>
      </trkpt>
      <trkpt lat="46.50951" lon="0.33301">
        <ele>76.8</ele>
        <time>2022-03-06T10:34:19Z</time>
      </trkpt>
      <trkpt lat="46.5096" lon="0.33298">
        <ele>76.4</ele>
        <time>2022-03-06T10:34:24Z</time>
      </trkpt>
      <trkpt lat="46.5097" lon="0.33294">
        <ele>76</ele>
        <time>2022-03-06T10:34:27Z</time>
      </trkpt>
      <trkpt lat="46.5098" lon="0.33291">
        <ele>75.8</ele>
        <time>2022-03-06T10:34:29Z</time>
      </trkpt>
      <trkpt lat="46.50986" lon="0.3329">
        <ele>75.4</ele>
        <time>2022-03-06T10:34:30Z</time>
      </trkpt>
      <trkpt lat="46.51001" lon="0.33292">
        <ele>75</ele>
        <time>2022-03-06T10:34:32Z</time>
      </trkpt>
      <trkpt lat="46.5101" lon="0.33295">
        <ele>73.8</ele>
        <time>2022-03-06T10:34:33Z</time>
      </trkpt>
      <trkpt lat="46.51025" lon="0.33305">
        <ele>72.4</ele>
        <time>2022-03-06T10:34:35Z</time>
      </trkpt>
      <trkpt lat="46.51045" lon="0.33323">
        <ele>71</ele>
        <time>2022-03-06T10:34:38Z</time>
      </trkpt>
      <trkpt lat="46.51056" lon="0.33337">
        <ele>70.2</ele>
        <time>2022-03-06T10:34:40Z</time>
      </trkpt>
      <trkpt lat="46.51061" lon="0.33345">
        <ele>70</ele>
        <time>2022-03-06T10:34:41Z</time>
      </trkpt>
      <trkpt lat="46.51079" lon="0.33374">
        <ele>68.8</ele>
        <time>2022-03-06T10:34:45Z</time>
      </trkpt>
      <trkpt lat="46.51084" lon="0.33382">
        <ele>68.6</ele>
        <time>2022-03-06T10:34:46Z</time>
      </trkpt>
      <trkpt lat="46.51088" lon="0.3339">
        <ele>68</ele>
        <time>2022-03-06T10:34:47Z</time>
      </trkpt>
      <trkpt lat="46.51097" lon="0.33405">
        <ele>67.6</ele>
        <time>2022-03-06T10:34:49Z</time>
      </trkpt>
      <trkpt lat="46.51105" lon="0.33422">
        <ele>67.6</ele>
        <time>2022-03-06T10:34:51Z</time>
      </trkpt>
      <trkpt lat="46.51119" lon="0.33463">
        <ele>66.8</ele>
        <time>2022-03-06T10:34:56Z</time>
      </trkpt>
      <trkpt lat="46.51127" lon="0.33484">
        <ele>66.6</ele>
        <time>2022-03-06T10:34:59Z</time>
      </trkpt>
      <trkpt lat="46.51131" lon="0.33502">
        <ele>66.8</ele>
        <time>2022-03-06T10:35:01Z</time>
      </trkpt>
      <trkpt lat="46.51134" lon="0.33521">
        <ele>66.8</ele>
        <time>2022-03-06T10:35:03Z</time>
      </trkpt>
      <trkpt lat="46.51135" lon="0.3354">
        <ele>66.6</ele>
        <time>2022-03-06T10:35:05Z</time>
      </trkpt>
      <trkpt lat="46.51136" lon="0.3355">
        <ele>66</ele>
        <time>2022-03-06T10:35:06Z</time>
      </trkpt>
      <trkpt lat="46.5114" lon="0.33607">
        <ele>65.6</ele>
        <time>2022-03-06T10:35:12Z</time>
      </trkpt>
      <trkpt lat="46.51141" lon="0.33653">
        <ele>65.6</ele>
        <time>2022-03-06T10:35:17Z</time>
      </trkpt>
      <trkpt lat="46.51142" lon="0.33672">
        <ele>65.6</ele>
        <time>2022-03-06T10:35:19Z</time>
      </trkpt>
      <trkpt lat="46.51145" lon="0.33726">
        <ele>66.2</ele>
        <time>2022-03-06T10:35:25Z</time>
      </trkpt>
      <trkpt lat="46.51145" lon="0.3379">
        <ele>66.6</ele>
        <time>2022-03-06T10:35:32Z</time>
      </trkpt>
      <trkpt lat="46.51144" lon="0.33818">
        <ele>66.8</ele>
        <time>2022-03-06T10:35:35Z</time>
      </trkpt>
      <trkpt lat="46.51145" lon="0.33854">
        <ele>66.6</ele>
        <time>2022-03-06T10:35:39Z</time>
      </trkpt>
      <trkpt lat="46.51145" lon="0.33863">
        <ele>66.6</ele>
        <time>2022-03-06T10:35:40Z</time>
      </trkpt>
      <trkpt lat="46.51151" lon="0.33898">
        <ele>66</ele>
        <time>2022-03-06T10:35:44Z</time>
      </trkpt>
      <trkpt lat="46.51188" lon="0.3394">
        <ele>66</ele>
        <time>2022-03-06T10:35:50Z</time>
      </trkpt>
      <trkpt lat="46.51209" lon="0.33956">
        <ele>66.2</ele>
        <time>2022-03-06T10:35:53Z</time>
      </trkpt>
      <trkpt lat="46.51226" lon="0.33972">
        <ele>66.6</ele>
        <time>2022-03-06T10:35:56Z</time>
      </trkpt>
      <trkpt lat="46.51269" lon="0.34007">
        <ele>67.2</ele>
        <time>2022-03-06T10:36:03Z</time>
      </trkpt>
      <trkpt lat="46.51274" lon="0.3401">
        <ele>67.2</ele>
        <time>2022-03-06T10:36:04Z</time>
      </trkpt>
      <trkpt lat="46.51295" lon="0.34019">
        <ele>67.2</ele>
        <time>2022-03-06T10:36:08Z</time>
      </trkpt>
      <trkpt lat="46.51331" lon="0.34031">
        <ele>66.8</ele>
        <time>2022-03-06T10:36:14Z</time>
      </trkpt>
      <trkpt lat="46.51342" lon="0.34035">
        <ele>66.4</ele>
        <time>2022-03-06T10:36:16Z</time>
      </trkpt>
      <trkpt lat="46.51364" lon="0.34046">
        <ele>66</ele>
        <time>2022-03-06T10:36:20Z</time>
      </trkpt>
      <trkpt lat="46.51386" lon="0.34059">
        <ele>66</ele>
        <time>2022-03-06T10:36:24Z</time>
      </trkpt>
      <trkpt lat="46.51396" lon="0.34069">
        <ele>66.2</ele>
        <time>2022-03-06T10:36:26Z</time>
      </trkpt>
      <trkpt lat="46.51414" lon="0.34086">
        <ele>66.6</ele>
        <time>2022-03-06T10:36:31Z</time>
      </trkpt>
      <trkpt lat="46.51418" lon="0.34089">
        <ele>66.8</ele>
        <time>2022-03-06T10:36:32Z</time>
      </trkpt>
      <trkpt lat="46.51435" lon="0.341">
        <ele>67.6</ele>
        <time>2022-03-06T10:36:36Z</time>
      </trkpt>
      <trkpt lat="46.51448" lon="0.34105">
        <ele>68</ele>
        <time>2022-03-06T10:36:39Z</time>
      </trkpt>
      <trkpt lat="46.51462" lon="0.341">
        <ele>68</ele>
        <time>2022-03-06T10:36:42Z</time>
      </trkpt>
      <trkpt lat="46.51476" lon="0.34099">
        <ele>67.4</ele>
        <time>2022-03-06T10:36:44Z</time>
      </trkpt>
      <trkpt lat="46.51487" lon="0.34102">
        <ele>66.6</ele>
        <time>2022-03-06T10:36:46Z</time>
      </trkpt>
      <trkpt lat="46.51501" lon="0.34112">
        <ele>65.6</ele>
        <time>2022-03-06T10:36:49Z</time>
      </trkpt>
      <trkpt lat="46.51505" lon="0.34115">
        <ele>65.2</ele>
        <time>2022-03-06T10:36:50Z</time>
      </trkpt>
      <trkpt lat="46.5151" lon="0.34118">
        <ele>64.8</ele>
        <time>2022-03-06T10:36:51Z</time>
      </trkpt>
      <trkpt lat="46.51514" lon="0.34121">
        <ele>64.2</ele>
        <time>2022-03-06T10:36:52Z</time>
      </trkpt>
      <trkpt lat="46.51534" lon="0.3413">
        <ele>63.8</ele>
        <time>2022-03-06T10:36:56Z</time>
      </trkpt>
      <trkpt lat="46.51572" lon="0.34138">
        <ele>63.8</ele>
        <time>2022-03-06T10:37:03Z</time>
      </trkpt>
      <trkpt lat="46.51593" lon="0.34139">
        <ele>63.4</ele>
        <time>2022-03-06T10:37:07Z</time>
      </trkpt>
      <trkpt lat="46.51602" lon="0.34142">
        <ele>63.4</ele>
        <time>2022-03-06T10:37:09Z</time>
      </trkpt>
      <trkpt lat="46.5163" lon="0.34154">
        <ele>63.4</ele>
        <time>2022-03-06T10:37:15Z</time>
      </trkpt>
      <trkpt lat="46.51635" lon="0.3416">
        <ele>63.4</ele>
        <time>2022-03-06T10:37:17Z</time>
      </trkpt>
      <trkpt lat="46.51636" lon="0.34167">
        <ele>63.8</ele>
        <time>2022-03-06T10:37:19Z</time>
      </trkpt>
      <trkpt lat="46.51637" lon="0.34183">
        <ele>65.2</ele>
        <time>2022-03-06T10:37:25Z</time>
      </trkpt>
      <trkpt lat="46.51637" lon="0.34185">
        <ele>65.6</ele>
        <time>2022-03-06T10:37:26Z</time>
      </trkpt>
      <trkpt lat="46.51637" lon="0.34191">
        <ele>66.8</ele>
        <time>2022-03-06T10:37:28Z</time>
      </trkpt>
      <trkpt lat="46.51637" lon="0.34193">
        <ele>67</ele>
        <time>2022-03-06T10:37:29Z</time>
      </trkpt>
      <trkpt lat="46.51639" lon="0.34196">
        <ele>67.8</ele>
        <time>2022-03-06T10:37:31Z</time>
      </trkpt>
      <trkpt lat="46.5164" lon="0.34198">
        <ele>68.6</ele>
        <time>2022-03-06T10:37:33Z</time>
      </trkpt>
      <trkpt lat="46.51641" lon="0.342">
        <ele>69</ele>
        <time>2022-03-06T10:37:34Z</time>
      </trkpt>
      <trkpt lat="46.51646" lon="0.34208">
        <ele>70</ele>
        <time>2022-03-06T10:37:38Z</time>
      </trkpt>
      <trkpt lat="46.51649" lon="0.3421">
        <ele>70</ele>
        <time>2022-03-06T10:37:39Z</time>
      </trkpt>
      <trkpt lat="46.51662" lon="0.34217">
        <ele>69.4</ele>
        <time>2022-03-06T10:37:43Z</time>
      </trkpt>
      <trkpt lat="46.51666" lon="0.34218">
        <ele>69.4</ele>
        <time>2022-03-06T10:37:44Z</time>
      </trkpt>
      <trkpt lat="46.51673" lon="0.3422">
        <ele>68.8</ele>
        <time>2022-03-06T10:37:46Z</time>
      </trkpt>
      <trkpt lat="46.51677" lon="0.34218">
        <ele>68.4</ele>
        <time>2022-03-06T10:37:48Z</time>
      </trkpt>
      <trkpt lat="46.51687" lon="0.34207">
        <ele>68</ele>
        <time>2022-03-06T10:37:52Z</time>
      </trkpt>
      <trkpt lat="46.51692" lon="0.34197">
        <ele>67.8</ele>
        <time>2022-03-06T10:37:54Z</time>
      </trkpt>
      <trkpt lat="46.51701" lon="0.34178">
        <ele>67.4</ele>
        <time>2022-03-06T10:37:57Z</time>
      </trkpt>
      <trkpt lat="46.51716" lon="0.34143">
        <ele>66.8</ele>
        <time>2022-03-06T10:38:02Z</time>
      </trkpt>
      <trkpt lat="46.51722" lon="0.34127">
        <ele>66.2</ele>
        <time>2022-03-06T10:38:04Z</time>
      </trkpt>
      <trkpt lat="46.51727" lon="0.34109">
        <ele>65.8</ele>
        <time>2022-03-06T10:38:06Z</time>
      </trkpt>
      <trkpt lat="46.51729" lon="0.341">
        <ele>65.8</ele>
        <time>2022-03-06T10:38:07Z</time>
      </trkpt>
      <trkpt lat="46.51731" lon="0.34081">
        <ele>65.6</ele>
        <time>2022-03-06T10:38:09Z</time>
      </trkpt>
      <trkpt lat="46.5173" lon="0.34054">
        <ele>65.6</ele>
        <time>2022-03-06T10:38:12Z</time>
      </trkpt>
      <trkpt lat="46.51731" lon="0.34047">
        <ele>65.6</ele>
        <time>2022-03-06T10:38:13Z</time>
      </trkpt>
      <trkpt lat="46.51733" lon="0.34041">
        <ele>65.4</ele>
        <time>2022-03-06T10:38:14Z</time>
      </trkpt>
      <trkpt lat="46.5174" lon="0.34036">
        <ele>64.8</ele>
        <time>2022-03-06T10:38:16Z</time>
      </trkpt>
      <trkpt lat="46.5175" lon="0.34041">
        <ele>64.8</ele>
        <time>2022-03-06T10:38:18Z</time>
      </trkpt>
      <trkpt lat="46.51755" lon="0.34044">
        <ele>64.8</ele>
        <time>2022-03-06T10:38:19Z</time>
      </trkpt>
      <trkpt lat="46.51787" lon="0.34061">
        <ele>64.8</ele>
        <time>2022-03-06T10:38:24Z</time>
      </trkpt>
      <trkpt lat="46.51794" lon="0.34062">
        <ele>64.8</ele>
        <time>2022-03-06T10:38:25Z</time>
      </trkpt>
      <trkpt lat="46.51807" lon="0.34059">
        <ele>64.8</ele>
        <time>2022-03-06T10:38:27Z</time>
      </trkpt>
      <trkpt lat="46.51822" lon="0.34055">
        <ele>64.8</ele>
        <time>2022-03-06T10:38:29Z</time>
      </trkpt>
      <trkpt lat="46.51836" lon="0.34058">
        <ele>65</ele>
        <time>2022-03-06T10:38:31Z</time>
      </trkpt>
      <trkpt lat="46.5185" lon="0.34066">
        <ele>65</ele>
        <time>2022-03-06T10:38:33Z</time>
      </trkpt>
      <trkpt lat="46.51867" lon="0.34068">
        <ele>65.2</ele>
        <time>2022-03-06T10:38:35Z</time>
      </trkpt>
      <trkpt lat="46.51904" lon="0.34056">
        <ele>64.4</ele>
        <time>2022-03-06T10:38:40Z</time>
      </trkpt>
      <trkpt lat="46.51942" lon="0.34045">
        <ele>64.2</ele>
        <time>2022-03-06T10:38:46Z</time>
      </trkpt>
      <trkpt lat="46.51962" lon="0.34039">
        <ele>63.8</ele>
        <time>2022-03-06T10:38:50Z</time>
      </trkpt>
      <trkpt lat="46.51967" lon="0.34037">
        <ele>63.8</ele>
        <time>2022-03-06T10:38:51Z</time>
      </trkpt>
      <trkpt lat="46.5197" lon="0.34035">
        <ele>63.8</ele>
        <time>2022-03-06T10:38:52Z</time>
      </trkpt>
      <trkpt lat="46.51975" lon="0.34024">
        <ele>63.8</ele>
        <time>2022-03-06T10:38:54Z</time>
      </trkpt>
      <trkpt lat="46.51973" lon="0.33997">
        <ele>63.8</ele>
        <time>2022-03-06T10:38:59Z</time>
      </trkpt>
      <trkpt lat="46.51969" lon="0.33967">
        <ele>63.6</ele>
        <time>2022-03-06T10:39:05Z</time>
      </trkpt>
      <trkpt lat="46.51972" lon="0.33937">
        <ele>63.4</ele>
        <time>2022-03-06T10:39:10Z</time>
      </trkpt>
      <trkpt lat="46.51975" lon="0.33884">
        <ele>63.6</ele>
        <time>2022-03-06T10:39:18Z</time>
      </trkpt>
      <trkpt lat="46.51976" lon="0.33848">
        <ele>63.6</ele>
        <time>2022-03-06T10:39:23Z</time>
      </trkpt>
      <trkpt lat="46.51977" lon="0.33828">
        <ele>63.4</ele>
        <time>2022-03-06T10:39:26Z</time>
      </trkpt>
      <trkpt lat="46.51977" lon="0.33808">
        <ele>63.4</ele>
        <time>2022-03-06T10:39:29Z</time>
      </trkpt>
      <trkpt lat="46.51977" lon="0.33795">
        <ele>63.4</ele>
        <time>2022-03-06T10:39:31Z</time>
      </trkpt>
      <trkpt lat="46.51977" lon="0.33789">
        <ele>63.4</ele>
        <time>2022-03-06T10:39:32Z</time>
      </trkpt>
      <trkpt lat="46.51978" lon="0.33769">
        <ele>63.4</ele>
        <time>2022-03-06T10:39:35Z</time>
      </trkpt>
      <trkpt lat="46.51982" lon="0.33759">
        <ele>63.6</ele>
        <time>2022-03-06T10:39:37Z</time>
      </trkpt>
      <trkpt lat="46.51988" lon="0.33749">
        <ele>63.8</ele>
        <time>2022-03-06T10:39:39Z</time>
      </trkpt>
      <trkpt lat="46.51998" lon="0.33737">
        <ele>63.8</ele>
        <time>2022-03-06T10:39:42Z</time>
      </trkpt>
      <trkpt lat="46.52001" lon="0.33735">
        <ele>63.8</ele>
        <time>2022-03-06T10:39:43Z</time>
      </trkpt>
      <trkpt lat="46.52004" lon="0.33733">
        <ele>63.8</ele>
        <time>2022-03-06T10:39:44Z</time>
      </trkpt>
      <trkpt lat="46.52016" lon="0.33733">
        <ele>64</ele>
        <time>2022-03-06T10:39:48Z</time>
      </trkpt>
      <trkpt lat="46.52035" lon="0.33735">
        <ele>64</ele>
        <time>2022-03-06T10:39:53Z</time>
      </trkpt>
      <trkpt lat="46.52059" lon="0.33737">
        <ele>63.8</ele>
        <time>2022-03-06T10:39:59Z</time>
      </trkpt>
      <trkpt lat="46.52062" lon="0.33738">
        <ele>63.8</ele>
        <time>2022-03-06T10:40:00Z</time>
      </trkpt>
      <trkpt lat="46.52064" lon="0.33739">
        <ele>64</ele>
        <time>2022-03-06T10:40:01Z</time>
      </trkpt>
      <trkpt lat="46.52065" lon="0.33745">
        <ele>64.4</ele>
        <time>2022-03-06T10:40:03Z</time>
      </trkpt>
      <trkpt lat="46.52065" lon="0.33748">
        <ele>64.6</ele>
        <time>2022-03-06T10:40:04Z</time>
      </trkpt>
      <trkpt lat="46.52065" lon="0.33753">
        <ele>64.8</ele>
        <time>2022-03-06T10:40:05Z</time>
      </trkpt>
      <trkpt lat="46.52061" lon="0.33772">
        <ele>64.8</ele>
        <time>2022-03-06T10:40:09Z</time>
      </trkpt>
      <trkpt lat="46.52058" lon="0.33809">
        <ele>65</ele>
        <time>2022-03-06T10:40:15Z</time>
      </trkpt>
      <trkpt lat="46.52059" lon="0.33815">
        <ele>65</ele>
        <time>2022-03-06T10:40:16Z</time>
      </trkpt>
      <trkpt lat="46.52064" lon="0.33854">
        <ele>64.6</ele>
        <time>2022-03-06T10:40:22Z</time>
      </trkpt>
      <trkpt lat="46.52073" lon="0.33912">
        <ele>64.6</ele>
        <time>2022-03-06T10:40:30Z</time>
      </trkpt>
      <trkpt lat="46.5208" lon="0.33946">
        <ele>64.6</ele>
        <time>2022-03-06T10:40:35Z</time>
      </trkpt>
      <trkpt lat="46.52083" lon="0.33952">
        <ele>64.6</ele>
        <time>2022-03-06T10:40:36Z</time>
      </trkpt>
      <trkpt lat="46.5209" lon="0.33965">
        <ele>64.4</ele>
        <time>2022-03-06T10:40:39Z</time>
      </trkpt>
      <trkpt lat="46.52093" lon="0.33967">
        <ele>64.4</ele>
        <time>2022-03-06T10:40:40Z</time>
      </trkpt>
      <trkpt lat="46.52109" lon="0.33976">
        <ele>64</ele>
        <time>2022-03-06T10:40:44Z</time>
      </trkpt>
      <trkpt lat="46.52113" lon="0.33979">
        <ele>64</ele>
        <time>2022-03-06T10:40:45Z</time>
      </trkpt>
      <trkpt lat="46.52149" lon="0.33993">
        <ele>64</ele>
        <time>2022-03-06T10:40:52Z</time>
      </trkpt>
      <trkpt lat="46.52154" lon="0.33993">
        <ele>63.8</ele>
        <time>2022-03-06T10:40:53Z</time>
      </trkpt>
      <trkpt lat="46.52171" lon="0.33992">
        <ele>63.8</ele>
        <time>2022-03-06T10:40:57Z</time>
      </trkpt>
      <trkpt lat="46.52196" lon="0.33989">
        <ele>63.8</ele>
        <time>2022-03-06T10:41:02Z</time>
      </trkpt>
      <trkpt lat="46.52201" lon="0.33987">
        <ele>63.8</ele>
        <time>2022-03-06T10:41:03Z</time>
      </trkpt>
      <trkpt lat="46.52209" lon="0.33983">
        <ele>63.8</ele>
        <time>2022-03-06T10:41:04Z</time>
      </trkpt>
      <trkpt lat="46.52224" lon="0.3397">
        <ele>64</ele>
        <time>2022-03-06T10:41:07Z</time>
      </trkpt>
      <trkpt lat="46.52263" lon="0.33938">
        <ele>64.6</ele>
        <time>2022-03-06T10:41:14Z</time>
      </trkpt>
      <trkpt lat="46.52297" lon="0.33913">
        <ele>64.6</ele>
        <time>2022-03-06T10:41:21Z</time>
      </trkpt>
      <trkpt lat="46.52337" lon="0.33883">
        <ele>64.8</ele>
        <time>2022-03-06T10:41:29Z</time>
      </trkpt>
      <trkpt lat="46.52384" lon="0.33852">
        <ele>64.4</ele>
        <time>2022-03-06T10:41:38Z</time>
      </trkpt>
      <trkpt lat="46.52417" lon="0.33823">
        <ele>64</ele>
        <time>2022-03-06T10:41:45Z</time>
      </trkpt>
      <trkpt lat="46.52443" lon="0.33794">
        <ele>63.8</ele>
        <time>2022-03-06T10:41:51Z</time>
      </trkpt>
      <trkpt lat="46.52448" lon="0.33789">
        <ele>63.6</ele>
        <time>2022-03-06T10:41:52Z</time>
      </trkpt>
      <trkpt lat="46.52457" lon="0.33778">
        <ele>63.8</ele>
        <time>2022-03-06T10:41:54Z</time>
      </trkpt>
      <trkpt lat="46.52478" lon="0.33755">
        <ele>63.8</ele>
        <time>2022-03-06T10:41:59Z</time>
      </trkpt>
      <trkpt lat="46.52489" lon="0.3374">
        <ele>63.8</ele>
        <time>2022-03-06T10:42:02Z</time>
      </trkpt>
      <trkpt lat="46.52497" lon="0.33725">
        <ele>63.8</ele>
        <time>2022-03-06T10:42:05Z</time>
      </trkpt>
      <trkpt lat="46.52499" lon="0.3372">
        <ele>63.8</ele>
        <time>2022-03-06T10:42:06Z</time>
      </trkpt>
      <trkpt lat="46.52503" lon="0.33699">
        <ele>64.4</ele>
        <time>2022-03-06T10:42:10Z</time>
      </trkpt>
      <trkpt lat="46.52503" lon="0.33689">
        <ele>64.8</ele>
        <time>2022-03-06T10:42:12Z</time>
      </trkpt>
      <trkpt lat="46.52503" lon="0.33675">
        <ele>65.2</ele>
        <time>2022-03-06T10:42:15Z</time>
      </trkpt>
      <trkpt lat="46.52505" lon="0.33668">
        <ele>65.8</ele>
        <time>2022-03-06T10:42:17Z</time>
      </trkpt>
      <trkpt lat="46.52508" lon="0.33657">
        <ele>67</ele>
        <time>2022-03-06T10:42:20Z</time>
      </trkpt>
      <trkpt lat="46.52511" lon="0.33651">
        <ele>68</ele>
        <time>2022-03-06T10:42:22Z</time>
      </trkpt>
      <trkpt lat="46.52513" lon="0.33647">
        <ele>68.4</ele>
        <time>2022-03-06T10:42:23Z</time>
      </trkpt>
      <trkpt lat="46.52519" lon="0.33634">
        <ele>69.4</ele>
        <time>2022-03-06T10:42:27Z</time>
      </trkpt>
      <trkpt lat="46.52525" lon="0.33618">
        <ele>70.4</ele>
        <time>2022-03-06T10:42:31Z</time>
      </trkpt>
      <trkpt lat="46.52527" lon="0.33614">
        <ele>70.8</ele>
        <time>2022-03-06T10:42:32Z</time>
      </trkpt>
      <trkpt lat="46.5253" lon="0.33595">
        <ele>72</ele>
        <time>2022-03-06T10:42:37Z</time>
      </trkpt>
      <trkpt lat="46.5253" lon="0.33591">
        <ele>72.2</ele>
        <time>2022-03-06T10:42:38Z</time>
      </trkpt>
      <trkpt lat="46.52528" lon="0.33572">
        <ele>73</ele>
        <time>2022-03-06T10:42:43Z</time>
      </trkpt>
      <trkpt lat="46.52528" lon="0.33564">
        <ele>73.6</ele>
        <time>2022-03-06T10:42:45Z</time>
      </trkpt>
      <trkpt lat="46.52528" lon="0.33556">
        <ele>74</ele>
        <time>2022-03-06T10:42:47Z</time>
      </trkpt>
      <trkpt lat="46.52526" lon="0.33537">
        <ele>75.2</ele>
        <time>2022-03-06T10:42:52Z</time>
      </trkpt>
      <trkpt lat="46.52525" lon="0.3352">
        <ele>76.2</ele>
        <time>2022-03-06T10:42:56Z</time>
      </trkpt>
      <trkpt lat="46.52527" lon="0.33485">
        <ele>77.2</ele>
        <time>2022-03-06T10:43:04Z</time>
      </trkpt>
      <trkpt lat="46.52528" lon="0.3348">
        <ele>77.4</ele>
        <time>2022-03-06T10:43:05Z</time>
      </trkpt>
      <trkpt lat="46.52532" lon="0.33443">
        <ele>78.2</ele>
        <time>2022-03-06T10:43:12Z</time>
      </trkpt>
      <trkpt lat="46.52535" lon="0.33425">
        <ele>78.4</ele>
        <time>2022-03-06T10:43:17Z</time>
      </trkpt>
      <trkpt lat="46.52546" lon="0.33408">
        <ele>79.2</ele>
        <time>2022-03-06T10:43:23Z</time>
      </trkpt>
      <trkpt lat="46.52551" lon="0.33402">
        <ele>79.4</ele>
        <time>2022-03-06T10:43:25Z</time>
      </trkpt>
      <trkpt lat="46.52563" lon="0.33389">
        <ele>80</ele>
        <time>2022-03-06T10:43:30Z</time>
      </trkpt>
      <trkpt lat="46.52578" lon="0.33373">
        <ele>80.2</ele>
        <time>2022-03-06T10:43:37Z</time>
      </trkpt>
      <trkpt lat="46.5258" lon="0.33373">
        <ele>80.2</ele>
        <time>2022-03-06T10:43:38Z</time>
      </trkpt>
      <trkpt lat="46.52584" lon="0.33374">
        <ele>79.8</ele>
        <time>2022-03-06T10:43:41Z</time>
      </trkpt>
      <trkpt lat="46.52593" lon="0.33373">
        <ele>80.2</ele>
        <time>2022-03-06T10:43:46Z</time>
      </trkpt>
      <trkpt lat="46.52604" lon="0.33384">
        <ele>80.4</ele>
        <time>2022-03-06T10:43:51Z</time>
      </trkpt>
      <trkpt lat="46.52612" lon="0.33391">
        <ele>80.6</ele>
        <time>2022-03-06T10:43:54Z</time>
      </trkpt>
      <trkpt lat="46.52617" lon="0.33396">
        <ele>80.8</ele>
        <time>2022-03-06T10:43:56Z</time>
      </trkpt>
      <trkpt lat="46.52635" lon="0.33414">
        <ele>81.4</ele>
        <time>2022-03-06T10:44:03Z</time>
      </trkpt>
      <trkpt lat="46.52641" lon="0.33417">
        <ele>81.6</ele>
        <time>2022-03-06T10:44:05Z</time>
      </trkpt>
      <trkpt lat="46.52654" lon="0.33422">
        <ele>82.8</ele>
        <time>2022-03-06T10:44:10Z</time>
      </trkpt>
      <trkpt lat="46.52669" lon="0.33429">
        <ele>84</ele>
        <time>2022-03-06T10:44:15Z</time>
      </trkpt>
      <trkpt lat="46.52675" lon="0.33432">
        <ele>84.4</ele>
        <time>2022-03-06T10:44:17Z</time>
      </trkpt>
      <trkpt lat="46.52689" lon="0.33437">
        <ele>85</ele>
        <time>2022-03-06T10:44:22Z</time>
      </trkpt>
      <trkpt lat="46.52694" lon="0.33437">
        <ele>85.4</ele>
        <time>2022-03-06T10:44:24Z</time>
      </trkpt>
      <trkpt lat="46.52704" lon="0.33437">
        <ele>86.2</ele>
        <time>2022-03-06T10:44:28Z</time>
      </trkpt>
      <trkpt lat="46.52709" lon="0.33438">
        <ele>86.6</ele>
        <time>2022-03-06T10:44:30Z</time>
      </trkpt>
      <trkpt lat="46.52727" lon="0.33448">
        <ele>87.2</ele>
        <time>2022-03-06T10:44:36Z</time>
      </trkpt>
      <trkpt lat="46.52731" lon="0.3345">
        <ele>87.2</ele>
        <time>2022-03-06T10:44:37Z</time>
      </trkpt>
      <trkpt lat="46.52745" lon="0.33457">
        <ele>87.2</ele>
        <time>2022-03-06T10:44:41Z</time>
      </trkpt>
      <trkpt lat="46.5277" lon="0.3346">
        <ele>87.6</ele>
        <time>2022-03-06T10:44:47Z</time>
      </trkpt>
      <trkpt lat="46.52791" lon="0.33462">
        <ele>88.2</ele>
        <time>2022-03-06T10:44:53Z</time>
      </trkpt>
      <trkpt lat="46.52795" lon="0.33461">
        <ele>88.2</ele>
        <time>2022-03-06T10:44:54Z</time>
      </trkpt>
      <trkpt lat="46.52807" lon="0.33455">
        <ele>88</ele>
        <time>2022-03-06T10:44:57Z</time>
      </trkpt>
      <trkpt lat="46.52812" lon="0.33453">
        <ele>88</ele>
        <time>2022-03-06T10:44:58Z</time>
      </trkpt>
      <trkpt lat="46.52821" lon="0.33452">
        <ele>87.8</ele>
        <time>2022-03-06T10:45:00Z</time>
      </trkpt>
      <trkpt lat="46.52826" lon="0.33452">
        <ele>87.8</ele>
        <time>2022-03-06T10:45:01Z</time>
      </trkpt>
      <trkpt lat="46.52862" lon="0.33457">
        <ele>87</ele>
        <time>2022-03-06T10:45:08Z</time>
      </trkpt>
      <trkpt lat="46.5288" lon="0.33464">
        <ele>87.4</ele>
        <time>2022-03-06T10:45:12Z</time>
      </trkpt>
      <trkpt lat="46.52888" lon="0.33467">
        <ele>88.4</ele>
        <time>2022-03-06T10:45:14Z</time>
      </trkpt>
      <trkpt lat="46.52903" lon="0.33474">
        <ele>89.4</ele>
        <time>2022-03-06T10:45:19Z</time>
      </trkpt>
      <trkpt lat="46.52915" lon="0.33479">
        <ele>90.4</ele>
        <time>2022-03-06T10:45:23Z</time>
      </trkpt>
      <trkpt lat="46.52922" lon="0.33481">
        <ele>91</ele>
        <time>2022-03-06T10:45:25Z</time>
      </trkpt>
      <trkpt lat="46.52927" lon="0.33482">
        <ele>91.8</ele>
        <time>2022-03-06T10:45:27Z</time>
      </trkpt>
      <trkpt lat="46.52938" lon="0.33487">
        <ele>92.6</ele>
        <time>2022-03-06T10:45:31Z</time>
      </trkpt>
      <trkpt lat="46.52945" lon="0.33488">
        <ele>92.8</ele>
        <time>2022-03-06T10:45:34Z</time>
      </trkpt>
      <trkpt lat="46.52949" lon="0.33485">
        <ele>93</ele>
        <time>2022-03-06T10:45:36Z</time>
      </trkpt>
      <trkpt lat="46.5296" lon="0.33483">
        <ele>94</ele>
        <time>2022-03-06T10:45:41Z</time>
      </trkpt>
      <trkpt lat="46.52979" lon="0.3348">
        <ele>95</ele>
        <time>2022-03-06T10:45:46Z</time>
      </trkpt>
      <trkpt lat="46.52989" lon="0.33477">
        <ele>95.6</ele>
        <time>2022-03-06T10:45:49Z</time>
      </trkpt>
      <trkpt lat="46.52993" lon="0.33474">
        <ele>96</ele>
        <time>2022-03-06T10:45:51Z</time>
      </trkpt>
      <trkpt lat="46.52999" lon="0.33471">
        <ele>97</ele>
        <time>2022-03-06T10:45:54Z</time>
      </trkpt>
      <trkpt lat="46.53001" lon="0.3347">
        <ele>97.2</ele>
        <time>2022-03-06T10:45:55Z</time>
      </trkpt>
      <trkpt lat="46.53008" lon="0.33467">
        <ele>98.2</ele>
        <time>2022-03-06T10:45:58Z</time>
      </trkpt>
      <trkpt lat="46.53016" lon="0.33461">
        <ele>99</ele>
        <time>2022-03-06T10:46:02Z</time>
      </trkpt>
      <trkpt lat="46.53022" lon="0.33456">
        <ele>99.4</ele>
        <time>2022-03-06T10:46:05Z</time>
      </trkpt>
      <trkpt lat="46.53032" lon="0.33451">
        <ele>100.4</ele>
        <time>2022-03-06T10:46:09Z</time>
      </trkpt>
      <trkpt lat="46.53038" lon="0.33449">
        <ele>100.8</ele>
        <time>2022-03-06T10:46:11Z</time>
      </trkpt>
      <trkpt lat="46.53055" lon="0.33446">
        <ele>101.4</ele>
        <time>2022-03-06T10:46:17Z</time>
      </trkpt>
      <trkpt lat="46.53077" lon="0.33447">
        <ele>102.2</ele>
        <time>2022-03-06T10:46:25Z</time>
      </trkpt>
      <trkpt lat="46.53088" lon="0.33447">
        <ele>102.4</ele>
        <time>2022-03-06T10:46:30Z</time>
      </trkpt>
      <trkpt lat="46.53091" lon="0.33445">
        <ele>102</ele>
        <time>2022-03-06T10:46:44Z</time>
      </trkpt>
      <trkpt lat="46.53093" lon="0.33443">
        <ele>102</ele>
        <time>2022-03-06T10:47:02Z</time>
      </trkpt>
      <trkpt lat="46.53095" lon="0.33442">
        <ele>101.8</ele>
        <time>2022-03-06T10:47:17Z</time>
      </trkpt>
      <trkpt lat="46.53099" lon="0.33438">
        <ele>102.4</ele>
        <time>2022-03-06T10:47:29Z</time>
      </trkpt>
      <trkpt lat="46.53107" lon="0.33425">
        <ele>103</ele>
        <time>2022-03-06T10:47:35Z</time>
      </trkpt>
      <trkpt lat="46.53108" lon="0.33422">
        <ele>103.8</ele>
        <time>2022-03-06T10:47:36Z</time>
      </trkpt>
      <trkpt lat="46.53113" lon="0.33412">
        <ele>105</ele>
        <time>2022-03-06T10:47:41Z</time>
      </trkpt>
      <trkpt lat="46.53114" lon="0.33409">
        <ele>105.2</ele>
        <time>2022-03-06T10:47:42Z</time>
      </trkpt>
      <trkpt lat="46.53115" lon="0.33406">
        <ele>105.4</ele>
        <time>2022-03-06T10:47:43Z</time>
      </trkpt>
      <trkpt lat="46.53116" lon="0.334">
        <ele>106</ele>
        <time>2022-03-06T10:47:45Z</time>
      </trkpt>
      <trkpt lat="46.53118" lon="0.33387">
        <ele>106.6</ele>
        <time>2022-03-06T10:47:49Z</time>
      </trkpt>
      <trkpt lat="46.53124" lon="0.33374">
        <ele>107</ele>
        <time>2022-03-06T10:47:54Z</time>
      </trkpt>
      <trkpt lat="46.53126" lon="0.33372">
        <ele>107.2</ele>
        <time>2022-03-06T10:47:55Z</time>
      </trkpt>
      <trkpt lat="46.53141" lon="0.33362">
        <ele>108.2</ele>
        <time>2022-03-06T10:48:01Z</time>
      </trkpt>
      <trkpt lat="46.53144" lon="0.33361">
        <ele>108.2</ele>
        <time>2022-03-06T10:48:02Z</time>
      </trkpt>
      <trkpt lat="46.53154" lon="0.33352">
        <ele>109</ele>
        <time>2022-03-06T10:48:07Z</time>
      </trkpt>
      <trkpt lat="46.53158" lon="0.33347">
        <ele>109.2</ele>
        <time>2022-03-06T10:48:09Z</time>
      </trkpt>
      <trkpt lat="46.53168" lon="0.33331">
        <ele>109.6</ele>
        <time>2022-03-06T10:48:14Z</time>
      </trkpt>
      <trkpt lat="46.53177" lon="0.33306">
        <ele>110</ele>
        <time>2022-03-06T10:48:20Z</time>
      </trkpt>
      <trkpt lat="46.53181" lon="0.33294">
        <ele>110.2</ele>
        <time>2022-03-06T10:48:22Z</time>
      </trkpt>
      <trkpt lat="46.53187" lon="0.3328">
        <ele>110.2</ele>
        <time>2022-03-06T10:48:25Z</time>
      </trkpt>
      <trkpt lat="46.53193" lon="0.33258">
        <ele>110.6</ele>
        <time>2022-03-06T10:48:30Z</time>
      </trkpt>
      <trkpt lat="46.53189" lon="0.3324">
        <ele>111.4</ele>
        <time>2022-03-06T10:48:36Z</time>
      </trkpt>
      <trkpt lat="46.53188" lon="0.33229">
        <ele>111.8</ele>
        <time>2022-03-06T10:48:39Z</time>
      </trkpt>
      <trkpt lat="46.53187" lon="0.33215">
        <ele>112.6</ele>
        <time>2022-03-06T10:48:42Z</time>
      </trkpt>
      <trkpt lat="46.53182" lon="0.33171">
        <ele>113.2</ele>
        <time>2022-03-06T10:48:49Z</time>
      </trkpt>
      <trkpt lat="46.5318" lon="0.33131">
        <ele>113.6</ele>
        <time>2022-03-06T10:48:55Z</time>
      </trkpt>
      <trkpt lat="46.5318" lon="0.33124">
        <ele>113.6</ele>
        <time>2022-03-06T10:48:56Z</time>
      </trkpt>
      <trkpt lat="46.53181" lon="0.33111">
        <ele>113.8</ele>
        <time>2022-03-06T10:48:58Z</time>
      </trkpt>
      <trkpt lat="46.5318" lon="0.33085">
        <ele>114</ele>
        <time>2022-03-06T10:49:01Z</time>
      </trkpt>
      <trkpt lat="46.53178" lon="0.33067">
        <ele>113.8</ele>
        <time>2022-03-06T10:49:03Z</time>
      </trkpt>
      <trkpt lat="46.53177" lon="0.33048">
        <ele>113.6</ele>
        <time>2022-03-06T10:49:06Z</time>
      </trkpt>
      <trkpt lat="46.53175" lon="0.33032">
        <ele>113.2</ele>
        <time>2022-03-06T10:49:11Z</time>
      </trkpt>
      <trkpt lat="46.53173" lon="0.33011">
        <ele>113.2</ele>
        <time>2022-03-06T10:49:16Z</time>
      </trkpt>
      <trkpt lat="46.53172" lon="0.33">
        <ele>113</ele>
        <time>2022-03-06T10:49:18Z</time>
      </trkpt>
      <trkpt lat="46.53169" lon="0.32974">
        <ele>112.8</ele>
        <time>2022-03-06T10:49:22Z</time>
      </trkpt>
      <trkpt lat="46.53167" lon="0.32967">
        <ele>112.8</ele>
        <time>2022-03-06T10:49:23Z</time>
      </trkpt>
      <trkpt lat="46.53163" lon="0.32955">
        <ele>112.4</ele>
        <time>2022-03-06T10:49:25Z</time>
      </trkpt>
      <trkpt lat="46.53158" lon="0.32937">
        <ele>112</ele>
        <time>2022-03-06T10:49:28Z</time>
      </trkpt>
      <trkpt lat="46.53146" lon="0.32907">
        <ele>112.2</ele>
        <time>2022-03-06T10:49:33Z</time>
      </trkpt>
      <trkpt lat="46.53144" lon="0.32899">
        <ele>112.2</ele>
        <time>2022-03-06T10:49:34Z</time>
      </trkpt>
      <trkpt lat="46.53134" lon="0.3286">
        <ele>113.8</ele>
        <time>2022-03-06T10:49:40Z</time>
      </trkpt>
      <trkpt lat="46.53131" lon="0.32853">
        <ele>114</ele>
        <time>2022-03-06T10:49:41Z</time>
      </trkpt>
      <trkpt lat="46.53128" lon="0.3284">
        <ele>114.2</ele>
        <time>2022-03-06T10:49:43Z</time>
      </trkpt>
      <trkpt lat="46.53128" lon="0.32828">
        <ele>114.4</ele>
        <time>2022-03-06T10:49:45Z</time>
      </trkpt>
      <trkpt lat="46.53131" lon="0.3282">
        <ele>114.4</ele>
        <time>2022-03-06T10:49:47Z</time>
      </trkpt>
      <trkpt lat="46.53139" lon="0.32807">
        <ele>114.2</ele>
        <time>2022-03-06T10:49:50Z</time>
      </trkpt>
      <trkpt lat="46.53148" lon="0.32793">
        <ele>114.2</ele>
        <time>2022-03-06T10:49:53Z</time>
      </trkpt>
      <trkpt lat="46.53159" lon="0.3278">
        <ele>113.8</ele>
        <time>2022-03-06T10:49:56Z</time>
      </trkpt>
      <trkpt lat="46.53178" lon="0.32766">
        <ele>113.4</ele>
        <time>2022-03-06T10:50:00Z</time>
      </trkpt>
      <trkpt lat="46.53189" lon="0.32761">
        <ele>113.2</ele>
        <time>2022-03-06T10:50:02Z</time>
      </trkpt>
      <trkpt lat="46.53202" lon="0.32754">
        <ele>113.2</ele>
        <time>2022-03-06T10:50:04Z</time>
      </trkpt>
      <trkpt lat="46.53221" lon="0.32746">
        <ele>113.2</ele>
        <time>2022-03-06T10:50:07Z</time>
      </trkpt>
      <trkpt lat="46.53232" lon="0.32743">
        <ele>113.4</ele>
        <time>2022-03-06T10:50:09Z</time>
      </trkpt>
      <trkpt lat="46.5324" lon="0.32745">
        <ele>113.6</ele>
        <time>2022-03-06T10:50:11Z</time>
      </trkpt>
      <trkpt lat="46.53244" lon="0.32745">
        <ele>113.6</ele>
        <time>2022-03-06T10:50:12Z</time>
      </trkpt>
      <trkpt lat="46.53254" lon="0.32742">
        <ele>113.4</ele>
        <time>2022-03-06T10:50:14Z</time>
      </trkpt>
      <trkpt lat="46.53258" lon="0.32739">
        <ele>113.4</ele>
        <time>2022-03-06T10:50:15Z</time>
      </trkpt>
      <trkpt lat="46.53278" lon="0.32731">
        <ele>113</ele>
        <time>2022-03-06T10:50:19Z</time>
      </trkpt>
      <trkpt lat="46.53283" lon="0.32731">
        <ele>113</ele>
        <time>2022-03-06T10:50:20Z</time>
      </trkpt>
      <trkpt lat="46.53287" lon="0.32733">
        <ele>113</ele>
        <time>2022-03-06T10:50:21Z</time>
      </trkpt>
      <trkpt lat="46.53299" lon="0.32743">
        <ele>112.8</ele>
        <time>2022-03-06T10:50:24Z</time>
      </trkpt>
      <trkpt lat="46.53308" lon="0.32752">
        <ele>113</ele>
        <time>2022-03-06T10:50:26Z</time>
      </trkpt>
      <trkpt lat="46.53313" lon="0.32761">
        <ele>113.2</ele>
        <time>2022-03-06T10:50:28Z</time>
      </trkpt>
      <trkpt lat="46.5332" lon="0.32783">
        <ele>113.6</ele>
        <time>2022-03-06T10:50:32Z</time>
      </trkpt>
      <trkpt lat="46.53327" lon="0.32789">
        <ele>113.8</ele>
        <time>2022-03-06T10:50:34Z</time>
      </trkpt>
      <trkpt lat="46.53344" lon="0.32795">
        <ele>113.8</ele>
        <time>2022-03-06T10:50:38Z</time>
      </trkpt>
      <trkpt lat="46.53355" lon="0.32798">
        <ele>113.8</ele>
        <time>2022-03-06T10:50:40Z</time>
      </trkpt>
      <trkpt lat="46.5339" lon="0.3281">
        <ele>113.4</ele>
        <time>2022-03-06T10:50:47Z</time>
      </trkpt>
      <trkpt lat="46.53405" lon="0.32815">
        <ele>113.2</ele>
        <time>2022-03-06T10:50:50Z</time>
      </trkpt>
      <trkpt lat="46.53421" lon="0.32819">
        <ele>112.8</ele>
        <time>2022-03-06T10:50:53Z</time>
      </trkpt>
      <trkpt lat="46.5345" lon="0.3283">
        <ele>112.8</ele>
        <time>2022-03-06T10:50:58Z</time>
      </trkpt>
      <trkpt lat="46.53454" lon="0.32831">
        <ele>112.6</ele>
        <time>2022-03-06T10:50:59Z</time>
      </trkpt>
      <trkpt lat="46.53463" lon="0.32836">
        <ele>112.4</ele>
        <time>2022-03-06T10:51:01Z</time>
      </trkpt>
      <trkpt lat="46.53478" lon="0.3284">
        <ele>112.2</ele>
        <time>2022-03-06T10:51:04Z</time>
      </trkpt>
      <trkpt lat="46.53497" lon="0.32847">
        <ele>112</ele>
        <time>2022-03-06T10:51:07Z</time>
      </trkpt>
      <trkpt lat="46.53515" lon="0.3285">
        <ele>111.8</ele>
        <time>2022-03-06T10:51:10Z</time>
      </trkpt>
      <trkpt lat="46.5352" lon="0.32851">
        <ele>111.8</ele>
        <time>2022-03-06T10:51:11Z</time>
      </trkpt>
      <trkpt lat="46.53539" lon="0.32861">
        <ele>111.6</ele>
        <time>2022-03-06T10:51:15Z</time>
      </trkpt>
      <trkpt lat="46.53545" lon="0.32864">
        <ele>111.6</ele>
        <time>2022-03-06T10:51:16Z</time>
      </trkpt>
      <trkpt lat="46.53586" lon="0.32878">
        <ele>111.2</ele>
        <time>2022-03-06T10:51:23Z</time>
      </trkpt>
      <trkpt lat="46.53597" lon="0.32881">
        <ele>110.8</ele>
        <time>2022-03-06T10:51:25Z</time>
      </trkpt>
      <trkpt lat="46.5361" lon="0.32888">
        <ele>110.6</ele>
        <time>2022-03-06T10:51:28Z</time>
      </trkpt>
      <trkpt lat="46.53632" lon="0.32895">
        <ele>110.4</ele>
        <time>2022-03-06T10:51:33Z</time>
      </trkpt>
      <trkpt lat="46.53636" lon="0.32896">
        <ele>110.4</ele>
        <time>2022-03-06T10:51:34Z</time>
      </trkpt>
      <trkpt lat="46.53646" lon="0.32895">
        <ele>110</ele>
        <time>2022-03-06T10:51:36Z</time>
      </trkpt>
      <trkpt lat="46.53661" lon="0.32896">
        <ele>109.6</ele>
        <time>2022-03-06T10:51:38Z</time>
      </trkpt>
      <trkpt lat="46.53666" lon="0.32894">
        <ele>109.6</ele>
        <time>2022-03-06T10:51:39Z</time>
      </trkpt>
      <trkpt lat="46.53671" lon="0.32893">
        <ele>109.6</ele>
        <time>2022-03-06T10:51:40Z</time>
      </trkpt>
      <trkpt lat="46.53683" lon="0.32898">
        <ele>109.6</ele>
        <time>2022-03-06T10:51:42Z</time>
      </trkpt>
      <trkpt lat="46.53707" lon="0.32907">
        <ele>108.6</ele>
        <time>2022-03-06T10:51:46Z</time>
      </trkpt>
      <trkpt lat="46.53725" lon="0.32913">
        <ele>108</ele>
        <time>2022-03-06T10:51:48Z</time>
      </trkpt>
      <trkpt lat="46.5373" lon="0.32915">
        <ele>107.6</ele>
        <time>2022-03-06T10:51:49Z</time>
      </trkpt>
      <trkpt lat="46.53735" lon="0.32918">
        <ele>107.2</ele>
        <time>2022-03-06T10:51:50Z</time>
      </trkpt>
      <trkpt lat="46.53742" lon="0.3292">
        <ele>106.6</ele>
        <time>2022-03-06T10:51:52Z</time>
      </trkpt>
      <trkpt lat="46.53746" lon="0.32922">
        <ele>106</ele>
        <time>2022-03-06T10:51:53Z</time>
      </trkpt>
      <trkpt lat="46.5375" lon="0.32924">
        <ele>105.4</ele>
        <time>2022-03-06T10:51:55Z</time>
      </trkpt>
      <trkpt lat="46.53752" lon="0.32925">
        <ele>105.2</ele>
        <time>2022-03-06T10:51:56Z</time>
      </trkpt>
      <trkpt lat="46.53762" lon="0.32931">
        <ele>105</ele>
        <time>2022-03-06T10:52:00Z</time>
      </trkpt>
      <trkpt lat="46.53767" lon="0.32933">
        <ele>105</ele>
        <time>2022-03-06T10:52:02Z</time>
      </trkpt>
      <trkpt lat="46.5378" lon="0.3294">
        <ele>104.8</ele>
        <time>2022-03-06T10:52:06Z</time>
      </trkpt>
      <trkpt lat="46.53784" lon="0.32942">
        <ele>104.6</ele>
        <time>2022-03-06T10:52:07Z</time>
      </trkpt>
      <trkpt lat="46.53798" lon="0.3295">
        <ele>104</ele>
        <time>2022-03-06T10:52:10Z</time>
      </trkpt>
      <trkpt lat="46.53812" lon="0.32957">
        <ele>102.4</ele>
        <time>2022-03-06T10:52:13Z</time>
      </trkpt>
      <trkpt lat="46.53818" lon="0.32961">
        <ele>100.6</ele>
        <time>2022-03-06T10:52:15Z</time>
      </trkpt>
      <trkpt lat="46.53819" lon="0.32964">
        <ele>99.8</ele>
        <time>2022-03-06T10:52:16Z</time>
      </trkpt>
      <trkpt lat="46.53819" lon="0.32967">
        <ele>99.4</ele>
        <time>2022-03-06T10:52:17Z</time>
      </trkpt>
      <trkpt lat="46.5382" lon="0.32976">
        <ele>98</ele>
        <time>2022-03-06T10:52:20Z</time>
      </trkpt>
      <trkpt lat="46.53819" lon="0.32982">
        <ele>97.2</ele>
        <time>2022-03-06T10:52:22Z</time>
      </trkpt>
      <trkpt lat="46.53817" lon="0.32992">
        <ele>96.6</ele>
        <time>2022-03-06T10:52:24Z</time>
      </trkpt>
      <trkpt lat="46.53815" lon="0.33006">
        <ele>96.2</ele>
        <time>2022-03-06T10:52:26Z</time>
      </trkpt>
      <trkpt lat="46.53811" lon="0.33019">
        <ele>95.6</ele>
        <time>2022-03-06T10:52:28Z</time>
      </trkpt>
      <trkpt lat="46.53807" lon="0.33035">
        <ele>95.2</ele>
        <time>2022-03-06T10:52:31Z</time>
      </trkpt>
      <trkpt lat="46.53801" lon="0.33053">
        <ele>96</ele>
        <time>2022-03-06T10:52:35Z</time>
      </trkpt>
      <trkpt lat="46.538" lon="0.33058">
        <ele>96.4</ele>
        <time>2022-03-06T10:52:36Z</time>
      </trkpt>
      <trkpt lat="46.53799" lon="0.33064">
        <ele>96.8</ele>
        <time>2022-03-06T10:52:37Z</time>
      </trkpt>
      <trkpt lat="46.53796" lon="0.3308">
        <ele>97.4</ele>
        <time>2022-03-06T10:52:40Z</time>
      </trkpt>
      <trkpt lat="46.53795" lon="0.33085">
        <ele>97.4</ele>
        <time>2022-03-06T10:52:41Z</time>
      </trkpt>
      <trkpt lat="46.53792" lon="0.33098">
        <ele>97.4</ele>
        <time>2022-03-06T10:52:43Z</time>
      </trkpt>
      <trkpt lat="46.53787" lon="0.33108">
        <ele>97.4</ele>
        <time>2022-03-06T10:52:45Z</time>
      </trkpt>
      <trkpt lat="46.53785" lon="0.33112">
        <ele>97.2</ele>
        <time>2022-03-06T10:52:46Z</time>
      </trkpt>
      <trkpt lat="46.5378" lon="0.3312">
        <ele>97.4</ele>
        <time>2022-03-06T10:52:48Z</time>
      </trkpt>
      <trkpt lat="46.53774" lon="0.33129">
        <ele>97.4</ele>
        <time>2022-03-06T10:52:50Z</time>
      </trkpt>
      <trkpt lat="46.53768" lon="0.33135">
        <ele>97.4</ele>
        <time>2022-03-06T10:52:51Z</time>
      </trkpt>
      <trkpt lat="46.53763" lon="0.33145">
        <ele>97.4</ele>
        <time>2022-03-06T10:52:52Z</time>
      </trkpt>
      <trkpt lat="46.5376" lon="0.33149">
        <ele>97.2</ele>
        <time>2022-03-06T10:52:54Z</time>
      </trkpt>
      <trkpt lat="46.5375" lon="0.33166">
        <ele>97</ele>
        <time>2022-03-06T10:52:58Z</time>
      </trkpt>
      <trkpt lat="46.53748" lon="0.33177">
        <ele>97.4</ele>
        <time>2022-03-06T10:53:01Z</time>
      </trkpt>
      <trkpt lat="46.5375" lon="0.33182">
        <ele>97.4</ele>
        <time>2022-03-06T10:53:03Z</time>
      </trkpt>
      <trkpt lat="46.53753" lon="0.33192">
        <ele>97.4</ele>
        <time>2022-03-06T10:53:06Z</time>
      </trkpt>
      <trkpt lat="46.53755" lon="0.33196">
        <ele>97.2</ele>
        <time>2022-03-06T10:53:08Z</time>
      </trkpt>
      <trkpt lat="46.53758" lon="0.332">
        <ele>95.8</ele>
        <time>2022-03-06T10:53:10Z</time>
      </trkpt>
      <trkpt lat="46.53759" lon="0.33204">
        <ele>95.2</ele>
        <time>2022-03-06T10:53:11Z</time>
      </trkpt>
      <trkpt lat="46.53759" lon="0.33208">
        <ele>94.8</ele>
        <time>2022-03-06T10:53:12Z</time>
      </trkpt>
      <trkpt lat="46.53761" lon="0.33236">
        <ele>93.6</ele>
        <time>2022-03-06T10:53:18Z</time>
      </trkpt>
      <trkpt lat="46.53762" lon="0.33243">
        <ele>92.8</ele>
        <time>2022-03-06T10:53:20Z</time>
      </trkpt>
      <trkpt lat="46.53763" lon="0.33244">
        <ele>92.2</ele>
        <time>2022-03-06T10:53:21Z</time>
      </trkpt>
      <trkpt lat="46.53763" lon="0.33245">
        <ele>91.2</ele>
        <time>2022-03-06T10:53:22Z</time>
      </trkpt>
      <trkpt lat="46.53763" lon="0.33245">
        <ele>90.4</ele>
        <time>2022-03-06T10:53:23Z</time>
      </trkpt>
      <trkpt lat="46.53767" lon="0.33248">
        <ele>89.2</ele>
        <time>2022-03-06T10:53:26Z</time>
      </trkpt>
      <trkpt lat="46.53767" lon="0.3325">
        <ele>89</ele>
        <time>2022-03-06T10:53:27Z</time>
      </trkpt>
      <trkpt lat="46.53767" lon="0.33253">
        <ele>88</ele>
        <time>2022-03-06T10:53:29Z</time>
      </trkpt>
      <trkpt lat="46.53769" lon="0.33257">
        <ele>87</ele>
        <time>2022-03-06T10:53:31Z</time>
      </trkpt>
      <trkpt lat="46.53769" lon="0.33259">
        <ele>86.8</ele>
        <time>2022-03-06T10:53:32Z</time>
      </trkpt>
      <trkpt lat="46.5377" lon="0.33262">
        <ele>85.6</ele>
        <time>2022-03-06T10:53:34Z</time>
      </trkpt>
      <trkpt lat="46.53771" lon="0.33264">
        <ele>84.6</ele>
        <time>2022-03-06T10:53:35Z</time>
      </trkpt>
      <trkpt lat="46.53771" lon="0.33265">
        <ele>83.8</ele>
        <time>2022-03-06T10:53:36Z</time>
      </trkpt>
      <trkpt lat="46.53773" lon="0.33273">
        <ele>82.6</ele>
        <time>2022-03-06T10:53:40Z</time>
      </trkpt>
      <trkpt lat="46.53774" lon="0.33275">
        <ele>82.2</ele>
        <time>2022-03-06T10:53:42Z</time>
      </trkpt>
      <trkpt lat="46.53775" lon="0.33276">
        <ele>81.8</ele>
        <time>2022-03-06T10:53:44Z</time>
      </trkpt>
      <trkpt lat="46.53777" lon="0.33276">
        <ele>81.6</ele>
        <time>2022-03-06T10:53:45Z</time>
      </trkpt>
      <trkpt lat="46.53779" lon="0.33276">
        <ele>81.2</ele>
        <time>2022-03-06T10:53:46Z</time>
      </trkpt>
      <trkpt lat="46.5378" lon="0.33282">
        <ele>80.2</ele>
        <time>2022-03-06T10:53:49Z</time>
      </trkpt>
      <trkpt lat="46.53784" lon="0.33283">
        <ele>78.8</ele>
        <time>2022-03-06T10:53:51Z</time>
      </trkpt>
      <trkpt lat="46.53785" lon="0.33282">
        <ele>78.4</ele>
        <time>2022-03-06T10:53:52Z</time>
      </trkpt>
      <trkpt lat="46.53789" lon="0.3328">
        <ele>77.6</ele>
        <time>2022-03-06T10:53:54Z</time>
      </trkpt>
      <trkpt lat="46.53792" lon="0.33279">
        <ele>77.4</ele>
        <time>2022-03-06T10:53:55Z</time>
      </trkpt>
      <trkpt lat="46.53795" lon="0.33279">
        <ele>77.4</ele>
        <time>2022-03-06T10:53:56Z</time>
      </trkpt>
      <trkpt lat="46.53799" lon="0.33279">
        <ele>77</ele>
        <time>2022-03-06T10:53:57Z</time>
      </trkpt>
      <trkpt lat="46.53808" lon="0.33278">
        <ele>74.2</ele>
        <time>2022-03-06T10:53:59Z</time>
      </trkpt>
      <trkpt lat="46.53812" lon="0.33276">
        <ele>72.6</ele>
        <time>2022-03-06T10:54:00Z</time>
      </trkpt>
      <trkpt lat="46.53814" lon="0.33273">
        <ele>71.8</ele>
        <time>2022-03-06T10:54:01Z</time>
      </trkpt>
      <trkpt lat="46.53816" lon="0.3327">
        <ele>71.4</ele>
        <time>2022-03-06T10:54:02Z</time>
      </trkpt>
      <trkpt lat="46.53824" lon="0.33257">
        <ele>69.8</ele>
        <time>2022-03-06T10:54:05Z</time>
      </trkpt>
      <trkpt lat="46.53828" lon="0.33248">
        <ele>69</ele>
        <time>2022-03-06T10:54:07Z</time>
      </trkpt>
      <trkpt lat="46.53829" lon="0.33245">
        <ele>68.8</ele>
        <time>2022-03-06T10:54:08Z</time>
      </trkpt>
      <trkpt lat="46.5383" lon="0.33244">
        <ele>68.6</ele>
        <time>2022-03-06T10:54:09Z</time>
      </trkpt>
      <trkpt lat="46.53828" lon="0.33243">
        <ele>68.6</ele>
        <time>2022-03-06T10:54:11Z</time>
      </trkpt>
      <trkpt lat="46.53828" lon="0.33242">
        <ele>69</ele>
        <time>2022-03-06T10:54:13Z</time>
      </trkpt>
      <trkpt lat="46.53826" lon="0.33236">
        <ele>70.2</ele>
        <time>2022-03-06T10:54:17Z</time>
      </trkpt>
      <trkpt lat="46.53824" lon="0.33234">
        <ele>70.8</ele>
        <time>2022-03-06T10:54:19Z</time>
      </trkpt>
      <trkpt lat="46.53824" lon="0.33233">
        <ele>71.2</ele>
        <time>2022-03-06T10:54:20Z</time>
      </trkpt>
      <trkpt lat="46.53822" lon="0.33229">
        <ele>72.4</ele>
        <time>2022-03-06T10:54:23Z</time>
      </trkpt>
      <trkpt lat="46.53821" lon="0.33227">
        <ele>73.4</ele>
        <time>2022-03-06T10:54:25Z</time>
      </trkpt>
      <trkpt lat="46.5382" lon="0.33226">
        <ele>73.6</ele>
        <time>2022-03-06T10:54:26Z</time>
      </trkpt>
      <trkpt lat="46.53818" lon="0.33224">
        <ele>74.6</ele>
        <time>2022-03-06T10:54:29Z</time>
      </trkpt>
      <trkpt lat="46.53816" lon="0.33222">
        <ele>76</ele>
        <time>2022-03-06T10:54:32Z</time>
      </trkpt>
      <trkpt lat="46.53814" lon="0.3322">
        <ele>76.4</ele>
        <time>2022-03-06T10:54:34Z</time>
      </trkpt>
      <trkpt lat="46.53811" lon="0.33219">
        <ele>77.4</ele>
        <time>2022-03-06T10:54:36Z</time>
      </trkpt>
      <trkpt lat="46.5381" lon="0.33219">
        <ele>78</ele>
        <time>2022-03-06T10:54:39Z</time>
      </trkpt>
      <trkpt lat="46.53809" lon="0.33219">
        <ele>78.2</ele>
        <time>2022-03-06T10:54:51Z</time>
      </trkpt>
      <trkpt lat="46.53809" lon="0.33219">
        <ele>78.4</ele>
        <time>2022-03-06T10:54:53Z</time>
      </trkpt>
      <trkpt lat="46.53807" lon="0.33218">
        <ele>79</ele>
        <time>2022-03-06T10:54:57Z</time>
      </trkpt>
      <trkpt lat="46.53804" lon="0.33216">
        <ele>79.4</ele>
        <time>2022-03-06T10:55:00Z</time>
      </trkpt>
      <trkpt lat="46.53804" lon="0.33215">
        <ele>80.2</ele>
        <time>2022-03-06T10:55:01Z</time>
      </trkpt>
      <trkpt lat="46.538" lon="0.33212">
        <ele>81.2</ele>
        <time>2022-03-06T10:55:07Z</time>
      </trkpt>
      <trkpt lat="46.53796" lon="0.3321">
        <ele>82.6</ele>
        <time>2022-03-06T10:55:13Z</time>
      </trkpt>
      <trkpt lat="46.53794" lon="0.33209">
        <ele>83.2</ele>
        <time>2022-03-06T10:55:16Z</time>
      </trkpt>
      <trkpt lat="46.53792" lon="0.33208">
        <ele>83.6</ele>
        <time>2022-03-06T10:55:19Z</time>
      </trkpt>
      <trkpt lat="46.53789" lon="0.33206">
        <ele>84.8</ele>
        <time>2022-03-06T10:55:24Z</time>
      </trkpt>
      <trkpt lat="46.53786" lon="0.33205">
        <ele>85.4</ele>
        <time>2022-03-06T10:55:28Z</time>
      </trkpt>
      <trkpt lat="46.53785" lon="0.33204">
        <ele>86</ele>
        <time>2022-03-06T10:55:31Z</time>
      </trkpt>
      <trkpt lat="46.5378" lon="0.332">
        <ele>87.2</ele>
        <time>2022-03-06T10:55:36Z</time>
      </trkpt>
      <trkpt lat="46.53776" lon="0.33198">
        <ele>88.2</ele>
        <time>2022-03-06T10:55:39Z</time>
      </trkpt>
      <trkpt lat="46.53775" lon="0.33198">
        <ele>88.8</ele>
        <time>2022-03-06T10:55:41Z</time>
      </trkpt>
      <trkpt lat="46.53771" lon="0.33199">
        <ele>89.2</ele>
        <time>2022-03-06T10:55:46Z</time>
      </trkpt>
      <trkpt lat="46.53769" lon="0.33199">
        <ele>89.4</ele>
        <time>2022-03-06T10:55:48Z</time>
      </trkpt>
      <trkpt lat="46.53767" lon="0.33199">
        <ele>90.6</ele>
        <time>2022-03-06T10:55:51Z</time>
      </trkpt>
      <trkpt lat="46.53766" lon="0.33198">
        <ele>90.8</ele>
        <time>2022-03-06T10:55:52Z</time>
      </trkpt>
      <trkpt lat="46.53761" lon="0.33198">
        <ele>91.6</ele>
        <time>2022-03-06T10:55:57Z</time>
      </trkpt>
      <trkpt lat="46.53757" lon="0.33196">
        <ele>92.8</ele>
        <time>2022-03-06T10:56:01Z</time>
      </trkpt>
      <trkpt lat="46.53755" lon="0.33194">
        <ele>93.2</ele>
        <time>2022-03-06T10:56:04Z</time>
      </trkpt>
      <trkpt lat="46.53754" lon="0.33194">
        <ele>93.2</ele>
        <time>2022-03-06T10:56:05Z</time>
      </trkpt>
      <trkpt lat="46.5375" lon="0.33192">
        <ele>93.8</ele>
        <time>2022-03-06T10:56:14Z</time>
      </trkpt>
      <trkpt lat="46.53749" lon="0.33191">
        <ele>94.2</ele>
        <time>2022-03-06T10:56:15Z</time>
      </trkpt>
      <trkpt lat="46.53748" lon="0.33189">
        <ele>94.4</ele>
        <time>2022-03-06T10:56:16Z</time>
      </trkpt>
      <trkpt lat="46.53747" lon="0.33187">
        <ele>95</ele>
        <time>2022-03-06T10:56:18Z</time>
      </trkpt>
      <trkpt lat="46.53746" lon="0.33183">
        <ele>95.6</ele>
        <time>2022-03-06T10:56:21Z</time>
      </trkpt>
      <trkpt lat="46.53747" lon="0.33177">
        <ele>96</ele>
        <time>2022-03-06T10:56:24Z</time>
      </trkpt>
      <trkpt lat="46.53755" lon="0.33161">
        <ele>96.6</ele>
        <time>2022-03-06T10:56:30Z</time>
      </trkpt>
      <trkpt lat="46.53764" lon="0.33145">
        <ele>96.4</ele>
        <time>2022-03-06T10:56:36Z</time>
      </trkpt>
      <trkpt lat="46.53772" lon="0.33125">
        <ele>96.2</ele>
        <time>2022-03-06T10:56:42Z</time>
      </trkpt>
      <trkpt lat="46.5378" lon="0.33104">
        <ele>96.2</ele>
        <time>2022-03-06T10:56:48Z</time>
      </trkpt>
      <trkpt lat="46.53789" lon="0.33078">
        <ele>95.4</ele>
        <time>2022-03-06T10:56:54Z</time>
      </trkpt>
      <trkpt lat="46.53794" lon="0.33064">
        <ele>94.8</ele>
        <time>2022-03-06T10:56:57Z</time>
      </trkpt>
      <trkpt lat="46.53801" lon="0.33053">
        <ele>94.4</ele>
        <time>2022-03-06T10:57:00Z</time>
      </trkpt>
      <trkpt lat="46.53813" lon="0.33045">
        <ele>93.8</ele>
        <time>2022-03-06T10:57:05Z</time>
      </trkpt>
      <trkpt lat="46.53821" lon="0.33038">
        <ele>93</ele>
        <time>2022-03-06T10:57:07Z</time>
      </trkpt>
      <trkpt lat="46.53826" lon="0.33029">
        <ele>92.6</ele>
        <time>2022-03-06T10:57:09Z</time>
      </trkpt>
      <trkpt lat="46.53832" lon="0.33019">
        <ele>92.4</ele>
        <time>2022-03-06T10:57:12Z</time>
      </trkpt>
      <trkpt lat="46.53836" lon="0.33012">
        <ele>92.6</ele>
        <time>2022-03-06T10:57:14Z</time>
      </trkpt>
      <trkpt lat="46.53841" lon="0.33001">
        <ele>93.8</ele>
        <time>2022-03-06T10:57:17Z</time>
      </trkpt>
      <trkpt lat="46.53847" lon="0.32987">
        <ele>95.2</ele>
        <time>2022-03-06T10:57:20Z</time>
      </trkpt>
      <trkpt lat="46.53849" lon="0.32984">
        <ele>95.6</ele>
        <time>2022-03-06T10:57:21Z</time>
      </trkpt>
      <trkpt lat="46.53856" lon="0.32976">
        <ele>96.4</ele>
        <time>2022-03-06T10:57:24Z</time>
      </trkpt>
      <trkpt lat="46.53858" lon="0.32973">
        <ele>96.6</ele>
        <time>2022-03-06T10:57:25Z</time>
      </trkpt>
      <trkpt lat="46.5387" lon="0.32957">
        <ele>96.6</ele>
        <time>2022-03-06T10:57:30Z</time>
      </trkpt>
      <trkpt lat="46.53873" lon="0.32951">
        <ele>96.4</ele>
        <time>2022-03-06T10:57:32Z</time>
      </trkpt>
      <trkpt lat="46.53875" lon="0.32946">
        <ele>96.4</ele>
        <time>2022-03-06T10:57:34Z</time>
      </trkpt>
      <trkpt lat="46.53877" lon="0.32944">
        <ele>96.4</ele>
        <time>2022-03-06T10:57:35Z</time>
      </trkpt>
      <trkpt lat="46.53879" lon="0.32936">
        <ele>97.4</ele>
        <time>2022-03-06T10:57:38Z</time>
      </trkpt>
      <trkpt lat="46.5388" lon="0.32933">
        <ele>97.8</ele>
        <time>2022-03-06T10:57:39Z</time>
      </trkpt>
      <trkpt lat="46.53882" lon="0.32928">
        <ele>98.4</ele>
        <time>2022-03-06T10:57:41Z</time>
      </trkpt>
      <trkpt lat="46.53883" lon="0.32924">
        <ele>99</ele>
        <time>2022-03-06T10:57:43Z</time>
      </trkpt>
      <trkpt lat="46.53888" lon="0.32917">
        <ele>99.2</ele>
        <time>2022-03-06T10:57:45Z</time>
      </trkpt>
      <trkpt lat="46.53898" lon="0.32899">
        <ele>99</ele>
        <time>2022-03-06T10:57:51Z</time>
      </trkpt>
      <trkpt lat="46.53911" lon="0.32888">
        <ele>98.2</ele>
        <time>2022-03-06T10:57:56Z</time>
      </trkpt>
      <trkpt lat="46.53914" lon="0.32885">
        <ele>97.8</ele>
        <time>2022-03-06T10:57:57Z</time>
      </trkpt>
      <trkpt lat="46.5392" lon="0.32885">
        <ele>97.4</ele>
        <time>2022-03-06T10:57:59Z</time>
      </trkpt>
      <trkpt lat="46.53922" lon="0.32884">
        <ele>97</ele>
        <time>2022-03-06T10:58:00Z</time>
      </trkpt>
      <trkpt lat="46.53925" lon="0.32882">
        <ele>96.8</ele>
        <time>2022-03-06T10:58:01Z</time>
      </trkpt>
      <trkpt lat="46.53929" lon="0.32872">
        <ele>96.4</ele>
        <time>2022-03-06T10:58:04Z</time>
      </trkpt>
      <trkpt lat="46.53934" lon="0.32865">
        <ele>96.2</ele>
        <time>2022-03-06T10:58:06Z</time>
      </trkpt>
      <trkpt lat="46.53941" lon="0.3286">
        <ele>95.4</ele>
        <time>2022-03-06T10:58:09Z</time>
      </trkpt>
      <trkpt lat="46.53945" lon="0.32857">
        <ele>95.2</ele>
        <time>2022-03-06T10:58:10Z</time>
      </trkpt>
      <trkpt lat="46.53947" lon="0.32857">
        <ele>95</ele>
        <time>2022-03-06T10:58:11Z</time>
      </trkpt>
      <trkpt lat="46.53952" lon="0.32855">
        <ele>94.8</ele>
        <time>2022-03-06T10:58:13Z</time>
      </trkpt>
      <trkpt lat="46.53954" lon="0.32853">
        <ele>94.6</ele>
        <time>2022-03-06T10:58:14Z</time>
      </trkpt>
      <trkpt lat="46.53963" lon="0.32848">
        <ele>94.2</ele>
        <time>2022-03-06T10:58:17Z</time>
      </trkpt>
      <trkpt lat="46.53969" lon="0.32844">
        <ele>93.8</ele>
        <time>2022-03-06T10:58:19Z</time>
      </trkpt>
      <trkpt lat="46.53974" lon="0.32836">
        <ele>93.2</ele>
        <time>2022-03-06T10:58:21Z</time>
      </trkpt>
      <trkpt lat="46.53975" lon="0.32833">
        <ele>93</ele>
        <time>2022-03-06T10:58:22Z</time>
      </trkpt>
      <trkpt lat="46.53974" lon="0.3283">
        <ele>92</ele>
        <time>2022-03-06T10:58:23Z</time>
      </trkpt>
      <trkpt lat="46.53973" lon="0.32828">
        <ele>91.6</ele>
        <time>2022-03-06T10:58:24Z</time>
      </trkpt>
      <trkpt lat="46.5397" lon="0.32826">
        <ele>91</ele>
        <time>2022-03-06T10:58:26Z</time>
      </trkpt>
      <trkpt lat="46.5397" lon="0.32825">
        <ele>90.8</ele>
        <time>2022-03-06T10:58:27Z</time>
      </trkpt>
      <trkpt lat="46.53968" lon="0.32822">
        <ele>90.4</ele>
        <time>2022-03-06T10:58:29Z</time>
      </trkpt>
      <trkpt lat="46.53962" lon="0.32822">
        <ele>90.2</ele>
        <time>2022-03-06T10:58:32Z</time>
      </trkpt>
      <trkpt lat="46.53954" lon="0.32824">
        <ele>90.4</ele>
        <time>2022-03-06T10:58:36Z</time>
      </trkpt>
      <trkpt lat="46.53941" lon="0.32825">
        <ele>91.6</ele>
        <time>2022-03-06T10:58:42Z</time>
      </trkpt>
      <trkpt lat="46.53929" lon="0.32827">
        <ele>92.8</ele>
        <time>2022-03-06T10:58:47Z</time>
      </trkpt>
      <trkpt lat="46.53925" lon="0.32828">
        <ele>93.2</ele>
        <time>2022-03-06T10:58:49Z</time>
      </trkpt>
      <trkpt lat="46.53921" lon="0.32828">
        <ele>94.2</ele>
        <time>2022-03-06T10:58:52Z</time>
      </trkpt>
      <trkpt lat="46.53916" lon="0.32828">
        <ele>94.6</ele>
        <time>2022-03-06T10:58:55Z</time>
      </trkpt>
      <trkpt lat="46.53907" lon="0.32829">
        <ele>95.2</ele>
        <time>2022-03-06T10:58:58Z</time>
      </trkpt>
      <trkpt lat="46.53899" lon="0.32828">
        <ele>95.6</ele>
        <time>2022-03-06T10:59:01Z</time>
      </trkpt>
      <trkpt lat="46.53883" lon="0.32824">
        <ele>96</ele>
        <time>2022-03-06T10:59:07Z</time>
      </trkpt>
      <trkpt lat="46.53868" lon="0.32815">
        <ele>95.8</ele>
        <time>2022-03-06T10:59:13Z</time>
      </trkpt>
      <trkpt lat="46.5385" lon="0.32803">
        <ele>96</ele>
        <time>2022-03-06T10:59:19Z</time>
      </trkpt>
      <trkpt lat="46.5383" lon="0.32795">
        <ele>96.2</ele>
        <time>2022-03-06T10:59:25Z</time>
      </trkpt>
      <trkpt lat="46.53827" lon="0.32793">
        <ele>96.4</ele>
        <time>2022-03-06T10:59:26Z</time>
      </trkpt>
      <trkpt lat="46.53805" lon="0.32785">
        <ele>96.6</ele>
        <time>2022-03-06T10:59:32Z</time>
      </trkpt>
      <trkpt lat="46.53774" lon="0.3278">
        <ele>97</ele>
        <time>2022-03-06T10:59:39Z</time>
      </trkpt>
      <trkpt lat="46.53766" lon="0.32778">
        <ele>97.4</ele>
        <time>2022-03-06T10:59:41Z</time>
      </trkpt>
      <trkpt lat="46.53751" lon="0.32776">
        <ele>98</ele>
        <time>2022-03-06T10:59:45Z</time>
      </trkpt>
      <trkpt lat="46.53734" lon="0.32775">
        <ele>98.6</ele>
        <time>2022-03-06T10:59:50Z</time>
      </trkpt>
      <trkpt lat="46.5373" lon="0.32774">
        <ele>98.8</ele>
        <time>2022-03-06T10:59:51Z</time>
      </trkpt>
      <trkpt lat="46.53709" lon="0.32769">
        <ele>99.8</ele>
        <time>2022-03-06T10:59:57Z</time>
      </trkpt>
      <trkpt lat="46.53705" lon="0.32768">
        <ele>100</ele>
        <time>2022-03-06T10:59:58Z</time>
      </trkpt>
      <trkpt lat="46.53691" lon="0.32765">
        <ele>100.6</ele>
        <time>2022-03-06T11:00:03Z</time>
      </trkpt>
      <trkpt lat="46.53685" lon="0.32763">
        <ele>101</ele>
        <time>2022-03-06T11:00:05Z</time>
      </trkpt>
      <trkpt lat="46.53672" lon="0.32764">
        <ele>101.8</ele>
        <time>2022-03-06T11:00:09Z</time>
      </trkpt>
      <trkpt lat="46.5367" lon="0.32764">
        <ele>102.2</ele>
        <time>2022-03-06T11:00:10Z</time>
      </trkpt>
      <trkpt lat="46.53659" lon="0.32765">
        <ele>103.2</ele>
        <time>2022-03-06T11:00:15Z</time>
      </trkpt>
      <trkpt lat="46.53658" lon="0.32765">
        <ele>103.4</ele>
        <time>2022-03-06T11:00:16Z</time>
      </trkpt>
      <trkpt lat="46.53657" lon="0.32764">
        <ele>103.4</ele>
        <time>2022-03-06T11:00:17Z</time>
      </trkpt>
      <trkpt lat="46.53657" lon="0.32762">
        <ele>103.6</ele>
        <time>2022-03-06T11:00:20Z</time>
      </trkpt>
      <trkpt lat="46.53654" lon="0.32749">
        <ele>103.2</ele>
        <time>2022-03-06T11:00:26Z</time>
      </trkpt>
      <trkpt lat="46.53652" lon="0.32729">
        <ele>102.2</ele>
        <time>2022-03-06T11:00:31Z</time>
      </trkpt>
      <trkpt lat="46.53657" lon="0.32718">
        <ele>101</ele>
        <time>2022-03-06T11:00:33Z</time>
      </trkpt>
      <trkpt lat="46.53661" lon="0.32706">
        <ele>99.8</ele>
        <time>2022-03-06T11:00:35Z</time>
      </trkpt>
      <trkpt lat="46.53662" lon="0.327">
        <ele>99</ele>
        <time>2022-03-06T11:00:36Z</time>
      </trkpt>
      <trkpt lat="46.53663" lon="0.32693">
        <ele>98.2</ele>
        <time>2022-03-06T11:00:37Z</time>
      </trkpt>
      <trkpt lat="46.53662" lon="0.32686">
        <ele>96.8</ele>
        <time>2022-03-06T11:00:38Z</time>
      </trkpt>
      <trkpt lat="46.53662" lon="0.3268">
        <ele>95.8</ele>
        <time>2022-03-06T11:00:39Z</time>
      </trkpt>
      <trkpt lat="46.53661" lon="0.32676">
        <ele>94</ele>
        <time>2022-03-06T11:00:40Z</time>
      </trkpt>
      <trkpt lat="46.53659" lon="0.3267">
        <ele>92.4</ele>
        <time>2022-03-06T11:00:42Z</time>
      </trkpt>
      <trkpt lat="46.53654" lon="0.32666">
        <ele>91.4</ele>
        <time>2022-03-06T11:00:44Z</time>
      </trkpt>
      <trkpt lat="46.5365" lon="0.3266">
        <ele>91</ele>
        <time>2022-03-06T11:00:46Z</time>
      </trkpt>
      <trkpt lat="46.53649" lon="0.32656">
        <ele>91</ele>
        <time>2022-03-06T11:00:47Z</time>
      </trkpt>
      <trkpt lat="46.53649" lon="0.32649">
        <ele>90.8</ele>
        <time>2022-03-06T11:00:48Z</time>
      </trkpt>
      <trkpt lat="46.53652" lon="0.32641">
        <ele>90.2</ele>
        <time>2022-03-06T11:00:50Z</time>
      </trkpt>
      <trkpt lat="46.53656" lon="0.32632">
        <ele>88.8</ele>
        <time>2022-03-06T11:00:52Z</time>
      </trkpt>
      <trkpt lat="46.53659" lon="0.32622">
        <ele>87.2</ele>
        <time>2022-03-06T11:00:54Z</time>
      </trkpt>
      <trkpt lat="46.53659" lon="0.32622">
        <ele>85.2</ele>
        <time>2022-03-06T11:00:56Z</time>
      </trkpt>
      <trkpt lat="46.53658" lon="0.3261">
        <ele>84.2</ele>
        <time>2022-03-06T11:00:57Z</time>
      </trkpt>
      <trkpt lat="46.53656" lon="0.32609">
        <ele>83.6</ele>
        <time>2022-03-06T11:00:58Z</time>
      </trkpt>
      <trkpt lat="46.53654" lon="0.32608">
        <ele>83</ele>
        <time>2022-03-06T11:01:00Z</time>
      </trkpt>
      <trkpt lat="46.53652" lon="0.32608">
        <ele>83</ele>
        <time>2022-03-06T11:01:02Z</time>
      </trkpt>
      <trkpt lat="46.53644" lon="0.32609">
        <ele>83.6</ele>
        <time>2022-03-06T11:01:07Z</time>
      </trkpt>
      <trkpt lat="46.53639" lon="0.32608">
        <ele>84</ele>
        <time>2022-03-06T11:01:09Z</time>
      </trkpt>
      <trkpt lat="46.5363" lon="0.32607">
        <ele>85.2</ele>
        <time>2022-03-06T11:01:14Z</time>
      </trkpt>
      <trkpt lat="46.53623" lon="0.32605">
        <ele>86.4</ele>
        <time>2022-03-06T11:01:19Z</time>
      </trkpt>
      <trkpt lat="46.53621" lon="0.32606">
        <ele>86.8</ele>
        <time>2022-03-06T11:01:21Z</time>
      </trkpt>
      <trkpt lat="46.53619" lon="0.32606">
        <ele>87.4</ele>
        <time>2022-03-06T11:01:23Z</time>
      </trkpt>
      <trkpt lat="46.53617" lon="0.32606">
        <ele>87.6</ele>
        <time>2022-03-06T11:01:24Z</time>
      </trkpt>
      <trkpt lat="46.53611" lon="0.32608">
        <ele>88.6</ele>
        <time>2022-03-06T11:01:28Z</time>
      </trkpt>
      <trkpt lat="46.53606" lon="0.32609">
        <ele>89.2</ele>
        <time>2022-03-06T11:01:30Z</time>
      </trkpt>
      <trkpt lat="46.53604" lon="0.32609">
        <ele>89.6</ele>
        <time>2022-03-06T11:01:31Z</time>
      </trkpt>
      <trkpt lat="46.53591" lon="0.32611">
        <ele>90.6</ele>
        <time>2022-03-06T11:01:36Z</time>
      </trkpt>
      <trkpt lat="46.53587" lon="0.32611">
        <ele>91.2</ele>
        <time>2022-03-06T11:01:38Z</time>
      </trkpt>
      <trkpt lat="46.53582" lon="0.32611">
        <ele>91.6</ele>
        <time>2022-03-06T11:01:41Z</time>
      </trkpt>
      <trkpt lat="46.53574" lon="0.32611">
        <ele>92.4</ele>
        <time>2022-03-06T11:01:44Z</time>
      </trkpt>
      <trkpt lat="46.5357" lon="0.32611">
        <ele>92.8</ele>
        <time>2022-03-06T11:01:46Z</time>
      </trkpt>
      <trkpt lat="46.53561" lon="0.32612">
        <ele>93.8</ele>
        <time>2022-03-06T11:01:50Z</time>
      </trkpt>
      <trkpt lat="46.53559" lon="0.32612">
        <ele>93.8</ele>
        <time>2022-03-06T11:01:51Z</time>
      </trkpt>
      <trkpt lat="46.53552" lon="0.32615">
        <ele>94.8</ele>
        <time>2022-03-06T11:01:57Z</time>
      </trkpt>
      <trkpt lat="46.53551" lon="0.32616">
        <ele>94.8</ele>
        <time>2022-03-06T11:01:58Z</time>
      </trkpt>
      <trkpt lat="46.53543" lon="0.3262">
        <ele>96.2</ele>
        <time>2022-03-06T11:02:02Z</time>
      </trkpt>
      <trkpt lat="46.53536" lon="0.32623">
        <ele>96.8</ele>
        <time>2022-03-06T11:02:06Z</time>
      </trkpt>
      <trkpt lat="46.53531" lon="0.32626">
        <ele>97.2</ele>
        <time>2022-03-06T11:02:09Z</time>
      </trkpt>
      <trkpt lat="46.53519" lon="0.3263">
        <ele>98.2</ele>
        <time>2022-03-06T11:02:15Z</time>
      </trkpt>
      <trkpt lat="46.53514" lon="0.32632">
        <ele>98.6</ele>
        <time>2022-03-06T11:02:18Z</time>
      </trkpt>
      <trkpt lat="46.53509" lon="0.32633">
        <ele>99.4</ele>
        <time>2022-03-06T11:02:21Z</time>
      </trkpt>
      <trkpt lat="46.53494" lon="0.32638">
        <ele>100.2</ele>
        <time>2022-03-06T11:02:29Z</time>
      </trkpt>
      <trkpt lat="46.53492" lon="0.32638">
        <ele>100.4</ele>
        <time>2022-03-06T11:02:30Z</time>
      </trkpt>
      <trkpt lat="46.53483" lon="0.32642">
        <ele>101.2</ele>
        <time>2022-03-06T11:02:35Z</time>
      </trkpt>
      <trkpt lat="46.5348" lon="0.32643">
        <ele>101.4</ele>
        <time>2022-03-06T11:02:37Z</time>
      </trkpt>
      <trkpt lat="46.53477" lon="0.32644">
        <ele>102</ele>
        <time>2022-03-06T11:02:40Z</time>
      </trkpt>
      <trkpt lat="46.53469" lon="0.32647">
        <ele>102.6</ele>
        <time>2022-03-06T11:02:45Z</time>
      </trkpt>
      <trkpt lat="46.53461" lon="0.32651">
        <ele>103.8</ele>
        <time>2022-03-06T11:02:50Z</time>
      </trkpt>
      <trkpt lat="46.53456" lon="0.32653">
        <ele>103.8</ele>
        <time>2022-03-06T11:02:52Z</time>
      </trkpt>
      <trkpt lat="46.5344" lon="0.32654">
        <ele>104.8</ele>
        <time>2022-03-06T11:02:59Z</time>
      </trkpt>
      <trkpt lat="46.53438" lon="0.32655">
        <ele>104.8</ele>
        <time>2022-03-06T11:03:00Z</time>
      </trkpt>
      <trkpt lat="46.53426" lon="0.32657">
        <ele>105.2</ele>
        <time>2022-03-06T11:03:05Z</time>
      </trkpt>
      <trkpt lat="46.53416" lon="0.32657">
        <ele>105.8</ele>
        <time>2022-03-06T11:03:09Z</time>
      </trkpt>
      <trkpt lat="46.53413" lon="0.32656">
        <ele>106</ele>
        <time>2022-03-06T11:03:10Z</time>
      </trkpt>
      <trkpt lat="46.53397" lon="0.32652">
        <ele>106.4</ele>
        <time>2022-03-06T11:03:16Z</time>
      </trkpt>
      <trkpt lat="46.53385" lon="0.32648">
        <ele>106.6</ele>
        <time>2022-03-06T11:03:21Z</time>
      </trkpt>
      <trkpt lat="46.53366" lon="0.3264">
        <ele>106.2</ele>
        <time>2022-03-06T11:03:27Z</time>
      </trkpt>
      <trkpt lat="46.53343" lon="0.32627">
        <ele>106</ele>
        <time>2022-03-06T11:03:34Z</time>
      </trkpt>
      <trkpt lat="46.53327" lon="0.32619">
        <ele>106.2</ele>
        <time>2022-03-06T11:03:40Z</time>
      </trkpt>
      <trkpt lat="46.5332" lon="0.32614">
        <ele>106.4</ele>
        <time>2022-03-06T11:03:44Z</time>
      </trkpt>
      <trkpt lat="46.53318" lon="0.32609">
        <ele>106.4</ele>
        <time>2022-03-06T11:03:46Z</time>
      </trkpt>
      <trkpt lat="46.5331" lon="0.32588">
        <ele>105.8</ele>
        <time>2022-03-06T11:03:51Z</time>
      </trkpt>
      <trkpt lat="46.53308" lon="0.32583">
        <ele>105.4</ele>
        <time>2022-03-06T11:03:52Z</time>
      </trkpt>
      <trkpt lat="46.53301" lon="0.32558">
        <ele>104.4</ele>
        <time>2022-03-06T11:03:56Z</time>
      </trkpt>
      <trkpt lat="46.53297" lon="0.32546">
        <ele>104</ele>
        <time>2022-03-06T11:03:58Z</time>
      </trkpt>
      <trkpt lat="46.53296" lon="0.32539">
        <ele>104</ele>
        <time>2022-03-06T11:03:59Z</time>
      </trkpt>
      <trkpt lat="46.53293" lon="0.32533">
        <ele>103.6</ele>
        <time>2022-03-06T11:04:00Z</time>
      </trkpt>
      <trkpt lat="46.53291" lon="0.32528">
        <ele>103.4</ele>
        <time>2022-03-06T11:04:01Z</time>
      </trkpt>
      <trkpt lat="46.53291" lon="0.32524">
        <ele>102.8</ele>
        <time>2022-03-06T11:04:02Z</time>
      </trkpt>
      <trkpt lat="46.5329" lon="0.3252">
        <ele>102.2</ele>
        <time>2022-03-06T11:04:03Z</time>
      </trkpt>
      <trkpt lat="46.5329" lon="0.32519">
        <ele>101.8</ele>
        <time>2022-03-06T11:04:04Z</time>
      </trkpt>
      <trkpt lat="46.53286" lon="0.32512">
        <ele>101.2</ele>
        <time>2022-03-06T11:04:09Z</time>
      </trkpt>
      <trkpt lat="46.53287" lon="0.32512">
        <ele>101</ele>
        <time>2022-03-06T11:04:12Z</time>
      </trkpt>
      <trkpt lat="46.53288" lon="0.32507">
        <ele>101</ele>
        <time>2022-03-06T11:04:18Z</time>
      </trkpt>
      <trkpt lat="46.53288" lon="0.32503">
        <ele>100.8</ele>
        <time>2022-03-06T11:04:20Z</time>
      </trkpt>
      <trkpt lat="46.53288" lon="0.32498">
        <ele>100</ele>
        <time>2022-03-06T11:04:23Z</time>
      </trkpt>
      <trkpt lat="46.53289" lon="0.32479">
        <ele>98.8</ele>
        <time>2022-03-06T11:04:29Z</time>
      </trkpt>
      <trkpt lat="46.53293" lon="0.32472">
        <ele>98.2</ele>
        <time>2022-03-06T11:04:31Z</time>
      </trkpt>
      <trkpt lat="46.53296" lon="0.3247">
        <ele>97.6</ele>
        <time>2022-03-06T11:04:32Z</time>
      </trkpt>
      <trkpt lat="46.53299" lon="0.3247">
        <ele>96.8</ele>
        <time>2022-03-06T11:04:33Z</time>
      </trkpt>
      <trkpt lat="46.53302" lon="0.32469">
        <ele>96.2</ele>
        <time>2022-03-06T11:04:34Z</time>
      </trkpt>
      <trkpt lat="46.53305" lon="0.32469">
        <ele>95.4</ele>
        <time>2022-03-06T11:04:35Z</time>
      </trkpt>
      <trkpt lat="46.53308" lon="0.32469">
        <ele>94.8</ele>
        <time>2022-03-06T11:04:36Z</time>
      </trkpt>
      <trkpt lat="46.53309" lon="0.32469">
        <ele>94.2</ele>
        <time>2022-03-06T11:04:37Z</time>
      </trkpt>
      <trkpt lat="46.53311" lon="0.32469">
        <ele>93.6</ele>
        <time>2022-03-06T11:04:38Z</time>
      </trkpt>
      <trkpt lat="46.53313" lon="0.3247">
        <ele>93.2</ele>
        <time>2022-03-06T11:04:39Z</time>
      </trkpt>
      <trkpt lat="46.53316" lon="0.32471">
        <ele>92.2</ele>
        <time>2022-03-06T11:04:41Z</time>
      </trkpt>
      <trkpt lat="46.53318" lon="0.3247">
        <ele>91.4</ele>
        <time>2022-03-06T11:04:42Z</time>
      </trkpt>
      <trkpt lat="46.5332" lon="0.32469">
        <ele>89.8</ele>
        <time>2022-03-06T11:04:43Z</time>
      </trkpt>
      <trkpt lat="46.53325" lon="0.32465">
        <ele>88.2</ele>
        <time>2022-03-06T11:04:45Z</time>
      </trkpt>
      <trkpt lat="46.5333" lon="0.3246">
        <ele>86.8</ele>
        <time>2022-03-06T11:04:47Z</time>
      </trkpt>
      <trkpt lat="46.53335" lon="0.32456">
        <ele>85.4</ele>
        <time>2022-03-06T11:04:49Z</time>
      </trkpt>
      <trkpt lat="46.53337" lon="0.32455">
        <ele>84.6</ele>
        <time>2022-03-06T11:04:50Z</time>
      </trkpt>
      <trkpt lat="46.5334" lon="0.32455">
        <ele>84</ele>
        <time>2022-03-06T11:04:51Z</time>
      </trkpt>
      <trkpt lat="46.53342" lon="0.32455">
        <ele>83.6</ele>
        <time>2022-03-06T11:04:52Z</time>
      </trkpt>
      <trkpt lat="46.53346" lon="0.32454">
        <ele>82.8</ele>
        <time>2022-03-06T11:04:54Z</time>
      </trkpt>
      <trkpt lat="46.53349" lon="0.32448">
        <ele>81.8</ele>
        <time>2022-03-06T11:04:56Z</time>
      </trkpt>
      <trkpt lat="46.5335" lon="0.32445">
        <ele>81.4</ele>
        <time>2022-03-06T11:04:57Z</time>
      </trkpt>
      <trkpt lat="46.53353" lon="0.32438">
        <ele>79.8</ele>
        <time>2022-03-06T11:04:59Z</time>
      </trkpt>
      <trkpt lat="46.53354" lon="0.32435">
        <ele>78.8</ele>
        <time>2022-03-06T11:05:00Z</time>
      </trkpt>
      <trkpt lat="46.53357" lon="0.32431">
        <ele>77.6</ele>
        <time>2022-03-06T11:05:02Z</time>
      </trkpt>
      <trkpt lat="46.53359" lon="0.32429">
        <ele>76.8</ele>
        <time>2022-03-06T11:05:03Z</time>
      </trkpt>
      <trkpt lat="46.53361" lon="0.32427">
        <ele>76.4</ele>
        <time>2022-03-06T11:05:04Z</time>
      </trkpt>
      <trkpt lat="46.53362" lon="0.32426">
        <ele>76</ele>
        <time>2022-03-06T11:05:05Z</time>
      </trkpt>
      <trkpt lat="46.53365" lon="0.32425">
        <ele>75</ele>
        <time>2022-03-06T11:05:07Z</time>
      </trkpt>
      <trkpt lat="46.53365" lon="0.32424">
        <ele>74.6</ele>
        <time>2022-03-06T11:05:08Z</time>
      </trkpt>
      <trkpt lat="46.5337" lon="0.32411">
        <ele>74</ele>
        <time>2022-03-06T11:05:16Z</time>
      </trkpt>
      <trkpt lat="46.53366" lon="0.32395">
        <ele>73.8</ele>
        <time>2022-03-06T11:05:20Z</time>
      </trkpt>
      <trkpt lat="46.53359" lon="0.32368">
        <ele>74</ele>
        <time>2022-03-06T11:05:26Z</time>
      </trkpt>
      <trkpt lat="46.53349" lon="0.32346">
        <ele>75</ele>
        <time>2022-03-06T11:05:32Z</time>
      </trkpt>
      <trkpt lat="46.53347" lon="0.32342">
        <ele>75.2</ele>
        <time>2022-03-06T11:05:33Z</time>
      </trkpt>
      <trkpt lat="46.5334" lon="0.32332">
        <ele>76.2</ele>
        <time>2022-03-06T11:05:36Z</time>
      </trkpt>
      <trkpt lat="46.53333" lon="0.32323">
        <ele>76.6</ele>
        <time>2022-03-06T11:05:39Z</time>
      </trkpt>
      <trkpt lat="46.53327" lon="0.32315">
        <ele>77.2</ele>
        <time>2022-03-06T11:05:42Z</time>
      </trkpt>
      <trkpt lat="46.5332" lon="0.32308">
        <ele>77.6</ele>
        <time>2022-03-06T11:05:45Z</time>
      </trkpt>
      <trkpt lat="46.53309" lon="0.32301">
        <ele>78.4</ele>
        <time>2022-03-06T11:05:49Z</time>
      </trkpt>
      <trkpt lat="46.53303" lon="0.32298">
        <ele>78.6</ele>
        <time>2022-03-06T11:05:51Z</time>
      </trkpt>
      <trkpt lat="46.53292" lon="0.32287">
        <ele>79.4</ele>
        <time>2022-03-06T11:05:56Z</time>
      </trkpt>
      <trkpt lat="46.5329" lon="0.32285">
        <ele>79.6</ele>
        <time>2022-03-06T11:05:57Z</time>
      </trkpt>
      <trkpt lat="46.53287" lon="0.32282">
        <ele>79.8</ele>
        <time>2022-03-06T11:05:59Z</time>
      </trkpt>
      <trkpt lat="46.53285" lon="0.32282">
        <ele>79.8</ele>
        <time>2022-03-06T11:06:01Z</time>
      </trkpt>
      <trkpt lat="46.53291" lon="0.32291">
        <ele>79.8</ele>
        <time>2022-03-06T11:06:05Z</time>
      </trkpt>
      <trkpt lat="46.53308" lon="0.32307">
        <ele>79.4</ele>
        <time>2022-03-06T11:06:10Z</time>
      </trkpt>
      <trkpt lat="46.53322" lon="0.32323">
        <ele>78</ele>
        <time>2022-03-06T11:06:13Z</time>
      </trkpt>
      <trkpt lat="46.5333" lon="0.32335">
        <ele>77.6</ele>
        <time>2022-03-06T11:06:15Z</time>
      </trkpt>
      <trkpt lat="46.53339" lon="0.32349">
        <ele>76.8</ele>
        <time>2022-03-06T11:06:17Z</time>
      </trkpt>
      <trkpt lat="46.53351" lon="0.32371">
        <ele>75.8</ele>
        <time>2022-03-06T11:06:20Z</time>
      </trkpt>
      <trkpt lat="46.53365" lon="0.32398">
        <ele>74.6</ele>
        <time>2022-03-06T11:06:24Z</time>
      </trkpt>
      <trkpt lat="46.53373" lon="0.3241">
        <ele>74.4</ele>
        <time>2022-03-06T11:06:26Z</time>
      </trkpt>
      <trkpt lat="46.5339" lon="0.32428">
        <ele>74.6</ele>
        <time>2022-03-06T11:06:30Z</time>
      </trkpt>
      <trkpt lat="46.53398" lon="0.32434">
        <ele>74.6</ele>
        <time>2022-03-06T11:06:32Z</time>
      </trkpt>
      <trkpt lat="46.53405" lon="0.32438">
        <ele>75</ele>
        <time>2022-03-06T11:06:33Z</time>
      </trkpt>
      <trkpt lat="46.53416" lon="0.32443">
        <ele>75.8</ele>
        <time>2022-03-06T11:06:37Z</time>
      </trkpt>
      <trkpt lat="46.53419" lon="0.32444">
        <ele>75.8</ele>
        <time>2022-03-06T11:06:38Z</time>
      </trkpt>
      <trkpt lat="46.53433" lon="0.32445">
        <ele>76.8</ele>
        <time>2022-03-06T11:06:44Z</time>
      </trkpt>
      <trkpt lat="46.53439" lon="0.32444">
        <ele>77</ele>
        <time>2022-03-06T11:06:48Z</time>
      </trkpt>
      <trkpt lat="46.5344" lon="0.32442">
        <ele>77</ele>
        <time>2022-03-06T11:06:50Z</time>
      </trkpt>
      <trkpt lat="46.53435" lon="0.32441">
        <ele>76.6</ele>
        <time>2022-03-06T11:06:54Z</time>
      </trkpt>
      <trkpt lat="46.5342" lon="0.32438">
        <ele>75.8</ele>
        <time>2022-03-06T11:07:00Z</time>
      </trkpt>
      <trkpt lat="46.53402" lon="0.32429">
        <ele>74.6</ele>
        <time>2022-03-06T11:07:07Z</time>
      </trkpt>
      <trkpt lat="46.53386" lon="0.32414">
        <ele>73.8</ele>
        <time>2022-03-06T11:07:14Z</time>
      </trkpt>
      <trkpt lat="46.53382" lon="0.32408">
        <ele>73.6</ele>
        <time>2022-03-06T11:07:18Z</time>
      </trkpt>
      <trkpt lat="46.53381" lon="0.32407">
        <ele>73.4</ele>
        <time>2022-03-06T11:07:19Z</time>
      </trkpt>
      <trkpt lat="46.53381" lon="0.32407">
        <ele>73.4</ele>
        <time>2022-03-06T11:07:20Z</time>
      </trkpt>
      <trkpt lat="46.53379" lon="0.324">
        <ele>73.6</ele>
        <time>2022-03-06T11:07:29Z</time>
      </trkpt>
      <trkpt lat="46.53381" lon="0.32393">
        <ele>73.6</ele>
        <time>2022-03-06T11:07:38Z</time>
      </trkpt>
      <trkpt lat="46.53381" lon="0.32389">
        <ele>73.6</ele>
        <time>2022-03-06T11:07:41Z</time>
      </trkpt>
      <trkpt lat="46.53382" lon="0.32388">
        <ele>74</ele>
        <time>2022-03-06T11:07:47Z</time>
      </trkpt>
      <trkpt lat="46.53384" lon="0.32392">
        <ele>74.2</ele>
        <time>2022-03-06T11:07:57Z</time>
      </trkpt>
      <trkpt lat="46.53384" lon="0.32393">
        <ele>74</ele>
        <time>2022-03-06T11:07:59Z</time>
      </trkpt>
      <trkpt lat="46.53388" lon="0.32391">
        <ele>73.6</ele>
        <time>2022-03-06T11:08:03Z</time>
      </trkpt>
      <trkpt lat="46.5339" lon="0.3239">
        <ele>73.4</ele>
        <time>2022-03-06T11:08:05Z</time>
      </trkpt>
      <trkpt lat="46.53406" lon="0.32382">
        <ele>73.4</ele>
        <time>2022-03-06T11:08:11Z</time>
      </trkpt>
      <trkpt lat="46.53418" lon="0.32375">
        <ele>74</ele>
        <time>2022-03-06T11:08:18Z</time>
      </trkpt>
      <trkpt lat="46.53424" lon="0.32374">
        <ele>74</ele>
        <time>2022-03-06T11:08:24Z</time>
      </trkpt>
      <trkpt lat="46.53427" lon="0.32373">
        <ele>74</ele>
        <time>2022-03-06T11:08:27Z</time>
      </trkpt>
      <trkpt lat="46.53427" lon="0.32371">
        <ele>74</ele>
        <time>2022-03-06T11:08:30Z</time>
      </trkpt>
      <trkpt lat="46.53426" lon="0.3237">
        <ele>74</ele>
        <time>2022-03-06T11:08:31Z</time>
      </trkpt>
      <trkpt lat="46.53418" lon="0.32371">
        <ele>74</ele>
        <time>2022-03-06T11:08:36Z</time>
      </trkpt>
      <trkpt lat="46.5341" lon="0.32378">
        <ele>73.8</ele>
        <time>2022-03-06T11:08:42Z</time>
      </trkpt>
      <trkpt lat="46.53398" lon="0.32388">
        <ele>73.8</ele>
        <time>2022-03-06T11:08:47Z</time>
      </trkpt>
      <trkpt lat="46.53386" lon="0.32393">
        <ele>73.8</ele>
        <time>2022-03-06T11:08:52Z</time>
      </trkpt>
      <trkpt lat="46.5338" lon="0.32392">
        <ele>74</ele>
        <time>2022-03-06T11:08:56Z</time>
      </trkpt>
      <trkpt lat="46.5338" lon="0.32392">
        <ele>74.2</ele>
        <time>2022-03-06T11:08:57Z</time>
      </trkpt>
      <trkpt lat="46.53374" lon="0.32388">
        <ele>74.6</ele>
        <time>2022-03-06T11:09:06Z</time>
      </trkpt>
      <trkpt lat="46.53376" lon="0.32387">
        <ele>74.4</ele>
        <time>2022-03-06T11:09:20Z</time>
      </trkpt>
      <trkpt lat="46.53377" lon="0.32391">
        <ele>74.6</ele>
        <time>2022-03-06T11:09:28Z</time>
      </trkpt>
      <trkpt lat="46.53379" lon="0.32397">
        <ele>75</ele>
        <time>2022-03-06T11:09:40Z</time>
      </trkpt>
      <trkpt lat="46.53379" lon="0.32398">
        <ele>75</ele>
        <time>2022-03-06T11:09:45Z</time>
      </trkpt>
      <trkpt lat="46.53378" lon="0.324">
        <ele>75</ele>
        <time>2022-03-06T11:09:47Z</time>
      </trkpt>
      <trkpt lat="46.53376" lon="0.32407">
        <ele>75.2</ele>
        <time>2022-03-06T11:09:50Z</time>
      </trkpt>
      <trkpt lat="46.53379" lon="0.32413">
        <ele>75.6</ele>
        <time>2022-03-06T11:09:54Z</time>
      </trkpt>
      <trkpt lat="46.5338" lon="0.32415">
        <ele>75.6</ele>
        <time>2022-03-06T11:09:55Z</time>
      </trkpt>
      <trkpt lat="46.53386" lon="0.32421">
        <ele>75.6</ele>
        <time>2022-03-06T11:09:58Z</time>
      </trkpt>
      <trkpt lat="46.53395" lon="0.32431">
        <ele>76</ele>
        <time>2022-03-06T11:10:04Z</time>
      </trkpt>
      <trkpt lat="46.534" lon="0.32435">
        <ele>76.2</ele>
        <time>2022-03-06T11:10:08Z</time>
      </trkpt>
      <trkpt lat="46.534" lon="0.32436">
        <ele>76</ele>
        <time>2022-03-06T11:10:10Z</time>
      </trkpt>
      <trkpt lat="46.53402" lon="0.32437">
        <ele>75.6</ele>
        <time>2022-03-06T11:10:24Z</time>
      </trkpt>
      <trkpt lat="46.53402" lon="0.32443">
        <ele>75.6</ele>
        <time>2022-03-06T11:10:36Z</time>
      </trkpt>
      <trkpt lat="46.53401" lon="0.32445">
        <ele>75.6</ele>
        <time>2022-03-06T11:10:47Z</time>
      </trkpt>
      <trkpt lat="46.5341" lon="0.32449">
        <ele>75.6</ele>
        <time>2022-03-06T11:11:00Z</time>
      </trkpt>
      <trkpt lat="46.53416" lon="0.32454">
        <ele>75</ele>
        <time>2022-03-06T11:11:08Z</time>
      </trkpt>
      <trkpt lat="46.53417" lon="0.32454">
        <ele>74.8</ele>
        <time>2022-03-06T11:11:10Z</time>
      </trkpt>
      <trkpt lat="46.53419" lon="0.32454">
        <ele>74.6</ele>
        <time>2022-03-06T11:11:11Z</time>
      </trkpt>
      <trkpt lat="46.53425" lon="0.32455">
        <ele>73.2</ele>
        <time>2022-03-06T11:11:14Z</time>
      </trkpt>
      <trkpt lat="46.5343" lon="0.32457">
        <ele>71.2</ele>
        <time>2022-03-06T11:11:16Z</time>
      </trkpt>
      <trkpt lat="46.53434" lon="0.32459">
        <ele>70.4</ele>
        <time>2022-03-06T11:11:17Z</time>
      </trkpt>
      <trkpt lat="46.53438" lon="0.3246">
        <ele>69.4</ele>
        <time>2022-03-06T11:11:18Z</time>
      </trkpt>
      <trkpt lat="46.53441" lon="0.32461">
        <ele>68.2</ele>
        <time>2022-03-06T11:11:19Z</time>
      </trkpt>
      <trkpt lat="46.53444" lon="0.32461">
        <ele>67.2</ele>
        <time>2022-03-06T11:11:20Z</time>
      </trkpt>
      <trkpt lat="46.53447" lon="0.32462">
        <ele>66.6</ele>
        <time>2022-03-06T11:11:21Z</time>
      </trkpt>
      <trkpt lat="46.53449" lon="0.32462">
        <ele>66.2</ele>
        <time>2022-03-06T11:11:22Z</time>
      </trkpt>
      <trkpt lat="46.53456" lon="0.3246">
        <ele>65.8</ele>
        <time>2022-03-06T11:11:25Z</time>
      </trkpt>
      <trkpt lat="46.5346" lon="0.32457">
        <ele>65.8</ele>
        <time>2022-03-06T11:11:27Z</time>
      </trkpt>
      <trkpt lat="46.53469" lon="0.32451">
        <ele>66.2</ele>
        <time>2022-03-06T11:11:32Z</time>
      </trkpt>
      <trkpt lat="46.5347" lon="0.32449">
        <ele>66.4</ele>
        <time>2022-03-06T11:11:33Z</time>
      </trkpt>
      <trkpt lat="46.5347" lon="0.32435">
        <ele>67.2</ele>
        <time>2022-03-06T11:11:39Z</time>
      </trkpt>
      <trkpt lat="46.53468" lon="0.32435">
        <ele>67.2</ele>
        <time>2022-03-06T11:11:40Z</time>
      </trkpt>
      <trkpt lat="46.53465" lon="0.32434">
        <ele>67.2</ele>
        <time>2022-03-06T11:11:42Z</time>
      </trkpt>
      <trkpt lat="46.53464" lon="0.32432">
        <ele>67</ele>
        <time>2022-03-06T11:11:43Z</time>
      </trkpt>
      <trkpt lat="46.53452" lon="0.32424">
        <ele>66.8</ele>
        <time>2022-03-06T11:11:50Z</time>
      </trkpt>
      <trkpt lat="46.53437" lon="0.32425">
        <ele>66.4</ele>
        <time>2022-03-06T11:11:57Z</time>
      </trkpt>
      <trkpt lat="46.53427" lon="0.32426">
        <ele>65.8</ele>
        <time>2022-03-06T11:12:02Z</time>
      </trkpt>
      <trkpt lat="46.53416" lon="0.32422">
        <ele>65.8</ele>
        <time>2022-03-06T11:12:09Z</time>
      </trkpt>
      <trkpt lat="46.53414" lon="0.32419">
        <ele>65.8</ele>
        <time>2022-03-06T11:12:11Z</time>
      </trkpt>
      <trkpt lat="46.53414" lon="0.32416">
        <ele>66</ele>
        <time>2022-03-06T11:12:13Z</time>
      </trkpt>
      <trkpt lat="46.53413" lon="0.32415">
        <ele>66</ele>
        <time>2022-03-06T11:12:15Z</time>
      </trkpt>
      <trkpt lat="46.53413" lon="0.32412">
        <ele>66</ele>
        <time>2022-03-06T11:12:18Z</time>
      </trkpt>
      <trkpt lat="46.53412" lon="0.3241">
        <ele>66</ele>
        <time>2022-03-06T11:12:20Z</time>
      </trkpt>
      <trkpt lat="46.53413" lon="0.32401">
        <ele>66</ele>
        <time>2022-03-06T11:12:31Z</time>
      </trkpt>
      <trkpt lat="46.53413" lon="0.32399">
        <ele>65.6</ele>
        <time>2022-03-06T11:12:36Z</time>
      </trkpt>
      <trkpt lat="46.53413" lon="0.32401">
        <ele>65.6</ele>
        <time>2022-03-06T11:12:45Z</time>
      </trkpt>
      <trkpt lat="46.53411" lon="0.32398">
        <ele>65.2</ele>
        <time>2022-03-06T11:12:59Z</time>
      </trkpt>
      <trkpt lat="46.53397" lon="0.32387">
        <ele>65.4</ele>
        <time>2022-03-06T11:13:12Z</time>
      </trkpt>
      <trkpt lat="46.53396" lon="0.32375">
        <ele>66</ele>
        <time>2022-03-06T11:13:24Z</time>
      </trkpt>
      <trkpt lat="46.53398" lon="0.32366">
        <ele>66</ele>
        <time>2022-03-06T11:13:37Z</time>
      </trkpt>
      <trkpt lat="46.53395" lon="0.32365">
        <ele>66</ele>
        <time>2022-03-06T11:13:41Z</time>
      </trkpt>
      <trkpt lat="46.53393" lon="0.32364">
        <ele>66</ele>
        <time>2022-03-06T11:13:44Z</time>
      </trkpt>
      <trkpt lat="46.5339" lon="0.32364">
        <ele>66.4</ele>
        <time>2022-03-06T11:13:47Z</time>
      </trkpt>
      <trkpt lat="46.53388" lon="0.32364">
        <ele>66.6</ele>
        <time>2022-03-06T11:13:48Z</time>
      </trkpt>
      <trkpt lat="46.53384" lon="0.32365">
        <ele>66.8</ele>
        <time>2022-03-06T11:13:51Z</time>
      </trkpt>
      <trkpt lat="46.53377" lon="0.32361">
        <ele>67.6</ele>
        <time>2022-03-06T11:13:58Z</time>
      </trkpt>
      <trkpt lat="46.53375" lon="0.32359">
        <ele>67.8</ele>
        <time>2022-03-06T11:13:59Z</time>
      </trkpt>
      <trkpt lat="46.5337" lon="0.32354">
        <ele>68.8</ele>
        <time>2022-03-06T11:14:03Z</time>
      </trkpt>
      <trkpt lat="46.53368" lon="0.32351">
        <ele>69.8</ele>
        <time>2022-03-06T11:14:06Z</time>
      </trkpt>
      <trkpt lat="46.5336" lon="0.32336">
        <ele>70.6</ele>
        <time>2022-03-06T11:14:18Z</time>
      </trkpt>
      <trkpt lat="46.53359" lon="0.32335">
        <ele>70.6</ele>
        <time>2022-03-06T11:14:19Z</time>
      </trkpt>
      <trkpt lat="46.53357" lon="0.32332">
        <ele>71</ele>
        <time>2022-03-06T11:14:21Z</time>
      </trkpt>
      <trkpt lat="46.53346" lon="0.3232">
        <ele>71.4</ele>
        <time>2022-03-06T11:14:29Z</time>
      </trkpt>
      <trkpt lat="46.53341" lon="0.32314">
        <ele>72.2</ele>
        <time>2022-03-06T11:14:34Z</time>
      </trkpt>
      <trkpt lat="46.5334" lon="0.32313">
        <ele>72.6</ele>
        <time>2022-03-06T11:14:35Z</time>
      </trkpt>
      <trkpt lat="46.53336" lon="0.32309">
        <ele>73</ele>
        <time>2022-03-06T11:14:40Z</time>
      </trkpt>
      <trkpt lat="46.53333" lon="0.32308">
        <ele>73.2</ele>
        <time>2022-03-06T11:14:43Z</time>
      </trkpt>
      <trkpt lat="46.53329" lon="0.32302">
        <ele>74.2</ele>
        <time>2022-03-06T11:14:52Z</time>
      </trkpt>
      <trkpt lat="46.53328" lon="0.323">
        <ele>74.4</ele>
        <time>2022-03-06T11:14:56Z</time>
      </trkpt>
      <trkpt lat="46.53325" lon="0.32297">
        <ele>74.6</ele>
        <time>2022-03-06T11:15:05Z</time>
      </trkpt>
      <trkpt lat="46.53322" lon="0.32295">
        <ele>75.4</ele>
        <time>2022-03-06T11:15:12Z</time>
      </trkpt>
      <trkpt lat="46.53316" lon="0.3229">
        <ele>75.8</ele>
        <time>2022-03-06T11:15:19Z</time>
      </trkpt>
      <trkpt lat="46.53314" lon="0.32288">
        <ele>76</ele>
        <time>2022-03-06T11:15:21Z</time>
      </trkpt>
      <trkpt lat="46.53312" lon="0.32286">
        <ele>76.2</ele>
        <time>2022-03-06T11:15:23Z</time>
      </trkpt>
      <trkpt lat="46.5331" lon="0.32285">
        <ele>76.4</ele>
        <time>2022-03-06T11:15:24Z</time>
      </trkpt>
      <trkpt lat="46.53308" lon="0.32285">
        <ele>76.6</ele>
        <time>2022-03-06T11:15:25Z</time>
      </trkpt>
      <trkpt lat="46.53304" lon="0.32283">
        <ele>76.8</ele>
        <time>2022-03-06T11:15:28Z</time>
      </trkpt>
      <trkpt lat="46.53304" lon="0.32278">
        <ele>77.4</ele>
        <time>2022-03-06T11:15:32Z</time>
      </trkpt>
      <trkpt lat="46.53303" lon="0.32276">
        <ele>77.4</ele>
        <time>2022-03-06T11:15:33Z</time>
      </trkpt>
      <trkpt lat="46.53301" lon="0.32272">
        <ele>77.4</ele>
        <time>2022-03-06T11:15:35Z</time>
      </trkpt>
      <trkpt lat="46.53298" lon="0.32269">
        <ele>76.4</ele>
        <time>2022-03-06T11:15:37Z</time>
      </trkpt>
      <trkpt lat="46.53295" lon="0.32266">
        <ele>76.4</ele>
        <time>2022-03-06T11:15:42Z</time>
      </trkpt>
      <trkpt lat="46.53294" lon="0.32265">
        <ele>76.8</ele>
        <time>2022-03-06T11:15:43Z</time>
      </trkpt>
      <trkpt lat="46.53291" lon="0.32261">
        <ele>76.8</ele>
        <time>2022-03-06T11:15:51Z</time>
      </trkpt>
      <trkpt lat="46.53286" lon="0.32255">
        <ele>77</ele>
        <time>2022-03-06T11:16:00Z</time>
      </trkpt>
      <trkpt lat="46.53285" lon="0.32253">
        <ele>77.4</ele>
        <time>2022-03-06T11:16:02Z</time>
      </trkpt>
      <trkpt lat="46.53284" lon="0.32252">
        <ele>77.4</ele>
        <time>2022-03-06T11:16:03Z</time>
      </trkpt>
      <trkpt lat="46.53284" lon="0.3225">
        <ele>77.6</ele>
        <time>2022-03-06T11:16:05Z</time>
      </trkpt>
      <trkpt lat="46.53282" lon="0.32244">
        <ele>77.8</ele>
        <time>2022-03-06T11:16:09Z</time>
      </trkpt>
      <trkpt lat="46.53279" lon="0.3224">
        <ele>77.8</ele>
        <time>2022-03-06T11:16:12Z</time>
      </trkpt>
      <trkpt lat="46.53278" lon="0.32238">
        <ele>77.8</ele>
        <time>2022-03-06T11:16:13Z</time>
      </trkpt>
      <trkpt lat="46.53264" lon="0.32225">
        <ele>78.6</ele>
        <time>2022-03-06T11:16:24Z</time>
      </trkpt>
      <trkpt lat="46.53253" lon="0.32208">
        <ele>78.2</ele>
        <time>2022-03-06T11:16:33Z</time>
      </trkpt>
      <trkpt lat="46.53249" lon="0.32201">
        <ele>77.6</ele>
        <time>2022-03-06T11:16:36Z</time>
      </trkpt>
      <trkpt lat="46.5324" lon="0.32187">
        <ele>76.8</ele>
        <time>2022-03-06T11:16:41Z</time>
      </trkpt>
      <trkpt lat="46.53238" lon="0.32184">
        <ele>76.4</ele>
        <time>2022-03-06T11:16:42Z</time>
      </trkpt>
      <trkpt lat="46.53235" lon="0.32183">
        <ele>76.2</ele>
        <time>2022-03-06T11:16:43Z</time>
      </trkpt>
      <trkpt lat="46.53229" lon="0.32179">
        <ele>76</ele>
        <time>2022-03-06T11:16:46Z</time>
      </trkpt>
      <trkpt lat="46.53216" lon="0.32169">
        <ele>76</ele>
        <time>2022-03-06T11:16:51Z</time>
      </trkpt>
      <trkpt lat="46.53208" lon="0.32161">
        <ele>75.4</ele>
        <time>2022-03-06T11:16:56Z</time>
      </trkpt>
      <trkpt lat="46.53206" lon="0.3216">
        <ele>75</ele>
        <time>2022-03-06T11:16:57Z</time>
      </trkpt>
      <trkpt lat="46.53201" lon="0.32152">
        <ele>74.2</ele>
        <time>2022-03-06T11:17:02Z</time>
      </trkpt>
      <trkpt lat="46.532" lon="0.32151">
        <ele>74.2</ele>
        <time>2022-03-06T11:17:03Z</time>
      </trkpt>
      <trkpt lat="46.53194" lon="0.32141">
        <ele>73.2</ele>
        <time>2022-03-06T11:17:15Z</time>
      </trkpt>
      <trkpt lat="46.53193" lon="0.32139">
        <ele>73</ele>
        <time>2022-03-06T11:17:19Z</time>
      </trkpt>
      <trkpt lat="46.53193" lon="0.32135">
        <ele>72.2</ele>
        <time>2022-03-06T11:17:30Z</time>
      </trkpt>
      <trkpt lat="46.53193" lon="0.32135">
        <ele>72.2</ele>
        <time>2022-03-06T11:17:32Z</time>
      </trkpt>
      <trkpt lat="46.5319" lon="0.32133">
        <ele>71</ele>
        <time>2022-03-06T11:17:42Z</time>
      </trkpt>
      <trkpt lat="46.53189" lon="0.32132">
        <ele>70.6</ele>
        <time>2022-03-06T11:17:45Z</time>
      </trkpt>
      <trkpt lat="46.53185" lon="0.32131">
        <ele>70</ele>
        <time>2022-03-06T11:17:55Z</time>
      </trkpt>
      <trkpt lat="46.53183" lon="0.32131">
        <ele>69.8</ele>
        <time>2022-03-06T11:17:58Z</time>
      </trkpt>
      <trkpt lat="46.5317" lon="0.32125">
        <ele>68.8</ele>
        <time>2022-03-06T11:18:07Z</time>
      </trkpt>
      <trkpt lat="46.53159" lon="0.32121">
        <ele>68.4</ele>
        <time>2022-03-06T11:18:14Z</time>
      </trkpt>
      <trkpt lat="46.53158" lon="0.32122">
        <ele>68.4</ele>
        <time>2022-03-06T11:18:16Z</time>
      </trkpt>
      <trkpt lat="46.53154" lon="0.3212">
        <ele>69</ele>
        <time>2022-03-06T11:18:19Z</time>
      </trkpt>
      <trkpt lat="46.53142" lon="0.32114">
        <ele>68.8</ele>
        <time>2022-03-06T11:18:25Z</time>
      </trkpt>
      <trkpt lat="46.53128" lon="0.32109">
        <ele>68.8</ele>
        <time>2022-03-06T11:18:31Z</time>
      </trkpt>
      <trkpt lat="46.53113" lon="0.32098">
        <ele>69</ele>
        <time>2022-03-06T11:18:36Z</time>
      </trkpt>
      <trkpt lat="46.53104" lon="0.3209">
        <ele>69.6</ele>
        <time>2022-03-06T11:18:41Z</time>
      </trkpt>
      <trkpt lat="46.53103" lon="0.32088">
        <ele>70</ele>
        <time>2022-03-06T11:18:43Z</time>
      </trkpt>
      <trkpt lat="46.53102" lon="0.32087">
        <ele>70.2</ele>
        <time>2022-03-06T11:18:44Z</time>
      </trkpt>
      <trkpt lat="46.53101" lon="0.32083">
        <ele>70.2</ele>
        <time>2022-03-06T11:18:46Z</time>
      </trkpt>
      <trkpt lat="46.53097" lon="0.32065">
        <ele>69.4</ele>
        <time>2022-03-06T11:18:51Z</time>
      </trkpt>
      <trkpt lat="46.53087" lon="0.32048">
        <ele>69.6</ele>
        <time>2022-03-06T11:18:57Z</time>
      </trkpt>
      <trkpt lat="46.53087" lon="0.32045">
        <ele>69.6</ele>
        <time>2022-03-06T11:18:58Z</time>
      </trkpt>
      <trkpt lat="46.53082" lon="0.32031">
        <ele>69.6</ele>
        <time>2022-03-06T11:19:02Z</time>
      </trkpt>
      <trkpt lat="46.53079" lon="0.32021">
        <ele>69.6</ele>
        <time>2022-03-06T11:19:05Z</time>
      </trkpt>
      <trkpt lat="46.53078" lon="0.32018">
        <ele>69.6</ele>
        <time>2022-03-06T11:19:06Z</time>
      </trkpt>
      <trkpt lat="46.53074" lon="0.31995">
        <ele>69.8</ele>
        <time>2022-03-06T11:19:11Z</time>
      </trkpt>
      <trkpt lat="46.53069" lon="0.31972">
        <ele>69.4</ele>
        <time>2022-03-06T11:19:16Z</time>
      </trkpt>
      <trkpt lat="46.53063" lon="0.31945">
        <ele>69.2</ele>
        <time>2022-03-06T11:19:23Z</time>
      </trkpt>
      <trkpt lat="46.5306" lon="0.31926">
        <ele>69.6</ele>
        <time>2022-03-06T11:19:29Z</time>
      </trkpt>
      <trkpt lat="46.53061" lon="0.31911">
        <ele>70</ele>
        <time>2022-03-06T11:19:34Z</time>
      </trkpt>
      <trkpt lat="46.53063" lon="0.31892">
        <ele>70.6</ele>
        <time>2022-03-06T11:19:41Z</time>
      </trkpt>
      <trkpt lat="46.53062" lon="0.31886">
        <ele>71</ele>
        <time>2022-03-06T11:19:44Z</time>
      </trkpt>
      <trkpt lat="46.53061" lon="0.31886">
        <ele>71</ele>
        <time>2022-03-06T11:19:45Z</time>
      </trkpt>
      <trkpt lat="46.5306" lon="0.31884">
        <ele>71.2</ele>
        <time>2022-03-06T11:19:46Z</time>
      </trkpt>
      <trkpt lat="46.53057" lon="0.3188">
        <ele>71.4</ele>
        <time>2022-03-06T11:19:48Z</time>
      </trkpt>
      <trkpt lat="46.53053" lon="0.31873">
        <ele>72.2</ele>
        <time>2022-03-06T11:19:52Z</time>
      </trkpt>
      <trkpt lat="46.53052" lon="0.31869">
        <ele>72.8</ele>
        <time>2022-03-06T11:19:54Z</time>
      </trkpt>
      <trkpt lat="46.53052" lon="0.31867">
        <ele>73.4</ele>
        <time>2022-03-06T11:19:56Z</time>
      </trkpt>
      <trkpt lat="46.53051" lon="0.31865">
        <ele>73.6</ele>
        <time>2022-03-06T11:19:57Z</time>
      </trkpt>
      <trkpt lat="46.53047" lon="0.3186">
        <ele>74.4</ele>
        <time>2022-03-06T11:20:01Z</time>
      </trkpt>
      <trkpt lat="46.53047" lon="0.3186">
        <ele>74.8</ele>
        <time>2022-03-06T11:20:02Z</time>
      </trkpt>
      <trkpt lat="46.53044" lon="0.31856">
        <ele>75.4</ele>
        <time>2022-03-06T11:20:05Z</time>
      </trkpt>
      <trkpt lat="46.53042" lon="0.31855">
        <ele>75.6</ele>
        <time>2022-03-06T11:20:06Z</time>
      </trkpt>
      <trkpt lat="46.53037" lon="0.31849">
        <ele>76.6</ele>
        <time>2022-03-06T11:20:11Z</time>
      </trkpt>
      <trkpt lat="46.53036" lon="0.31848">
        <ele>76.6</ele>
        <time>2022-03-06T11:20:12Z</time>
      </trkpt>
      <trkpt lat="46.53028" lon="0.31843">
        <ele>77.2</ele>
        <time>2022-03-06T11:20:17Z</time>
      </trkpt>
      <trkpt lat="46.53027" lon="0.31843">
        <ele>77.4</ele>
        <time>2022-03-06T11:20:18Z</time>
      </trkpt>
      <trkpt lat="46.5302" lon="0.3184">
        <ele>77.8</ele>
        <time>2022-03-06T11:20:22Z</time>
      </trkpt>
      <trkpt lat="46.53019" lon="0.3184">
        <ele>77.8</ele>
        <time>2022-03-06T11:20:23Z</time>
      </trkpt>
      <trkpt lat="46.53005" lon="0.31835">
        <ele>78.8</ele>
        <time>2022-03-06T11:20:30Z</time>
      </trkpt>
      <trkpt lat="46.53003" lon="0.31833">
        <ele>78.8</ele>
        <time>2022-03-06T11:20:31Z</time>
      </trkpt>
      <trkpt lat="46.5299" lon="0.31826">
        <ele>79.6</ele>
        <time>2022-03-06T11:20:38Z</time>
      </trkpt>
      <trkpt lat="46.52986" lon="0.31825">
        <ele>79.8</ele>
        <time>2022-03-06T11:20:40Z</time>
      </trkpt>
      <trkpt lat="46.52978" lon="0.31825">
        <ele>80.4</ele>
        <time>2022-03-06T11:20:44Z</time>
      </trkpt>
      <trkpt lat="46.5297" lon="0.31823">
        <ele>80.8</ele>
        <time>2022-03-06T11:20:47Z</time>
      </trkpt>
      <trkpt lat="46.52962" lon="0.3182">
        <ele>81.4</ele>
        <time>2022-03-06T11:20:51Z</time>
      </trkpt>
      <trkpt lat="46.5296" lon="0.31819">
        <ele>81.6</ele>
        <time>2022-03-06T11:20:52Z</time>
      </trkpt>
      <trkpt lat="46.52955" lon="0.31819">
        <ele>81.8</ele>
        <time>2022-03-06T11:20:54Z</time>
      </trkpt>
      <trkpt lat="46.52947" lon="0.31819">
        <ele>83</ele>
        <time>2022-03-06T11:20:58Z</time>
      </trkpt>
      <trkpt lat="46.52945" lon="0.31819">
        <ele>83.2</ele>
        <time>2022-03-06T11:20:59Z</time>
      </trkpt>
      <trkpt lat="46.52926" lon="0.31809">
        <ele>84</ele>
        <time>2022-03-06T11:21:07Z</time>
      </trkpt>
      <trkpt lat="46.5291" lon="0.31803">
        <ele>84.8</ele>
        <time>2022-03-06T11:21:14Z</time>
      </trkpt>
      <trkpt lat="46.52902" lon="0.31803">
        <ele>85</ele>
        <time>2022-03-06T11:21:17Z</time>
      </trkpt>
      <trkpt lat="46.52895" lon="0.31802">
        <ele>85.2</ele>
        <time>2022-03-06T11:21:20Z</time>
      </trkpt>
      <trkpt lat="46.52881" lon="0.31799">
        <ele>86.2</ele>
        <time>2022-03-06T11:21:26Z</time>
      </trkpt>
      <trkpt lat="46.52879" lon="0.31799">
        <ele>86.4</ele>
        <time>2022-03-06T11:21:27Z</time>
      </trkpt>
      <trkpt lat="46.52862" lon="0.31801">
        <ele>87.2</ele>
        <time>2022-03-06T11:21:34Z</time>
      </trkpt>
      <trkpt lat="46.5286" lon="0.31801">
        <ele>87.2</ele>
        <time>2022-03-06T11:21:35Z</time>
      </trkpt>
      <trkpt lat="46.52838" lon="0.31804">
        <ele>88</ele>
        <time>2022-03-06T11:21:43Z</time>
      </trkpt>
      <trkpt lat="46.5283" lon="0.31805">
        <ele>88.4</ele>
        <time>2022-03-06T11:21:46Z</time>
      </trkpt>
      <trkpt lat="46.52824" lon="0.31807">
        <ele>88.4</ele>
        <time>2022-03-06T11:21:49Z</time>
      </trkpt>
      <trkpt lat="46.52817" lon="0.31809">
        <ele>88.6</ele>
        <time>2022-03-06T11:21:52Z</time>
      </trkpt>
      <trkpt lat="46.52811" lon="0.31815">
        <ele>89.2</ele>
        <time>2022-03-06T11:21:56Z</time>
      </trkpt>
      <trkpt lat="46.52809" lon="0.31816">
        <ele>89.4</ele>
        <time>2022-03-06T11:21:57Z</time>
      </trkpt>
      <trkpt lat="46.52808" lon="0.31819">
        <ele>89.6</ele>
        <time>2022-03-06T11:21:58Z</time>
      </trkpt>
      <trkpt lat="46.52805" lon="0.31825">
        <ele>90</ele>
        <time>2022-03-06T11:22:02Z</time>
      </trkpt>
      <trkpt lat="46.52803" lon="0.31828">
        <ele>90.4</ele>
        <time>2022-03-06T11:22:04Z</time>
      </trkpt>
      <trkpt lat="46.52803" lon="0.31829">
        <ele>90.8</ele>
        <time>2022-03-06T11:22:05Z</time>
      </trkpt>
      <trkpt lat="46.52801" lon="0.31833">
        <ele>91.4</ele>
        <time>2022-03-06T11:22:07Z</time>
      </trkpt>
      <trkpt lat="46.52801" lon="0.31835">
        <ele>91.6</ele>
        <time>2022-03-06T11:22:08Z</time>
      </trkpt>
      <trkpt lat="46.52799" lon="0.31839">
        <ele>92</ele>
        <time>2022-03-06T11:22:10Z</time>
      </trkpt>
      <trkpt lat="46.52797" lon="0.31844">
        <ele>92.8</ele>
        <time>2022-03-06T11:22:14Z</time>
      </trkpt>
      <trkpt lat="46.52794" lon="0.31847">
        <ele>93.6</ele>
        <time>2022-03-06T11:22:17Z</time>
      </trkpt>
      <trkpt lat="46.52794" lon="0.31848">
        <ele>93.8</ele>
        <time>2022-03-06T11:22:18Z</time>
      </trkpt>
      <trkpt lat="46.52791" lon="0.31852">
        <ele>94.4</ele>
        <time>2022-03-06T11:22:21Z</time>
      </trkpt>
      <trkpt lat="46.52788" lon="0.31857">
        <ele>95</ele>
        <time>2022-03-06T11:22:24Z</time>
      </trkpt>
      <trkpt lat="46.52784" lon="0.31861">
        <ele>95.8</ele>
        <time>2022-03-06T11:22:27Z</time>
      </trkpt>
      <trkpt lat="46.52782" lon="0.31862">
        <ele>96</ele>
        <time>2022-03-06T11:22:28Z</time>
      </trkpt>
      <trkpt lat="46.52776" lon="0.31864">
        <ele>97</ele>
        <time>2022-03-06T11:22:32Z</time>
      </trkpt>
      <trkpt lat="46.52774" lon="0.31865">
        <ele>97.2</ele>
        <time>2022-03-06T11:22:33Z</time>
      </trkpt>
      <trkpt lat="46.52767" lon="0.3187">
        <ele>98.6</ele>
        <time>2022-03-06T11:22:38Z</time>
      </trkpt>
      <trkpt lat="46.5276" lon="0.31875">
        <ele>99.4</ele>
        <time>2022-03-06T11:22:44Z</time>
      </trkpt>
      <trkpt lat="46.52759" lon="0.31876">
        <ele>99.6</ele>
        <time>2022-03-06T11:22:45Z</time>
      </trkpt>
      <trkpt lat="46.52751" lon="0.3188">
        <ele>100.8</ele>
        <time>2022-03-06T11:22:51Z</time>
      </trkpt>
      <trkpt lat="46.52746" lon="0.31886">
        <ele>101.8</ele>
        <time>2022-03-06T11:22:56Z</time>
      </trkpt>
      <trkpt lat="46.52745" lon="0.31887">
        <ele>102</ele>
        <time>2022-03-06T11:22:57Z</time>
      </trkpt>
      <trkpt lat="46.52743" lon="0.31888">
        <ele>102.2</ele>
        <time>2022-03-06T11:22:58Z</time>
      </trkpt>
      <trkpt lat="46.52737" lon="0.31893">
        <ele>103.2</ele>
        <time>2022-03-06T11:23:03Z</time>
      </trkpt>
      <trkpt lat="46.52728" lon="0.31901">
        <ele>104</ele>
        <time>2022-03-06T11:23:10Z</time>
      </trkpt>
      <trkpt lat="46.52726" lon="0.31904">
        <ele>104.2</ele>
        <time>2022-03-06T11:23:12Z</time>
      </trkpt>
      <trkpt lat="46.52724" lon="0.31905">
        <ele>104.2</ele>
        <time>2022-03-06T11:23:13Z</time>
      </trkpt>
      <trkpt lat="46.52718" lon="0.31911">
        <ele>105.6</ele>
        <time>2022-03-06T11:23:18Z</time>
      </trkpt>
      <trkpt lat="46.52708" lon="0.31917">
        <ele>106.4</ele>
        <time>2022-03-06T11:23:25Z</time>
      </trkpt>
      <trkpt lat="46.52706" lon="0.31918">
        <ele>106.6</ele>
        <time>2022-03-06T11:23:27Z</time>
      </trkpt>
      <trkpt lat="46.52693" lon="0.31926">
        <ele>107.4</ele>
        <time>2022-03-06T11:23:36Z</time>
      </trkpt>
      <trkpt lat="46.5269" lon="0.31928">
        <ele>107.6</ele>
        <time>2022-03-06T11:23:38Z</time>
      </trkpt>
      <trkpt lat="46.52679" lon="0.31936">
        <ele>109</ele>
        <time>2022-03-06T11:23:45Z</time>
      </trkpt>
      <trkpt lat="46.52675" lon="0.3194">
        <ele>109.6</ele>
        <time>2022-03-06T11:23:48Z</time>
      </trkpt>
      <trkpt lat="46.52673" lon="0.31945">
        <ele>110</ele>
        <time>2022-03-06T11:23:51Z</time>
      </trkpt>
      <trkpt lat="46.52674" lon="0.31951">
        <ele>110.4</ele>
        <time>2022-03-06T11:23:54Z</time>
      </trkpt>
      <trkpt lat="46.52674" lon="0.31955">
        <ele>110.6</ele>
        <time>2022-03-06T11:23:56Z</time>
      </trkpt>
      <trkpt lat="46.52676" lon="0.31962">
        <ele>110.8</ele>
        <time>2022-03-06T11:24:00Z</time>
      </trkpt>
      <trkpt lat="46.52681" lon="0.31978">
        <ele>111</ele>
        <time>2022-03-06T11:24:06Z</time>
      </trkpt>
      <trkpt lat="46.52685" lon="0.31987">
        <ele>111</ele>
        <time>2022-03-06T11:24:09Z</time>
      </trkpt>
      <trkpt lat="46.52689" lon="0.31996">
        <ele>111.2</ele>
        <time>2022-03-06T11:24:12Z</time>
      </trkpt>
      <trkpt lat="46.52697" lon="0.32019">
        <ele>112</ele>
        <time>2022-03-06T11:24:18Z</time>
      </trkpt>
      <trkpt lat="46.52699" lon="0.32023">
        <ele>112</ele>
        <time>2022-03-06T11:24:19Z</time>
      </trkpt>
      <trkpt lat="46.52709" lon="0.32045">
        <ele>112.4</ele>
        <time>2022-03-06T11:24:25Z</time>
      </trkpt>
      <trkpt lat="46.52716" lon="0.32066">
        <ele>113</ele>
        <time>2022-03-06T11:24:31Z</time>
      </trkpt>
      <trkpt lat="46.5272" lon="0.32091">
        <ele>113.6</ele>
        <time>2022-03-06T11:24:36Z</time>
      </trkpt>
      <trkpt lat="46.52725" lon="0.32113">
        <ele>114</ele>
        <time>2022-03-06T11:24:40Z</time>
      </trkpt>
      <trkpt lat="46.52725" lon="0.32125">
        <ele>114.4</ele>
        <time>2022-03-06T11:24:43Z</time>
      </trkpt>
      <trkpt lat="46.52727" lon="0.32149">
        <ele>115</ele>
        <time>2022-03-06T11:24:48Z</time>
      </trkpt>
      <trkpt lat="46.52727" lon="0.32159">
        <ele>115.2</ele>
        <time>2022-03-06T11:24:50Z</time>
      </trkpt>
      <trkpt lat="46.52728" lon="0.32184">
        <ele>115.4</ele>
        <time>2022-03-06T11:24:55Z</time>
      </trkpt>
      <trkpt lat="46.52729" lon="0.32219">
        <ele>116</ele>
        <time>2022-03-06T11:25:02Z</time>
      </trkpt>
      <trkpt lat="46.52728" lon="0.32239">
        <ele>116.2</ele>
        <time>2022-03-06T11:25:06Z</time>
      </trkpt>
      <trkpt lat="46.52727" lon="0.32249">
        <ele>116.4</ele>
        <time>2022-03-06T11:25:08Z</time>
      </trkpt>
      <trkpt lat="46.52726" lon="0.32281">
        <ele>116.6</ele>
        <time>2022-03-06T11:25:14Z</time>
      </trkpt>
      <trkpt lat="46.52725" lon="0.32286">
        <ele>116.6</ele>
        <time>2022-03-06T11:25:15Z</time>
      </trkpt>
      <trkpt lat="46.52728" lon="0.32343">
        <ele>116.2</ele>
        <time>2022-03-06T11:25:23Z</time>
      </trkpt>
      <trkpt lat="46.52728" lon="0.3237">
        <ele>116</ele>
        <time>2022-03-06T11:25:27Z</time>
      </trkpt>
      <trkpt lat="46.52728" lon="0.32376">
        <ele>116</ele>
        <time>2022-03-06T11:25:28Z</time>
      </trkpt>
      <trkpt lat="46.52729" lon="0.3242">
        <ele>115.6</ele>
        <time>2022-03-06T11:25:34Z</time>
      </trkpt>
      <trkpt lat="46.52728" lon="0.32435">
        <ele>115.6</ele>
        <time>2022-03-06T11:25:36Z</time>
      </trkpt>
      <trkpt lat="46.52727" lon="0.32458">
        <ele>115.2</ele>
        <time>2022-03-06T11:25:39Z</time>
      </trkpt>
      <trkpt lat="46.52725" lon="0.32498">
        <ele>114.2</ele>
        <time>2022-03-06T11:25:44Z</time>
      </trkpt>
      <trkpt lat="46.52725" lon="0.32507">
        <ele>114</ele>
        <time>2022-03-06T11:25:45Z</time>
      </trkpt>
      <trkpt lat="46.52724" lon="0.32542">
        <ele>113</ele>
        <time>2022-03-06T11:25:49Z</time>
      </trkpt>
      <trkpt lat="46.52723" lon="0.3256">
        <ele>112.4</ele>
        <time>2022-03-06T11:25:51Z</time>
      </trkpt>
      <trkpt lat="46.52724" lon="0.32577">
        <ele>112</ele>
        <time>2022-03-06T11:25:53Z</time>
      </trkpt>
      <trkpt lat="46.52728" lon="0.32611">
        <ele>111.4</ele>
        <time>2022-03-06T11:25:57Z</time>
      </trkpt>
      <trkpt lat="46.52732" lon="0.32632">
        <ele>111.6</ele>
        <time>2022-03-06T11:26:00Z</time>
      </trkpt>
      <trkpt lat="46.52736" lon="0.3265">
        <ele>111.6</ele>
        <time>2022-03-06T11:26:03Z</time>
      </trkpt>
      <trkpt lat="46.52741" lon="0.32692">
        <ele>112</ele>
        <time>2022-03-06T11:26:09Z</time>
      </trkpt>
      <trkpt lat="46.52741" lon="0.32699">
        <ele>112</ele>
        <time>2022-03-06T11:26:10Z</time>
      </trkpt>
      <trkpt lat="46.52745" lon="0.32742">
        <ele>111.8</ele>
        <time>2022-03-06T11:26:16Z</time>
      </trkpt>
      <trkpt lat="46.52747" lon="0.32787">
        <ele>111.2</ele>
        <time>2022-03-06T11:26:22Z</time>
      </trkpt>
      <trkpt lat="46.52747" lon="0.32793">
        <ele>111.2</ele>
        <time>2022-03-06T11:26:23Z</time>
      </trkpt>
      <trkpt lat="46.52747" lon="0.32815">
        <ele>111</ele>
        <time>2022-03-06T11:26:26Z</time>
      </trkpt>
      <trkpt lat="46.52748" lon="0.32829">
        <ele>111</ele>
        <time>2022-03-06T11:26:28Z</time>
      </trkpt>
      <trkpt lat="46.52749" lon="0.32835">
        <ele>110.8</ele>
        <time>2022-03-06T11:26:29Z</time>
      </trkpt>
      <trkpt lat="46.52749" lon="0.32869">
        <ele>110.4</ele>
        <time>2022-03-06T11:26:34Z</time>
      </trkpt>
      <trkpt lat="46.52749" lon="0.32893">
        <ele>109.8</ele>
        <time>2022-03-06T11:26:38Z</time>
      </trkpt>
      <trkpt lat="46.5275" lon="0.32924">
        <ele>109.6</ele>
        <time>2022-03-06T11:26:42Z</time>
      </trkpt>
      <trkpt lat="46.52752" lon="0.32969">
        <ele>108.6</ele>
        <time>2022-03-06T11:26:47Z</time>
      </trkpt>
      <trkpt lat="46.52753" lon="0.32977">
        <ele>108.4</ele>
        <time>2022-03-06T11:26:48Z</time>
      </trkpt>
      <trkpt lat="46.52754" lon="0.3301">
        <ele>107.4</ele>
        <time>2022-03-06T11:26:52Z</time>
      </trkpt>
      <trkpt lat="46.52755" lon="0.3304">
        <ele>106.6</ele>
        <time>2022-03-06T11:26:55Z</time>
      </trkpt>
      <trkpt lat="46.52755" lon="0.3305">
        <ele>106.2</ele>
        <time>2022-03-06T11:26:56Z</time>
      </trkpt>
      <trkpt lat="46.52755" lon="0.33086">
        <ele>105</ele>
        <time>2022-03-06T11:26:59Z</time>
      </trkpt>
      <trkpt lat="46.52756" lon="0.33099">
        <ele>104</ele>
        <time>2022-03-06T11:27:00Z</time>
      </trkpt>
      <trkpt lat="46.52758" lon="0.33121">
        <ele>102.6</ele>
        <time>2022-03-06T11:27:02Z</time>
      </trkpt>
      <trkpt lat="46.52759" lon="0.33144">
        <ele>101.2</ele>
        <time>2022-03-06T11:27:04Z</time>
      </trkpt>
      <trkpt lat="46.52761" lon="0.33167">
        <ele>99.8</ele>
        <time>2022-03-06T11:27:06Z</time>
      </trkpt>
      <trkpt lat="46.52763" lon="0.3319">
        <ele>98.6</ele>
        <time>2022-03-06T11:27:08Z</time>
      </trkpt>
      <trkpt lat="46.52765" lon="0.33225">
        <ele>97.2</ele>
        <time>2022-03-06T11:27:11Z</time>
      </trkpt>
      <trkpt lat="46.52765" lon="0.33235">
        <ele>96.8</ele>
        <time>2022-03-06T11:27:12Z</time>
      </trkpt>
      <trkpt lat="46.52765" lon="0.33245">
        <ele>96.4</ele>
        <time>2022-03-06T11:27:13Z</time>
      </trkpt>
      <trkpt lat="46.52764" lon="0.33255">
        <ele>96.2</ele>
        <time>2022-03-06T11:27:14Z</time>
      </trkpt>
      <trkpt lat="46.52767" lon="0.33305">
        <ele>95.4</ele>
        <time>2022-03-06T11:27:19Z</time>
      </trkpt>
      <trkpt lat="46.52768" lon="0.33312">
        <ele>95.2</ele>
        <time>2022-03-06T11:27:20Z</time>
      </trkpt>
      <trkpt lat="46.52774" lon="0.33352">
        <ele>94.2</ele>
        <time>2022-03-06T11:27:24Z</time>
      </trkpt>
      <trkpt lat="46.52775" lon="0.33361">
        <ele>93.8</ele>
        <time>2022-03-06T11:27:25Z</time>
      </trkpt>
      <trkpt lat="46.5278" lon="0.3338">
        <ele>93</ele>
        <time>2022-03-06T11:27:27Z</time>
      </trkpt>
      <trkpt lat="46.52789" lon="0.33393">
        <ele>92.8</ele>
        <time>2022-03-06T11:27:29Z</time>
      </trkpt>
      <trkpt lat="46.52798" lon="0.33401">
        <ele>91.8</ele>
        <time>2022-03-06T11:27:31Z</time>
      </trkpt>
      <trkpt lat="46.52802" lon="0.33402">
        <ele>91.6</ele>
        <time>2022-03-06T11:27:32Z</time>
      </trkpt>
      <trkpt lat="46.52806" lon="0.33402">
        <ele>91.6</ele>
        <time>2022-03-06T11:27:33Z</time>
      </trkpt>
      <trkpt lat="46.52826" lon="0.33398">
        <ele>91.2</ele>
        <time>2022-03-06T11:27:37Z</time>
      </trkpt>
      <trkpt lat="46.52831" lon="0.33397">
        <ele>91.2</ele>
        <time>2022-03-06T11:27:38Z</time>
      </trkpt>
      <trkpt lat="46.52849" lon="0.33398">
        <ele>91.4</ele>
        <time>2022-03-06T11:27:41Z</time>
      </trkpt>
      <trkpt lat="46.52859" lon="0.33401">
        <ele>91.6</ele>
        <time>2022-03-06T11:27:43Z</time>
      </trkpt>
      <trkpt lat="46.52866" lon="0.33405">
        <ele>91.8</ele>
        <time>2022-03-06T11:27:45Z</time>
      </trkpt>
      <trkpt lat="46.52874" lon="0.33409">
        <ele>92.8</ele>
        <time>2022-03-06T11:27:47Z</time>
      </trkpt>
      <trkpt lat="46.52887" lon="0.33413">
        <ele>93.8</ele>
        <time>2022-03-06T11:27:51Z</time>
      </trkpt>
      <trkpt lat="46.52898" lon="0.33415">
        <ele>94.4</ele>
        <time>2022-03-06T11:27:54Z</time>
      </trkpt>
      <trkpt lat="46.52902" lon="0.33415">
        <ele>94.8</ele>
        <time>2022-03-06T11:27:55Z</time>
      </trkpt>
      <trkpt lat="46.52918" lon="0.33421">
        <ele>95.8</ele>
        <time>2022-03-06T11:28:00Z</time>
      </trkpt>
      <trkpt lat="46.52933" lon="0.33421">
        <ele>97</ele>
        <time>2022-03-06T11:28:05Z</time>
      </trkpt>
      <trkpt lat="46.52938" lon="0.33421">
        <ele>97.4</ele>
        <time>2022-03-06T11:28:07Z</time>
      </trkpt>
      <trkpt lat="46.5295" lon="0.3342">
        <ele>98</ele>
        <time>2022-03-06T11:28:11Z</time>
      </trkpt>
      <trkpt lat="46.52961" lon="0.33418">
        <ele>98.8</ele>
        <time>2022-03-06T11:28:15Z</time>
      </trkpt>
      <trkpt lat="46.52966" lon="0.33416">
        <ele>99.2</ele>
        <time>2022-03-06T11:28:18Z</time>
      </trkpt>
      <trkpt lat="46.52971" lon="0.33413">
        <ele>99.8</ele>
        <time>2022-03-06T11:28:21Z</time>
      </trkpt>
      <trkpt lat="46.52975" lon="0.33412">
        <ele>100.2</ele>
        <time>2022-03-06T11:28:23Z</time>
      </trkpt>
      <trkpt lat="46.52982" lon="0.33409">
        <ele>101</ele>
        <time>2022-03-06T11:28:28Z</time>
      </trkpt>
      <trkpt lat="46.52983" lon="0.33408">
        <ele>101.2</ele>
        <time>2022-03-06T11:28:29Z</time>
      </trkpt>
      <trkpt lat="46.52991" lon="0.33405">
        <ele>102.2</ele>
        <time>2022-03-06T11:28:34Z</time>
      </trkpt>
      <trkpt lat="46.52992" lon="0.33404">
        <ele>102.2</ele>
        <time>2022-03-06T11:28:35Z</time>
      </trkpt>
      <trkpt lat="46.52994" lon="0.33402">
        <ele>102.6</ele>
        <time>2022-03-06T11:28:36Z</time>
      </trkpt>
      <trkpt lat="46.53" lon="0.33399">
        <ele>103.4</ele>
        <time>2022-03-06T11:28:39Z</time>
      </trkpt>
      <trkpt lat="46.53008" lon="0.33396">
        <ele>103.8</ele>
        <time>2022-03-06T11:28:43Z</time>
      </trkpt>
      <trkpt lat="46.53015" lon="0.33394">
        <ele>104.4</ele>
        <time>2022-03-06T11:28:47Z</time>
      </trkpt>
      <trkpt lat="46.53022" lon="0.33393">
        <ele>105.2</ele>
        <time>2022-03-06T11:28:51Z</time>
      </trkpt>
      <trkpt lat="46.53031" lon="0.33388">
        <ele>105.6</ele>
        <time>2022-03-06T11:28:56Z</time>
      </trkpt>
      <trkpt lat="46.53036" lon="0.33386">
        <ele>106.4</ele>
        <time>2022-03-06T11:28:59Z</time>
      </trkpt>
      <trkpt lat="46.53042" lon="0.33384">
        <ele>106.6</ele>
        <time>2022-03-06T11:29:02Z</time>
      </trkpt>
      <trkpt lat="46.53053" lon="0.33384">
        <ele>107.2</ele>
        <time>2022-03-06T11:29:06Z</time>
      </trkpt>
      <trkpt lat="46.53063" lon="0.33385">
        <ele>107.8</ele>
        <time>2022-03-06T11:29:11Z</time>
      </trkpt>
      <trkpt lat="46.53067" lon="0.33385">
        <ele>107.8</ele>
        <time>2022-03-06T11:29:13Z</time>
      </trkpt>
      <trkpt lat="46.53077" lon="0.33382">
        <ele>108.8</ele>
        <time>2022-03-06T11:29:18Z</time>
      </trkpt>
      <trkpt lat="46.53083" lon="0.3338">
        <ele>108.8</ele>
        <time>2022-03-06T11:29:20Z</time>
      </trkpt>
      <trkpt lat="46.53098" lon="0.33376">
        <ele>109.4</ele>
        <time>2022-03-06T11:29:27Z</time>
      </trkpt>
      <trkpt lat="46.53108" lon="0.33373">
        <ele>109.8</ele>
        <time>2022-03-06T11:29:30Z</time>
      </trkpt>
      <trkpt lat="46.53119" lon="0.33373">
        <ele>110</ele>
        <time>2022-03-06T11:29:33Z</time>
      </trkpt>
      <trkpt lat="46.53132" lon="0.33376">
        <ele>110</ele>
        <time>2022-03-06T11:29:37Z</time>
      </trkpt>
      <trkpt lat="46.53135" lon="0.33378">
        <ele>110</ele>
        <time>2022-03-06T11:29:38Z</time>
      </trkpt>
      <trkpt lat="46.53152" lon="0.33392">
        <ele>109.6</ele>
        <time>2022-03-06T11:29:44Z</time>
      </trkpt>
      <trkpt lat="46.53159" lon="0.334">
        <ele>108.8</ele>
        <time>2022-03-06T11:29:47Z</time>
      </trkpt>
      <trkpt lat="46.53169" lon="0.33413">
        <ele>107.8</ele>
        <time>2022-03-06T11:29:51Z</time>
      </trkpt>
      <trkpt lat="46.53171" lon="0.33417">
        <ele>107.6</ele>
        <time>2022-03-06T11:29:52Z</time>
      </trkpt>
      <trkpt lat="46.53182" lon="0.33433">
        <ele>106.8</ele>
        <time>2022-03-06T11:29:56Z</time>
      </trkpt>
      <trkpt lat="46.53185" lon="0.33437">
        <ele>106.6</ele>
        <time>2022-03-06T11:29:57Z</time>
      </trkpt>
      <trkpt lat="46.53196" lon="0.33459">
        <ele>105.4</ele>
        <time>2022-03-06T11:30:02Z</time>
      </trkpt>
      <trkpt lat="46.53198" lon="0.33463">
        <ele>105</ele>
        <time>2022-03-06T11:30:03Z</time>
      </trkpt>
      <trkpt lat="46.53202" lon="0.33475">
        <ele>104.2</ele>
        <time>2022-03-06T11:30:06Z</time>
      </trkpt>
      <trkpt lat="46.53205" lon="0.33482">
        <ele>104</ele>
        <time>2022-03-06T11:30:08Z</time>
      </trkpt>
      <trkpt lat="46.53215" lon="0.33497">
        <ele>103.2</ele>
        <time>2022-03-06T11:30:13Z</time>
      </trkpt>
      <trkpt lat="46.53218" lon="0.33506">
        <ele>102.6</ele>
        <time>2022-03-06T11:30:15Z</time>
      </trkpt>
      <trkpt lat="46.53227" lon="0.33522">
        <ele>102</ele>
        <time>2022-03-06T11:30:19Z</time>
      </trkpt>
      <trkpt lat="46.53229" lon="0.33526">
        <ele>102</ele>
        <time>2022-03-06T11:30:20Z</time>
      </trkpt>
      <trkpt lat="46.5324" lon="0.33544">
        <ele>101.6</ele>
        <time>2022-03-06T11:30:25Z</time>
      </trkpt>
      <trkpt lat="46.53247" lon="0.3356">
        <ele>101.4</ele>
        <time>2022-03-06T11:30:30Z</time>
      </trkpt>
      <trkpt lat="46.53255" lon="0.33565">
        <ele>101.4</ele>
        <time>2022-03-06T11:30:33Z</time>
      </trkpt>
      <trkpt lat="46.53256" lon="0.33568">
        <ele>101.4</ele>
        <time>2022-03-06T11:30:34Z</time>
      </trkpt>
      <trkpt lat="46.53257" lon="0.33571">
        <ele>101.4</ele>
        <time>2022-03-06T11:30:35Z</time>
      </trkpt>
      <trkpt lat="46.53254" lon="0.3358">
        <ele>101.2</ele>
        <time>2022-03-06T11:30:38Z</time>
      </trkpt>
      <trkpt lat="46.53254" lon="0.33584">
        <ele>101.2</ele>
        <time>2022-03-06T11:30:39Z</time>
      </trkpt>
      <trkpt lat="46.53255" lon="0.33588">
        <ele>101</ele>
        <time>2022-03-06T11:30:40Z</time>
      </trkpt>
      <trkpt lat="46.53257" lon="0.33591">
        <ele>101</ele>
        <time>2022-03-06T11:30:41Z</time>
      </trkpt>
      <trkpt lat="46.53271" lon="0.33602">
        <ele>100.8</ele>
        <time>2022-03-06T11:30:46Z</time>
      </trkpt>
      <trkpt lat="46.53284" lon="0.33603">
        <ele>101</ele>
        <time>2022-03-06T11:30:50Z</time>
      </trkpt>
      <trkpt lat="46.53285" lon="0.33594">
        <ele>101.2</ele>
        <time>2022-03-06T11:30:53Z</time>
      </trkpt>
      <trkpt lat="46.53286" lon="0.33582">
        <ele>101.6</ele>
        <time>2022-03-06T11:30:58Z</time>
      </trkpt>
      <trkpt lat="46.53288" lon="0.3358">
        <ele>102</ele>
        <time>2022-03-06T11:31:00Z</time>
      </trkpt>
      <trkpt lat="46.53292" lon="0.33578">
        <ele>102.4</ele>
        <time>2022-03-06T11:31:03Z</time>
      </trkpt>
      <trkpt lat="46.53292" lon="0.33577">
        <ele>102.4</ele>
        <time>2022-03-06T11:31:04Z</time>
      </trkpt>
    </trkseg>
  </trk>
</gpx>